<?xml version="1.0" encoding="UTF-8" standalone="no" ?>
<gpx xmlns="http://www.topografix.com/GPX/1/1" xmlns:xsi="http://www.w3.org/2001/XMLSchema-instance" xsi:schemaLocation="http://www.topografix.com/GPX/1/1 http://www.topografix.com/GPX/1/1/gpx.xsd" version="1.1" creator="VisuGPX - https://www.visugpx.com">
  <metadata>
    <name>Edirne-Mostar</name>
  </metadata>
  <trk>
    <name><![CDATA[Tour d'Europe: étape 650]]></name>
    <extensions>
      <line xmlns="http://www.topografix.com/GPX/gpx_style/0/2">
        <color>008888</color>
        <width>4</width>
      </line>
    </extensions>
    <trkseg>
      <trkpt lat="42.27847" lon="22.68861">
        <ele>565.279055</ele>
        <time>2022-04-09T07:23:21.696Z</time>
      </trkpt>
      <trkpt lat="42.27851" lon="22.68881">
        <ele>565.279055</ele>
        <time>2022-04-09T07:23:22.586Z</time>
      </trkpt>
      <trkpt lat="42.27845" lon="22.68895">
        <ele>565.279055</ele>
        <time>2022-04-09T07:23:23.576Z</time>
      </trkpt>
      <trkpt lat="42.27871" lon="22.68884">
        <ele>565.279055</ele>
        <time>2022-04-09T07:23:25.193Z</time>
      </trkpt>
      <trkpt lat="42.27885" lon="22.68873">
        <ele>565.279055</ele>
        <time>2022-04-09T07:23:26.192Z</time>
      </trkpt>
      <trkpt lat="42.27895" lon="22.6889">
        <ele>565.279055</ele>
        <time>2022-04-09T07:43:33.190Z</time>
      </trkpt>
      <trkpt lat="42.27901" lon="22.68906">
        <ele>566.156019</ele>
        <time>2022-04-09T07:43:36.184Z</time>
      </trkpt>
      <trkpt lat="42.27901" lon="22.68919">
        <ele>567.04819</ele>
        <time>2022-04-09T07:43:38.243Z</time>
      </trkpt>
      <trkpt lat="42.27903" lon="22.68935">
        <ele>568.105734</ele>
        <time>2022-04-09T07:43:41.186Z</time>
      </trkpt>
      <trkpt lat="42.27912" lon="22.68942">
        <ele>569.052353</ele>
        <time>2022-04-09T07:43:51.185Z</time>
      </trkpt>
      <trkpt lat="42.2792" lon="22.68934">
        <ele>569.904549</ele>
        <time>2022-04-09T07:43:54.171Z</time>
      </trkpt>
      <trkpt lat="42.27928" lon="22.68927">
        <ele>570.782885</ele>
        <time>2022-04-09T07:43:57.192Z</time>
      </trkpt>
      <trkpt lat="42.27937" lon="22.68918">
        <ele>571.836124</ele>
        <time>2022-04-09T07:44:01.187Z</time>
      </trkpt>
      <trkpt lat="42.27944" lon="22.68907">
        <ele>572.735112</ele>
        <time>2022-04-09T07:44:05.255Z</time>
      </trkpt>
      <trkpt lat="42.27952" lon="22.689">
        <ele>573.587546</ele>
        <time>2022-04-09T07:44:10.197Z</time>
      </trkpt>
      <trkpt lat="42.27961" lon="22.68896">
        <ele>574.504679</ele>
        <time>2022-04-09T07:44:14.190Z</time>
      </trkpt>
      <trkpt lat="42.27972" lon="22.68888">
        <ele>575.597358</ele>
        <time>2022-04-09T07:44:18.188Z</time>
      </trkpt>
      <trkpt lat="42.27983" lon="22.68881">
        <ele>576.708538</ele>
        <time>2022-04-09T07:44:21.224Z</time>
      </trkpt>
      <trkpt lat="42.27994" lon="22.68874">
        <ele>577.776886</ele>
        <time>2022-04-09T07:44:24.206Z</time>
      </trkpt>
      <trkpt lat="42.28003" lon="22.68867">
        <ele>578.691951</ele>
        <time>2022-04-09T07:44:27.180Z</time>
      </trkpt>
      <trkpt lat="42.28014" lon="22.6886">
        <ele>579.82569</ele>
        <time>2022-04-09T07:44:31.202Z</time>
      </trkpt>
      <trkpt lat="42.28025" lon="22.68852">
        <ele>580.946206</ele>
        <time>2022-04-09T07:44:34.180Z</time>
      </trkpt>
      <trkpt lat="42.28035" lon="22.68846">
        <ele>581.397991</ele>
        <time>2022-04-09T07:44:37.198Z</time>
      </trkpt>
      <trkpt lat="42.28046" lon="22.68842">
        <ele>581.307988</ele>
        <time>2022-04-09T07:44:40.198Z</time>
      </trkpt>
      <trkpt lat="42.28058" lon="22.68838">
        <ele>581.221962</ele>
        <time>2022-04-09T07:44:43.196Z</time>
      </trkpt>
      <trkpt lat="42.28067" lon="22.68834">
        <ele>581.146259</ele>
        <time>2022-04-09T07:44:46.223Z</time>
      </trkpt>
      <trkpt lat="42.28075" lon="22.68828">
        <ele>581.079856</ele>
        <time>2022-04-09T07:44:49.201Z</time>
      </trkpt>
      <trkpt lat="42.28086" lon="22.68822">
        <ele>580.991404</ele>
        <time>2022-04-09T07:44:53.241Z</time>
      </trkpt>
      <trkpt lat="42.28098" lon="22.68817">
        <ele>580.905259</ele>
        <time>2022-04-09T07:44:57.160Z</time>
      </trkpt>
      <trkpt lat="42.28107" lon="22.68813">
        <ele>580.832535</ele>
        <time>2022-04-09T07:45:00.165Z</time>
      </trkpt>
      <trkpt lat="42.28118" lon="22.68816">
        <ele>580.745979</ele>
        <time>2022-04-09T07:45:04.190Z</time>
      </trkpt>
      <trkpt lat="42.28126" lon="22.68827">
        <ele>580.665991</ele>
        <time>2022-04-09T07:45:08.203Z</time>
      </trkpt>
      <trkpt lat="42.28134" lon="22.68818">
        <ele>580.585852</ele>
        <time>2022-04-09T07:45:14.199Z</time>
      </trkpt>
      <trkpt lat="42.28141" lon="22.68806">
        <ele>580.503543</ele>
        <time>2022-04-09T07:45:19.196Z</time>
      </trkpt>
      <trkpt lat="42.28148" lon="22.68796">
        <ele>580.429596</ele>
        <time>2022-04-09T07:45:23.183Z</time>
      </trkpt>
      <trkpt lat="42.28156" lon="22.6879">
        <ele>580.3593</ele>
        <time>2022-04-09T07:45:26.201Z</time>
      </trkpt>
      <trkpt lat="42.28164" lon="22.68784">
        <ele>580.293381</ele>
        <time>2022-04-09T07:45:29.208Z</time>
      </trkpt>
      <trkpt lat="42.28174" lon="22.68782">
        <ele>580.218505</ele>
        <time>2022-04-09T07:45:32.188Z</time>
      </trkpt>
      <trkpt lat="42.28184" lon="22.68778">
        <ele>580.141624</ele>
        <time>2022-04-09T07:45:35.195Z</time>
      </trkpt>
      <trkpt lat="42.28194" lon="22.68776">
        <ele>580.167687</ele>
        <time>2022-04-09T07:45:38.196Z</time>
      </trkpt>
      <trkpt lat="42.28202" lon="22.68772">
        <ele>580.285764</ele>
        <time>2022-04-09T07:45:41.183Z</time>
      </trkpt>
      <trkpt lat="42.28211" lon="22.68766">
        <ele>580.410467</ele>
        <time>2022-04-09T07:45:43.173Z</time>
      </trkpt>
      <trkpt lat="42.28219" lon="22.6876">
        <ele>580.526443</ele>
        <time>2022-04-09T07:45:45.211Z</time>
      </trkpt>
      <trkpt lat="42.28229" lon="22.68754">
        <ele>580.663394</ele>
        <time>2022-04-09T07:45:48.199Z</time>
      </trkpt>
      <trkpt lat="42.28238" lon="22.68749">
        <ele>580.782737</ele>
        <time>2022-04-09T07:45:51.187Z</time>
      </trkpt>
      <trkpt lat="42.28246" lon="22.68743">
        <ele>580.896483</ele>
        <time>2022-04-09T07:45:54.221Z</time>
      </trkpt>
      <trkpt lat="42.28254" lon="22.68735">
        <ele>581.031716</ele>
        <time>2022-04-09T07:45:57.189Z</time>
      </trkpt>
      <trkpt lat="42.28265" lon="22.68727">
        <ele>581.177307</ele>
        <time>2022-04-09T07:46:00.178Z</time>
      </trkpt>
      <trkpt lat="42.28273" lon="22.68722">
        <ele>581.296946</ele>
        <time>2022-04-09T07:46:03.183Z</time>
      </trkpt>
      <trkpt lat="42.28281" lon="22.68715">
        <ele>581.411748</ele>
        <time>2022-04-09T07:46:06.194Z</time>
      </trkpt>
      <trkpt lat="42.2829" lon="22.68707">
        <ele>581.547088</ele>
        <time>2022-04-09T07:46:09.192Z</time>
      </trkpt>
      <trkpt lat="42.283" lon="22.687">
        <ele>581.688943</ele>
        <time>2022-04-09T07:46:12.184Z</time>
      </trkpt>
      <trkpt lat="42.28308" lon="22.68696">
        <ele>581.803772</ele>
        <time>2022-04-09T07:46:14.196Z</time>
      </trkpt>
      <trkpt lat="42.2832" lon="22.68689">
        <ele>581.97273</ele>
        <time>2022-04-09T07:46:17.193Z</time>
      </trkpt>
      <trkpt lat="42.28329" lon="22.68684">
        <ele>582.087329</ele>
        <time>2022-04-09T07:46:19.171Z</time>
      </trkpt>
      <trkpt lat="42.28338" lon="22.68676">
        <ele>582.228903</ele>
        <time>2022-04-09T07:46:22.194Z</time>
      </trkpt>
      <trkpt lat="42.28346" lon="22.68669">
        <ele>582.343239</ele>
        <time>2022-04-09T07:46:25.220Z</time>
      </trkpt>
      <trkpt lat="42.28353" lon="22.68662">
        <ele>582.167676</ele>
        <time>2022-04-09T07:46:28.245Z</time>
      </trkpt>
      <trkpt lat="42.2836" lon="22.68653">
        <ele>581.850681</ele>
        <time>2022-04-09T07:46:31.225Z</time>
      </trkpt>
      <trkpt lat="42.28368" lon="22.68648">
        <ele>581.523552</ele>
        <time>2022-04-09T07:46:34.192Z</time>
      </trkpt>
      <trkpt lat="42.28378" lon="22.68642">
        <ele>581.148156</ele>
        <time>2022-04-09T07:46:37.193Z</time>
      </trkpt>
      <trkpt lat="42.28388" lon="22.68635">
        <ele>580.77157</ele>
        <time>2022-04-09T07:46:40.180Z</time>
      </trkpt>
      <trkpt lat="42.28389" lon="22.68622">
        <ele>580.431234</ele>
        <time>2022-04-09T07:46:44.201Z</time>
      </trkpt>
      <trkpt lat="42.28387" lon="22.68609">
        <ele>580.070944</ele>
        <time>2022-04-09T07:46:48.220Z</time>
      </trkpt>
      <trkpt lat="42.28382" lon="22.68593">
        <ele>579.651991</ele>
        <time>2022-04-09T07:46:52.205Z</time>
      </trkpt>
      <trkpt lat="42.28378" lon="22.68579">
        <ele>579.266124</ele>
        <time>2022-04-09T07:46:55.192Z</time>
      </trkpt>
      <trkpt lat="42.28373" lon="22.68566">
        <ele>578.889622</ele>
        <time>2022-04-09T07:46:58.221Z</time>
      </trkpt>
      <trkpt lat="42.28369" lon="22.68553">
        <ele>578.53499</ele>
        <time>2022-04-09T07:47:01.179Z</time>
      </trkpt>
      <trkpt lat="42.28364" lon="22.68541">
        <ele>578.175641</ele>
        <time>2022-04-09T07:47:04.196Z</time>
      </trkpt>
      <trkpt lat="42.2836" lon="22.68529">
        <ele>577.841437</ele>
        <time>2022-04-09T07:47:07.176Z</time>
      </trkpt>
      <trkpt lat="42.28355" lon="22.68517">
        <ele>577.505532</ele>
        <time>2022-04-09T07:47:10.193Z</time>
      </trkpt>
      <trkpt lat="42.2835" lon="22.68504">
        <ele>577.103221</ele>
        <time>2022-04-09T07:47:14.189Z</time>
      </trkpt>
      <trkpt lat="42.28346" lon="22.6849">
        <ele>576.744081</ele>
        <time>2022-04-09T07:47:17.192Z</time>
      </trkpt>
      <trkpt lat="42.28342" lon="22.68478">
        <ele>576.401408</ele>
        <time>2022-04-09T07:47:20.198Z</time>
      </trkpt>
      <trkpt lat="42.28338" lon="22.68466">
        <ele>576.342215</ele>
        <time>2022-04-09T07:47:23.171Z</time>
      </trkpt>
      <trkpt lat="42.28335" lon="22.68454">
        <ele>576.835937</ele>
        <time>2022-04-09T07:47:26.183Z</time>
      </trkpt>
      <trkpt lat="42.28332" lon="22.6844">
        <ele>577.424094</ele>
        <time>2022-04-09T07:47:30.177Z</time>
      </trkpt>
      <trkpt lat="42.28329" lon="22.68426">
        <ele>578.020102</ele>
        <time>2022-04-09T07:47:34.190Z</time>
      </trkpt>
      <trkpt lat="42.28323" lon="22.68411">
        <ele>578.674296</ele>
        <time>2022-04-09T07:47:38.195Z</time>
      </trkpt>
      <trkpt lat="42.28319" lon="22.684">
        <ele>579.180636</ele>
        <time>2022-04-09T07:47:41.221Z</time>
      </trkpt>
      <trkpt lat="42.28315" lon="22.68387">
        <ele>579.702375</ele>
        <time>2022-04-09T07:47:44.200Z</time>
      </trkpt>
      <trkpt lat="42.28311" lon="22.68373">
        <ele>580.316541</ele>
        <time>2022-04-09T07:47:47.192Z</time>
      </trkpt>
      <trkpt lat="42.28307" lon="22.68359">
        <ele>580.921483</ele>
        <time>2022-04-09T07:47:50.168Z</time>
      </trkpt>
      <trkpt lat="42.28303" lon="22.68345">
        <ele>581.486194</ele>
        <time>2022-04-09T07:47:53.205Z</time>
      </trkpt>
      <trkpt lat="42.283" lon="22.68332">
        <ele>582.033664</ele>
        <time>2022-04-09T07:47:56.196Z</time>
      </trkpt>
      <trkpt lat="42.28296" lon="22.68321">
        <ele>582.520498</ele>
        <time>2022-04-09T07:47:59.180Z</time>
      </trkpt>
      <trkpt lat="42.28292" lon="22.68309">
        <ele>583.03337</ele>
        <time>2022-04-09T07:48:02.204Z</time>
      </trkpt>
      <trkpt lat="42.28288" lon="22.68295">
        <ele>583.650394</ele>
        <time>2022-04-09T07:48:05.179Z</time>
      </trkpt>
      <trkpt lat="42.28284" lon="22.68281">
        <ele>584.223913</ele>
        <time>2022-04-09T07:48:08.181Z</time>
      </trkpt>
      <trkpt lat="42.28281" lon="22.68269">
        <ele>584.736109</ele>
        <time>2022-04-09T07:48:11.214Z</time>
      </trkpt>
      <trkpt lat="42.28277" lon="22.68255">
        <ele>585.324986</ele>
        <time>2022-04-09T07:48:14.184Z</time>
      </trkpt>
      <trkpt lat="42.28271" lon="22.68243">
        <ele>585.76547</ele>
        <time>2022-04-09T07:48:17.181Z</time>
      </trkpt>
      <trkpt lat="42.28268" lon="22.6823">
        <ele>585.600798</ele>
        <time>2022-04-09T07:48:20.167Z</time>
      </trkpt>
      <trkpt lat="42.28264" lon="22.68217">
        <ele>585.424604</ele>
        <time>2022-04-09T07:48:23.181Z</time>
      </trkpt>
      <trkpt lat="42.2826" lon="22.68205">
        <ele>585.264679</ele>
        <time>2022-04-09T07:48:26.185Z</time>
      </trkpt>
      <trkpt lat="42.28255" lon="22.68192">
        <ele>585.096077</ele>
        <time>2022-04-09T07:48:29.245Z</time>
      </trkpt>
      <trkpt lat="42.28251" lon="22.68179">
        <ele>584.924579</ele>
        <time>2022-04-09T07:48:32.194Z</time>
      </trkpt>
      <trkpt lat="42.28248" lon="22.68167">
        <ele>584.764452</ele>
        <time>2022-04-09T07:48:35.181Z</time>
      </trkpt>
      <trkpt lat="42.28242" lon="22.68153">
        <ele>584.575525</ele>
        <time>2022-04-09T07:48:39.195Z</time>
      </trkpt>
      <trkpt lat="42.28238" lon="22.68142">
        <ele>584.416049</ele>
        <time>2022-04-09T07:48:42.188Z</time>
      </trkpt>
      <trkpt lat="42.28234" lon="22.6813">
        <ele>584.252943</ele>
        <time>2022-04-09T07:48:45.176Z</time>
      </trkpt>
      <trkpt lat="42.2823" lon="22.68116">
        <ele>584.080745</ele>
        <time>2022-04-09T07:48:48.183Z</time>
      </trkpt>
      <trkpt lat="42.28226" lon="22.68104">
        <ele>583.913028</ele>
        <time>2022-04-09T07:48:51.201Z</time>
      </trkpt>
      <trkpt lat="42.28221" lon="22.68091">
        <ele>583.744661</ele>
        <time>2022-04-09T07:48:54.183Z</time>
      </trkpt>
      <trkpt lat="42.28218" lon="22.68079">
        <ele>583.58429</ele>
        <time>2022-04-09T07:48:57.219Z</time>
      </trkpt>
      <trkpt lat="42.28213" lon="22.68069">
        <ele>583.437061</ele>
        <time>2022-04-09T07:49:00.202Z</time>
      </trkpt>
      <trkpt lat="42.28209" lon="22.68057">
        <ele>583.285571</ele>
        <time>2022-04-09T07:49:03.170Z</time>
      </trkpt>
      <trkpt lat="42.28206" lon="22.68045">
        <ele>583.127145</ele>
        <time>2022-04-09T07:49:06.214Z</time>
      </trkpt>
      <trkpt lat="42.28202" lon="22.68033">
        <ele>582.974994</ele>
        <time>2022-04-09T07:49:09.197Z</time>
      </trkpt>
      <trkpt lat="42.28199" lon="22.68019">
        <ele>582.865913</ele>
        <time>2022-04-09T07:49:13.177Z</time>
      </trkpt>
      <trkpt lat="42.28195" lon="22.68005">
        <ele>582.952216</ele>
        <time>2022-04-09T07:49:17.191Z</time>
      </trkpt>
      <trkpt lat="42.28192" lon="22.67992">
        <ele>583.030058</ele>
        <time>2022-04-09T07:49:21.181Z</time>
      </trkpt>
      <trkpt lat="42.28188" lon="22.6798">
        <ele>583.104119</ele>
        <time>2022-04-09T07:49:25.233Z</time>
      </trkpt>
      <trkpt lat="42.28184" lon="22.67966">
        <ele>583.189591</ele>
        <time>2022-04-09T07:49:29.200Z</time>
      </trkpt>
      <trkpt lat="42.28181" lon="22.67954">
        <ele>583.263393</ele>
        <time>2022-04-09T07:49:32.174Z</time>
      </trkpt>
      <trkpt lat="42.28178" lon="22.67942">
        <ele>583.340964</ele>
        <time>2022-04-09T07:49:35.169Z</time>
      </trkpt>
      <trkpt lat="42.28174" lon="22.67929">
        <ele>583.421782</ele>
        <time>2022-04-09T07:49:38.212Z</time>
      </trkpt>
      <trkpt lat="42.2817" lon="22.67916">
        <ele>583.499748</ele>
        <time>2022-04-09T07:49:41.199Z</time>
      </trkpt>
      <trkpt lat="42.28166" lon="22.67903">
        <ele>583.578705</ele>
        <time>2022-04-09T07:49:44.219Z</time>
      </trkpt>
      <trkpt lat="42.28162" lon="22.67891">
        <ele>583.659023</ele>
        <time>2022-04-09T07:49:47.228Z</time>
      </trkpt>
      <trkpt lat="42.28157" lon="22.67877">
        <ele>583.746037</ele>
        <time>2022-04-09T07:49:50.227Z</time>
      </trkpt>
      <trkpt lat="42.28152" lon="22.67862">
        <ele>583.840805</ele>
        <time>2022-04-09T07:49:53.173Z</time>
      </trkpt>
      <trkpt lat="42.28148" lon="22.67851">
        <ele>583.911648</ele>
        <time>2022-04-09T07:49:55.178Z</time>
      </trkpt>
      <trkpt lat="42.28145" lon="22.67835">
        <ele>584.006067</ele>
        <time>2022-04-09T07:49:58.198Z</time>
      </trkpt>
      <trkpt lat="42.28141" lon="22.67823">
        <ele>584.084736</ele>
        <time>2022-04-09T07:50:01.186Z</time>
      </trkpt>
      <trkpt lat="42.28138" lon="22.6781">
        <ele>584.162608</ele>
        <time>2022-04-09T07:50:04.194Z</time>
      </trkpt>
      <trkpt lat="42.28135" lon="22.67798">
        <ele>584.233483</ele>
        <time>2022-04-09T07:50:07.199Z</time>
      </trkpt>
      <trkpt lat="42.28131" lon="22.67783">
        <ele>584.656656</ele>
        <time>2022-04-09T07:50:11.265Z</time>
      </trkpt>
      <trkpt lat="42.28127" lon="22.67772">
        <ele>585.003169</ele>
        <time>2022-04-09T07:50:14.164Z</time>
      </trkpt>
      <trkpt lat="42.28123" lon="22.67757">
        <ele>585.471964</ele>
        <time>2022-04-09T07:50:18.169Z</time>
      </trkpt>
      <trkpt lat="42.28118" lon="22.67745">
        <ele>585.862619</ele>
        <time>2022-04-09T07:50:21.181Z</time>
      </trkpt>
      <trkpt lat="42.28113" lon="22.67734">
        <ele>586.21958</ele>
        <time>2022-04-09T07:50:24.181Z</time>
      </trkpt>
      <trkpt lat="42.28109" lon="22.67719">
        <ele>586.666688</ele>
        <time>2022-04-09T07:50:28.160Z</time>
      </trkpt>
      <trkpt lat="42.28104" lon="22.67704">
        <ele>587.130596</ele>
        <time>2022-04-09T07:50:32.193Z</time>
      </trkpt>
      <trkpt lat="42.281" lon="22.67693">
        <ele>587.502736</ele>
        <time>2022-04-09T07:50:35.194Z</time>
      </trkpt>
      <trkpt lat="42.28096" lon="22.67681">
        <ele>587.872295</ele>
        <time>2022-04-09T07:50:38.195Z</time>
      </trkpt>
      <trkpt lat="42.28093" lon="22.67668">
        <ele>588.252471</ele>
        <time>2022-04-09T07:50:41.178Z</time>
      </trkpt>
      <trkpt lat="42.2809" lon="22.67655">
        <ele>588.647808</ele>
        <time>2022-04-09T07:50:44.186Z</time>
      </trkpt>
      <trkpt lat="42.28087" lon="22.67641">
        <ele>589.070341</ele>
        <time>2022-04-09T07:50:48.202Z</time>
      </trkpt>
      <trkpt lat="42.28083" lon="22.67628">
        <ele>589.476557</ele>
        <time>2022-04-09T07:50:51.193Z</time>
      </trkpt>
      <trkpt lat="42.28078" lon="22.67615">
        <ele>589.890493</ele>
        <time>2022-04-09T07:50:54.179Z</time>
      </trkpt>
      <trkpt lat="42.28074" lon="22.67602">
        <ele>590.291786</ele>
        <time>2022-04-09T07:50:57.203Z</time>
      </trkpt>
      <trkpt lat="42.2807" lon="22.6759">
        <ele>590.673463</ele>
        <time>2022-04-09T07:51:00.222Z</time>
      </trkpt>
      <trkpt lat="42.28066" lon="22.67578">
        <ele>591.049888</ele>
        <time>2022-04-09T07:51:03.176Z</time>
      </trkpt>
      <trkpt lat="42.28061" lon="22.67567">
        <ele>591.227338</ele>
        <time>2022-04-09T07:51:06.211Z</time>
      </trkpt>
      <trkpt lat="42.28055" lon="22.67553">
        <ele>591.315189</ele>
        <time>2022-04-09T07:51:10.192Z</time>
      </trkpt>
      <trkpt lat="42.28052" lon="22.67541">
        <ele>591.383166</ele>
        <time>2022-04-09T07:51:13.193Z</time>
      </trkpt>
      <trkpt lat="42.28049" lon="22.67529">
        <ele>591.453195</ele>
        <time>2022-04-09T07:51:16.198Z</time>
      </trkpt>
      <trkpt lat="42.28046" lon="22.67516">
        <ele>591.526263</ele>
        <time>2022-04-09T07:51:19.184Z</time>
      </trkpt>
      <trkpt lat="42.28042" lon="22.67504">
        <ele>591.601129</ele>
        <time>2022-04-09T07:51:22.205Z</time>
      </trkpt>
      <trkpt lat="42.28038" lon="22.67492">
        <ele>591.675809</ele>
        <time>2022-04-09T07:51:25.189Z</time>
      </trkpt>
      <trkpt lat="42.28034" lon="22.6748">
        <ele>591.745569</ele>
        <time>2022-04-09T07:51:28.196Z</time>
      </trkpt>
      <trkpt lat="42.28029" lon="22.67466">
        <ele>591.833079</ele>
        <time>2022-04-09T07:51:32.177Z</time>
      </trkpt>
      <trkpt lat="42.28025" lon="22.6745">
        <ele>591.921895</ele>
        <time>2022-04-09T07:51:36.182Z</time>
      </trkpt>
      <trkpt lat="42.2802" lon="22.6744">
        <ele>591.989578</ele>
        <time>2022-04-09T07:51:39.182Z</time>
      </trkpt>
      <trkpt lat="42.28016" lon="22.67429">
        <ele>592.057035</ele>
        <time>2022-04-09T07:51:42.185Z</time>
      </trkpt>
      <trkpt lat="42.28013" lon="22.67417">
        <ele>592.124511</ele>
        <time>2022-04-09T07:51:45.233Z</time>
      </trkpt>
      <trkpt lat="42.28008" lon="22.67405">
        <ele>592.203126</ele>
        <time>2022-04-09T07:51:48.244Z</time>
      </trkpt>
      <trkpt lat="42.28003" lon="22.67392">
        <ele>592.279933</ele>
        <time>2022-04-09T07:51:51.239Z</time>
      </trkpt>
      <trkpt lat="42.28002" lon="22.6738">
        <ele>592.349674</ele>
        <time>2022-04-09T07:51:54.209Z</time>
      </trkpt>
      <trkpt lat="42.27997" lon="22.67364">
        <ele>592.443217</ele>
        <time>2022-04-09T07:51:57.167Z</time>
      </trkpt>
      <trkpt lat="42.27992" lon="22.6735">
        <ele>592.431534</ele>
        <time>2022-04-09T07:52:00.188Z</time>
      </trkpt>
      <trkpt lat="42.27989" lon="22.67337">
        <ele>591.762584</ele>
        <time>2022-04-09T07:52:03.273Z</time>
      </trkpt>
      <trkpt lat="42.27986" lon="22.67325">
        <ele>591.109182</ele>
        <time>2022-04-09T07:52:06.196Z</time>
      </trkpt>
      <trkpt lat="42.27989" lon="22.67312">
        <ele>590.413671</ele>
        <time>2022-04-09T07:52:09.203Z</time>
      </trkpt>
      <trkpt lat="42.27999" lon="22.67305">
        <ele>589.70555</ele>
        <time>2022-04-09T07:52:12.221Z</time>
      </trkpt>
      <trkpt lat="42.2801" lon="22.6731">
        <ele>588.919945</ele>
        <time>2022-04-09T07:52:15.200Z</time>
      </trkpt>
      <trkpt lat="42.2802" lon="22.6732">
        <ele>588.0486</ele>
        <time>2022-04-09T07:52:18.197Z</time>
      </trkpt>
      <trkpt lat="42.28029" lon="22.67328">
        <ele>587.333649</ele>
        <time>2022-04-09T07:52:20.181Z</time>
      </trkpt>
      <trkpt lat="42.28037" lon="22.67335">
        <ele>586.666076</ele>
        <time>2022-04-09T07:52:22.184Z</time>
      </trkpt>
      <trkpt lat="42.28046" lon="22.67341">
        <ele>586.02191</ele>
        <time>2022-04-09T07:52:24.179Z</time>
      </trkpt>
      <trkpt lat="42.28055" lon="22.67335">
        <ele>585.322077</ele>
        <time>2022-04-09T07:52:27.191Z</time>
      </trkpt>
      <trkpt lat="42.28056" lon="22.67321">
        <ele>584.632949</ele>
        <time>2022-04-09T07:52:29.178Z</time>
      </trkpt>
      <trkpt lat="42.28055" lon="22.67308">
        <ele>583.998221</ele>
        <time>2022-04-09T07:52:31.242Z</time>
      </trkpt>
      <trkpt lat="42.28056" lon="22.67291">
        <ele>583.114137</ele>
        <time>2022-04-09T07:52:34.191Z</time>
      </trkpt>
      <trkpt lat="42.28058" lon="22.67276">
        <ele>582.377195</ele>
        <time>2022-04-09T07:52:37.176Z</time>
      </trkpt>
      <trkpt lat="42.28061" lon="22.67261">
        <ele>581.58897</ele>
        <time>2022-04-09T07:52:40.184Z</time>
      </trkpt>
      <trkpt lat="42.28064" lon="22.67247">
        <ele>580.875487</ele>
        <time>2022-04-09T07:52:43.179Z</time>
      </trkpt>
      <trkpt lat="42.28068" lon="22.67235">
        <ele>580.588768</ele>
        <time>2022-04-09T07:52:46.196Z</time>
      </trkpt>
      <trkpt lat="42.28071" lon="22.67222">
        <ele>581.285796</ele>
        <time>2022-04-09T07:52:49.218Z</time>
      </trkpt>
      <trkpt lat="42.28074" lon="22.6721">
        <ele>581.943871</ele>
        <time>2022-04-09T07:52:52.184Z</time>
      </trkpt>
      <trkpt lat="42.28078" lon="22.67198">
        <ele>582.620062</ele>
        <time>2022-04-09T07:52:55.240Z</time>
      </trkpt>
      <trkpt lat="42.28081" lon="22.67186">
        <ele>583.302237</ele>
        <time>2022-04-09T07:52:58.200Z</time>
      </trkpt>
      <trkpt lat="42.28084" lon="22.67173">
        <ele>583.972931</ele>
        <time>2022-04-09T07:53:01.186Z</time>
      </trkpt>
      <trkpt lat="42.28086" lon="22.67162">
        <ele>584.608727</ele>
        <time>2022-04-09T07:53:04.197Z</time>
      </trkpt>
      <trkpt lat="42.2809" lon="22.67148">
        <ele>585.362979</ele>
        <time>2022-04-09T07:53:08.188Z</time>
      </trkpt>
      <trkpt lat="42.28092" lon="22.67136">
        <ele>586.004681</ele>
        <time>2022-04-09T07:53:11.178Z</time>
      </trkpt>
      <trkpt lat="42.28095" lon="22.67123">
        <ele>586.687447</ele>
        <time>2022-04-09T07:53:15.204Z</time>
      </trkpt>
      <trkpt lat="42.28096" lon="22.67107">
        <ele>587.51194</ele>
        <time>2022-04-09T07:53:19.189Z</time>
      </trkpt>
      <trkpt lat="42.28101" lon="22.67096">
        <ele>588.214237</ele>
        <time>2022-04-09T07:53:23.195Z</time>
      </trkpt>
      <trkpt lat="42.28111" lon="22.67095">
        <ele>588.870779</ele>
        <time>2022-04-09T07:53:27.171Z</time>
      </trkpt>
      <trkpt lat="42.28121" lon="22.67094">
        <ele>589.602262</ele>
        <time>2022-04-09T07:53:31.185Z</time>
      </trkpt>
      <trkpt lat="42.28133" lon="22.67093">
        <ele>590.411827</ele>
        <time>2022-04-09T07:53:35.176Z</time>
      </trkpt>
      <trkpt lat="42.28143" lon="22.67092">
        <ele>591.150633</ele>
        <time>2022-04-09T07:53:39.197Z</time>
      </trkpt>
      <trkpt lat="42.28153" lon="22.6709">
        <ele>591.875152</ele>
        <time>2022-04-09T07:53:43.182Z</time>
      </trkpt>
      <trkpt lat="42.28164" lon="22.67087">
        <ele>592.61045</ele>
        <time>2022-04-09T07:53:47.187Z</time>
      </trkpt>
      <trkpt lat="42.28174" lon="22.67084">
        <ele>593.153066</ele>
        <time>2022-04-09T07:53:51.200Z</time>
      </trkpt>
      <trkpt lat="42.28184" lon="22.67082">
        <ele>593.437054</ele>
        <time>2022-04-09T07:53:55.177Z</time>
      </trkpt>
      <trkpt lat="42.28193" lon="22.67081">
        <ele>593.687658</ele>
        <time>2022-04-09T07:53:59.177Z</time>
      </trkpt>
      <trkpt lat="42.28202" lon="22.67077">
        <ele>593.945107</ele>
        <time>2022-04-09T07:54:03.244Z</time>
      </trkpt>
      <trkpt lat="42.28213" lon="22.67074">
        <ele>594.235458</ele>
        <time>2022-04-09T07:54:07.197Z</time>
      </trkpt>
      <trkpt lat="42.28222" lon="22.67071">
        <ele>594.495548</ele>
        <time>2022-04-09T07:54:11.187Z</time>
      </trkpt>
      <trkpt lat="42.28228" lon="22.6706">
        <ele>594.77477</ele>
        <time>2022-04-09T07:54:16.180Z</time>
      </trkpt>
      <trkpt lat="42.28228" lon="22.67047">
        <ele>595.032628</ele>
        <time>2022-04-09T07:54:20.202Z</time>
      </trkpt>
      <trkpt lat="42.28227" lon="22.67034">
        <ele>595.310574</ele>
        <time>2022-04-09T07:54:24.242Z</time>
      </trkpt>
      <trkpt lat="42.28225" lon="22.67021">
        <ele>595.582958</ele>
        <time>2022-04-09T07:54:28.197Z</time>
      </trkpt>
      <trkpt lat="42.28223" lon="22.67007">
        <ele>595.855343</ele>
        <time>2022-04-09T07:54:32.172Z</time>
      </trkpt>
      <trkpt lat="42.2822" lon="22.66995">
        <ele>596.126215</ele>
        <time>2022-04-09T07:54:36.189Z</time>
      </trkpt>
      <trkpt lat="42.28218" lon="22.66982">
        <ele>596.393197</ele>
        <time>2022-04-09T07:54:40.187Z</time>
      </trkpt>
      <trkpt lat="42.28216" lon="22.6697">
        <ele>596.64513</ele>
        <time>2022-04-09T07:54:44.189Z</time>
      </trkpt>
      <trkpt lat="42.28213" lon="22.66956">
        <ele>596.931482</ele>
        <time>2022-04-09T07:54:48.192Z</time>
      </trkpt>
      <trkpt lat="42.28209" lon="22.66942">
        <ele>597.237039</ele>
        <time>2022-04-09T07:54:52.183Z</time>
      </trkpt>
      <trkpt lat="42.28205" lon="22.66929">
        <ele>597.527368</ele>
        <time>2022-04-09T07:54:56.235Z</time>
      </trkpt>
      <trkpt lat="42.28202" lon="22.66916">
        <ele>597.809256</ele>
        <time>2022-04-09T07:55:00.180Z</time>
      </trkpt>
      <trkpt lat="42.28199" lon="22.66902">
        <ele>597.996495</ele>
        <time>2022-04-09T07:55:04.193Z</time>
      </trkpt>
      <trkpt lat="42.28195" lon="22.66888">
        <ele>598.076956</ele>
        <time>2022-04-09T07:55:08.186Z</time>
      </trkpt>
      <trkpt lat="42.28192" lon="22.66873">
        <ele>598.159162</ele>
        <time>2022-04-09T07:55:12.186Z</time>
      </trkpt>
      <trkpt lat="42.28189" lon="22.66859">
        <ele>598.239704</ele>
        <time>2022-04-09T07:55:16.199Z</time>
      </trkpt>
      <trkpt lat="42.28187" lon="22.66845">
        <ele>598.32099</ele>
        <time>2022-04-09T07:55:20.183Z</time>
      </trkpt>
      <trkpt lat="42.28184" lon="22.6683">
        <ele>598.402239</ele>
        <time>2022-04-09T07:55:24.180Z</time>
      </trkpt>
      <trkpt lat="42.28181" lon="22.66816">
        <ele>598.482256</ele>
        <time>2022-04-09T07:55:28.193Z</time>
      </trkpt>
      <trkpt lat="42.28179" lon="22.66802">
        <ele>598.563783</ele>
        <time>2022-04-09T07:55:32.171Z</time>
      </trkpt>
      <trkpt lat="42.28176" lon="22.66787">
        <ele>598.64521</ele>
        <time>2022-04-09T07:55:36.185Z</time>
      </trkpt>
      <trkpt lat="42.28174" lon="22.66774">
        <ele>598.721518</ele>
        <time>2022-04-09T07:55:40.195Z</time>
      </trkpt>
      <trkpt lat="42.28171" lon="22.66759">
        <ele>598.803131</ele>
        <time>2022-04-09T07:55:44.198Z</time>
      </trkpt>
      <trkpt lat="42.28168" lon="22.66746">
        <ele>598.879566</ele>
        <time>2022-04-09T07:55:48.199Z</time>
      </trkpt>
      <trkpt lat="42.28165" lon="22.66733">
        <ele>598.956459</ele>
        <time>2022-04-09T07:55:52.169Z</time>
      </trkpt>
      <trkpt lat="42.28162" lon="22.66718">
        <ele>599.040045</ele>
        <time>2022-04-09T07:55:56.203Z</time>
      </trkpt>
      <trkpt lat="42.2816" lon="22.66703">
        <ele>599.12573</ele>
        <time>2022-04-09T07:56:00.175Z</time>
      </trkpt>
      <trkpt lat="42.28157" lon="22.66688">
        <ele>599.20734</ele>
        <time>2022-04-09T07:56:04.182Z</time>
      </trkpt>
      <trkpt lat="42.28156" lon="22.66676">
        <ele>599.275445</ele>
        <time>2022-04-09T07:56:07.197Z</time>
      </trkpt>
      <trkpt lat="42.28153" lon="22.66661">
        <ele>599.684997</ele>
        <time>2022-04-09T07:56:11.180Z</time>
      </trkpt>
      <trkpt lat="42.28151" lon="22.66646">
        <ele>600.118949</ele>
        <time>2022-04-09T07:56:15.180Z</time>
      </trkpt>
      <trkpt lat="42.28149" lon="22.66632">
        <ele>600.555296</ele>
        <time>2022-04-09T07:56:19.188Z</time>
      </trkpt>
      <trkpt lat="42.28146" lon="22.66618">
        <ele>600.999823</ele>
        <time>2022-04-09T07:56:23.183Z</time>
      </trkpt>
      <trkpt lat="42.28143" lon="22.66603">
        <ele>601.445161</ele>
        <time>2022-04-09T07:56:27.191Z</time>
      </trkpt>
      <trkpt lat="42.2814" lon="22.6659">
        <ele>601.869926</ele>
        <time>2022-04-09T07:56:31.202Z</time>
      </trkpt>
      <trkpt lat="42.28137" lon="22.66575">
        <ele>602.325481</ele>
        <time>2022-04-09T07:56:35.192Z</time>
      </trkpt>
      <trkpt lat="42.28134" lon="22.66561">
        <ele>602.759433</ele>
        <time>2022-04-09T07:56:39.188Z</time>
      </trkpt>
      <trkpt lat="42.28132" lon="22.66547">
        <ele>603.174189</ele>
        <time>2022-04-09T07:56:43.238Z</time>
      </trkpt>
      <trkpt lat="42.28129" lon="22.66533">
        <ele>603.613964</ele>
        <time>2022-04-09T07:56:47.191Z</time>
      </trkpt>
      <trkpt lat="42.28127" lon="22.66521">
        <ele>603.977982</ele>
        <time>2022-04-09T07:56:51.190Z</time>
      </trkpt>
      <trkpt lat="42.28124" lon="22.66509">
        <ele>604.360196</ele>
        <time>2022-04-09T07:56:55.191Z</time>
      </trkpt>
      <trkpt lat="42.28122" lon="22.66495">
        <ele>604.771049</ele>
        <time>2022-04-09T07:56:59.188Z</time>
      </trkpt>
      <trkpt lat="42.2812" lon="22.66481">
        <ele>605.190578</ele>
        <time>2022-04-09T07:57:03.172Z</time>
      </trkpt>
      <trkpt lat="42.28119" lon="22.66467">
        <ele>605.615489</ele>
        <time>2022-04-09T07:57:07.178Z</time>
      </trkpt>
      <trkpt lat="42.28117" lon="22.66453">
        <ele>606.03844</ele>
        <time>2022-04-09T07:57:11.232Z</time>
      </trkpt>
      <trkpt lat="42.28116" lon="22.6644">
        <ele>606.427449</ele>
        <time>2022-04-09T07:57:15.191Z</time>
      </trkpt>
      <trkpt lat="42.28113" lon="22.66426">
        <ele>606.803942</ele>
        <time>2022-04-09T07:57:19.190Z</time>
      </trkpt>
      <trkpt lat="42.28112" lon="22.66412">
        <ele>607.173824</ele>
        <time>2022-04-09T07:57:23.189Z</time>
      </trkpt>
      <trkpt lat="42.2811" lon="22.66398">
        <ele>607.542418</ele>
        <time>2022-04-09T07:57:27.193Z</time>
      </trkpt>
      <trkpt lat="42.28108" lon="22.66384">
        <ele>607.887188</ele>
        <time>2022-04-09T07:57:31.239Z</time>
      </trkpt>
      <trkpt lat="42.28106" lon="22.66371">
        <ele>608.220169</ele>
        <time>2022-04-09T07:57:35.187Z</time>
      </trkpt>
      <trkpt lat="42.28104" lon="22.66358">
        <ele>608.561963</ele>
        <time>2022-04-09T07:57:39.201Z</time>
      </trkpt>
      <trkpt lat="42.28102" lon="22.66345">
        <ele>608.912378</ele>
        <time>2022-04-09T07:57:43.198Z</time>
      </trkpt>
      <trkpt lat="42.281" lon="22.66331">
        <ele>609.267363</ele>
        <time>2022-04-09T07:57:47.176Z</time>
      </trkpt>
      <trkpt lat="42.28098" lon="22.66318">
        <ele>609.61153</ele>
        <time>2022-04-09T07:57:51.197Z</time>
      </trkpt>
      <trkpt lat="42.28097" lon="22.66305">
        <ele>609.945651</ele>
        <time>2022-04-09T07:57:55.220Z</time>
      </trkpt>
      <trkpt lat="42.28096" lon="22.66292">
        <ele>610.274883</ele>
        <time>2022-04-09T07:57:59.194Z</time>
      </trkpt>
      <trkpt lat="42.28094" lon="22.66278">
        <ele>610.656254</ele>
        <time>2022-04-09T07:58:03.180Z</time>
      </trkpt>
      <trkpt lat="42.2809" lon="22.66266">
        <ele>610.991665</ele>
        <time>2022-04-09T07:58:07.218Z</time>
      </trkpt>
      <trkpt lat="42.28087" lon="22.66254">
        <ele>611.31023</ele>
        <time>2022-04-09T07:58:11.198Z</time>
      </trkpt>
      <trkpt lat="42.28086" lon="22.66241">
        <ele>611.646047</ele>
        <time>2022-04-09T07:58:15.179Z</time>
      </trkpt>
      <trkpt lat="42.28085" lon="22.66228">
        <ele>611.967038</ele>
        <time>2022-04-09T07:58:19.210Z</time>
      </trkpt>
      <trkpt lat="42.28084" lon="22.66214">
        <ele>612.317172</ele>
        <time>2022-04-09T07:58:23.177Z</time>
      </trkpt>
      <trkpt lat="42.28082" lon="22.66202">
        <ele>612.639547</ele>
        <time>2022-04-09T07:58:27.180Z</time>
      </trkpt>
      <trkpt lat="42.28082" lon="22.66186">
        <ele>612.892204</ele>
        <time>2022-04-09T07:58:32.193Z</time>
      </trkpt>
      <trkpt lat="42.28079" lon="22.66175">
        <ele>613.063737</ele>
        <time>2022-04-09T07:58:35.194Z</time>
      </trkpt>
      <trkpt lat="42.28076" lon="22.66161">
        <ele>613.260229</ele>
        <time>2022-04-09T07:58:39.187Z</time>
      </trkpt>
      <trkpt lat="42.28074" lon="22.66149">
        <ele>613.43803</ele>
        <time>2022-04-09T07:58:43.180Z</time>
      </trkpt>
      <trkpt lat="42.28073" lon="22.66135">
        <ele>613.635782</ele>
        <time>2022-04-09T07:58:47.171Z</time>
      </trkpt>
      <trkpt lat="42.28071" lon="22.66123">
        <ele>613.809137</ele>
        <time>2022-04-09T07:58:51.203Z</time>
      </trkpt>
      <trkpt lat="42.28069" lon="22.66108">
        <ele>614.021035</ele>
        <time>2022-04-09T07:58:56.184Z</time>
      </trkpt>
      <trkpt lat="42.28068" lon="22.66093">
        <ele>614.236295</ele>
        <time>2022-04-09T07:59:01.214Z</time>
      </trkpt>
      <trkpt lat="42.28068" lon="22.6608">
        <ele>614.413529</ele>
        <time>2022-04-09T07:59:05.182Z</time>
      </trkpt>
      <trkpt lat="42.28067" lon="22.66068">
        <ele>614.587569</ele>
        <time>2022-04-09T07:59:09.194Z</time>
      </trkpt>
      <trkpt lat="42.28065" lon="22.66053">
        <ele>614.792906</ele>
        <time>2022-04-09T07:59:14.179Z</time>
      </trkpt>
      <trkpt lat="42.28063" lon="22.6604">
        <ele>614.987589</ele>
        <time>2022-04-09T07:59:18.191Z</time>
      </trkpt>
      <trkpt lat="42.28062" lon="22.66027">
        <ele>615.163384</ele>
        <time>2022-04-09T07:59:22.172Z</time>
      </trkpt>
      <trkpt lat="42.2806" lon="22.66014">
        <ele>615.354251</ele>
        <time>2022-04-09T07:59:27.164Z</time>
      </trkpt>
      <trkpt lat="42.28058" lon="22.65999">
        <ele>615.562697</ele>
        <time>2022-04-09T07:59:32.208Z</time>
      </trkpt>
      <trkpt lat="42.28056" lon="22.65987">
        <ele>615.735305</ele>
        <time>2022-04-09T07:59:36.177Z</time>
      </trkpt>
      <trkpt lat="42.28055" lon="22.65975">
        <ele>615.912212</ele>
        <time>2022-04-09T07:59:40.198Z</time>
      </trkpt>
      <trkpt lat="42.28052" lon="22.65959">
        <ele>616.131218</ele>
        <time>2022-04-09T07:59:45.182Z</time>
      </trkpt>
      <trkpt lat="42.28051" lon="22.65947">
        <ele>616.319842</ele>
        <time>2022-04-09T07:59:49.180Z</time>
      </trkpt>
      <trkpt lat="42.28051" lon="22.65934">
        <ele>616.504111</ele>
        <time>2022-04-09T07:59:53.192Z</time>
      </trkpt>
      <trkpt lat="42.28049" lon="22.65921">
        <ele>616.692646</ele>
        <time>2022-04-09T07:59:57.220Z</time>
      </trkpt>
      <trkpt lat="42.28048" lon="22.65908">
        <ele>616.881445</ele>
        <time>2022-04-09T08:00:01.198Z</time>
      </trkpt>
      <trkpt lat="42.28046" lon="22.65894">
        <ele>617.096101</ele>
        <time>2022-04-09T08:00:06.193Z</time>
      </trkpt>
      <trkpt lat="42.28045" lon="22.65881">
        <ele>617.282415</ele>
        <time>2022-04-09T08:00:10.193Z</time>
      </trkpt>
      <trkpt lat="42.28043" lon="22.65869">
        <ele>617.458377</ele>
        <time>2022-04-09T08:00:14.192Z</time>
      </trkpt>
      <trkpt lat="42.28041" lon="22.65855">
        <ele>617.675814</ele>
        <time>2022-04-09T08:00:19.181Z</time>
      </trkpt>
      <trkpt lat="42.2804" lon="22.65841">
        <ele>617.8717</ele>
        <time>2022-04-09T08:00:23.187Z</time>
      </trkpt>
      <trkpt lat="42.28039" lon="22.65828">
        <ele>618.062144</ele>
        <time>2022-04-09T08:00:27.193Z</time>
      </trkpt>
      <trkpt lat="42.28038" lon="22.65816">
        <ele>618.248042</ele>
        <time>2022-04-09T08:00:31.197Z</time>
      </trkpt>
      <trkpt lat="42.28036" lon="22.65801">
        <ele>618.463122</ele>
        <time>2022-04-09T08:00:36.190Z</time>
      </trkpt>
      <trkpt lat="42.28034" lon="22.65788">
        <ele>618.655526</ele>
        <time>2022-04-09T08:00:41.197Z</time>
      </trkpt>
      <trkpt lat="42.28031" lon="22.65775">
        <ele>618.85738</ele>
        <time>2022-04-09T08:00:46.237Z</time>
      </trkpt>
      <trkpt lat="42.2803" lon="22.65762">
        <ele>619.049486</ele>
        <time>2022-04-09T08:00:51.192Z</time>
      </trkpt>
      <trkpt lat="42.28033" lon="22.65748">
        <ele>619.251339</ele>
        <time>2022-04-09T08:00:56.193Z</time>
      </trkpt>
      <trkpt lat="42.28035" lon="22.65734">
        <ele>619.467795</ele>
        <time>2022-04-09T08:01:01.195Z</time>
      </trkpt>
      <trkpt lat="42.28038" lon="22.65719">
        <ele>619.708465</ele>
        <time>2022-04-09T08:01:06.199Z</time>
      </trkpt>
      <trkpt lat="42.2804" lon="22.65706">
        <ele>620.067555</ele>
        <time>2022-04-09T08:01:10.182Z</time>
      </trkpt>
      <trkpt lat="42.28038" lon="22.65694">
        <ele>620.383389</ele>
        <time>2022-04-09T08:01:14.185Z</time>
      </trkpt>
      <trkpt lat="42.28036" lon="22.65679">
        <ele>620.773292</ele>
        <time>2022-04-09T08:01:19.189Z</time>
      </trkpt>
      <trkpt lat="42.28033" lon="22.65667">
        <ele>621.087145</ele>
        <time>2022-04-09T08:01:23.186Z</time>
      </trkpt>
      <trkpt lat="42.2803" lon="22.65653">
        <ele>621.462044</ele>
        <time>2022-04-09T08:01:28.177Z</time>
      </trkpt>
      <trkpt lat="42.28027" lon="22.65642">
        <ele>621.779695</ele>
        <time>2022-04-09T08:01:32.205Z</time>
      </trkpt>
      <trkpt lat="42.28024" lon="22.6563">
        <ele>622.107124</ele>
        <time>2022-04-09T08:01:36.212Z</time>
      </trkpt>
      <trkpt lat="42.28021" lon="22.65617">
        <ele>622.450203</ele>
        <time>2022-04-09T08:01:40.191Z</time>
      </trkpt>
      <trkpt lat="42.28018" lon="22.65605">
        <ele>622.778395</ele>
        <time>2022-04-09T08:01:44.189Z</time>
      </trkpt>
      <trkpt lat="42.28015" lon="22.65593">
        <ele>623.111754</ele>
        <time>2022-04-09T08:01:48.216Z</time>
      </trkpt>
      <trkpt lat="42.28012" lon="22.65581">
        <ele>623.435442</ele>
        <time>2022-04-09T08:01:52.190Z</time>
      </trkpt>
      <trkpt lat="42.28009" lon="22.65569">
        <ele>623.766689</ele>
        <time>2022-04-09T08:01:56.179Z</time>
      </trkpt>
      <trkpt lat="42.28005" lon="22.65557">
        <ele>624.103729</ele>
        <time>2022-04-09T08:02:00.169Z</time>
      </trkpt>
      <trkpt lat="42.28002" lon="22.65543">
        <ele>624.485592</ele>
        <time>2022-04-09T08:02:04.175Z</time>
      </trkpt>
      <trkpt lat="42.27998" lon="22.65531">
        <ele>624.82272</ele>
        <time>2022-04-09T08:02:08.188Z</time>
      </trkpt>
      <trkpt lat="42.27995" lon="22.65518">
        <ele>625.156429</ele>
        <time>2022-04-09T08:02:12.189Z</time>
      </trkpt>
      <trkpt lat="42.27992" lon="22.65507">
        <ele>625.477693</ele>
        <time>2022-04-09T08:02:16.224Z</time>
      </trkpt>
      <trkpt lat="42.27988" lon="22.65496">
        <ele>625.796854</ele>
        <time>2022-04-09T08:02:20.177Z</time>
      </trkpt>
      <trkpt lat="42.27984" lon="22.65484">
        <ele>626.134131</ele>
        <time>2022-04-09T08:02:24.188Z</time>
      </trkpt>
      <trkpt lat="42.27982" lon="22.65472">
        <ele>626.469083</ele>
        <time>2022-04-09T08:02:28.175Z</time>
      </trkpt>
      <trkpt lat="42.27978" lon="22.65458">
        <ele>626.881738</ele>
        <time>2022-04-09T08:02:33.215Z</time>
      </trkpt>
      <trkpt lat="42.27973" lon="22.65445">
        <ele>627.255022</ele>
        <time>2022-04-09T08:02:38.184Z</time>
      </trkpt>
      <trkpt lat="42.2797" lon="22.65434">
        <ele>627.588284</ele>
        <time>2022-04-09T08:02:42.184Z</time>
      </trkpt>
      <trkpt lat="42.27965" lon="22.6542">
        <ele>627.988922</ele>
        <time>2022-04-09T08:02:47.169Z</time>
      </trkpt>
      <trkpt lat="42.27961" lon="22.65409">
        <ele>628.321458</ele>
        <time>2022-04-09T08:02:51.188Z</time>
      </trkpt>
      <trkpt lat="42.27958" lon="22.65397">
        <ele>628.658577</ele>
        <time>2022-04-09T08:02:55.189Z</time>
      </trkpt>
      <trkpt lat="42.27954" lon="22.65383">
        <ele>629.0551</ele>
        <time>2022-04-09T08:03:00.192Z</time>
      </trkpt>
      <trkpt lat="42.27952" lon="22.65372">
        <ele>629.382343</ele>
        <time>2022-04-09T08:03:04.213Z</time>
      </trkpt>
      <trkpt lat="42.27948" lon="22.6536">
        <ele>629.729706</ele>
        <time>2022-04-09T08:03:08.162Z</time>
      </trkpt>
      <trkpt lat="42.27944" lon="22.65349">
        <ele>630.069265</ele>
        <time>2022-04-09T08:03:12.220Z</time>
      </trkpt>
      <trkpt lat="42.2794" lon="22.65334">
        <ele>630.479396</ele>
        <time>2022-04-09T08:03:17.180Z</time>
      </trkpt>
      <trkpt lat="42.27937" lon="22.65322">
        <ele>630.830449</ele>
        <time>2022-04-09T08:03:21.183Z</time>
      </trkpt>
      <trkpt lat="42.27935" lon="22.6531">
        <ele>631.172765</ele>
        <time>2022-04-09T08:03:25.187Z</time>
      </trkpt>
      <trkpt lat="42.27933" lon="22.65297">
        <ele>631.521513</ele>
        <time>2022-04-09T08:03:29.236Z</time>
      </trkpt>
      <trkpt lat="42.27932" lon="22.65284">
        <ele>631.878978</ele>
        <time>2022-04-09T08:03:33.199Z</time>
      </trkpt>
      <trkpt lat="42.27931" lon="22.6527">
        <ele>632.239539</ele>
        <time>2022-04-09T08:03:37.195Z</time>
      </trkpt>
      <trkpt lat="42.2793" lon="22.65257">
        <ele>632.614431</ele>
        <time>2022-04-09T08:03:41.203Z</time>
      </trkpt>
      <trkpt lat="42.27929" lon="22.65245">
        <ele>633.038782</ele>
        <time>2022-04-09T08:03:45.199Z</time>
      </trkpt>
      <trkpt lat="42.27928" lon="22.6523">
        <ele>633.551661</ele>
        <time>2022-04-09T08:03:50.189Z</time>
      </trkpt>
      <trkpt lat="42.27926" lon="22.65217">
        <ele>633.974729</ele>
        <time>2022-04-09T08:03:54.185Z</time>
      </trkpt>
      <trkpt lat="42.27926" lon="22.65204">
        <ele>634.416041</ele>
        <time>2022-04-09T08:03:58.192Z</time>
      </trkpt>
      <trkpt lat="42.27924" lon="22.65192">
        <ele>634.848619</ele>
        <time>2022-04-09T08:04:02.179Z</time>
      </trkpt>
      <trkpt lat="42.27924" lon="22.65178">
        <ele>635.301968</ele>
        <time>2022-04-09T08:04:06.196Z</time>
      </trkpt>
      <trkpt lat="42.27924" lon="22.65165">
        <ele>635.758882</ele>
        <time>2022-04-09T08:04:10.185Z</time>
      </trkpt>
      <trkpt lat="42.27923" lon="22.65151">
        <ele>636.218352</ele>
        <time>2022-04-09T08:04:14.186Z</time>
      </trkpt>
      <trkpt lat="42.27922" lon="22.65139">
        <ele>636.649187</ele>
        <time>2022-04-09T08:04:18.199Z</time>
      </trkpt>
      <trkpt lat="42.27921" lon="22.65126">
        <ele>637.084166</ele>
        <time>2022-04-09T08:04:22.192Z</time>
      </trkpt>
      <trkpt lat="42.2792" lon="22.65113">
        <ele>637.5173</ele>
        <time>2022-04-09T08:04:26.206Z</time>
      </trkpt>
      <trkpt lat="42.2792" lon="22.651">
        <ele>637.9605</ele>
        <time>2022-04-09T08:04:30.194Z</time>
      </trkpt>
      <trkpt lat="42.27919" lon="22.65086">
        <ele>638.425079</ele>
        <time>2022-04-09T08:04:34.177Z</time>
      </trkpt>
      <trkpt lat="42.27918" lon="22.65073">
        <ele>638.896948</ele>
        <time>2022-04-09T08:04:38.188Z</time>
      </trkpt>
      <trkpt lat="42.27916" lon="22.65059">
        <ele>639.367908</ele>
        <time>2022-04-09T08:04:43.176Z</time>
      </trkpt>
      <trkpt lat="42.27914" lon="22.65045">
        <ele>639.833683</ele>
        <time>2022-04-09T08:04:48.179Z</time>
      </trkpt>
      <trkpt lat="42.27913" lon="22.65033">
        <ele>640.266262</ele>
        <time>2022-04-09T08:04:52.193Z</time>
      </trkpt>
      <trkpt lat="42.27912" lon="22.6502">
        <ele>640.68488</ele>
        <time>2022-04-09T08:04:56.179Z</time>
      </trkpt>
      <trkpt lat="42.2791" lon="22.65007">
        <ele>641.033844</ele>
        <time>2022-04-09T08:05:00.235Z</time>
      </trkpt>
      <trkpt lat="42.2791" lon="22.64994">
        <ele>641.374836</ele>
        <time>2022-04-09T08:05:04.220Z</time>
      </trkpt>
      <trkpt lat="42.27909" lon="22.6498">
        <ele>641.755135</ele>
        <time>2022-04-09T08:05:09.179Z</time>
      </trkpt>
      <trkpt lat="42.27907" lon="22.64966">
        <ele>642.121549</ele>
        <time>2022-04-09T08:05:14.202Z</time>
      </trkpt>
      <trkpt lat="42.27906" lon="22.64952">
        <ele>642.477362</ele>
        <time>2022-04-09T08:05:19.184Z</time>
      </trkpt>
      <trkpt lat="42.27906" lon="22.64939">
        <ele>642.831696</ele>
        <time>2022-04-09T08:05:24.177Z</time>
      </trkpt>
      <trkpt lat="42.27905" lon="22.64926">
        <ele>643.164893</ele>
        <time>2022-04-09T08:05:29.191Z</time>
      </trkpt>
      <trkpt lat="42.27905" lon="22.64912">
        <ele>643.514265</ele>
        <time>2022-04-09T08:05:35.200Z</time>
      </trkpt>
      <trkpt lat="42.27903" lon="22.64899">
        <ele>643.85457</ele>
        <time>2022-04-09T08:05:40.213Z</time>
      </trkpt>
      <trkpt lat="42.27903" lon="22.64886">
        <ele>644.211033</ele>
        <time>2022-04-09T08:05:45.219Z</time>
      </trkpt>
      <trkpt lat="42.27903" lon="22.64873">
        <ele>644.544397</ele>
        <time>2022-04-09T08:05:50.195Z</time>
      </trkpt>
      <trkpt lat="42.27902" lon="22.64861">
        <ele>644.860052</ele>
        <time>2022-04-09T08:05:55.196Z</time>
      </trkpt>
      <trkpt lat="42.27901" lon="22.64848">
        <ele>645.201716</ele>
        <time>2022-04-09T08:06:01.191Z</time>
      </trkpt>
      <trkpt lat="42.27899" lon="22.64834">
        <ele>645.569624</ele>
        <time>2022-04-09T08:06:07.156Z</time>
      </trkpt>
      <trkpt lat="42.27897" lon="22.64821">
        <ele>645.904779</ele>
        <time>2022-04-09T08:06:13.198Z</time>
      </trkpt>
      <trkpt lat="42.27895" lon="22.64809">
        <ele>646.227175</ele>
        <time>2022-04-09T08:06:19.191Z</time>
      </trkpt>
      <trkpt lat="42.27893" lon="22.64796">
        <ele>646.567357</ele>
        <time>2022-04-09T08:06:25.168Z</time>
      </trkpt>
      <trkpt lat="42.27893" lon="22.64784">
        <ele>646.884673</ele>
        <time>2022-04-09T08:06:30.162Z</time>
      </trkpt>
      <trkpt lat="42.27892" lon="22.6477">
        <ele>647.040025</ele>
        <time>2022-04-09T08:06:36.205Z</time>
      </trkpt>
      <trkpt lat="42.27892" lon="22.64756">
        <ele>647.045259</ele>
        <time>2022-04-09T08:06:42.162Z</time>
      </trkpt>
      <trkpt lat="42.2789" lon="22.64743">
        <ele>647.050373</ele>
        <time>2022-04-09T08:06:48.153Z</time>
      </trkpt>
      <trkpt lat="42.27889" lon="22.64731">
        <ele>647.055137</ele>
        <time>2022-04-09T08:06:54.163Z</time>
      </trkpt>
      <trkpt lat="42.27887" lon="22.64718">
        <ele>647.060483</ele>
        <time>2022-04-09T08:07:00.167Z</time>
      </trkpt>
      <trkpt lat="42.27884" lon="22.64705">
        <ele>647.065753</ele>
        <time>2022-04-09T08:07:06.159Z</time>
      </trkpt>
      <trkpt lat="42.2788" lon="22.64694">
        <ele>647.070616</ele>
        <time>2022-04-09T08:07:12.163Z</time>
      </trkpt>
      <trkpt lat="42.27871" lon="22.64686">
        <ele>647.076058</ele>
        <time>2022-04-09T08:07:18.165Z</time>
      </trkpt>
      <trkpt lat="42.27864" lon="22.64679">
        <ele>647.080826</ele>
        <time>2022-04-09T08:07:23.158Z</time>
      </trkpt>
      <trkpt lat="42.27855" lon="22.64672">
        <ele>647.086479</ele>
        <time>2022-04-09T08:07:29.169Z</time>
      </trkpt>
      <trkpt lat="42.27846" lon="22.64667">
        <ele>647.091467</ele>
        <time>2022-04-09T08:07:34.164Z</time>
      </trkpt>
      <trkpt lat="42.27837" lon="22.6466">
        <ele>647.096834</ele>
        <time>2022-04-09T08:07:40.161Z</time>
      </trkpt>
      <trkpt lat="42.2783" lon="22.64652">
        <ele>647.101964</ele>
        <time>2022-04-09T08:07:45.157Z</time>
      </trkpt>
      <trkpt lat="42.27822" lon="22.64644">
        <ele>647.107176</ele>
        <time>2022-04-09T08:07:49.159Z</time>
      </trkpt>
      <trkpt lat="42.27813" lon="22.64638">
        <ele>647.112212</ele>
        <time>2022-04-09T08:07:53.195Z</time>
      </trkpt>
      <trkpt lat="42.27805" lon="22.6463">
        <ele>647.117659</ele>
        <time>2022-04-09T08:07:57.162Z</time>
      </trkpt>
      <trkpt lat="42.27796" lon="22.64621">
        <ele>647.123693</ele>
        <time>2022-04-09T08:08:01.155Z</time>
      </trkpt>
      <trkpt lat="42.27788" lon="22.64613">
        <ele>647.12868</ele>
        <time>2022-04-09T08:08:04.196Z</time>
      </trkpt>
      <trkpt lat="42.27779" lon="22.64606">
        <ele>647.226794</ele>
        <time>2022-04-09T08:08:07.164Z</time>
      </trkpt>
      <trkpt lat="42.2777" lon="22.64596">
        <ele>647.433996</ele>
        <time>2022-04-09T08:08:10.155Z</time>
      </trkpt>
      <trkpt lat="42.27764" lon="22.64582">
        <ele>647.649172</ele>
        <time>2022-04-09T08:08:13.162Z</time>
      </trkpt>
      <trkpt lat="42.2776" lon="22.64569">
        <ele>647.8267</ele>
        <time>2022-04-09T08:08:16.163Z</time>
      </trkpt>
      <trkpt lat="42.27755" lon="22.64558">
        <ele>647.993443</ele>
        <time>2022-04-09T08:08:19.154Z</time>
      </trkpt>
      <trkpt lat="42.27747" lon="22.6455">
        <ele>648.181899</ele>
        <time>2022-04-09T08:08:22.160Z</time>
      </trkpt>
      <trkpt lat="42.27737" lon="22.64541">
        <ele>648.386356</ele>
        <time>2022-04-09T08:08:25.164Z</time>
      </trkpt>
      <trkpt lat="42.27729" lon="22.64535">
        <ele>648.554934</ele>
        <time>2022-04-09T08:08:27.181Z</time>
      </trkpt>
      <trkpt lat="42.2772" lon="22.6453">
        <ele>648.720014</ele>
        <time>2022-04-09T08:08:29.160Z</time>
      </trkpt>
      <trkpt lat="42.27708" lon="22.64523">
        <ele>648.951655</ele>
        <time>2022-04-09T08:08:32.159Z</time>
      </trkpt>
      <trkpt lat="42.27699" lon="22.64517">
        <ele>649.134138</ele>
        <time>2022-04-09T08:08:34.176Z</time>
      </trkpt>
      <trkpt lat="42.2769" lon="22.64506">
        <ele>649.352996</ele>
        <time>2022-04-09T08:08:37.160Z</time>
      </trkpt>
      <trkpt lat="42.27683" lon="22.64494">
        <ele>649.550023</ele>
        <time>2022-04-09T08:08:41.165Z</time>
      </trkpt>
      <trkpt lat="42.27677" lon="22.64482">
        <ele>649.745309</ele>
        <time>2022-04-09T08:08:47.159Z</time>
      </trkpt>
      <trkpt lat="42.27674" lon="22.6447">
        <ele>649.91199</ele>
        <time>2022-04-09T08:08:52.175Z</time>
      </trkpt>
      <trkpt lat="42.2767" lon="22.64456">
        <ele>650.103534</ele>
        <time>2022-04-09T08:08:57.197Z</time>
      </trkpt>
      <trkpt lat="42.27667" lon="22.64445">
        <ele>650.269179</ele>
        <time>2022-04-09T08:09:02.158Z</time>
      </trkpt>
      <trkpt lat="42.27664" lon="22.64433">
        <ele>650.510217</ele>
        <time>2022-04-09T08:09:07.161Z</time>
      </trkpt>
      <trkpt lat="42.27662" lon="22.6442">
        <ele>650.8274</ele>
        <time>2022-04-09T08:09:12.178Z</time>
      </trkpt>
      <trkpt lat="42.27658" lon="22.64408">
        <ele>651.133402</ele>
        <time>2022-04-09T08:09:18.161Z</time>
      </trkpt>
      <trkpt lat="42.27656" lon="22.64396">
        <ele>651.441992</ele>
        <time>2022-04-09T08:09:24.171Z</time>
      </trkpt>
      <trkpt lat="42.27652" lon="22.64382">
        <ele>651.78529</ele>
        <time>2022-04-09T08:09:30.156Z</time>
      </trkpt>
      <trkpt lat="42.27651" lon="22.64369">
        <ele>652.086642</ele>
        <time>2022-04-09T08:09:35.172Z</time>
      </trkpt>
      <trkpt lat="42.27649" lon="22.64358">
        <ele>652.379744</ele>
        <time>2022-04-09T08:09:42.164Z</time>
      </trkpt>
      <trkpt lat="42.27646" lon="22.64346">
        <ele>652.673952</ele>
        <time>2022-04-09T08:09:49.162Z</time>
      </trkpt>
      <trkpt lat="42.27643" lon="22.64334">
        <ele>652.96867</ele>
        <time>2022-04-09T08:09:55.159Z</time>
      </trkpt>
      <trkpt lat="42.27639" lon="22.64323">
        <ele>653.260466</ele>
        <time>2022-04-09T08:10:01.164Z</time>
      </trkpt>
      <trkpt lat="42.27632" lon="22.64314">
        <ele>653.571824</ele>
        <time>2022-04-09T08:10:08.157Z</time>
      </trkpt>
      <trkpt lat="42.27623" lon="22.64307">
        <ele>653.901383</ele>
        <time>2022-04-09T08:10:14.173Z</time>
      </trkpt>
      <trkpt lat="42.27614" lon="22.64304">
        <ele>654.229364</ele>
        <time>2022-04-09T08:10:20.179Z</time>
      </trkpt>
      <trkpt lat="42.27604" lon="22.64301">
        <ele>654.55073</ele>
        <time>2022-04-09T08:10:26.157Z</time>
      </trkpt>
      <trkpt lat="42.27594" lon="22.64298">
        <ele>654.8847</ele>
        <time>2022-04-09T08:10:33.164Z</time>
      </trkpt>
      <trkpt lat="42.27584" lon="22.64297">
        <ele>655.203499</ele>
        <time>2022-04-09T08:10:40.163Z</time>
      </trkpt>
      <trkpt lat="42.27575" lon="22.64294">
        <ele>655.503451</ele>
        <time>2022-04-09T08:10:48.179Z</time>
      </trkpt>
      <trkpt lat="42.27566" lon="22.64292">
        <ele>655.804021</ele>
        <time>2022-04-09T08:10:54.175Z</time>
      </trkpt>
      <trkpt lat="42.27556" lon="22.6429">
        <ele>656.109358</ele>
        <time>2022-04-09T08:11:00.160Z</time>
      </trkpt>
      <trkpt lat="42.27547" lon="22.64286">
        <ele>656.772654</ele>
        <time>2022-04-09T08:11:07.164Z</time>
      </trkpt>
      <trkpt lat="42.27538" lon="22.64282">
        <ele>657.399734</ele>
        <time>2022-04-09T08:11:14.159Z</time>
      </trkpt>
      <trkpt lat="42.27528" lon="22.64279">
        <ele>658.097825</ele>
        <time>2022-04-09T08:11:21.155Z</time>
      </trkpt>
      <trkpt lat="42.27519" lon="22.64277">
        <ele>658.743036</ele>
        <time>2022-04-09T08:11:28.162Z</time>
      </trkpt>
      <trkpt lat="42.27509" lon="22.64277">
        <ele>659.407932</ele>
        <time>2022-04-09T08:11:35.180Z</time>
      </trkpt>
      <trkpt lat="42.275" lon="22.64276">
        <ele>660.088063</ele>
        <time>2022-04-09T08:11:41.192Z</time>
      </trkpt>
      <trkpt lat="42.2749" lon="22.64275">
        <ele>660.781406</ele>
        <time>2022-04-09T08:11:48.168Z</time>
      </trkpt>
      <trkpt lat="42.2748" lon="22.64275">
        <ele>661.418943</ele>
        <time>2022-04-09T08:11:56.164Z</time>
      </trkpt>
      <trkpt lat="42.2747" lon="22.64275">
        <ele>662.13971</ele>
        <time>2022-04-09T08:12:03.153Z</time>
      </trkpt>
      <trkpt lat="42.27461" lon="22.64275">
        <ele>662.769829</ele>
        <time>2022-04-09T08:12:09.191Z</time>
      </trkpt>
      <trkpt lat="42.27452" lon="22.64275">
        <ele>663.40685</ele>
        <time>2022-04-09T08:12:15.186Z</time>
      </trkpt>
      <trkpt lat="42.27443" lon="22.64273">
        <ele>664.037581</ele>
        <time>2022-04-09T08:12:21.188Z</time>
      </trkpt>
      <trkpt lat="42.27433" lon="22.64272">
        <ele>664.696989</ele>
        <time>2022-04-09T08:12:27.198Z</time>
      </trkpt>
      <trkpt lat="42.27424" lon="22.64272">
        <ele>665.341668</ele>
        <time>2022-04-09T08:12:33.160Z</time>
      </trkpt>
      <trkpt lat="42.27415" lon="22.64271">
        <ele>665.987263</ele>
        <time>2022-04-09T08:12:40.156Z</time>
      </trkpt>
      <trkpt lat="42.27405" lon="22.64269">
        <ele>666.678265</ele>
        <time>2022-04-09T08:12:48.162Z</time>
      </trkpt>
      <trkpt lat="42.27396" lon="22.64268">
        <ele>667.304464</ele>
        <time>2022-04-09T08:12:56.166Z</time>
      </trkpt>
      <trkpt lat="42.27386" lon="22.64267">
        <ele>667.97078</ele>
        <time>2022-04-09T08:13:04.160Z</time>
      </trkpt>
      <trkpt lat="42.27376" lon="22.64267">
        <ele>668.631379</ele>
        <time>2022-04-09T08:13:14.160Z</time>
      </trkpt>
      <trkpt lat="42.27366" lon="22.64265">
        <ele>669.150457</ele>
        <time>2022-04-09T08:13:22.157Z</time>
      </trkpt>
      <trkpt lat="42.27358" lon="22.64267">
        <ele>669.618165</ele>
        <time>2022-04-09T08:13:29.157Z</time>
      </trkpt>
      <trkpt lat="42.27348" lon="22.64267">
        <ele>670.092722</ele>
        <time>2022-04-09T08:13:36.160Z</time>
      </trkpt>
      <trkpt lat="42.27338" lon="22.64266">
        <ele>670.632178</ele>
        <time>2022-04-09T08:13:44.182Z</time>
      </trkpt>
      <trkpt lat="42.27328" lon="22.64266">
        <ele>671.174855</ele>
        <time>2022-04-09T08:13:52.157Z</time>
      </trkpt>
      <trkpt lat="42.27318" lon="22.64265">
        <ele>671.678805</ele>
        <time>2022-04-09T08:13:59.161Z</time>
      </trkpt>
      <trkpt lat="42.27309" lon="22.64265">
        <ele>672.180149</ele>
        <time>2022-04-09T08:14:06.157Z</time>
      </trkpt>
      <trkpt lat="42.27298" lon="22.64265">
        <ele>672.712277</ele>
        <time>2022-04-09T08:14:13.201Z</time>
      </trkpt>
      <trkpt lat="42.27289" lon="22.64263">
        <ele>673.205868</ele>
        <time>2022-04-09T08:14:20.181Z</time>
      </trkpt>
      <trkpt lat="42.2728" lon="22.64263">
        <ele>673.685687</ele>
        <time>2022-04-09T08:14:27.194Z</time>
      </trkpt>
      <trkpt lat="42.2727" lon="22.64262">
        <ele>674.183621</ele>
        <time>2022-04-09T08:14:34.228Z</time>
      </trkpt>
      <trkpt lat="42.2726" lon="22.64262">
        <ele>674.694899</ele>
        <time>2022-04-09T08:14:40.180Z</time>
      </trkpt>
      <trkpt lat="42.2725" lon="22.64259">
        <ele>675.223872</ele>
        <time>2022-04-09T08:14:48.188Z</time>
      </trkpt>
      <trkpt lat="42.2724" lon="22.64258">
        <ele>675.757467</ele>
        <time>2022-04-09T08:14:55.178Z</time>
      </trkpt>
      <trkpt lat="42.2723" lon="22.64256">
        <ele>676.2944</ele>
        <time>2022-04-09T08:15:01.200Z</time>
      </trkpt>
      <trkpt lat="42.2722" lon="22.64255">
        <ele>676.7965</ele>
        <time>2022-04-09T08:15:07.191Z</time>
      </trkpt>
      <trkpt lat="42.27211" lon="22.64254">
        <ele>677.294061</ele>
        <time>2022-04-09T08:15:13.205Z</time>
      </trkpt>
      <trkpt lat="42.27202" lon="22.64253">
        <ele>677.786429</ele>
        <time>2022-04-09T08:15:19.223Z</time>
      </trkpt>
      <trkpt lat="42.27192" lon="22.6425">
        <ele>678.295069</ele>
        <time>2022-04-09T08:15:25.190Z</time>
      </trkpt>
      <trkpt lat="42.27183" lon="22.64249">
        <ele>678.843545</ele>
        <time>2022-04-09T08:15:31.193Z</time>
      </trkpt>
      <trkpt lat="42.27173" lon="22.64247">
        <ele>679.401224</ele>
        <time>2022-04-09T08:15:37.185Z</time>
      </trkpt>
      <trkpt lat="42.27163" lon="22.64244">
        <ele>679.931985</ele>
        <time>2022-04-09T08:15:43.196Z</time>
      </trkpt>
      <trkpt lat="42.27153" lon="22.64242">
        <ele>680.499888</ele>
        <time>2022-04-09T08:15:48.208Z</time>
      </trkpt>
      <trkpt lat="42.27144" lon="22.64237">
        <ele>681.02964</ele>
        <time>2022-04-09T08:15:54.189Z</time>
      </trkpt>
      <trkpt lat="42.27134" lon="22.64234">
        <ele>681.597393</ele>
        <time>2022-04-09T08:16:00.193Z</time>
      </trkpt>
      <trkpt lat="42.27126" lon="22.64229">
        <ele>682.118735</ele>
        <time>2022-04-09T08:16:07.179Z</time>
      </trkpt>
      <trkpt lat="42.2712" lon="22.64219">
        <ele>682.627346</ele>
        <time>2022-04-09T08:16:13.168Z</time>
      </trkpt>
      <trkpt lat="42.27117" lon="22.64207">
        <ele>683.132102</ele>
        <time>2022-04-09T08:16:18.195Z</time>
      </trkpt>
      <trkpt lat="42.27115" lon="22.64193">
        <ele>683.725013</ele>
        <time>2022-04-09T08:16:23.181Z</time>
      </trkpt>
      <trkpt lat="42.27112" lon="22.64181">
        <ele>684.235623</ele>
        <time>2022-04-09T08:16:27.198Z</time>
      </trkpt>
      <trkpt lat="42.2711" lon="22.6417">
        <ele>684.739052</ele>
        <time>2022-04-09T08:16:31.165Z</time>
      </trkpt>
      <trkpt lat="42.27107" lon="22.64158">
        <ele>685.255094</ele>
        <time>2022-04-09T08:16:35.176Z</time>
      </trkpt>
      <trkpt lat="42.27105" lon="22.64143">
        <ele>685.848859</ele>
        <time>2022-04-09T08:16:39.189Z</time>
      </trkpt>
      <trkpt lat="42.27103" lon="22.64129">
        <ele>686.459808</ele>
        <time>2022-04-09T08:16:43.176Z</time>
      </trkpt>
      <trkpt lat="42.27101" lon="22.64115">
        <ele>687.038117</ele>
        <time>2022-04-09T08:16:47.195Z</time>
      </trkpt>
      <trkpt lat="42.27099" lon="22.64103">
        <ele>687.562301</ele>
        <time>2022-04-09T08:16:51.174Z</time>
      </trkpt>
      <trkpt lat="42.27097" lon="22.64089">
        <ele>688.068146</ele>
        <time>2022-04-09T08:16:55.238Z</time>
      </trkpt>
      <trkpt lat="42.27096" lon="22.64073">
        <ele>688.474111</ele>
        <time>2022-04-09T08:16:59.181Z</time>
      </trkpt>
      <trkpt lat="42.27094" lon="22.64059">
        <ele>688.861203</ele>
        <time>2022-04-09T08:17:03.200Z</time>
      </trkpt>
      <trkpt lat="42.27091" lon="22.64045">
        <ele>689.231455</ele>
        <time>2022-04-09T08:17:07.215Z</time>
      </trkpt>
      <trkpt lat="42.27089" lon="22.6403">
        <ele>689.618668</ele>
        <time>2022-04-09T08:17:11.182Z</time>
      </trkpt>
      <trkpt lat="42.27087" lon="22.64017">
        <ele>689.970042</ele>
        <time>2022-04-09T08:17:15.177Z</time>
      </trkpt>
      <trkpt lat="42.27086" lon="22.64003">
        <ele>690.339557</ele>
        <time>2022-04-09T08:17:19.187Z</time>
      </trkpt>
      <trkpt lat="42.27083" lon="22.63991">
        <ele>690.663623</ele>
        <time>2022-04-09T08:17:23.185Z</time>
      </trkpt>
      <trkpt lat="42.27082" lon="22.63978">
        <ele>690.999794</ele>
        <time>2022-04-09T08:17:27.191Z</time>
      </trkpt>
      <trkpt lat="42.2708" lon="22.63964">
        <ele>691.365842</ele>
        <time>2022-04-09T08:17:31.179Z</time>
      </trkpt>
      <trkpt lat="42.27078" lon="22.63952">
        <ele>691.694222</ele>
        <time>2022-04-09T08:17:35.187Z</time>
      </trkpt>
      <trkpt lat="42.27076" lon="22.63939">
        <ele>692.038635</ele>
        <time>2022-04-09T08:17:39.184Z</time>
      </trkpt>
      <trkpt lat="42.27074" lon="22.63925">
        <ele>692.404095</ele>
        <time>2022-04-09T08:17:43.199Z</time>
      </trkpt>
      <trkpt lat="42.27074" lon="22.63911">
        <ele>692.764935</ele>
        <time>2022-04-09T08:17:47.169Z</time>
      </trkpt>
      <trkpt lat="42.27073" lon="22.63897">
        <ele>693.122797</ele>
        <time>2022-04-09T08:17:51.177Z</time>
      </trkpt>
      <trkpt lat="42.27071" lon="22.63885">
        <ele>693.450585</ele>
        <time>2022-04-09T08:17:55.188Z</time>
      </trkpt>
      <trkpt lat="42.27069" lon="22.63872">
        <ele>693.789234</ele>
        <time>2022-04-09T08:17:59.186Z</time>
      </trkpt>
      <trkpt lat="42.27067" lon="22.6386">
        <ele>694.117486</ele>
        <time>2022-04-09T08:18:03.199Z</time>
      </trkpt>
      <trkpt lat="42.27064" lon="22.63846">
        <ele>694.500969</ele>
        <time>2022-04-09T08:18:08.197Z</time>
      </trkpt>
      <trkpt lat="42.27061" lon="22.63834">
        <ele>694.842249</ele>
        <time>2022-04-09T08:18:12.208Z</time>
      </trkpt>
      <trkpt lat="42.27059" lon="22.63822">
        <ele>695.183703</ele>
        <time>2022-04-09T08:18:16.177Z</time>
      </trkpt>
      <trkpt lat="42.27057" lon="22.6381">
        <ele>695.539112</ele>
        <time>2022-04-09T08:18:20.198Z</time>
      </trkpt>
      <trkpt lat="42.27054" lon="22.63797">
        <ele>695.890941</ele>
        <time>2022-04-09T08:18:24.189Z</time>
      </trkpt>
      <trkpt lat="42.27053" lon="22.63785">
        <ele>696.240475</ele>
        <time>2022-04-09T08:18:28.192Z</time>
      </trkpt>
      <trkpt lat="42.27051" lon="22.6377">
        <ele>696.646406</ele>
        <time>2022-04-09T08:18:32.205Z</time>
      </trkpt>
      <trkpt lat="42.2705" lon="22.63755">
        <ele>697.046124</ele>
        <time>2022-04-09T08:18:36.168Z</time>
      </trkpt>
      <trkpt lat="42.27048" lon="22.6374">
        <ele>697.465851</ele>
        <time>2022-04-09T08:18:40.189Z</time>
      </trkpt>
      <trkpt lat="42.27046" lon="22.63726">
        <ele>697.858484</ele>
        <time>2022-04-09T08:18:44.181Z</time>
      </trkpt>
      <trkpt lat="42.27042" lon="22.63714">
        <ele>698.233123</ele>
        <time>2022-04-09T08:18:48.197Z</time>
      </trkpt>
      <trkpt lat="42.27039" lon="22.637">
        <ele>698.61848</ele>
        <time>2022-04-09T08:18:52.192Z</time>
      </trkpt>
      <trkpt lat="42.27037" lon="22.63686">
        <ele>699.001064</ele>
        <time>2022-04-09T08:18:56.187Z</time>
      </trkpt>
      <trkpt lat="42.27035" lon="22.63672">
        <ele>699.394691</ele>
        <time>2022-04-09T08:19:00.228Z</time>
      </trkpt>
      <trkpt lat="42.27034" lon="22.63658">
        <ele>699.785686</ele>
        <time>2022-04-09T08:19:04.190Z</time>
      </trkpt>
      <trkpt lat="42.27032" lon="22.63644">
        <ele>700.189872</ele>
        <time>2022-04-09T08:19:08.193Z</time>
      </trkpt>
      <trkpt lat="42.2703" lon="22.63629">
        <ele>700.592725</ele>
        <time>2022-04-09T08:19:12.198Z</time>
      </trkpt>
      <trkpt lat="42.27028" lon="22.63616">
        <ele>700.925718</ele>
        <time>2022-04-09T08:19:16.182Z</time>
      </trkpt>
      <trkpt lat="42.27026" lon="22.63602">
        <ele>700.811732</ele>
        <time>2022-04-09T08:19:20.216Z</time>
      </trkpt>
      <trkpt lat="42.27024" lon="22.63587">
        <ele>700.695894</ele>
        <time>2022-04-09T08:19:24.185Z</time>
      </trkpt>
      <trkpt lat="42.27022" lon="22.63574">
        <ele>700.580972</ele>
        <time>2022-04-09T08:19:28.213Z</time>
      </trkpt>
      <trkpt lat="42.27019" lon="22.63561">
        <ele>700.475131</ele>
        <time>2022-04-09T08:19:32.184Z</time>
      </trkpt>
      <trkpt lat="42.27017" lon="22.63547">
        <ele>700.35682</ele>
        <time>2022-04-09T08:19:36.176Z</time>
      </trkpt>
      <trkpt lat="42.27014" lon="22.63531">
        <ele>700.22826</ele>
        <time>2022-04-09T08:19:40.177Z</time>
      </trkpt>
      <trkpt lat="42.27012" lon="22.63516">
        <ele>700.102657</ele>
        <time>2022-04-09T08:19:44.181Z</time>
      </trkpt>
      <trkpt lat="42.27009" lon="22.635">
        <ele>699.974314</ele>
        <time>2022-04-09T08:19:48.202Z</time>
      </trkpt>
      <trkpt lat="42.27008" lon="22.63485">
        <ele>699.850725</ele>
        <time>2022-04-09T08:19:52.175Z</time>
      </trkpt>
      <trkpt lat="42.27007" lon="22.6347">
        <ele>699.730472</ele>
        <time>2022-04-09T08:19:56.217Z</time>
      </trkpt>
      <trkpt lat="42.27005" lon="22.63456">
        <ele>699.610425</ele>
        <time>2022-04-09T08:20:00.198Z</time>
      </trkpt>
      <trkpt lat="42.27003" lon="22.63442">
        <ele>699.501076</ele>
        <time>2022-04-09T08:20:04.162Z</time>
      </trkpt>
      <trkpt lat="42.27002" lon="22.63428">
        <ele>699.383242</ele>
        <time>2022-04-09T08:20:08.213Z</time>
      </trkpt>
      <trkpt lat="42.27" lon="22.63413">
        <ele>699.265026</ele>
        <time>2022-04-09T08:20:12.210Z</time>
      </trkpt>
      <trkpt lat="42.26998" lon="22.634">
        <ele>699.155521</ele>
        <time>2022-04-09T08:20:16.172Z</time>
      </trkpt>
      <trkpt lat="42.26996" lon="22.63386">
        <ele>699.040677</ele>
        <time>2022-04-09T08:20:20.181Z</time>
      </trkpt>
      <trkpt lat="42.26994" lon="22.63373">
        <ele>699.224976</ele>
        <time>2022-04-09T08:20:24.193Z</time>
      </trkpt>
      <trkpt lat="42.26991" lon="22.63359">
        <ele>699.828826</ele>
        <time>2022-04-09T08:20:28.171Z</time>
      </trkpt>
      <trkpt lat="42.2699" lon="22.63344">
        <ele>700.437816</ele>
        <time>2022-04-09T08:20:32.184Z</time>
      </trkpt>
      <trkpt lat="42.26988" lon="22.6333">
        <ele>701.043434</ele>
        <time>2022-04-09T08:20:36.193Z</time>
      </trkpt>
      <trkpt lat="42.26986" lon="22.63315">
        <ele>701.663408</ele>
        <time>2022-04-09T08:20:40.179Z</time>
      </trkpt>
      <trkpt lat="42.26984" lon="22.63302">
        <ele>702.247416</ele>
        <time>2022-04-09T08:20:45.221Z</time>
      </trkpt>
      <trkpt lat="42.26981" lon="22.63287">
        <ele>702.874154</ele>
        <time>2022-04-09T08:20:50.187Z</time>
      </trkpt>
      <trkpt lat="42.26979" lon="22.63272">
        <ele>703.51159</ele>
        <time>2022-04-09T08:20:55.172Z</time>
      </trkpt>
      <trkpt lat="42.26978" lon="22.63259">
        <ele>704.066528</ele>
        <time>2022-04-09T08:20:59.181Z</time>
      </trkpt>
      <trkpt lat="42.26978" lon="22.63245">
        <ele>704.640857</ele>
        <time>2022-04-09T08:21:03.198Z</time>
      </trkpt>
      <trkpt lat="42.26977" lon="22.63231">
        <ele>705.240222</ele>
        <time>2022-04-09T08:21:08.192Z</time>
      </trkpt>
      <trkpt lat="42.26975" lon="22.63218">
        <ele>705.772807</ele>
        <time>2022-04-09T08:21:13.225Z</time>
      </trkpt>
      <trkpt lat="42.26973" lon="22.63204">
        <ele>706.399189</ele>
        <time>2022-04-09T08:21:18.213Z</time>
      </trkpt>
      <trkpt lat="42.26971" lon="22.63188">
        <ele>707.039769</ele>
        <time>2022-04-09T08:21:23.228Z</time>
      </trkpt>
      <trkpt lat="42.26969" lon="22.63174">
        <ele>707.657097</ele>
        <time>2022-04-09T08:21:28.154Z</time>
      </trkpt>
      <trkpt lat="42.26967" lon="22.63162">
        <ele>708.187681</ele>
        <time>2022-04-09T08:21:33.159Z</time>
      </trkpt>
      <trkpt lat="42.26966" lon="22.63148">
        <ele>708.782229</ele>
        <time>2022-04-09T08:21:39.162Z</time>
      </trkpt>
      <trkpt lat="42.26965" lon="22.63135">
        <ele>709.270038</ele>
        <time>2022-04-09T08:21:44.159Z</time>
      </trkpt>
      <trkpt lat="42.26964" lon="22.63123">
        <ele>709.685377</ele>
        <time>2022-04-09T08:21:49.152Z</time>
      </trkpt>
      <trkpt lat="42.26962" lon="22.63111">
        <ele>710.108186</ele>
        <time>2022-04-09T08:21:54.157Z</time>
      </trkpt>
      <trkpt lat="42.26959" lon="22.63098">
        <ele>710.573242</ele>
        <time>2022-04-09T08:22:00.157Z</time>
      </trkpt>
      <trkpt lat="42.26956" lon="22.63086">
        <ele>710.992762</ele>
        <time>2022-04-09T08:22:06.162Z</time>
      </trkpt>
      <trkpt lat="42.26955" lon="22.63073">
        <ele>711.453834</ele>
        <time>2022-04-09T08:22:12.157Z</time>
      </trkpt>
      <trkpt lat="42.26954" lon="22.6306">
        <ele>711.871219</ele>
        <time>2022-04-09T08:22:18.168Z</time>
      </trkpt>
      <trkpt lat="42.26952" lon="22.63047">
        <ele>712.314968</ele>
        <time>2022-04-09T08:22:24.162Z</time>
      </trkpt>
      <trkpt lat="42.26951" lon="22.63033">
        <ele>712.796109</ele>
        <time>2022-04-09T08:22:30.158Z</time>
      </trkpt>
      <trkpt lat="42.26949" lon="22.6302">
        <ele>713.267212</ele>
        <time>2022-04-09T08:22:37.165Z</time>
      </trkpt>
      <trkpt lat="42.26947" lon="22.63008">
        <ele>713.684897</ele>
        <time>2022-04-09T08:22:44.160Z</time>
      </trkpt>
      <trkpt lat="42.26946" lon="22.62994">
        <ele>714.136505</ele>
        <time>2022-04-09T08:22:51.158Z</time>
      </trkpt>
      <trkpt lat="42.26943" lon="22.62981">
        <ele>714.61129</ele>
        <time>2022-04-09T08:22:57.158Z</time>
      </trkpt>
      <trkpt lat="42.26941" lon="22.62969">
        <ele>715.028145</ele>
        <time>2022-04-09T08:23:03.160Z</time>
      </trkpt>
      <trkpt lat="42.2694" lon="22.62956">
        <ele>715.478635</ele>
        <time>2022-04-09T08:23:10.214Z</time>
      </trkpt>
      <trkpt lat="42.26938" lon="22.62942">
        <ele>715.936524</ele>
        <time>2022-04-09T08:23:18.183Z</time>
      </trkpt>
      <trkpt lat="42.26936" lon="22.6293">
        <ele>716.374482</ele>
        <time>2022-04-09T08:23:27.185Z</time>
      </trkpt>
      <trkpt lat="42.26934" lon="22.62917">
        <ele>716.823012</ele>
        <time>2022-04-09T08:23:34.195Z</time>
      </trkpt>
      <trkpt lat="42.26932" lon="22.62904">
        <ele>717.27821</ele>
        <time>2022-04-09T08:23:41.193Z</time>
      </trkpt>
      <trkpt lat="42.2693" lon="22.62891">
        <ele>717.856377</ele>
        <time>2022-04-09T08:23:47.209Z</time>
      </trkpt>
      <trkpt lat="42.26927" lon="22.62879">
        <ele>718.470309</ele>
        <time>2022-04-09T08:23:54.176Z</time>
      </trkpt>
      <trkpt lat="42.26924" lon="22.62867">
        <ele>719.088093</ele>
        <time>2022-04-09T08:24:02.184Z</time>
      </trkpt>
      <trkpt lat="42.26921" lon="22.62855">
        <ele>719.73857</ele>
        <time>2022-04-09T08:24:10.230Z</time>
      </trkpt>
      <trkpt lat="42.26919" lon="22.62842">
        <ele>720.386442</ele>
        <time>2022-04-09T08:24:17.192Z</time>
      </trkpt>
      <trkpt lat="42.26917" lon="22.62829">
        <ele>721.022169</ele>
        <time>2022-04-09T08:24:25.181Z</time>
      </trkpt>
      <trkpt lat="42.26917" lon="22.62816">
        <ele>721.666539</ele>
        <time>2022-04-09T08:24:33.190Z</time>
      </trkpt>
      <trkpt lat="42.26914" lon="22.62804">
        <ele>722.279515</ele>
        <time>2022-04-09T08:24:41.177Z</time>
      </trkpt>
      <trkpt lat="42.26912" lon="22.6279">
        <ele>722.950028</ele>
        <time>2022-04-09T08:24:49.214Z</time>
      </trkpt>
      <trkpt lat="42.26911" lon="22.62777">
        <ele>723.599775</ele>
        <time>2022-04-09T08:24:56.192Z</time>
      </trkpt>
      <trkpt lat="42.26909" lon="22.62765">
        <ele>724.191132</ele>
        <time>2022-04-09T08:25:05.175Z</time>
      </trkpt>
      <trkpt lat="42.26908" lon="22.62752">
        <ele>724.830358</ele>
        <time>2022-04-09T08:25:12.208Z</time>
      </trkpt>
      <trkpt lat="42.26906" lon="22.62739">
        <ele>725.487788</ele>
        <time>2022-04-09T08:25:20.194Z</time>
      </trkpt>
      <trkpt lat="42.26905" lon="22.62726">
        <ele>726.102812</ele>
        <time>2022-04-09T08:25:27.194Z</time>
      </trkpt>
      <trkpt lat="42.26902" lon="22.62713">
        <ele>726.775736</ele>
        <time>2022-04-09T08:25:35.181Z</time>
      </trkpt>
      <trkpt lat="42.269" lon="22.62699">
        <ele>727.451045</ele>
        <time>2022-04-09T08:25:43.189Z</time>
      </trkpt>
      <trkpt lat="42.26899" lon="22.62687">
        <ele>728.054481</ele>
        <time>2022-04-09T08:25:50.195Z</time>
      </trkpt>
      <trkpt lat="42.26897" lon="22.62674">
        <ele>728.706669</ele>
        <time>2022-04-09T08:25:58.187Z</time>
      </trkpt>
      <trkpt lat="42.26894" lon="22.62661">
        <ele>729.352538</ele>
        <time>2022-04-09T08:26:06.205Z</time>
      </trkpt>
      <trkpt lat="42.26892" lon="22.62648">
        <ele>730.001361</ele>
        <time>2022-04-09T08:26:14.225Z</time>
      </trkpt>
      <trkpt lat="42.26889" lon="22.62636">
        <ele>730.651414</ele>
        <time>2022-04-09T08:26:22.194Z</time>
      </trkpt>
      <trkpt lat="42.26887" lon="22.62622">
        <ele>731.323961</ele>
        <time>2022-04-09T08:26:31.230Z</time>
      </trkpt>
      <trkpt lat="42.26885" lon="22.6261">
        <ele>731.958379</ele>
        <time>2022-04-09T08:26:39.192Z</time>
      </trkpt>
      <trkpt lat="42.26883" lon="22.62597">
        <ele>732.603275</ele>
        <time>2022-04-09T08:26:46.212Z</time>
      </trkpt>
      <trkpt lat="42.26881" lon="22.62584">
        <ele>733.226875</ele>
        <time>2022-04-09T08:26:54.181Z</time>
      </trkpt>
      <trkpt lat="42.2688" lon="22.62572">
        <ele>733.818247</ele>
        <time>2022-04-09T08:27:01.178Z</time>
      </trkpt>
      <trkpt lat="42.26879" lon="22.62559">
        <ele>734.472843</ele>
        <time>2022-04-09T08:27:09.229Z</time>
      </trkpt>
      <trkpt lat="42.26878" lon="22.62546">
        <ele>735.093178</ele>
        <time>2022-04-09T08:27:16.192Z</time>
      </trkpt>
      <trkpt lat="42.26875" lon="22.62534">
        <ele>735.707559</ele>
        <time>2022-04-09T08:27:23.186Z</time>
      </trkpt>
      <trkpt lat="42.26874" lon="22.62521">
        <ele>736.351278</ele>
        <time>2022-04-09T08:27:32.181Z</time>
      </trkpt>
      <trkpt lat="42.26873" lon="22.62508">
        <ele>736.99577</ele>
        <time>2022-04-09T08:27:40.196Z</time>
      </trkpt>
      <trkpt lat="42.26871" lon="22.62496">
        <ele>737.60508</ele>
        <time>2022-04-09T08:27:48.180Z</time>
      </trkpt>
      <trkpt lat="42.26869" lon="22.62483">
        <ele>738.236344</ele>
        <time>2022-04-09T08:27:55.189Z</time>
      </trkpt>
      <trkpt lat="42.26866" lon="22.62471">
        <ele>738.848922</ele>
        <time>2022-04-09T08:28:03.190Z</time>
      </trkpt>
      <trkpt lat="42.26864" lon="22.62458">
        <ele>739.470698</ele>
        <time>2022-04-09T08:28:10.172Z</time>
      </trkpt>
      <trkpt lat="42.26863" lon="22.62445">
        <ele>740.128108</ele>
        <time>2022-04-09T08:28:18.177Z</time>
      </trkpt>
      <trkpt lat="42.26861" lon="22.62432">
        <ele>740.768868</ele>
        <time>2022-04-09T08:28:26.183Z</time>
      </trkpt>
      <trkpt lat="42.26859" lon="22.62419">
        <ele>741.52791</ele>
        <time>2022-04-09T08:28:35.212Z</time>
      </trkpt>
      <trkpt lat="42.26858" lon="22.62406">
        <ele>742.322934</ele>
        <time>2022-04-09T08:28:43.179Z</time>
      </trkpt>
      <trkpt lat="42.26856" lon="22.62394">
        <ele>743.098642</ele>
        <time>2022-04-09T08:28:51.203Z</time>
      </trkpt>
      <trkpt lat="42.26855" lon="22.62381">
        <ele>743.926046</ele>
        <time>2022-04-09T08:28:59.181Z</time>
      </trkpt>
      <trkpt lat="42.26853" lon="22.62369">
        <ele>744.712615</ele>
        <time>2022-04-09T08:29:06.188Z</time>
      </trkpt>
      <trkpt lat="42.26851" lon="22.62356">
        <ele>745.52251</ele>
        <time>2022-04-09T08:29:13.175Z</time>
      </trkpt>
      <trkpt lat="42.2685" lon="22.62344">
        <ele>746.333904</ele>
        <time>2022-04-09T08:29:20.207Z</time>
      </trkpt>
      <trkpt lat="42.26848" lon="22.6233">
        <ele>747.213674</ele>
        <time>2022-04-09T08:29:28.197Z</time>
      </trkpt>
      <trkpt lat="42.26846" lon="22.62318">
        <ele>747.998852</ele>
        <time>2022-04-09T08:29:35.175Z</time>
      </trkpt>
      <trkpt lat="42.26844" lon="22.62305">
        <ele>748.847524</ele>
        <time>2022-04-09T08:29:43.180Z</time>
      </trkpt>
      <trkpt lat="42.26844" lon="22.62292">
        <ele>749.629674</ele>
        <time>2022-04-09T08:29:51.175Z</time>
      </trkpt>
      <trkpt lat="42.26841" lon="22.62279">
        <ele>750.475733</ele>
        <time>2022-04-09T08:29:59.182Z</time>
      </trkpt>
      <trkpt lat="42.26839" lon="22.62267">
        <ele>751.242159</ele>
        <time>2022-04-09T08:30:06.213Z</time>
      </trkpt>
      <trkpt lat="42.26837" lon="22.62255">
        <ele>752.044217</ele>
        <time>2022-04-09T08:30:14.181Z</time>
      </trkpt>
      <trkpt lat="42.26836" lon="22.62242">
        <ele>752.888092</ele>
        <time>2022-04-09T08:30:22.190Z</time>
      </trkpt>
      <trkpt lat="42.26833" lon="22.62228">
        <ele>753.746267</ele>
        <time>2022-04-09T08:30:30.180Z</time>
      </trkpt>
      <trkpt lat="42.26831" lon="22.62216">
        <ele>754.564066</ele>
        <time>2022-04-09T08:30:38.188Z</time>
      </trkpt>
      <trkpt lat="42.26829" lon="22.62204">
        <ele>755.339778</ele>
        <time>2022-04-09T08:30:45.192Z</time>
      </trkpt>
      <trkpt lat="42.26828" lon="22.62191">
        <ele>756.15601</ele>
        <time>2022-04-09T08:30:53.182Z</time>
      </trkpt>
      <trkpt lat="42.26825" lon="22.62179">
        <ele>756.793785</ele>
        <time>2022-04-09T08:31:01.240Z</time>
      </trkpt>
      <trkpt lat="42.26824" lon="22.62166">
        <ele>757.346608</ele>
        <time>2022-04-09T08:31:08.196Z</time>
      </trkpt>
      <trkpt lat="42.26822" lon="22.62153">
        <ele>757.953416</ele>
        <time>2022-04-09T08:31:15.183Z</time>
      </trkpt>
      <trkpt lat="42.26821" lon="22.6214">
        <ele>758.551257</ele>
        <time>2022-04-09T08:31:23.185Z</time>
      </trkpt>
      <trkpt lat="42.26819" lon="22.62128">
        <ele>759.099651</ele>
        <time>2022-04-09T08:31:30.228Z</time>
      </trkpt>
      <trkpt lat="42.26817" lon="22.62114">
        <ele>759.713459</ele>
        <time>2022-04-09T08:31:38.205Z</time>
      </trkpt>
      <trkpt lat="42.26816" lon="22.62101">
        <ele>760.320913</ele>
        <time>2022-04-09T08:31:47.175Z</time>
      </trkpt>
      <trkpt lat="42.26812" lon="22.62088">
        <ele>760.917302</ele>
        <time>2022-04-09T08:31:54.191Z</time>
      </trkpt>
      <trkpt lat="42.26811" lon="22.62076">
        <ele>761.477939</ele>
        <time>2022-04-09T08:32:01.184Z</time>
      </trkpt>
      <trkpt lat="42.26809" lon="22.62064">
        <ele>762.022005</ele>
        <time>2022-04-09T08:32:08.191Z</time>
      </trkpt>
      <trkpt lat="42.26807" lon="22.6205">
        <ele>762.626413</ele>
        <time>2022-04-09T08:32:16.184Z</time>
      </trkpt>
      <trkpt lat="42.26807" lon="22.62038">
        <ele>763.171616</ele>
        <time>2022-04-09T08:32:23.200Z</time>
      </trkpt>
      <trkpt lat="42.26806" lon="22.62025">
        <ele>763.755461</ele>
        <time>2022-04-09T08:32:31.219Z</time>
      </trkpt>
      <trkpt lat="42.26803" lon="22.62013">
        <ele>764.338864</ele>
        <time>2022-04-09T08:32:40.179Z</time>
      </trkpt>
      <trkpt lat="42.26802" lon="22.62">
        <ele>764.8928</ele>
        <time>2022-04-09T08:32:48.177Z</time>
      </trkpt>
      <trkpt lat="42.26799" lon="22.61988">
        <ele>765.44906</ele>
        <time>2022-04-09T08:32:55.197Z</time>
      </trkpt>
      <trkpt lat="42.26798" lon="22.61975">
        <ele>766.045899</ele>
        <time>2022-04-09T08:33:03.187Z</time>
      </trkpt>
      <trkpt lat="42.26795" lon="22.61963">
        <ele>766.619213</ele>
        <time>2022-04-09T08:33:11.192Z</time>
      </trkpt>
      <trkpt lat="42.26794" lon="22.61949">
        <ele>767.22486</ele>
        <time>2022-04-09T08:33:19.180Z</time>
      </trkpt>
      <trkpt lat="42.26792" lon="22.61937">
        <ele>767.863146</ele>
        <time>2022-04-09T08:33:27.212Z</time>
      </trkpt>
      <trkpt lat="42.26789" lon="22.61925">
        <ele>768.529754</ele>
        <time>2022-04-09T08:33:36.217Z</time>
      </trkpt>
      <trkpt lat="42.26787" lon="22.61913">
        <ele>769.20071</ele>
        <time>2022-04-09T08:33:44.214Z</time>
      </trkpt>
      <trkpt lat="42.26785" lon="22.619">
        <ele>769.871586</ele>
        <time>2022-04-09T08:33:52.188Z</time>
      </trkpt>
      <trkpt lat="42.26783" lon="22.61888">
        <ele>770.507143</ele>
        <time>2022-04-09T08:33:59.184Z</time>
      </trkpt>
      <trkpt lat="42.26781" lon="22.61875">
        <ele>771.18311</ele>
        <time>2022-04-09T08:34:07.223Z</time>
      </trkpt>
      <trkpt lat="42.26781" lon="22.61862">
        <ele>771.846662</ele>
        <time>2022-04-09T08:34:15.185Z</time>
      </trkpt>
      <trkpt lat="42.26779" lon="22.6185">
        <ele>772.478041</ele>
        <time>2022-04-09T08:34:23.194Z</time>
      </trkpt>
      <trkpt lat="42.26776" lon="22.61839">
        <ele>773.120402</ele>
        <time>2022-04-09T08:34:31.193Z</time>
      </trkpt>
      <trkpt lat="42.26775" lon="22.61826">
        <ele>773.805359</ele>
        <time>2022-04-09T08:34:39.220Z</time>
      </trkpt>
      <trkpt lat="42.26774" lon="22.61813">
        <ele>774.485786</ele>
        <time>2022-04-09T08:34:47.186Z</time>
      </trkpt>
      <trkpt lat="42.26771" lon="22.61801">
        <ele>775.131739</ele>
        <time>2022-04-09T08:34:55.197Z</time>
      </trkpt>
      <trkpt lat="42.2677" lon="22.61787">
        <ele>775.838797</ele>
        <time>2022-04-09T08:35:03.197Z</time>
      </trkpt>
      <trkpt lat="42.26769" lon="22.61775">
        <ele>776.491812</ele>
        <time>2022-04-09T08:35:10.196Z</time>
      </trkpt>
      <trkpt lat="42.26767" lon="22.61763">
        <ele>777.132991</ele>
        <time>2022-04-09T08:35:18.178Z</time>
      </trkpt>
      <trkpt lat="42.26764" lon="22.61751">
        <ele>777.790181</ele>
        <time>2022-04-09T08:35:27.218Z</time>
      </trkpt>
      <trkpt lat="42.26762" lon="22.61739">
        <ele>778.448123</ele>
        <time>2022-04-09T08:35:35.218Z</time>
      </trkpt>
      <trkpt lat="42.26759" lon="22.61726">
        <ele>779.120422</ele>
        <time>2022-04-09T08:35:42.189Z</time>
      </trkpt>
      <trkpt lat="42.26757" lon="22.61714">
        <ele>779.787193</ele>
        <time>2022-04-09T08:35:50.173Z</time>
      </trkpt>
      <trkpt lat="42.26756" lon="22.61701">
        <ele>780.451534</ele>
        <time>2022-04-09T08:35:59.184Z</time>
      </trkpt>
      <trkpt lat="42.26754" lon="22.61688">
        <ele>781.097348</ele>
        <time>2022-04-09T08:36:06.201Z</time>
      </trkpt>
      <trkpt lat="42.26752" lon="22.61675">
        <ele>781.782434</ele>
        <time>2022-04-09T08:36:13.185Z</time>
      </trkpt>
      <trkpt lat="42.26749" lon="22.61663">
        <ele>782.415816</ele>
        <time>2022-04-09T08:36:21.219Z</time>
      </trkpt>
      <trkpt lat="42.26749" lon="22.61651">
        <ele>783.060521</ele>
        <time>2022-04-09T08:36:29.180Z</time>
      </trkpt>
      <trkpt lat="42.26748" lon="22.61639">
        <ele>783.676641</ele>
        <time>2022-04-09T08:36:36.233Z</time>
      </trkpt>
      <trkpt lat="42.26747" lon="22.61626">
        <ele>784.308503</ele>
        <time>2022-04-09T08:36:44.191Z</time>
      </trkpt>
      <trkpt lat="42.26745" lon="22.61614">
        <ele>784.944359</ele>
        <time>2022-04-09T08:36:51.181Z</time>
      </trkpt>
      <trkpt lat="42.26744" lon="22.61601">
        <ele>785.605769</ele>
        <time>2022-04-09T08:36:59.179Z</time>
      </trkpt>
      <trkpt lat="42.26742" lon="22.61589">
        <ele>786.221016</ele>
        <time>2022-04-09T08:37:06.206Z</time>
      </trkpt>
      <trkpt lat="42.2674" lon="22.61577">
        <ele>786.863844</ele>
        <time>2022-04-09T08:37:14.196Z</time>
      </trkpt>
      <trkpt lat="42.26738" lon="22.61564">
        <ele>787.520267</ele>
        <time>2022-04-09T08:37:22.182Z</time>
      </trkpt>
      <trkpt lat="42.26736" lon="22.61551">
        <ele>788.195504</ele>
        <time>2022-04-09T08:37:30.177Z</time>
      </trkpt>
      <trkpt lat="42.26734" lon="22.61539">
        <ele>788.838346</ele>
        <time>2022-04-09T08:37:38.195Z</time>
      </trkpt>
      <trkpt lat="42.26732" lon="22.61526">
        <ele>789.503905</ele>
        <time>2022-04-09T08:37:46.178Z</time>
      </trkpt>
      <trkpt lat="42.2673" lon="22.61514">
        <ele>790.126864</ele>
        <time>2022-04-09T08:37:53.195Z</time>
      </trkpt>
      <trkpt lat="42.26728" lon="22.61501">
        <ele>790.810853</ele>
        <time>2022-04-09T08:38:01.228Z</time>
      </trkpt>
      <trkpt lat="42.26727" lon="22.61488">
        <ele>791.46295</ele>
        <time>2022-04-09T08:38:09.186Z</time>
      </trkpt>
      <trkpt lat="42.26726" lon="22.61475">
        <ele>792.114389</ele>
        <time>2022-04-09T08:38:17.187Z</time>
      </trkpt>
      <trkpt lat="42.26723" lon="22.61464">
        <ele>792.632664</ele>
        <time>2022-04-09T08:38:25.185Z</time>
      </trkpt>
      <trkpt lat="42.26721" lon="22.61451">
        <ele>793.187226</ele>
        <time>2022-04-09T08:38:33.179Z</time>
      </trkpt>
      <trkpt lat="42.26718" lon="22.61439">
        <ele>793.697366</ele>
        <time>2022-04-09T08:38:41.188Z</time>
      </trkpt>
      <trkpt lat="42.26716" lon="22.61427">
        <ele>794.202058</ele>
        <time>2022-04-09T08:38:49.183Z</time>
      </trkpt>
      <trkpt lat="42.26714" lon="22.61415">
        <ele>794.697604</ele>
        <time>2022-04-09T08:38:56.189Z</time>
      </trkpt>
      <trkpt lat="42.26712" lon="22.61403">
        <ele>795.197268</ele>
        <time>2022-04-09T08:39:03.196Z</time>
      </trkpt>
      <trkpt lat="42.26711" lon="22.61389">
        <ele>795.746747</ele>
        <time>2022-04-09T08:39:11.196Z</time>
      </trkpt>
      <trkpt lat="42.2671" lon="22.61376">
        <ele>796.29247</ele>
        <time>2022-04-09T08:39:19.219Z</time>
      </trkpt>
      <trkpt lat="42.26708" lon="22.61364">
        <ele>796.797973</ele>
        <time>2022-04-09T08:39:26.188Z</time>
      </trkpt>
      <trkpt lat="42.26706" lon="22.61352">
        <ele>797.301516</ele>
        <time>2022-04-09T08:39:34.193Z</time>
      </trkpt>
      <trkpt lat="42.26705" lon="22.6134">
        <ele>797.798039</ele>
        <time>2022-04-09T08:39:42.248Z</time>
      </trkpt>
      <trkpt lat="42.26703" lon="22.61327">
        <ele>798.324983</ele>
        <time>2022-04-09T08:39:50.194Z</time>
      </trkpt>
      <trkpt lat="42.26701" lon="22.61315">
        <ele>798.846564</ele>
        <time>2022-04-09T08:39:58.220Z</time>
      </trkpt>
      <trkpt lat="42.267" lon="22.61301">
        <ele>799.391423</ele>
        <time>2022-04-09T08:40:07.181Z</time>
      </trkpt>
      <trkpt lat="42.26698" lon="22.61288">
        <ele>799.947441</ele>
        <time>2022-04-09T08:40:15.225Z</time>
      </trkpt>
      <trkpt lat="42.26695" lon="22.61276">
        <ele>800.464213</ele>
        <time>2022-04-09T08:40:22.197Z</time>
      </trkpt>
      <trkpt lat="42.26694" lon="22.61263">
        <ele>800.996916</ele>
        <time>2022-04-09T08:40:29.187Z</time>
      </trkpt>
      <trkpt lat="42.26691" lon="22.6125">
        <ele>801.559591</ele>
        <time>2022-04-09T08:40:38.192Z</time>
      </trkpt>
      <trkpt lat="42.2669" lon="22.61236">
        <ele>802.126492</ele>
        <time>2022-04-09T08:40:46.209Z</time>
      </trkpt>
      <trkpt lat="42.26689" lon="22.61223">
        <ele>802.919277</ele>
        <time>2022-04-09T08:40:53.199Z</time>
      </trkpt>
      <trkpt lat="42.26688" lon="22.6121">
        <ele>803.758176</ele>
        <time>2022-04-09T08:41:01.191Z</time>
      </trkpt>
      <trkpt lat="42.26686" lon="22.61198">
        <ele>804.565147</ele>
        <time>2022-04-09T08:41:08.208Z</time>
      </trkpt>
      <trkpt lat="42.26683" lon="22.61185">
        <ele>805.413547</ele>
        <time>2022-04-09T08:41:15.186Z</time>
      </trkpt>
      <trkpt lat="42.26682" lon="22.61171">
        <ele>806.262548</ele>
        <time>2022-04-09T08:41:23.188Z</time>
      </trkpt>
      <trkpt lat="42.26681" lon="22.61158">
        <ele>807.082544</ele>
        <time>2022-04-09T08:41:31.171Z</time>
      </trkpt>
      <trkpt lat="42.2668" lon="22.61145">
        <ele>807.915976</ele>
        <time>2022-04-09T08:41:40.202Z</time>
      </trkpt>
      <trkpt lat="42.26678" lon="22.61132">
        <ele>808.773206</ele>
        <time>2022-04-09T08:41:48.192Z</time>
      </trkpt>
      <trkpt lat="42.26677" lon="22.6112">
        <ele>809.548258</ele>
        <time>2022-04-09T08:41:56.193Z</time>
      </trkpt>
      <trkpt lat="42.26674" lon="22.61108">
        <ele>810.343292</ele>
        <time>2022-04-09T08:42:05.181Z</time>
      </trkpt>
      <trkpt lat="42.26672" lon="22.61095">
        <ele>811.205579</ele>
        <time>2022-04-09T08:42:13.241Z</time>
      </trkpt>
      <trkpt lat="42.26671" lon="22.61081">
        <ele>812.046222</ele>
        <time>2022-04-09T08:42:23.164Z</time>
      </trkpt>
      <trkpt lat="42.26669" lon="22.61069">
        <ele>812.869213</ele>
        <time>2022-04-09T08:42:31.171Z</time>
      </trkpt>
      <trkpt lat="42.26667" lon="22.61057">
        <ele>813.639313</ele>
        <time>2022-04-09T08:42:38.185Z</time>
      </trkpt>
      <trkpt lat="42.26666" lon="22.61045">
        <ele>814.408114</ele>
        <time>2022-04-09T08:42:46.209Z</time>
      </trkpt>
      <trkpt lat="42.26664" lon="22.61032">
        <ele>815.2498</ele>
        <time>2022-04-09T08:42:54.188Z</time>
      </trkpt>
      <trkpt lat="42.26663" lon="22.6102">
        <ele>816.022396</ele>
        <time>2022-04-09T08:43:01.190Z</time>
      </trkpt>
      <trkpt lat="42.26662" lon="22.61007">
        <ele>816.850464</ele>
        <time>2022-04-09T08:43:09.251Z</time>
      </trkpt>
      <trkpt lat="42.2666" lon="22.60994">
        <ele>817.603967</ele>
        <time>2022-04-09T08:43:17.192Z</time>
      </trkpt>
      <trkpt lat="42.26656" lon="22.60981">
        <ele>818.117306</ele>
        <time>2022-04-09T08:43:27.197Z</time>
      </trkpt>
      <trkpt lat="42.26655" lon="22.60968">
        <ele>818.612561</ele>
        <time>2022-04-09T08:43:36.188Z</time>
      </trkpt>
      <trkpt lat="42.26654" lon="22.60955">
        <ele>819.098862</ele>
        <time>2022-04-09T08:43:45.232Z</time>
      </trkpt>
      <trkpt lat="42.26652" lon="22.60943">
        <ele>819.573697</ele>
        <time>2022-04-09T08:43:54.165Z</time>
      </trkpt>
      <trkpt lat="42.26651" lon="22.6093">
        <ele>820.051736</ele>
        <time>2022-04-09T08:44:01.185Z</time>
      </trkpt>
      <trkpt lat="42.26649" lon="22.60917">
        <ele>820.531687</ele>
        <time>2022-04-09T08:44:08.197Z</time>
      </trkpt>
      <trkpt lat="42.26646" lon="22.60905">
        <ele>820.995649</ele>
        <time>2022-04-09T08:44:15.202Z</time>
      </trkpt>
      <trkpt lat="42.26644" lon="22.60894">
        <ele>821.456008</ele>
        <time>2022-04-09T08:44:21.200Z</time>
      </trkpt>
      <trkpt lat="42.26642" lon="22.6088">
        <ele>821.95891</ele>
        <time>2022-04-09T08:44:30.237Z</time>
      </trkpt>
      <trkpt lat="42.26641" lon="22.60868">
        <ele>822.428184</ele>
        <time>2022-04-09T08:44:38.182Z</time>
      </trkpt>
      <trkpt lat="42.26638" lon="22.60856">
        <ele>822.892037</ele>
        <time>2022-04-09T08:44:46.203Z</time>
      </trkpt>
      <trkpt lat="42.26636" lon="22.60844">
        <ele>823.369372</ele>
        <time>2022-04-09T08:44:54.194Z</time>
      </trkpt>
      <trkpt lat="42.26633" lon="22.60831">
        <ele>823.875602</ele>
        <time>2022-04-09T08:45:01.181Z</time>
      </trkpt>
      <trkpt lat="42.26632" lon="22.60818">
        <ele>824.357173</ele>
        <time>2022-04-09T08:45:09.191Z</time>
      </trkpt>
      <trkpt lat="42.26631" lon="22.60805">
        <ele>824.820985</ele>
        <time>2022-04-09T08:45:17.196Z</time>
      </trkpt>
      <trkpt lat="42.2663" lon="22.60793">
        <ele>825.308378</ele>
        <time>2022-04-09T08:45:26.181Z</time>
      </trkpt>
      <trkpt lat="42.26628" lon="22.6078">
        <ele>825.801113</ele>
        <time>2022-04-09T08:45:34.185Z</time>
      </trkpt>
      <trkpt lat="42.26624" lon="22.60767">
        <ele>826.319343</ele>
        <time>2022-04-09T08:45:42.168Z</time>
      </trkpt>
      <trkpt lat="42.2662" lon="22.60755">
        <ele>826.892956</ele>
        <time>2022-04-09T08:45:50.182Z</time>
      </trkpt>
      <trkpt lat="42.2662" lon="22.60742">
        <ele>827.687567</ele>
        <time>2022-04-09T08:45:58.173Z</time>
      </trkpt>
      <trkpt lat="42.26619" lon="22.60729">
        <ele>828.502622</ele>
        <time>2022-04-09T08:46:07.188Z</time>
      </trkpt>
      <trkpt lat="42.26618" lon="22.60716">
        <ele>829.28542</ele>
        <time>2022-04-09T08:46:16.226Z</time>
      </trkpt>
      <trkpt lat="42.26617" lon="22.60704">
        <ele>830.010505</ele>
        <time>2022-04-09T08:46:24.174Z</time>
      </trkpt>
      <trkpt lat="42.26615" lon="22.60679">
        <ele>831.509633</ele>
        <time>2022-04-09T08:52:02.220Z</time>
      </trkpt>
      <trkpt lat="42.26613" lon="22.60666">
        <ele>832.318507</ele>
        <time>2022-04-09T08:52:10.192Z</time>
      </trkpt>
      <trkpt lat="42.2661" lon="22.60653">
        <ele>833.113666</ele>
        <time>2022-04-09T08:52:17.220Z</time>
      </trkpt>
      <trkpt lat="42.26607" lon="22.6064">
        <ele>833.908322</ele>
        <time>2022-04-09T08:52:25.181Z</time>
      </trkpt>
      <trkpt lat="42.26606" lon="22.60628">
        <ele>834.645664</ele>
        <time>2022-04-09T08:52:32.204Z</time>
      </trkpt>
      <trkpt lat="42.26604" lon="22.60615">
        <ele>835.396299</ele>
        <time>2022-04-09T08:52:39.219Z</time>
      </trkpt>
      <trkpt lat="42.26603" lon="22.60603">
        <ele>836.117472</ele>
        <time>2022-04-09T08:52:46.180Z</time>
      </trkpt>
      <trkpt lat="42.26601" lon="22.60591">
        <ele>836.895857</ele>
        <time>2022-04-09T08:52:54.219Z</time>
      </trkpt>
      <trkpt lat="42.266" lon="22.60578">
        <ele>837.683503</ele>
        <time>2022-04-09T08:53:02.188Z</time>
      </trkpt>
      <trkpt lat="42.26598" lon="22.60566">
        <ele>838.418367</ele>
        <time>2022-04-09T08:53:10.192Z</time>
      </trkpt>
      <trkpt lat="42.26595" lon="22.60553">
        <ele>839.220812</ele>
        <time>2022-04-09T08:53:18.201Z</time>
      </trkpt>
      <trkpt lat="42.26593" lon="22.6054">
        <ele>839.959789</ele>
        <time>2022-04-09T08:53:25.186Z</time>
      </trkpt>
      <trkpt lat="42.26592" lon="22.60528">
        <ele>840.729433</ele>
        <time>2022-04-09T08:53:33.197Z</time>
      </trkpt>
      <trkpt lat="42.26591" lon="22.60514">
        <ele>841.486789</ele>
        <time>2022-04-09T08:53:41.169Z</time>
      </trkpt>
      <trkpt lat="42.26589" lon="22.60502">
        <ele>842.162668</ele>
        <time>2022-04-09T08:53:48.175Z</time>
      </trkpt>
      <trkpt lat="42.26587" lon="22.60489">
        <ele>842.877596</ele>
        <time>2022-04-09T08:53:56.186Z</time>
      </trkpt>
      <trkpt lat="42.26584" lon="22.60476">
        <ele>843.60131</ele>
        <time>2022-04-09T08:54:04.184Z</time>
      </trkpt>
      <trkpt lat="42.26582" lon="22.60463">
        <ele>844.286911</ele>
        <time>2022-04-09T08:54:12.191Z</time>
      </trkpt>
      <trkpt lat="42.2658" lon="22.60452">
        <ele>844.945442</ele>
        <time>2022-04-09T08:54:19.177Z</time>
      </trkpt>
      <trkpt lat="42.26579" lon="22.60439">
        <ele>845.620774</ele>
        <time>2022-04-09T08:54:26.209Z</time>
      </trkpt>
      <trkpt lat="42.26577" lon="22.60426">
        <ele>846.347802</ele>
        <time>2022-04-09T08:54:34.197Z</time>
      </trkpt>
      <trkpt lat="42.26576" lon="22.60412">
        <ele>847.089455</ele>
        <time>2022-04-09T08:54:42.201Z</time>
      </trkpt>
      <trkpt lat="42.26575" lon="22.60399">
        <ele>847.779564</ele>
        <time>2022-04-09T08:54:49.192Z</time>
      </trkpt>
      <trkpt lat="42.26573" lon="22.60385">
        <ele>848.523644</ele>
        <time>2022-04-09T08:54:57.181Z</time>
      </trkpt>
      <trkpt lat="42.26572" lon="22.60372">
        <ele>849.235018</ele>
        <time>2022-04-09T08:55:06.190Z</time>
      </trkpt>
      <trkpt lat="42.26569" lon="22.6036">
        <ele>849.904982</ele>
        <time>2022-04-09T08:55:13.180Z</time>
      </trkpt>
      <trkpt lat="42.26568" lon="22.60348">
        <ele>850.582292</ele>
        <time>2022-04-09T08:55:20.193Z</time>
      </trkpt>
      <trkpt lat="42.26566" lon="22.60335">
        <ele>851.246304</ele>
        <time>2022-04-09T08:55:27.196Z</time>
      </trkpt>
      <trkpt lat="42.26564" lon="22.60322">
        <ele>851.971187</ele>
        <time>2022-04-09T08:55:35.225Z</time>
      </trkpt>
      <trkpt lat="42.26562" lon="22.60308">
        <ele>852.728583</ele>
        <time>2022-04-09T08:55:43.185Z</time>
      </trkpt>
      <trkpt lat="42.26561" lon="22.60295">
        <ele>853.430728</ele>
        <time>2022-04-09T08:55:50.231Z</time>
      </trkpt>
      <trkpt lat="42.26558" lon="22.60283">
        <ele>854.124868</ele>
        <time>2022-04-09T08:55:58.164Z</time>
      </trkpt>
      <trkpt lat="42.26555" lon="22.60269">
        <ele>854.629221</ele>
        <time>2022-04-09T08:56:07.187Z</time>
      </trkpt>
      <trkpt lat="42.26554" lon="22.60257">
        <ele>855.078642</ele>
        <time>2022-04-09T08:56:15.180Z</time>
      </trkpt>
      <trkpt lat="42.26551" lon="22.60244">
        <ele>855.562288</ele>
        <time>2022-04-09T08:56:23.174Z</time>
      </trkpt>
      <trkpt lat="42.26549" lon="22.60232">
        <ele>856.00816</ele>
        <time>2022-04-09T08:56:29.192Z</time>
      </trkpt>
      <trkpt lat="42.26549" lon="22.60218">
        <ele>856.491625</ele>
        <time>2022-04-09T08:56:36.194Z</time>
      </trkpt>
      <trkpt lat="42.26547" lon="22.60205">
        <ele>856.970854</ele>
        <time>2022-04-09T08:56:44.181Z</time>
      </trkpt>
      <trkpt lat="42.26546" lon="22.60192">
        <ele>857.429425</ele>
        <time>2022-04-09T08:56:52.182Z</time>
      </trkpt>
      <trkpt lat="42.26544" lon="22.6018">
        <ele>857.873953</ele>
        <time>2022-04-09T08:56:59.242Z</time>
      </trkpt>
      <trkpt lat="42.26542" lon="22.60167">
        <ele>858.36489</ele>
        <time>2022-04-09T08:57:07.201Z</time>
      </trkpt>
      <trkpt lat="42.26539" lon="22.60154">
        <ele>858.832541</ele>
        <time>2022-04-09T08:57:13.197Z</time>
      </trkpt>
      <trkpt lat="42.26538" lon="22.6014">
        <ele>859.324352</ele>
        <time>2022-04-09T08:57:21.235Z</time>
      </trkpt>
      <trkpt lat="42.26537" lon="22.60127">
        <ele>859.822559</ele>
        <time>2022-04-09T08:57:28.175Z</time>
      </trkpt>
      <trkpt lat="42.26534" lon="22.60114">
        <ele>860.282123</ele>
        <time>2022-04-09T08:57:35.184Z</time>
      </trkpt>
      <trkpt lat="42.26532" lon="22.60101">
        <ele>860.771769</ele>
        <time>2022-04-09T08:57:43.195Z</time>
      </trkpt>
      <trkpt lat="42.26529" lon="22.60089">
        <ele>861.234731</ele>
        <time>2022-04-09T08:57:51.184Z</time>
      </trkpt>
      <trkpt lat="42.26528" lon="22.60076">
        <ele>861.674932</ele>
        <time>2022-04-09T08:57:58.189Z</time>
      </trkpt>
      <trkpt lat="42.26526" lon="22.60064">
        <ele>862.116376</ele>
        <time>2022-04-09T08:58:05.193Z</time>
      </trkpt>
      <trkpt lat="42.26525" lon="22.60051">
        <ele>862.592057</ele>
        <time>2022-04-09T08:58:13.181Z</time>
      </trkpt>
      <trkpt lat="42.26522" lon="22.60037">
        <ele>863.173227</ele>
        <time>2022-04-09T08:58:21.217Z</time>
      </trkpt>
      <trkpt lat="42.2652" lon="22.60025">
        <ele>863.753996</ele>
        <time>2022-04-09T08:58:27.187Z</time>
      </trkpt>
      <trkpt lat="42.26519" lon="22.60012">
        <ele>864.370198</ele>
        <time>2022-04-09T08:58:34.201Z</time>
      </trkpt>
      <trkpt lat="42.26517" lon="22.59999">
        <ele>864.999089</ele>
        <time>2022-04-09T08:58:42.193Z</time>
      </trkpt>
      <trkpt lat="42.26515" lon="22.59986">
        <ele>865.591804</ele>
        <time>2022-04-09T08:58:51.174Z</time>
      </trkpt>
      <trkpt lat="42.26513" lon="22.59973">
        <ele>866.207373</ele>
        <time>2022-04-09T08:58:58.181Z</time>
      </trkpt>
      <trkpt lat="42.26511" lon="22.5996">
        <ele>866.800088</ele>
        <time>2022-04-09T08:59:05.197Z</time>
      </trkpt>
      <trkpt lat="42.2651" lon="22.59948">
        <ele>867.365219</ele>
        <time>2022-04-09T08:59:12.187Z</time>
      </trkpt>
      <trkpt lat="42.2651" lon="22.59935">
        <ele>867.957877</ele>
        <time>2022-04-09T08:59:20.167Z</time>
      </trkpt>
      <trkpt lat="42.26507" lon="22.59922">
        <ele>868.586052</ele>
        <time>2022-04-09T08:59:28.186Z</time>
      </trkpt>
      <trkpt lat="42.26505" lon="22.5991">
        <ele>869.154572</ele>
        <time>2022-04-09T08:59:35.177Z</time>
      </trkpt>
      <trkpt lat="42.26504" lon="22.59897">
        <ele>869.76301</ele>
        <time>2022-04-09T08:59:43.184Z</time>
      </trkpt>
      <trkpt lat="42.26501" lon="22.59885">
        <ele>870.343315</ele>
        <time>2022-04-09T08:59:51.192Z</time>
      </trkpt>
      <trkpt lat="42.265" lon="22.59872">
        <ele>870.949587</ele>
        <time>2022-04-09T09:00:00.173Z</time>
      </trkpt>
      <trkpt lat="42.26497" lon="22.59859">
        <ele>871.542759</ele>
        <time>2022-04-09T09:00:08.183Z</time>
      </trkpt>
      <trkpt lat="42.26495" lon="22.59847">
        <ele>872.116171</ele>
        <time>2022-04-09T09:00:16.204Z</time>
      </trkpt>
      <trkpt lat="42.26493" lon="22.59834">
        <ele>872.739387</ele>
        <time>2022-04-09T09:00:24.245Z</time>
      </trkpt>
      <trkpt lat="42.26492" lon="22.59821">
        <ele>873.355934</ele>
        <time>2022-04-09T09:00:32.208Z</time>
      </trkpt>
      <trkpt lat="42.2649" lon="22.59809">
        <ele>873.919105</ele>
        <time>2022-04-09T09:00:40.196Z</time>
      </trkpt>
      <trkpt lat="42.26488" lon="22.59796">
        <ele>874.574539</ele>
        <time>2022-04-09T09:00:48.192Z</time>
      </trkpt>
      <trkpt lat="42.26486" lon="22.59784">
        <ele>875.2213</ele>
        <time>2022-04-09T09:00:56.183Z</time>
      </trkpt>
      <trkpt lat="42.26484" lon="22.59771">
        <ele>875.895746</ele>
        <time>2022-04-09T09:01:04.179Z</time>
      </trkpt>
      <trkpt lat="42.26482" lon="22.59759">
        <ele>876.531495</ele>
        <time>2022-04-09T09:01:11.175Z</time>
      </trkpt>
      <trkpt lat="42.26479" lon="22.59747">
        <ele>877.191226</ele>
        <time>2022-04-09T09:01:19.213Z</time>
      </trkpt>
      <trkpt lat="42.26478" lon="22.59734">
        <ele>877.855345</ele>
        <time>2022-04-09T09:01:27.177Z</time>
      </trkpt>
      <trkpt lat="42.26477" lon="22.59722">
        <ele>878.487958</ele>
        <time>2022-04-09T09:01:34.184Z</time>
      </trkpt>
      <trkpt lat="42.26475" lon="22.59709">
        <ele>879.167472</ele>
        <time>2022-04-09T09:01:42.180Z</time>
      </trkpt>
      <trkpt lat="42.26474" lon="22.59695">
        <ele>879.852904</ele>
        <time>2022-04-09T09:01:50.192Z</time>
      </trkpt>
      <trkpt lat="42.26472" lon="22.59683">
        <ele>880.496968</ele>
        <time>2022-04-09T09:01:57.220Z</time>
      </trkpt>
      <trkpt lat="42.2647" lon="22.5967">
        <ele>881.173406</ele>
        <time>2022-04-09T09:02:05.187Z</time>
      </trkpt>
      <trkpt lat="42.26468" lon="22.59658">
        <ele>881.811574</ele>
        <time>2022-04-09T09:02:13.191Z</time>
      </trkpt>
      <trkpt lat="42.26465" lon="22.59647">
        <ele>882.449414</ele>
        <time>2022-04-09T09:02:21.187Z</time>
      </trkpt>
      <trkpt lat="42.26464" lon="22.59634">
        <ele>883.09736</ele>
        <time>2022-04-09T09:02:30.202Z</time>
      </trkpt>
      <trkpt lat="42.26462" lon="22.59622">
        <ele>883.726251</ele>
        <time>2022-04-09T09:02:37.228Z</time>
      </trkpt>
      <trkpt lat="42.2646" lon="22.59609">
        <ele>884.428536</ele>
        <time>2022-04-09T09:02:45.192Z</time>
      </trkpt>
      <trkpt lat="42.26459" lon="22.59596">
        <ele>885.106876</ele>
        <time>2022-04-09T09:02:52.182Z</time>
      </trkpt>
      <trkpt lat="42.26456" lon="22.59583">
        <ele>885.788977</ele>
        <time>2022-04-09T09:03:00.184Z</time>
      </trkpt>
      <trkpt lat="42.26454" lon="22.5957">
        <ele>886.467395</ele>
        <time>2022-04-09T09:03:08.189Z</time>
      </trkpt>
      <trkpt lat="42.26453" lon="22.59557">
        <ele>886.869879</ele>
        <time>2022-04-09T09:03:15.193Z</time>
      </trkpt>
      <trkpt lat="42.26452" lon="22.59545">
        <ele>887.248226</ele>
        <time>2022-04-09T09:03:23.181Z</time>
      </trkpt>
      <trkpt lat="42.26449" lon="22.59531">
        <ele>887.659103</ele>
        <time>2022-04-09T09:03:32.234Z</time>
      </trkpt>
      <trkpt lat="42.26447" lon="22.59519">
        <ele>888.025315</ele>
        <time>2022-04-09T09:03:39.171Z</time>
      </trkpt>
      <trkpt lat="42.26446" lon="22.59506">
        <ele>888.415</ele>
        <time>2022-04-09T09:03:47.188Z</time>
      </trkpt>
      <trkpt lat="42.26445" lon="22.59494">
        <ele>888.78111</ele>
        <time>2022-04-09T09:03:54.191Z</time>
      </trkpt>
      <trkpt lat="42.26443" lon="22.59482">
        <ele>889.151354</ele>
        <time>2022-04-09T09:04:02.176Z</time>
      </trkpt>
      <trkpt lat="42.26441" lon="22.59469">
        <ele>889.543433</ele>
        <time>2022-04-09T09:04:10.188Z</time>
      </trkpt>
      <trkpt lat="42.26439" lon="22.59456">
        <ele>889.911633</ele>
        <time>2022-04-09T09:04:17.237Z</time>
      </trkpt>
      <trkpt lat="42.26437" lon="22.59444">
        <ele>890.290535</ele>
        <time>2022-04-09T09:04:24.209Z</time>
      </trkpt>
      <trkpt lat="42.26436" lon="22.59431">
        <ele>890.658078</ele>
        <time>2022-04-09T09:04:31.179Z</time>
      </trkpt>
      <trkpt lat="42.26434" lon="22.59418">
        <ele>891.043492</ele>
        <time>2022-04-09T09:04:39.203Z</time>
      </trkpt>
      <trkpt lat="42.26433" lon="22.59405">
        <ele>891.446617</ele>
        <time>2022-04-09T09:04:47.193Z</time>
      </trkpt>
      <trkpt lat="42.26431" lon="22.59393">
        <ele>891.809026</ele>
        <time>2022-04-09T09:04:55.184Z</time>
      </trkpt>
      <trkpt lat="42.26429" lon="22.5938">
        <ele>892.199484</ele>
        <time>2022-04-09T09:05:03.194Z</time>
      </trkpt>
      <trkpt lat="42.26426" lon="22.59367">
        <ele>892.598882</ele>
        <time>2022-04-09T09:05:11.198Z</time>
      </trkpt>
      <trkpt lat="42.26423" lon="22.59355">
        <ele>892.980893</ele>
        <time>2022-04-09T09:05:18.177Z</time>
      </trkpt>
      <trkpt lat="42.26421" lon="22.59342">
        <ele>893.367704</ele>
        <time>2022-04-09T09:05:25.196Z</time>
      </trkpt>
      <trkpt lat="42.26417" lon="22.5933">
        <ele>893.790566</ele>
        <time>2022-04-09T09:05:33.192Z</time>
      </trkpt>
      <trkpt lat="42.26414" lon="22.59318">
        <ele>894.443401</ele>
        <time>2022-04-09T09:05:41.181Z</time>
      </trkpt>
      <trkpt lat="42.2641" lon="22.59306">
        <ele>895.096237</ele>
        <time>2022-04-09T09:05:48.226Z</time>
      </trkpt>
      <trkpt lat="42.26406" lon="22.59293">
        <ele>895.773197</ele>
        <time>2022-04-09T09:05:55.169Z</time>
      </trkpt>
      <trkpt lat="42.26407" lon="22.5928">
        <ele>896.449401</ele>
        <time>2022-04-09T09:06:03.202Z</time>
      </trkpt>
      <trkpt lat="42.26405" lon="22.59267">
        <ele>897.120247</ele>
        <time>2022-04-09T09:06:11.192Z</time>
      </trkpt>
      <trkpt lat="42.26403" lon="22.59255">
        <ele>897.756954</ele>
        <time>2022-04-09T09:06:19.189Z</time>
      </trkpt>
      <trkpt lat="42.26402" lon="22.59242">
        <ele>898.410515</ele>
        <time>2022-04-09T09:06:27.196Z</time>
      </trkpt>
      <trkpt lat="42.26402" lon="22.59228">
        <ele>899.086548</ele>
        <time>2022-04-09T09:06:35.174Z</time>
      </trkpt>
      <trkpt lat="42.26402" lon="22.59216">
        <ele>899.732504</ele>
        <time>2022-04-09T09:06:43.196Z</time>
      </trkpt>
      <trkpt lat="42.26401" lon="22.59202">
        <ele>900.422121</ele>
        <time>2022-04-09T09:06:52.257Z</time>
      </trkpt>
      <trkpt lat="42.26399" lon="22.59189">
        <ele>901.086847</ele>
        <time>2022-04-09T09:07:00.191Z</time>
      </trkpt>
      <trkpt lat="42.26397" lon="22.59176">
        <ele>901.758904</ele>
        <time>2022-04-09T09:07:08.162Z</time>
      </trkpt>
      <trkpt lat="42.26395" lon="22.59163">
        <ele>902.428198</ele>
        <time>2022-04-09T09:07:16.190Z</time>
      </trkpt>
      <trkpt lat="42.26394" lon="22.59149">
        <ele>903.122579</ele>
        <time>2022-04-09T09:07:24.184Z</time>
      </trkpt>
      <trkpt lat="42.26392" lon="22.59136">
        <ele>903.811152</ele>
        <time>2022-04-09T09:07:32.175Z</time>
      </trkpt>
      <trkpt lat="42.2639" lon="22.59123">
        <ele>904.469644</ele>
        <time>2022-04-09T09:07:40.177Z</time>
      </trkpt>
      <trkpt lat="42.26389" lon="22.5911">
        <ele>905.134372</ele>
        <time>2022-04-09T09:07:48.193Z</time>
      </trkpt>
      <trkpt lat="42.26387" lon="22.59097">
        <ele>905.783068</ele>
        <time>2022-04-09T09:07:56.199Z</time>
      </trkpt>
      <trkpt lat="42.26385" lon="22.59084">
        <ele>906.657556</ele>
        <time>2022-04-09T09:08:04.193Z</time>
      </trkpt>
      <trkpt lat="42.26384" lon="22.59072">
        <ele>907.537519</ele>
        <time>2022-04-09T09:08:11.175Z</time>
      </trkpt>
      <trkpt lat="42.26382" lon="22.5906">
        <ele>908.403297</ele>
        <time>2022-04-09T09:08:18.215Z</time>
      </trkpt>
      <trkpt lat="42.2638" lon="22.59048">
        <ele>909.274174</ele>
        <time>2022-04-09T09:08:25.180Z</time>
      </trkpt>
      <trkpt lat="42.26378" lon="22.59035">
        <ele>910.238341</ele>
        <time>2022-04-09T09:08:33.193Z</time>
      </trkpt>
      <trkpt lat="42.26375" lon="22.59022">
        <ele>911.190358</ele>
        <time>2022-04-09T09:08:41.237Z</time>
      </trkpt>
      <trkpt lat="42.26373" lon="22.59009">
        <ele>912.099617</ele>
        <time>2022-04-09T09:08:48.192Z</time>
      </trkpt>
      <trkpt lat="42.26373" lon="22.58996">
        <ele>912.997843</ele>
        <time>2022-04-09T09:08:55.180Z</time>
      </trkpt>
      <trkpt lat="42.26372" lon="22.58984">
        <ele>913.877978</ele>
        <time>2022-04-09T09:09:02.198Z</time>
      </trkpt>
      <trkpt lat="42.2637" lon="22.58972">
        <ele>914.740859</ele>
        <time>2022-04-09T09:09:10.192Z</time>
      </trkpt>
      <trkpt lat="42.26367" lon="22.5896">
        <ele>915.68987</ele>
        <time>2022-04-09T09:09:18.180Z</time>
      </trkpt>
      <trkpt lat="42.26364" lon="22.58948">
        <ele>916.55565</ele>
        <time>2022-04-09T09:09:27.180Z</time>
      </trkpt>
      <trkpt lat="42.26363" lon="22.58935">
        <ele>917.450743</ele>
        <time>2022-04-09T09:09:34.184Z</time>
      </trkpt>
      <trkpt lat="42.26361" lon="22.58923">
        <ele>918.377259</ele>
        <time>2022-04-09T09:09:42.210Z</time>
      </trkpt>
      <trkpt lat="42.26359" lon="22.5891">
        <ele>919.301782</ele>
        <time>2022-04-09T09:09:49.183Z</time>
      </trkpt>
      <trkpt lat="42.26359" lon="22.58897">
        <ele>920.18649</ele>
        <time>2022-04-09T09:09:57.194Z</time>
      </trkpt>
      <trkpt lat="42.26356" lon="22.58884">
        <ele>921.153354</ele>
        <time>2022-04-09T09:10:07.177Z</time>
      </trkpt>
      <trkpt lat="42.26354" lon="22.58872">
        <ele>922.026711</ele>
        <time>2022-04-09T09:10:14.171Z</time>
      </trkpt>
      <trkpt lat="42.26352" lon="22.5886">
        <ele>922.925013</ele>
        <time>2022-04-09T09:10:21.190Z</time>
      </trkpt>
      <trkpt lat="42.26351" lon="22.58847">
        <ele>923.534788</ele>
        <time>2022-04-09T09:10:29.183Z</time>
      </trkpt>
      <trkpt lat="42.2635" lon="22.58834">
        <ele>924.075694</ele>
        <time>2022-04-09T09:10:37.194Z</time>
      </trkpt>
      <trkpt lat="42.26347" lon="22.58822">
        <ele>924.579144</ele>
        <time>2022-04-09T09:10:44.184Z</time>
      </trkpt>
      <trkpt lat="42.26344" lon="22.58809">
        <ele>925.122463</ele>
        <time>2022-04-09T09:10:52.219Z</time>
      </trkpt>
      <trkpt lat="42.26343" lon="22.58797">
        <ele>925.619839</ele>
        <time>2022-04-09T09:11:00.188Z</time>
      </trkpt>
      <trkpt lat="42.26341" lon="22.58784">
        <ele>926.129318</ele>
        <time>2022-04-09T09:11:09.198Z</time>
      </trkpt>
      <trkpt lat="42.2634" lon="22.58771">
        <ele>926.671489</ele>
        <time>2022-04-09T09:11:17.180Z</time>
      </trkpt>
      <trkpt lat="42.26338" lon="22.58759">
        <ele>927.17677</ele>
        <time>2022-04-09T09:11:24.184Z</time>
      </trkpt>
      <trkpt lat="42.26336" lon="22.58747">
        <ele>927.680221</ele>
        <time>2022-04-09T09:11:31.195Z</time>
      </trkpt>
      <trkpt lat="42.26336" lon="22.58734">
        <ele>928.187994</ele>
        <time>2022-04-09T09:11:38.176Z</time>
      </trkpt>
      <trkpt lat="42.26334" lon="22.58721">
        <ele>928.709099</ele>
        <time>2022-04-09T09:11:45.182Z</time>
      </trkpt>
      <trkpt lat="42.26331" lon="22.58709">
        <ele>929.237325</ele>
        <time>2022-04-09T09:11:53.181Z</time>
      </trkpt>
      <trkpt lat="42.26329" lon="22.58696">
        <ele>929.760316</ele>
        <time>2022-04-09T09:12:01.191Z</time>
      </trkpt>
      <trkpt lat="42.26326" lon="22.58684">
        <ele>930.261912</ele>
        <time>2022-04-09T09:12:07.187Z</time>
      </trkpt>
      <trkpt lat="42.26323" lon="22.58671">
        <ele>930.808497</ele>
        <time>2022-04-09T09:12:14.189Z</time>
      </trkpt>
      <trkpt lat="42.26322" lon="22.58657">
        <ele>931.371854</ele>
        <time>2022-04-09T09:12:21.167Z</time>
      </trkpt>
      <trkpt lat="42.26322" lon="22.58645">
        <ele>931.872043</ele>
        <time>2022-04-09T09:12:27.185Z</time>
      </trkpt>
      <trkpt lat="42.2632" lon="22.58633">
        <ele>932.362641</ele>
        <time>2022-04-09T09:12:34.191Z</time>
      </trkpt>
      <trkpt lat="42.26318" lon="22.5862">
        <ele>932.905661</ele>
        <time>2022-04-09T09:12:42.178Z</time>
      </trkpt>
      <trkpt lat="42.26316" lon="22.58608">
        <ele>933.405766</ele>
        <time>2022-04-09T09:12:49.193Z</time>
      </trkpt>
      <trkpt lat="42.26313" lon="22.58595">
        <ele>933.94906</ele>
        <time>2022-04-09T09:12:56.178Z</time>
      </trkpt>
      <trkpt lat="42.26312" lon="22.58582">
        <ele>934.477391</ele>
        <time>2022-04-09T09:13:02.191Z</time>
      </trkpt>
      <trkpt lat="42.2631" lon="22.5857">
        <ele>934.988708</ele>
        <time>2022-04-09T09:13:08.234Z</time>
      </trkpt>
      <trkpt lat="42.2631" lon="22.58557">
        <ele>935.48346</ele>
        <time>2022-04-09T09:13:14.191Z</time>
      </trkpt>
      <trkpt lat="42.2631" lon="22.58543">
        <ele>936.058286</ele>
        <time>2022-04-09T09:13:21.198Z</time>
      </trkpt>
      <trkpt lat="42.26309" lon="22.5853">
        <ele>936.60458</ele>
        <time>2022-04-09T09:13:27.193Z</time>
      </trkpt>
      <trkpt lat="42.26308" lon="22.58517">
        <ele>937.138062</ele>
        <time>2022-04-09T09:13:34.184Z</time>
      </trkpt>
      <trkpt lat="42.26309" lon="22.58503">
        <ele>937.683032</ele>
        <time>2022-04-09T09:13:41.228Z</time>
      </trkpt>
      <trkpt lat="42.26311" lon="22.5849">
        <ele>938.223419</ele>
        <time>2022-04-09T09:13:48.233Z</time>
      </trkpt>
      <trkpt lat="42.26315" lon="22.58477">
        <ele>938.792225</ele>
        <time>2022-04-09T09:13:55.177Z</time>
      </trkpt>
      <trkpt lat="42.26319" lon="22.58465">
        <ele>939.321089</ele>
        <time>2022-04-09T09:14:01.183Z</time>
      </trkpt>
      <trkpt lat="42.26325" lon="22.58456">
        <ele>939.825693</ele>
        <time>2022-04-09T09:14:07.197Z</time>
      </trkpt>
      <trkpt lat="42.26331" lon="22.58445">
        <ele>940.388976</ele>
        <time>2022-04-09T09:14:14.200Z</time>
      </trkpt>
      <trkpt lat="42.26338" lon="22.58434">
        <ele>940.953042</ele>
        <time>2022-04-09T09:14:20.217Z</time>
      </trkpt>
      <trkpt lat="42.26345" lon="22.58424">
        <ele>941.531552</ele>
        <time>2022-04-09T09:14:26.190Z</time>
      </trkpt>
      <trkpt lat="42.26352" lon="22.58415">
        <ele>942.035449</ele>
        <time>2022-04-09T09:14:31.193Z</time>
      </trkpt>
      <trkpt lat="42.26361" lon="22.58407">
        <ele>942.597347</ele>
        <time>2022-04-09T09:14:37.176Z</time>
      </trkpt>
      <trkpt lat="42.26369" lon="22.58399">
        <ele>943.174878</ele>
        <time>2022-04-09T09:14:43.189Z</time>
      </trkpt>
      <trkpt lat="42.26378" lon="22.58393">
        <ele>943.717698</ele>
        <time>2022-04-09T09:14:50.178Z</time>
      </trkpt>
      <trkpt lat="42.26387" lon="22.58388">
        <ele>944.27334</ele>
        <time>2022-04-09T09:14:58.160Z</time>
      </trkpt>
      <trkpt lat="42.26396" lon="22.58385">
        <ele>944.811009</ele>
        <time>2022-04-09T09:15:05.189Z</time>
      </trkpt>
      <trkpt lat="42.26407" lon="22.58383">
        <ele>945.397415</ele>
        <time>2022-04-09T09:15:14.192Z</time>
      </trkpt>
      <trkpt lat="42.26416" lon="22.58381">
        <ele>945.937913</ele>
        <time>2022-04-09T09:15:22.175Z</time>
      </trkpt>
      <trkpt lat="42.26426" lon="22.58379">
        <ele>946.472277</ele>
        <time>2022-04-09T09:15:30.176Z</time>
      </trkpt>
      <trkpt lat="42.26435" lon="22.58377">
        <ele>946.993863</ele>
        <time>2022-04-09T09:15:38.205Z</time>
      </trkpt>
      <trkpt lat="42.26444" lon="22.5838">
        <ele>947.517993</ele>
        <time>2022-04-09T09:15:46.185Z</time>
      </trkpt>
      <trkpt lat="42.26453" lon="22.58378">
        <ele>948.026317</ele>
        <time>2022-04-09T09:15:53.161Z</time>
      </trkpt>
      <trkpt lat="42.26463" lon="22.58376">
        <ele>948.56498</ele>
        <time>2022-04-09T09:16:00.166Z</time>
      </trkpt>
      <trkpt lat="42.26473" lon="22.58374">
        <ele>949.107587</ele>
        <time>2022-04-09T09:16:08.182Z</time>
      </trkpt>
      <trkpt lat="42.26483" lon="22.5837">
        <ele>949.683828</ele>
        <time>2022-04-09T09:16:16.182Z</time>
      </trkpt>
      <trkpt lat="42.26492" lon="22.58369">
        <ele>950.203904</ele>
        <time>2022-04-09T09:16:23.188Z</time>
      </trkpt>
      <trkpt lat="42.26501" lon="22.58365">
        <ele>950.727959</ele>
        <time>2022-04-09T09:16:31.166Z</time>
      </trkpt>
      <trkpt lat="42.26511" lon="22.58364">
        <ele>951.280041</ele>
        <time>2022-04-09T09:16:40.193Z</time>
      </trkpt>
      <trkpt lat="42.2652" lon="22.58361">
        <ele>951.795347</ele>
        <time>2022-04-09T09:16:47.201Z</time>
      </trkpt>
      <trkpt lat="42.26529" lon="22.58357">
        <ele>952.319755</ele>
        <time>2022-04-09T09:16:55.172Z</time>
      </trkpt>
      <trkpt lat="42.26538" lon="22.58353">
        <ele>952.839224</ele>
        <time>2022-04-09T09:17:03.176Z</time>
      </trkpt>
      <trkpt lat="42.26547" lon="22.58349">
        <ele>953.316501</ele>
        <time>2022-04-09T09:17:11.191Z</time>
      </trkpt>
      <trkpt lat="42.26556" lon="22.58342">
        <ele>953.779413</ele>
        <time>2022-04-09T09:17:19.218Z</time>
      </trkpt>
      <trkpt lat="42.26571" lon="22.5833">
        <ele>954.613563</ele>
        <time>2022-04-09T09:18:15.192Z</time>
      </trkpt>
      <trkpt lat="42.26578" lon="22.58324">
        <ele>955.044935</ele>
        <time>2022-04-09T09:18:22.189Z</time>
      </trkpt>
      <trkpt lat="42.26587" lon="22.58317">
        <ele>955.509961</ele>
        <time>2022-04-09T09:18:30.191Z</time>
      </trkpt>
      <trkpt lat="42.26594" lon="22.58308">
        <ele>955.977073</ele>
        <time>2022-04-09T09:18:38.178Z</time>
      </trkpt>
      <trkpt lat="42.26601" lon="22.583">
        <ele>956.420495</ele>
        <time>2022-04-09T09:18:45.176Z</time>
      </trkpt>
      <trkpt lat="42.26609" lon="22.58292">
        <ele>956.867066</ele>
        <time>2022-04-09T09:18:53.191Z</time>
      </trkpt>
      <trkpt lat="42.26615" lon="22.58284">
        <ele>957.309795</ele>
        <time>2022-04-09T09:19:01.181Z</time>
      </trkpt>
      <trkpt lat="42.26623" lon="22.58275">
        <ele>957.779265</ele>
        <time>2022-04-09T09:19:09.164Z</time>
      </trkpt>
      <trkpt lat="42.2663" lon="22.58266">
        <ele>958.220362</ele>
        <time>2022-04-09T09:19:16.169Z</time>
      </trkpt>
      <trkpt lat="42.26635" lon="22.58257">
        <ele>958.652103</ele>
        <time>2022-04-09T09:19:23.181Z</time>
      </trkpt>
      <trkpt lat="42.26641" lon="22.58246">
        <ele>959.11252</ele>
        <time>2022-04-09T09:19:30.175Z</time>
      </trkpt>
      <trkpt lat="42.26647" lon="22.58237">
        <ele>959.54724</ele>
        <time>2022-04-09T09:19:37.183Z</time>
      </trkpt>
      <trkpt lat="42.26652" lon="22.58226">
        <ele>959.988092</ele>
        <time>2022-04-09T09:19:44.177Z</time>
      </trkpt>
      <trkpt lat="42.26656" lon="22.58215">
        <ele>960.447591</ele>
        <time>2022-04-09T09:19:51.185Z</time>
      </trkpt>
      <trkpt lat="42.2666" lon="22.58203">
        <ele>960.923981</ele>
        <time>2022-04-09T09:19:59.191Z</time>
      </trkpt>
      <trkpt lat="42.26664" lon="22.58191">
        <ele>961.378627</ele>
        <time>2022-04-09T09:20:07.176Z</time>
      </trkpt>
      <trkpt lat="42.26668" lon="22.5818">
        <ele>961.872553</ele>
        <time>2022-04-09T09:20:15.220Z</time>
      </trkpt>
      <trkpt lat="42.26671" lon="22.58168">
        <ele>962.364922</ele>
        <time>2022-04-09T09:20:23.183Z</time>
      </trkpt>
      <trkpt lat="42.26674" lon="22.58156">
        <ele>962.857066</ele>
        <time>2022-04-09T09:20:30.178Z</time>
      </trkpt>
      <trkpt lat="42.26676" lon="22.58145">
        <ele>963.343015</ele>
        <time>2022-04-09T09:20:37.187Z</time>
      </trkpt>
      <trkpt lat="42.26679" lon="22.58132">
        <ele>963.864985</ele>
        <time>2022-04-09T09:20:45.185Z</time>
      </trkpt>
      <trkpt lat="42.2668" lon="22.58118">
        <ele>964.416145</ele>
        <time>2022-04-09T09:20:53.183Z</time>
      </trkpt>
      <trkpt lat="42.26683" lon="22.58105">
        <ele>964.967755</ele>
        <time>2022-04-09T09:21:01.176Z</time>
      </trkpt>
      <trkpt lat="42.26683" lon="22.58091">
        <ele>965.507778</ele>
        <time>2022-04-09T09:21:08.173Z</time>
      </trkpt>
      <trkpt lat="42.26684" lon="22.58079">
        <ele>965.994245</ele>
        <time>2022-04-09T09:21:15.192Z</time>
      </trkpt>
      <trkpt lat="42.26684" lon="22.58067">
        <ele>966.477353</ele>
        <time>2022-04-09T09:21:22.232Z</time>
      </trkpt>
      <trkpt lat="42.26684" lon="22.58054">
        <ele>966.992818</ele>
        <time>2022-04-09T09:21:29.188Z</time>
      </trkpt>
      <trkpt lat="42.26683" lon="22.58041">
        <ele>967.51336</ele>
        <time>2022-04-09T09:21:36.191Z</time>
      </trkpt>
      <trkpt lat="42.26682" lon="22.58028">
        <ele>968.032171</ele>
        <time>2022-04-09T09:21:44.183Z</time>
      </trkpt>
      <trkpt lat="42.2668" lon="22.58016">
        <ele>968.548162</ele>
        <time>2022-04-09T09:21:51.192Z</time>
      </trkpt>
      <trkpt lat="42.26678" lon="22.58002">
        <ele>969.085012</ele>
        <time>2022-04-09T09:21:59.185Z</time>
      </trkpt>
      <trkpt lat="42.26676" lon="22.57989">
        <ele>969.613783</ele>
        <time>2022-04-09T09:22:06.192Z</time>
      </trkpt>
      <trkpt lat="42.26674" lon="22.57976">
        <ele>970.157892</ele>
        <time>2022-04-09T09:22:14.188Z</time>
      </trkpt>
      <trkpt lat="42.26671" lon="22.57965">
        <ele>970.644466</ele>
        <time>2022-04-09T09:22:21.194Z</time>
      </trkpt>
      <trkpt lat="42.26667" lon="22.57952">
        <ele>971.179119</ele>
        <time>2022-04-09T09:22:29.235Z</time>
      </trkpt>
      <trkpt lat="42.26664" lon="22.57939">
        <ele>971.77433</ele>
        <time>2022-04-09T09:22:37.179Z</time>
      </trkpt>
      <trkpt lat="42.2666" lon="22.57927">
        <ele>972.357244</ele>
        <time>2022-04-09T09:22:45.183Z</time>
      </trkpt>
      <trkpt lat="42.26655" lon="22.57916">
        <ele>972.906217</ele>
        <time>2022-04-09T09:22:53.188Z</time>
      </trkpt>
      <trkpt lat="42.26651" lon="22.57905">
        <ele>973.435132</ele>
        <time>2022-04-09T09:23:00.208Z</time>
      </trkpt>
      <trkpt lat="42.26646" lon="22.57894">
        <ele>973.976215</ele>
        <time>2022-04-09T09:23:08.166Z</time>
      </trkpt>
      <trkpt lat="42.2664" lon="22.57885">
        <ele>974.498811</ele>
        <time>2022-04-09T09:23:15.212Z</time>
      </trkpt>
      <trkpt lat="42.26635" lon="22.57874">
        <ele>975.049208</ele>
        <time>2022-04-09T09:23:23.183Z</time>
      </trkpt>
      <trkpt lat="42.2663" lon="22.57864">
        <ele>975.575528</ele>
        <time>2022-04-09T09:23:30.181Z</time>
      </trkpt>
      <trkpt lat="42.26624" lon="22.57855">
        <ele>976.099046</ele>
        <time>2022-04-09T09:23:37.192Z</time>
      </trkpt>
      <trkpt lat="42.26619" lon="22.57844">
        <ele>976.645024</ele>
        <time>2022-04-09T09:23:43.190Z</time>
      </trkpt>
      <trkpt lat="42.26612" lon="22.57836">
        <ele>977.205533</ele>
        <time>2022-04-09T09:23:52.183Z</time>
      </trkpt>
      <trkpt lat="42.26605" lon="22.57827">
        <ele>977.767554</ele>
        <time>2022-04-09T09:24:00.179Z</time>
      </trkpt>
      <trkpt lat="42.26597" lon="22.57819">
        <ele>978.334036</ele>
        <time>2022-04-09T09:24:07.217Z</time>
      </trkpt>
      <trkpt lat="42.26588" lon="22.57814">
        <ele>978.899823</ele>
        <time>2022-04-09T09:24:16.161Z</time>
      </trkpt>
      <trkpt lat="42.2658" lon="22.57808">
        <ele>979.426947</ele>
        <time>2022-04-09T09:24:23.187Z</time>
      </trkpt>
      <trkpt lat="42.26572" lon="22.578">
        <ele>980.003293</ele>
        <time>2022-04-09T09:24:30.194Z</time>
      </trkpt>
      <trkpt lat="42.26565" lon="22.57792">
        <ele>980.561024</ele>
        <time>2022-04-09T09:24:37.193Z</time>
      </trkpt>
      <trkpt lat="42.26556" lon="22.57786">
        <ele>981.111835</ele>
        <time>2022-04-09T09:24:44.175Z</time>
      </trkpt>
      <trkpt lat="42.26548" lon="22.57778">
        <ele>981.725513</ele>
        <time>2022-04-09T09:24:51.187Z</time>
      </trkpt>
      <trkpt lat="42.26539" lon="22.57773">
        <ele>982.384807</ele>
        <time>2022-04-09T09:24:59.198Z</time>
      </trkpt>
      <trkpt lat="42.26531" lon="22.57768">
        <ele>983.019279</ele>
        <time>2022-04-09T09:25:07.175Z</time>
      </trkpt>
      <trkpt lat="42.26521" lon="22.57763">
        <ele>983.727613</ele>
        <time>2022-04-09T09:25:15.194Z</time>
      </trkpt>
      <trkpt lat="42.26512" lon="22.57758">
        <ele>984.405869</ele>
        <time>2022-04-09T09:25:23.186Z</time>
      </trkpt>
      <trkpt lat="42.26504" lon="22.57754">
        <ele>985.044486</ele>
        <time>2022-04-09T09:25:31.176Z</time>
      </trkpt>
      <trkpt lat="42.26495" lon="22.57747">
        <ele>985.714429</ele>
        <time>2022-04-09T09:25:38.182Z</time>
      </trkpt>
      <trkpt lat="42.26487" lon="22.57742">
        <ele>986.356819</ele>
        <time>2022-04-09T09:25:45.183Z</time>
      </trkpt>
      <trkpt lat="42.26478" lon="22.57737">
        <ele>987.046655</ele>
        <time>2022-04-09T09:25:53.185Z</time>
      </trkpt>
      <trkpt lat="42.26468" lon="22.57734">
        <ele>987.750375</ele>
        <time>2022-04-09T09:26:02.185Z</time>
      </trkpt>
      <trkpt lat="42.26458" lon="22.5773">
        <ele>988.451643</ele>
        <time>2022-04-09T09:26:10.180Z</time>
      </trkpt>
      <trkpt lat="42.2645" lon="22.57725">
        <ele>989.090684</ele>
        <time>2022-04-09T09:26:17.183Z</time>
      </trkpt>
      <trkpt lat="42.26441" lon="22.5772">
        <ele>989.764702</ele>
        <time>2022-04-09T09:26:25.176Z</time>
      </trkpt>
      <trkpt lat="42.26433" lon="22.57713">
        <ele>990.428707</ele>
        <time>2022-04-09T09:26:32.170Z</time>
      </trkpt>
      <trkpt lat="42.26424" lon="22.57708">
        <ele>991.087902</ele>
        <time>2022-04-09T09:26:39.170Z</time>
      </trkpt>
      <trkpt lat="42.26415" lon="22.57702">
        <ele>991.757228</ele>
        <time>2022-04-09T09:26:47.186Z</time>
      </trkpt>
      <trkpt lat="42.26407" lon="22.57696">
        <ele>992.384894</ele>
        <time>2022-04-09T09:26:54.179Z</time>
      </trkpt>
      <trkpt lat="42.26397" lon="22.57694">
        <ele>993.072204</ele>
        <time>2022-04-09T09:27:03.186Z</time>
      </trkpt>
      <trkpt lat="42.26389" lon="22.57689">
        <ele>993.723372</ele>
        <time>2022-04-09T09:27:11.184Z</time>
      </trkpt>
      <trkpt lat="42.2638" lon="22.57683">
        <ele>994.336452</ele>
        <time>2022-04-09T09:27:19.188Z</time>
      </trkpt>
      <trkpt lat="42.2637" lon="22.5768">
        <ele>994.921216</ele>
        <time>2022-04-09T09:27:28.207Z</time>
      </trkpt>
      <trkpt lat="42.26361" lon="22.57675">
        <ele>995.465999</ele>
        <time>2022-04-09T09:27:35.201Z</time>
      </trkpt>
      <trkpt lat="42.26353" lon="22.57668">
        <ele>996.04224</ele>
        <time>2022-04-09T09:27:43.161Z</time>
      </trkpt>
      <trkpt lat="42.26345" lon="22.57661">
        <ele>996.604113</ele>
        <time>2022-04-09T09:27:51.187Z</time>
      </trkpt>
      <trkpt lat="42.26336" lon="22.57656">
        <ele>997.174985</ele>
        <time>2022-04-09T09:27:59.176Z</time>
      </trkpt>
      <trkpt lat="42.26327" lon="22.57651">
        <ele>997.737436</ele>
        <time>2022-04-09T09:28:07.183Z</time>
      </trkpt>
      <trkpt lat="42.26317" lon="22.57648">
        <ele>998.323542</ele>
        <time>2022-04-09T09:28:15.188Z</time>
      </trkpt>
      <trkpt lat="42.26309" lon="22.57642">
        <ele>998.857017</ele>
        <time>2022-04-09T09:28:22.237Z</time>
      </trkpt>
      <trkpt lat="42.263" lon="22.57635">
        <ele>999.446275</ele>
        <time>2022-04-09T09:28:30.188Z</time>
      </trkpt>
      <trkpt lat="42.26292" lon="22.57629">
        <ele>999.99736</ele>
        <time>2022-04-09T09:28:38.175Z</time>
      </trkpt>
      <trkpt lat="42.26283" lon="22.57625">
        <ele>1000.583274</ele>
        <time>2022-04-09T09:28:47.201Z</time>
      </trkpt>
      <trkpt lat="42.26274" lon="22.57619">
        <ele>1001.112257</ele>
        <time>2022-04-09T09:28:54.179Z</time>
      </trkpt>
      <trkpt lat="42.26265" lon="22.57615">
        <ele>1001.699535</ele>
        <time>2022-04-09T09:29:02.195Z</time>
      </trkpt>
      <trkpt lat="42.26256" lon="22.57611">
        <ele>1002.244109</ele>
        <time>2022-04-09T09:29:09.195Z</time>
      </trkpt>
      <trkpt lat="42.26248" lon="22.57605">
        <ele>1002.785451</ele>
        <time>2022-04-09T09:29:17.179Z</time>
      </trkpt>
      <trkpt lat="42.26239" lon="22.576">
        <ele>1003.367361</ele>
        <time>2022-04-09T09:29:25.178Z</time>
      </trkpt>
      <trkpt lat="42.26229" lon="22.57594">
        <ele>1003.974657</ele>
        <time>2022-04-09T09:29:33.194Z</time>
      </trkpt>
      <trkpt lat="42.2622" lon="22.5759">
        <ele>1004.517483</ele>
        <time>2022-04-09T09:29:40.186Z</time>
      </trkpt>
      <trkpt lat="42.26213" lon="22.57583">
        <ele>1005.157083</ele>
        <time>2022-04-09T09:29:47.173Z</time>
      </trkpt>
      <trkpt lat="42.26204" lon="22.57577">
        <ele>1005.830035</ele>
        <time>2022-04-09T09:29:54.177Z</time>
      </trkpt>
      <trkpt lat="42.26197" lon="22.5757">
        <ele>1006.487223</ele>
        <time>2022-04-09T09:30:02.197Z</time>
      </trkpt>
      <trkpt lat="42.26188" lon="22.57563">
        <ele>1007.191648</ele>
        <time>2022-04-09T09:30:10.193Z</time>
      </trkpt>
      <trkpt lat="42.2618" lon="22.57557">
        <ele>1007.857885</ele>
        <time>2022-04-09T09:30:17.178Z</time>
      </trkpt>
      <trkpt lat="42.26172" lon="22.57549">
        <ele>1008.561794</ele>
        <time>2022-04-09T09:30:25.226Z</time>
      </trkpt>
      <trkpt lat="42.26164" lon="22.57542">
        <ele>1009.221856</ele>
        <time>2022-04-09T09:30:32.181Z</time>
      </trkpt>
      <trkpt lat="42.26156" lon="22.57535">
        <ele>1009.905313</ele>
        <time>2022-04-09T09:30:40.198Z</time>
      </trkpt>
      <trkpt lat="42.26148" lon="22.57526">
        <ele>1010.633198</ele>
        <time>2022-04-09T09:30:48.182Z</time>
      </trkpt>
      <trkpt lat="42.26139" lon="22.57518">
        <ele>1011.371364</ele>
        <time>2022-04-09T09:30:56.200Z</time>
      </trkpt>
      <trkpt lat="42.26131" lon="22.57511">
        <ele>1012.040841</ele>
        <time>2022-04-09T09:31:04.212Z</time>
      </trkpt>
      <trkpt lat="42.26123" lon="22.57503">
        <ele>1012.771338</ele>
        <time>2022-04-09T09:31:13.169Z</time>
      </trkpt>
      <trkpt lat="42.26116" lon="22.57494">
        <ele>1013.428636</ele>
        <time>2022-04-09T09:31:22.218Z</time>
      </trkpt>
      <trkpt lat="42.2611" lon="22.57485">
        <ele>1014.074973</ele>
        <time>2022-04-09T09:31:29.203Z</time>
      </trkpt>
      <trkpt lat="42.26104" lon="22.57475">
        <ele>1014.767619</ele>
        <time>2022-04-09T09:31:37.179Z</time>
      </trkpt>
      <trkpt lat="42.26097" lon="22.57465">
        <ele>1015.460266</ele>
        <time>2022-04-09T09:31:45.192Z</time>
      </trkpt>
      <trkpt lat="42.26092" lon="22.57454">
        <ele>1016.135471</ele>
        <time>2022-04-09T09:31:52.200Z</time>
      </trkpt>
      <trkpt lat="42.26086" lon="22.57444">
        <ele>1016.823254</ele>
        <time>2022-04-09T09:32:00.179Z</time>
      </trkpt>
      <trkpt lat="42.2608" lon="22.57434">
        <ele>1017.340233</ele>
        <time>2022-04-09T09:32:07.180Z</time>
      </trkpt>
      <trkpt lat="42.26075" lon="22.57423">
        <ele>1017.788291</ele>
        <time>2022-04-09T09:32:15.197Z</time>
      </trkpt>
      <trkpt lat="42.26068" lon="22.57412">
        <ele>1018.241789</ele>
        <time>2022-04-09T09:32:23.176Z</time>
      </trkpt>
      <trkpt lat="42.26063" lon="22.57402">
        <ele>1018.657228</ele>
        <time>2022-04-09T09:32:31.170Z</time>
      </trkpt>
      <trkpt lat="42.26057" lon="22.57391">
        <ele>1019.083774</ele>
        <time>2022-04-09T09:32:37.198Z</time>
      </trkpt>
      <trkpt lat="42.26052" lon="22.5738">
        <ele>1019.52792</ele>
        <time>2022-04-09T09:32:44.183Z</time>
      </trkpt>
      <trkpt lat="42.26048" lon="22.57368">
        <ele>1019.964746</ele>
        <time>2022-04-09T09:32:51.192Z</time>
      </trkpt>
      <trkpt lat="42.26043" lon="22.57356">
        <ele>1020.419561</ele>
        <time>2022-04-09T09:32:59.184Z</time>
      </trkpt>
      <trkpt lat="42.26039" lon="22.57344">
        <ele>1020.859421</ele>
        <time>2022-04-09T09:33:07.184Z</time>
      </trkpt>
      <trkpt lat="42.26036" lon="22.57332">
        <ele>1021.283931</ele>
        <time>2022-04-09T09:33:15.178Z</time>
      </trkpt>
      <trkpt lat="42.26032" lon="22.57319">
        <ele>1021.751492</ele>
        <time>2022-04-09T09:33:23.191Z</time>
      </trkpt>
      <trkpt lat="42.26027" lon="22.57308">
        <ele>1022.162092</ele>
        <time>2022-04-09T09:33:29.222Z</time>
      </trkpt>
      <trkpt lat="42.26024" lon="22.57295">
        <ele>1022.614268</ele>
        <time>2022-04-09T09:33:37.193Z</time>
      </trkpt>
      <trkpt lat="42.26021" lon="22.57283">
        <ele>1023.037431</ele>
        <time>2022-04-09T09:33:44.184Z</time>
      </trkpt>
      <trkpt lat="42.26019" lon="22.57271">
        <ele>1023.462466</ele>
        <time>2022-04-09T09:33:51.185Z</time>
      </trkpt>
      <trkpt lat="42.26016" lon="22.57258">
        <ele>1023.909783</ele>
        <time>2022-04-09T09:33:58.201Z</time>
      </trkpt>
      <trkpt lat="42.26014" lon="22.57245">
        <ele>1024.326036</ele>
        <time>2022-04-09T09:34:05.188Z</time>
      </trkpt>
      <trkpt lat="42.26011" lon="22.57233">
        <ele>1024.75337</ele>
        <time>2022-04-09T09:34:12.194Z</time>
      </trkpt>
      <trkpt lat="42.26009" lon="22.57221">
        <ele>1025.173815</ele>
        <time>2022-04-09T09:34:18.183Z</time>
      </trkpt>
      <trkpt lat="42.26008" lon="22.57207">
        <ele>1025.711538</ele>
        <time>2022-04-09T09:34:24.163Z</time>
      </trkpt>
      <trkpt lat="42.26007" lon="22.57195">
        <ele>1026.182501</ele>
        <time>2022-04-09T09:34:29.175Z</time>
      </trkpt>
      <trkpt lat="42.26006" lon="22.57183">
        <ele>1026.654398</ele>
        <time>2022-04-09T09:34:34.215Z</time>
      </trkpt>
      <trkpt lat="42.26004" lon="22.5717">
        <ele>1027.173437</ele>
        <time>2022-04-09T09:34:39.196Z</time>
      </trkpt>
      <trkpt lat="42.26003" lon="22.57157">
        <ele>1027.655572</ele>
        <time>2022-04-09T09:34:44.181Z</time>
      </trkpt>
      <trkpt lat="42.26003" lon="22.57143">
        <ele>1028.19906</ele>
        <time>2022-04-09T09:34:50.182Z</time>
      </trkpt>
      <trkpt lat="42.26003" lon="22.57131">
        <ele>1028.695755</ele>
        <time>2022-04-09T09:34:56.221Z</time>
      </trkpt>
      <trkpt lat="42.26003" lon="22.57117">
        <ele>1029.215838</ele>
        <time>2022-04-09T09:35:02.182Z</time>
      </trkpt>
      <trkpt lat="42.26004" lon="22.57103">
        <ele>1029.750036</ele>
        <time>2022-04-09T09:35:07.193Z</time>
      </trkpt>
      <trkpt lat="42.26005" lon="22.5709">
        <ele>1030.286792</ele>
        <time>2022-04-09T09:35:12.185Z</time>
      </trkpt>
      <trkpt lat="42.26005" lon="22.57075">
        <ele>1030.83871</ele>
        <time>2022-04-09T09:35:17.224Z</time>
      </trkpt>
      <trkpt lat="42.26006" lon="22.5706">
        <ele>1031.429117</ele>
        <time>2022-04-09T09:35:21.184Z</time>
      </trkpt>
      <trkpt lat="42.26006" lon="22.57048">
        <ele>1031.906668</ele>
        <time>2022-04-09T09:35:24.191Z</time>
      </trkpt>
      <trkpt lat="42.26005" lon="22.57033">
        <ele>1032.501207</ele>
        <time>2022-04-09T09:35:28.222Z</time>
      </trkpt>
      <trkpt lat="42.26005" lon="22.57018">
        <ele>1033.060013</ele>
        <time>2022-04-09T09:35:32.191Z</time>
      </trkpt>
      <trkpt lat="42.26006" lon="22.57004">
        <ele>1033.612628</ele>
        <time>2022-04-09T09:35:36.202Z</time>
      </trkpt>
      <trkpt lat="42.26007" lon="22.56992">
        <ele>1034.094514</ele>
        <time>2022-04-09T09:35:39.218Z</time>
      </trkpt>
      <trkpt lat="42.26006" lon="22.56977">
        <ele>1034.567823</ele>
        <time>2022-04-09T09:35:43.199Z</time>
      </trkpt>
      <trkpt lat="42.26005" lon="22.56961">
        <ele>1034.064471</ele>
        <time>2022-04-09T09:35:47.178Z</time>
      </trkpt>
      <trkpt lat="42.26005" lon="22.56947">
        <ele>1033.646253</ele>
        <time>2022-04-09T09:35:50.209Z</time>
      </trkpt>
      <trkpt lat="42.26005" lon="22.56933">
        <ele>1033.196745</ele>
        <time>2022-04-09T09:35:53.177Z</time>
      </trkpt>
      <trkpt lat="42.26005" lon="22.56918">
        <ele>1032.741056</ele>
        <time>2022-04-09T09:35:56.196Z</time>
      </trkpt>
      <trkpt lat="42.26005" lon="22.56903">
        <ele>1032.272882</ele>
        <time>2022-04-09T09:35:59.184Z</time>
      </trkpt>
      <trkpt lat="42.26005" lon="22.56888">
        <ele>1031.804652</ele>
        <time>2022-04-09T09:36:02.204Z</time>
      </trkpt>
      <trkpt lat="42.26004" lon="22.56874">
        <ele>1031.350514</ele>
        <time>2022-04-09T09:36:05.176Z</time>
      </trkpt>
      <trkpt lat="42.26004" lon="22.56859">
        <ele>1030.882188</ele>
        <time>2022-04-09T09:36:08.176Z</time>
      </trkpt>
      <trkpt lat="42.26004" lon="22.56847">
        <ele>1030.501422</ele>
        <time>2022-04-09T09:36:10.192Z</time>
      </trkpt>
      <trkpt lat="42.26003" lon="22.56833">
        <ele>1030.084957</ele>
        <time>2022-04-09T09:36:12.210Z</time>
      </trkpt>
      <trkpt lat="42.26001" lon="22.5682">
        <ele>1029.652722</ele>
        <time>2022-04-09T09:36:14.179Z</time>
      </trkpt>
      <trkpt lat="42.26" lon="22.56807">
        <ele>1029.262944</ele>
        <time>2022-04-09T09:36:16.183Z</time>
      </trkpt>
      <trkpt lat="42.25999" lon="22.56795">
        <ele>1028.864639</ele>
        <time>2022-04-09T09:36:18.170Z</time>
      </trkpt>
      <trkpt lat="42.25997" lon="22.56782">
        <ele>1028.457191</ele>
        <time>2022-04-09T09:36:20.185Z</time>
      </trkpt>
      <trkpt lat="42.25996" lon="22.56769">
        <ele>1028.035922</ele>
        <time>2022-04-09T09:36:22.211Z</time>
      </trkpt>
      <trkpt lat="42.25994" lon="22.56754">
        <ele>1027.573347</ele>
        <time>2022-04-09T09:36:24.209Z</time>
      </trkpt>
      <trkpt lat="42.25993" lon="22.56739">
        <ele>1027.105092</ele>
        <time>2022-04-09T09:36:26.201Z</time>
      </trkpt>
      <trkpt lat="42.25992" lon="22.56724">
        <ele>1026.422349</ele>
        <time>2022-04-09T09:36:28.211Z</time>
      </trkpt>
      <trkpt lat="42.2599" lon="22.56708">
        <ele>1025.670562</ele>
        <time>2022-04-09T09:36:30.217Z</time>
      </trkpt>
      <trkpt lat="42.25988" lon="22.56692">
        <ele>1024.892695</ele>
        <time>2022-04-09T09:36:32.184Z</time>
      </trkpt>
      <trkpt lat="42.25986" lon="22.56674">
        <ele>1024.042715</ele>
        <time>2022-04-09T09:36:34.176Z</time>
      </trkpt>
      <trkpt lat="42.25985" lon="22.56656">
        <ele>1023.158998</ele>
        <time>2022-04-09T09:36:36.182Z</time>
      </trkpt>
      <trkpt lat="42.25983" lon="22.56636">
        <ele>1022.225879</ele>
        <time>2022-04-09T09:36:38.193Z</time>
      </trkpt>
      <trkpt lat="42.25981" lon="22.56616">
        <ele>1021.280101</ele>
        <time>2022-04-09T09:36:40.194Z</time>
      </trkpt>
      <trkpt lat="42.25979" lon="22.56597">
        <ele>1020.343458</ele>
        <time>2022-04-09T09:36:42.183Z</time>
      </trkpt>
      <trkpt lat="42.25976" lon="22.56578">
        <ele>1019.444157</ele>
        <time>2022-04-09T09:36:44.183Z</time>
      </trkpt>
      <trkpt lat="42.25974" lon="22.5656">
        <ele>1018.544119</ele>
        <time>2022-04-09T09:36:46.183Z</time>
      </trkpt>
      <trkpt lat="42.25971" lon="22.56542">
        <ele>1017.667394</ele>
        <time>2022-04-09T09:36:48.187Z</time>
      </trkpt>
      <trkpt lat="42.25969" lon="22.56524">
        <ele>1016.81293</ele>
        <time>2022-04-09T09:36:50.201Z</time>
      </trkpt>
      <trkpt lat="42.25966" lon="22.56506">
        <ele>1015.96195</ele>
        <time>2022-04-09T09:36:52.233Z</time>
      </trkpt>
      <trkpt lat="42.25964" lon="22.56488">
        <ele>1015.220847</ele>
        <time>2022-04-09T09:36:54.186Z</time>
      </trkpt>
      <trkpt lat="42.25962" lon="22.5647">
        <ele>1014.64012</ele>
        <time>2022-04-09T09:36:56.189Z</time>
      </trkpt>
      <trkpt lat="42.25959" lon="22.56451">
        <ele>1014.046219</ele>
        <time>2022-04-09T09:36:58.193Z</time>
      </trkpt>
      <trkpt lat="42.25957" lon="22.56432">
        <ele>1013.431328</ele>
        <time>2022-04-09T09:37:00.189Z</time>
      </trkpt>
      <trkpt lat="42.25955" lon="22.56412">
        <ele>1012.813963</ele>
        <time>2022-04-09T09:37:02.231Z</time>
      </trkpt>
      <trkpt lat="42.25953" lon="22.56393">
        <ele>1012.18703</ele>
        <time>2022-04-09T09:37:04.192Z</time>
      </trkpt>
      <trkpt lat="42.2595" lon="22.56373">
        <ele>1011.564618</ele>
        <time>2022-04-09T09:37:06.224Z</time>
      </trkpt>
      <trkpt lat="42.25948" lon="22.56353">
        <ele>1010.929839</ele>
        <time>2022-04-09T09:37:08.241Z</time>
      </trkpt>
      <trkpt lat="42.25945" lon="22.56332">
        <ele>1010.274402</ele>
        <time>2022-04-09T09:37:10.196Z</time>
      </trkpt>
      <trkpt lat="42.25943" lon="22.56312">
        <ele>1009.626571</ele>
        <time>2022-04-09T09:37:12.184Z</time>
      </trkpt>
      <trkpt lat="42.2594" lon="22.56294">
        <ele>1009.041937</ele>
        <time>2022-04-09T09:37:14.224Z</time>
      </trkpt>
      <trkpt lat="42.25938" lon="22.56275">
        <ele>1008.451173</ele>
        <time>2022-04-09T09:37:16.211Z</time>
      </trkpt>
      <trkpt lat="42.25935" lon="22.56255">
        <ele>1007.838839</ele>
        <time>2022-04-09T09:37:18.193Z</time>
      </trkpt>
      <trkpt lat="42.25933" lon="22.56234">
        <ele>1007.371767</ele>
        <time>2022-04-09T09:37:20.199Z</time>
      </trkpt>
      <trkpt lat="42.2593" lon="22.56213">
        <ele>1006.886529</ele>
        <time>2022-04-09T09:37:22.192Z</time>
      </trkpt>
      <trkpt lat="42.25927" lon="22.5619">
        <ele>1006.37634</ele>
        <time>2022-04-09T09:37:24.190Z</time>
      </trkpt>
      <trkpt lat="42.25923" lon="22.56166">
        <ele>1005.842378</ele>
        <time>2022-04-09T09:37:26.224Z</time>
      </trkpt>
      <trkpt lat="42.25921" lon="22.56154">
        <ele>1005.57347</ele>
        <time>2022-04-09T09:37:27.196Z</time>
      </trkpt>
      <trkpt lat="42.25919" lon="22.56142">
        <ele>1005.303729</ele>
        <time>2022-04-09T09:37:28.209Z</time>
      </trkpt>
      <trkpt lat="42.25917" lon="22.5613">
        <ele>1005.033351</ele>
        <time>2022-04-09T09:37:29.204Z</time>
      </trkpt>
      <trkpt lat="42.25915" lon="22.56118">
        <ele>1004.759906</ele>
        <time>2022-04-09T09:37:30.194Z</time>
      </trkpt>
      <trkpt lat="42.25913" lon="22.56105">
        <ele>1004.480296</ele>
        <time>2022-04-09T09:37:31.184Z</time>
      </trkpt>
      <trkpt lat="42.25911" lon="22.56093">
        <ele>1004.19787</ele>
        <time>2022-04-09T09:37:32.191Z</time>
      </trkpt>
      <trkpt lat="42.25909" lon="22.5608">
        <ele>1003.912609</ele>
        <time>2022-04-09T09:37:33.203Z</time>
      </trkpt>
      <trkpt lat="42.25906" lon="22.56068">
        <ele>1003.625213</ele>
        <time>2022-04-09T09:37:34.182Z</time>
      </trkpt>
      <trkpt lat="42.25904" lon="22.56055">
        <ele>1003.332835</ele>
        <time>2022-04-09T09:37:35.244Z</time>
      </trkpt>
      <trkpt lat="42.25902" lon="22.56042">
        <ele>1003.035464</ele>
        <time>2022-04-09T09:37:36.209Z</time>
      </trkpt>
      <trkpt lat="42.25899" lon="22.56029">
        <ele>1002.750202</ele>
        <time>2022-04-09T09:37:37.222Z</time>
      </trkpt>
      <trkpt lat="42.25897" lon="22.56017">
        <ele>1002.452456</ele>
        <time>2022-04-09T09:37:38.174Z</time>
      </trkpt>
      <trkpt lat="42.25894" lon="22.56005">
        <ele>1002.106863</ele>
        <time>2022-04-09T09:37:39.191Z</time>
      </trkpt>
      <trkpt lat="42.25892" lon="22.55993">
        <ele>1001.767557</ele>
        <time>2022-04-09T09:37:40.192Z</time>
      </trkpt>
      <trkpt lat="42.2589" lon="22.55981">
        <ele>1001.434245</ele>
        <time>2022-04-09T09:37:41.205Z</time>
      </trkpt>
      <trkpt lat="42.25885" lon="22.55958">
        <ele>1000.773958</ele>
        <time>2022-04-09T09:37:43.181Z</time>
      </trkpt>
      <trkpt lat="42.2588" lon="22.55936">
        <ele>1000.133257</ele>
        <time>2022-04-09T09:37:45.254Z</time>
      </trkpt>
      <trkpt lat="42.25874" lon="22.55916">
        <ele>999.539465</ele>
        <time>2022-04-09T09:37:47.192Z</time>
      </trkpt>
      <trkpt lat="42.25869" lon="22.55897">
        <ele>998.998248</ele>
        <time>2022-04-09T09:37:49.179Z</time>
      </trkpt>
      <trkpt lat="42.25864" lon="22.5588">
        <ele>998.493703</ele>
        <time>2022-04-09T09:37:51.197Z</time>
      </trkpt>
      <trkpt lat="42.2586" lon="22.55862">
        <ele>997.964033</ele>
        <time>2022-04-09T09:37:53.175Z</time>
      </trkpt>
      <trkpt lat="42.25856" lon="22.55843">
        <ele>997.431704</ele>
        <time>2022-04-09T09:37:55.192Z</time>
      </trkpt>
      <trkpt lat="42.25852" lon="22.55826">
        <ele>996.934856</ele>
        <time>2022-04-09T09:37:57.185Z</time>
      </trkpt>
      <trkpt lat="42.25848" lon="22.55809">
        <ele>996.444444</ele>
        <time>2022-04-09T09:37:59.212Z</time>
      </trkpt>
      <trkpt lat="42.25844" lon="22.55793">
        <ele>995.966884</ele>
        <time>2022-04-09T09:38:01.186Z</time>
      </trkpt>
      <trkpt lat="42.2584" lon="22.55778">
        <ele>995.661542</ele>
        <time>2022-04-09T09:38:03.202Z</time>
      </trkpt>
      <trkpt lat="42.25836" lon="22.55765">
        <ele>995.441936</ele>
        <time>2022-04-09T09:38:05.194Z</time>
      </trkpt>
      <trkpt lat="42.25833" lon="22.55752">
        <ele>995.235334</ele>
        <time>2022-04-09T09:38:07.196Z</time>
      </trkpt>
      <trkpt lat="42.2583" lon="22.55739">
        <ele>995.029325</ele>
        <time>2022-04-09T09:38:09.192Z</time>
      </trkpt>
      <trkpt lat="42.25827" lon="22.55728">
        <ele>994.841363</ele>
        <time>2022-04-09T09:38:11.183Z</time>
      </trkpt>
      <trkpt lat="42.25822" lon="22.55711">
        <ele>994.561781</ele>
        <time>2022-04-09T09:38:14.194Z</time>
      </trkpt>
      <trkpt lat="42.25818" lon="22.55694">
        <ele>994.290153</ele>
        <time>2022-04-09T09:38:17.193Z</time>
      </trkpt>
      <trkpt lat="42.25814" lon="22.55679">
        <ele>994.038033</ele>
        <time>2022-04-09T09:38:20.190Z</time>
      </trkpt>
      <trkpt lat="42.2581" lon="22.55665">
        <ele>993.803973</ele>
        <time>2022-04-09T09:38:23.201Z</time>
      </trkpt>
      <trkpt lat="42.25806" lon="22.5565">
        <ele>993.569913</ele>
        <time>2022-04-09T09:38:26.206Z</time>
      </trkpt>
      <trkpt lat="42.25802" lon="22.55637">
        <ele>993.35753</ele>
        <time>2022-04-09T09:38:29.189Z</time>
      </trkpt>
      <trkpt lat="42.25799" lon="22.55625">
        <ele>993.154865</ele>
        <time>2022-04-09T09:38:32.207Z</time>
      </trkpt>
      <trkpt lat="42.25796" lon="22.55612">
        <ele>992.948194</ele>
        <time>2022-04-09T09:38:35.221Z</time>
      </trkpt>
      <trkpt lat="42.25793" lon="22.556">
        <ele>992.746645</ele>
        <time>2022-04-09T09:38:38.190Z</time>
      </trkpt>
      <trkpt lat="42.2579" lon="22.55588">
        <ele>992.546478</ele>
        <time>2022-04-09T09:38:41.207Z</time>
      </trkpt>
      <trkpt lat="42.25785" lon="22.55573">
        <ele>992.300776</ele>
        <time>2022-04-09T09:38:45.187Z</time>
      </trkpt>
      <trkpt lat="42.25782" lon="22.55561">
        <ele>992.10857</ele>
        <time>2022-04-09T09:38:48.201Z</time>
      </trkpt>
      <trkpt lat="42.25779" lon="22.55547">
        <ele>992.277971</ele>
        <time>2022-04-09T09:38:51.183Z</time>
      </trkpt>
      <trkpt lat="42.25776" lon="22.55534">
        <ele>992.496635</ele>
        <time>2022-04-09T09:38:54.194Z</time>
      </trkpt>
      <trkpt lat="42.25772" lon="22.55521">
        <ele>992.704545</ele>
        <time>2022-04-09T09:38:57.198Z</time>
      </trkpt>
      <trkpt lat="42.25769" lon="22.55509">
        <ele>992.909545</ele>
        <time>2022-04-09T09:39:00.196Z</time>
      </trkpt>
      <trkpt lat="42.25766" lon="22.55495">
        <ele>993.121806</ele>
        <time>2022-04-09T09:39:03.203Z</time>
      </trkpt>
      <trkpt lat="42.25762" lon="22.55482">
        <ele>993.336202</ele>
        <time>2022-04-09T09:39:06.220Z</time>
      </trkpt>
      <trkpt lat="42.25758" lon="22.55469">
        <ele>993.551369</ele>
        <time>2022-04-09T09:39:09.244Z</time>
      </trkpt>
      <trkpt lat="42.25755" lon="22.55456">
        <ele>993.770783</ele>
        <time>2022-04-09T09:39:12.219Z</time>
      </trkpt>
      <trkpt lat="42.25751" lon="22.55442">
        <ele>994.00173</ele>
        <time>2022-04-09T09:39:15.184Z</time>
      </trkpt>
      <trkpt lat="42.25748" lon="22.55427">
        <ele>994.234424</ele>
        <time>2022-04-09T09:39:18.184Z</time>
      </trkpt>
      <trkpt lat="42.25743" lon="22.55413">
        <ele>994.461883</ele>
        <time>2022-04-09T09:39:21.193Z</time>
      </trkpt>
      <trkpt lat="42.2574" lon="22.55401">
        <ele>994.666159</ele>
        <time>2022-04-09T09:39:24.191Z</time>
      </trkpt>
      <trkpt lat="42.25736" lon="22.5539">
        <ele>994.855148</ele>
        <time>2022-04-09T09:39:27.182Z</time>
      </trkpt>
      <trkpt lat="42.25733" lon="22.55376">
        <ele>995.07746</ele>
        <time>2022-04-09T09:39:30.205Z</time>
      </trkpt>
      <trkpt lat="42.25729" lon="22.55361">
        <ele>995.319884</ele>
        <time>2022-04-09T09:39:33.211Z</time>
      </trkpt>
      <trkpt lat="42.25725" lon="22.55347">
        <ele>995.552258</ele>
        <time>2022-04-09T09:39:36.201Z</time>
      </trkpt>
      <trkpt lat="42.2572" lon="22.55332">
        <ele>995.801183</ele>
        <time>2022-04-09T09:39:39.185Z</time>
      </trkpt>
      <trkpt lat="42.25717" lon="22.55316">
        <ele>995.711913</ele>
        <time>2022-04-09T09:39:42.196Z</time>
      </trkpt>
      <trkpt lat="42.25713" lon="22.553">
        <ele>995.607951</ele>
        <time>2022-04-09T09:39:45.206Z</time>
      </trkpt>
      <trkpt lat="42.25709" lon="22.55284">
        <ele>995.510885</ele>
        <time>2022-04-09T09:39:48.202Z</time>
      </trkpt>
      <trkpt lat="42.25706" lon="22.55269">
        <ele>995.413819</ele>
        <time>2022-04-09T09:39:51.177Z</time>
      </trkpt>
      <trkpt lat="42.25703" lon="22.55254">
        <ele>995.317578</ele>
        <time>2022-04-09T09:39:54.195Z</time>
      </trkpt>
      <trkpt lat="42.25698" lon="22.55239">
        <ele>995.218624</ele>
        <time>2022-04-09T09:39:57.218Z</time>
      </trkpt>
      <trkpt lat="42.25694" lon="22.55224">
        <ele>995.119691</ele>
        <time>2022-04-09T09:40:00.218Z</time>
      </trkpt>
      <trkpt lat="42.25689" lon="22.55209">
        <ele>995.020433</ele>
        <time>2022-04-09T09:40:03.173Z</time>
      </trkpt>
      <trkpt lat="42.25685" lon="22.55193">
        <ele>994.917188</ele>
        <time>2022-04-09T09:40:06.191Z</time>
      </trkpt>
      <trkpt lat="42.2568" lon="22.55177">
        <ele>994.811285</ele>
        <time>2022-04-09T09:40:09.199Z</time>
      </trkpt>
      <trkpt lat="42.25677" lon="22.55165">
        <ele>994.73694</ele>
        <time>2022-04-09T09:40:11.180Z</time>
      </trkpt>
      <trkpt lat="42.25673" lon="22.55148">
        <ele>994.627714</ele>
        <time>2022-04-09T09:40:14.190Z</time>
      </trkpt>
      <trkpt lat="42.25669" lon="22.55137">
        <ele>994.552698</ele>
        <time>2022-04-09T09:40:16.228Z</time>
      </trkpt>
      <trkpt lat="42.25664" lon="22.5512">
        <ele>994.440325</ele>
        <time>2022-04-09T09:40:19.183Z</time>
      </trkpt>
      <trkpt lat="42.25662" lon="22.55107">
        <ele>994.360339</ele>
        <time>2022-04-09T09:40:21.205Z</time>
      </trkpt>
      <trkpt lat="42.25659" lon="22.55094">
        <ele>994.255806</ele>
        <time>2022-04-09T09:40:23.201Z</time>
      </trkpt>
      <trkpt lat="42.25656" lon="22.55082">
        <ele>994.143194</ele>
        <time>2022-04-09T09:40:25.203Z</time>
      </trkpt>
      <trkpt lat="42.25653" lon="22.5507">
        <ele>994.034648</ele>
        <time>2022-04-09T09:40:27.237Z</time>
      </trkpt>
      <trkpt lat="42.2565" lon="22.55058">
        <ele>993.920828</ele>
        <time>2022-04-09T09:40:29.203Z</time>
      </trkpt>
      <trkpt lat="42.25647" lon="22.55045">
        <ele>993.801387</ele>
        <time>2022-04-09T09:40:31.177Z</time>
      </trkpt>
      <trkpt lat="42.25644" lon="22.55032">
        <ele>993.678511</ele>
        <time>2022-04-09T09:40:33.201Z</time>
      </trkpt>
      <trkpt lat="42.25641" lon="22.55019">
        <ele>993.559333</ele>
        <time>2022-04-09T09:40:35.237Z</time>
      </trkpt>
      <trkpt lat="42.25638" lon="22.55006">
        <ele>993.444751</ele>
        <time>2022-04-09T09:40:37.200Z</time>
      </trkpt>
      <trkpt lat="42.25635" lon="22.54994">
        <ele>993.33176</ele>
        <time>2022-04-09T09:40:39.223Z</time>
      </trkpt>
      <trkpt lat="42.25632" lon="22.54982">
        <ele>993.221056</ele>
        <time>2022-04-09T09:40:41.198Z</time>
      </trkpt>
      <trkpt lat="42.25629" lon="22.54971">
        <ele>993.115459</ele>
        <time>2022-04-09T09:40:43.189Z</time>
      </trkpt>
      <trkpt lat="42.25625" lon="22.54959">
        <ele>993.006888</ele>
        <time>2022-04-09T09:40:45.183Z</time>
      </trkpt>
      <trkpt lat="42.25622" lon="22.54947">
        <ele>992.889325</ele>
        <time>2022-04-09T09:40:47.191Z</time>
      </trkpt>
      <trkpt lat="42.25618" lon="22.54933">
        <ele>992.764863</ele>
        <time>2022-04-09T09:40:49.197Z</time>
      </trkpt>
      <trkpt lat="42.25614" lon="22.5492">
        <ele>992.636291</ele>
        <time>2022-04-09T09:40:51.192Z</time>
      </trkpt>
      <trkpt lat="42.25611" lon="22.54906">
        <ele>992.513467</ele>
        <time>2022-04-09T09:40:53.187Z</time>
      </trkpt>
      <trkpt lat="42.25608" lon="22.54892">
        <ele>992.386736</ele>
        <time>2022-04-09T09:40:55.204Z</time>
      </trkpt>
      <trkpt lat="42.25605" lon="22.54879">
        <ele>992.265426</ele>
        <time>2022-04-09T09:40:57.236Z</time>
      </trkpt>
      <trkpt lat="42.25602" lon="22.54868">
        <ele>992.074468</ele>
        <time>2022-04-09T09:40:59.200Z</time>
      </trkpt>
      <trkpt lat="42.25599" lon="22.54856">
        <ele>991.745957</ele>
        <time>2022-04-09T09:41:01.183Z</time>
      </trkpt>
      <trkpt lat="42.25594" lon="22.54843">
        <ele>991.371234</ele>
        <time>2022-04-09T09:41:03.200Z</time>
      </trkpt>
      <trkpt lat="42.2559" lon="22.54829">
        <ele>990.994155</ele>
        <time>2022-04-09T09:41:05.218Z</time>
      </trkpt>
      <trkpt lat="42.25586" lon="22.54816">
        <ele>990.614441</ele>
        <time>2022-04-09T09:41:07.207Z</time>
      </trkpt>
      <trkpt lat="42.25581" lon="22.54802">
        <ele>990.222183</ele>
        <time>2022-04-09T09:41:09.183Z</time>
      </trkpt>
      <trkpt lat="42.25578" lon="22.54788">
        <ele>989.837632</ele>
        <time>2022-04-09T09:41:11.178Z</time>
      </trkpt>
      <trkpt lat="42.25573" lon="22.54775">
        <ele>989.473796</ele>
        <time>2022-04-09T09:41:13.239Z</time>
      </trkpt>
      <trkpt lat="42.2557" lon="22.54762">
        <ele>989.116082</ele>
        <time>2022-04-09T09:41:15.201Z</time>
      </trkpt>
      <trkpt lat="42.25566" lon="22.54748">
        <ele>988.738701</ele>
        <time>2022-04-09T09:41:17.190Z</time>
      </trkpt>
      <trkpt lat="42.25563" lon="22.54735">
        <ele>988.362412</ele>
        <time>2022-04-09T09:41:19.199Z</time>
      </trkpt>
      <trkpt lat="42.2556" lon="22.54721">
        <ele>987.985736</ele>
        <time>2022-04-09T09:41:21.204Z</time>
      </trkpt>
      <trkpt lat="42.25557" lon="22.54706">
        <ele>987.601022</ele>
        <time>2022-04-09T09:41:23.207Z</time>
      </trkpt>
      <trkpt lat="42.25554" lon="22.54693">
        <ele>987.229747</ele>
        <time>2022-04-09T09:41:25.200Z</time>
      </trkpt>
      <trkpt lat="42.25552" lon="22.54678">
        <ele>986.841694</ele>
        <time>2022-04-09T09:41:27.292Z</time>
      </trkpt>
      <trkpt lat="42.25549" lon="22.54664">
        <ele>986.452577</ele>
        <time>2022-04-09T09:41:29.168Z</time>
      </trkpt>
      <trkpt lat="42.25545" lon="22.54648">
        <ele>986.033837</ele>
        <time>2022-04-09T09:41:31.185Z</time>
      </trkpt>
      <trkpt lat="42.25541" lon="22.54632">
        <ele>985.566625</ele>
        <time>2022-04-09T09:41:33.189Z</time>
      </trkpt>
      <trkpt lat="42.25537" lon="22.54616">
        <ele>985.064581</ele>
        <time>2022-04-09T09:41:35.180Z</time>
      </trkpt>
      <trkpt lat="42.25533" lon="22.54599">
        <ele>984.559759</ele>
        <time>2022-04-09T09:41:37.197Z</time>
      </trkpt>
      <trkpt lat="42.25528" lon="22.54582">
        <ele>984.048312</ele>
        <time>2022-04-09T09:41:39.173Z</time>
      </trkpt>
      <trkpt lat="42.25524" lon="22.54565">
        <ele>983.53428</ele>
        <time>2022-04-09T09:41:41.174Z</time>
      </trkpt>
      <trkpt lat="42.25519" lon="22.54548">
        <ele>983.025513</ele>
        <time>2022-04-09T09:41:43.199Z</time>
      </trkpt>
      <trkpt lat="42.25515" lon="22.54531">
        <ele>982.522099</ele>
        <time>2022-04-09T09:41:45.192Z</time>
      </trkpt>
      <trkpt lat="42.2551" lon="22.54515">
        <ele>982.021379</ele>
        <time>2022-04-09T09:41:47.185Z</time>
      </trkpt>
      <trkpt lat="42.25506" lon="22.54498">
        <ele>981.520659</ele>
        <time>2022-04-09T09:41:49.164Z</time>
      </trkpt>
      <trkpt lat="42.25501" lon="22.54482">
        <ele>981.022595</ele>
        <time>2022-04-09T09:41:51.176Z</time>
      </trkpt>
      <trkpt lat="42.25496" lon="22.54465">
        <ele>980.5244</ele>
        <time>2022-04-09T09:41:53.182Z</time>
      </trkpt>
      <trkpt lat="42.25492" lon="22.5445">
        <ele>980.043623</ele>
        <time>2022-04-09T09:41:55.179Z</time>
      </trkpt>
      <trkpt lat="42.25488" lon="22.54435">
        <ele>979.585518</ele>
        <time>2022-04-09T09:41:57.192Z</time>
      </trkpt>
      <trkpt lat="42.25484" lon="22.5442">
        <ele>979.134014</ele>
        <time>2022-04-09T09:41:59.179Z</time>
      </trkpt>
      <trkpt lat="42.2548" lon="22.54404">
        <ele>978.692239</ele>
        <time>2022-04-09T09:42:01.216Z</time>
      </trkpt>
      <trkpt lat="42.25476" lon="22.54389">
        <ele>978.2544</ele>
        <time>2022-04-09T09:42:03.187Z</time>
      </trkpt>
      <trkpt lat="42.25471" lon="22.54374">
        <ele>977.82543</ele>
        <time>2022-04-09T09:42:05.192Z</time>
      </trkpt>
      <trkpt lat="42.25468" lon="22.54359">
        <ele>977.401447</ele>
        <time>2022-04-09T09:42:07.173Z</time>
      </trkpt>
      <trkpt lat="42.25464" lon="22.54344">
        <ele>976.981282</ele>
        <time>2022-04-09T09:42:09.182Z</time>
      </trkpt>
      <trkpt lat="42.25459" lon="22.54329">
        <ele>976.55355</ele>
        <time>2022-04-09T09:42:11.194Z</time>
      </trkpt>
      <trkpt lat="42.25455" lon="22.54315">
        <ele>976.128345</ele>
        <time>2022-04-09T09:42:13.187Z</time>
      </trkpt>
      <trkpt lat="42.25451" lon="22.543">
        <ele>975.711931</ele>
        <time>2022-04-09T09:42:15.189Z</time>
      </trkpt>
      <trkpt lat="42.25447" lon="22.54286">
        <ele>975.296796</ele>
        <time>2022-04-09T09:42:17.176Z</time>
      </trkpt>
      <trkpt lat="42.25444" lon="22.54271">
        <ele>974.886499</ele>
        <time>2022-04-09T09:42:19.164Z</time>
      </trkpt>
      <trkpt lat="42.2544" lon="22.54257">
        <ele>974.493961</ele>
        <time>2022-04-09T09:42:21.200Z</time>
      </trkpt>
      <trkpt lat="42.25436" lon="22.54244">
        <ele>974.110178</ele>
        <time>2022-04-09T09:42:23.223Z</time>
      </trkpt>
      <trkpt lat="42.25432" lon="22.54231">
        <ele>973.729004</ele>
        <time>2022-04-09T09:42:25.195Z</time>
      </trkpt>
      <trkpt lat="42.25429" lon="22.54217">
        <ele>973.343149</ele>
        <time>2022-04-09T09:42:27.171Z</time>
      </trkpt>
      <trkpt lat="42.25426" lon="22.54204">
        <ele>972.973066</ele>
        <time>2022-04-09T09:42:29.173Z</time>
      </trkpt>
      <trkpt lat="42.25423" lon="22.54191">
        <ele>972.601831</ele>
        <time>2022-04-09T09:42:31.182Z</time>
      </trkpt>
      <trkpt lat="42.25419" lon="22.54176">
        <ele>972.343531</ele>
        <time>2022-04-09T09:42:33.191Z</time>
      </trkpt>
      <trkpt lat="42.25416" lon="22.54163">
        <ele>972.162878</ele>
        <time>2022-04-09T09:42:35.183Z</time>
      </trkpt>
      <trkpt lat="42.25412" lon="22.5415">
        <ele>971.991087</ele>
        <time>2022-04-09T09:42:37.185Z</time>
      </trkpt>
      <trkpt lat="42.25408" lon="22.54137">
        <ele>971.811603</ele>
        <time>2022-04-09T09:42:39.200Z</time>
      </trkpt>
      <trkpt lat="42.25405" lon="22.54123">
        <ele>971.623826</ele>
        <time>2022-04-09T09:42:41.200Z</time>
      </trkpt>
      <trkpt lat="42.25401" lon="22.54108">
        <ele>971.430617</ele>
        <time>2022-04-09T09:42:43.181Z</time>
      </trkpt>
      <trkpt lat="42.25398" lon="22.54093">
        <ele>971.236334</ele>
        <time>2022-04-09T09:42:45.179Z</time>
      </trkpt>
      <trkpt lat="42.25394" lon="22.54079">
        <ele>971.045619</ele>
        <time>2022-04-09T09:42:47.187Z</time>
      </trkpt>
      <trkpt lat="42.2539" lon="22.54065">
        <ele>970.854905</ele>
        <time>2022-04-09T09:42:49.196Z</time>
      </trkpt>
      <trkpt lat="42.25386" lon="22.54051">
        <ele>970.66599</ele>
        <time>2022-04-09T09:42:51.181Z</time>
      </trkpt>
      <trkpt lat="42.25383" lon="22.54037">
        <ele>970.482965</ele>
        <time>2022-04-09T09:42:53.188Z</time>
      </trkpt>
      <trkpt lat="42.25379" lon="22.54023">
        <ele>970.299312</ele>
        <time>2022-04-09T09:42:55.183Z</time>
      </trkpt>
      <trkpt lat="42.25376" lon="22.5401">
        <ele>970.122206</ele>
        <time>2022-04-09T09:42:57.187Z</time>
      </trkpt>
      <trkpt lat="42.25372" lon="22.53998">
        <ele>969.953952</ele>
        <time>2022-04-09T09:42:59.192Z</time>
      </trkpt>
      <trkpt lat="42.25368" lon="22.53986">
        <ele>969.791453</ele>
        <time>2022-04-09T09:43:01.178Z</time>
      </trkpt>
      <trkpt lat="42.25365" lon="22.53974">
        <ele>969.636718</ele>
        <time>2022-04-09T09:43:03.209Z</time>
      </trkpt>
      <trkpt lat="42.25361" lon="22.53958">
        <ele>969.419467</ele>
        <time>2022-04-09T09:43:06.189Z</time>
      </trkpt>
      <trkpt lat="42.25357" lon="22.53942">
        <ele>969.76247</ele>
        <time>2022-04-09T09:43:09.183Z</time>
      </trkpt>
      <trkpt lat="42.25353" lon="22.53928">
        <ele>970.064564</ele>
        <time>2022-04-09T09:43:12.175Z</time>
      </trkpt>
      <trkpt lat="42.2535" lon="22.53914">
        <ele>970.377921</ele>
        <time>2022-04-09T09:43:15.185Z</time>
      </trkpt>
      <trkpt lat="42.25345" lon="22.539">
        <ele>970.696318</ele>
        <time>2022-04-09T09:43:18.221Z</time>
      </trkpt>
      <trkpt lat="42.2534" lon="22.53885">
        <ele>971.021458</ele>
        <time>2022-04-09T09:43:21.172Z</time>
      </trkpt>
      <trkpt lat="42.25336" lon="22.53872">
        <ele>971.323784</ele>
        <time>2022-04-09T09:43:24.230Z</time>
      </trkpt>
      <trkpt lat="42.25332" lon="22.53858">
        <ele>971.641176</ele>
        <time>2022-04-09T09:43:27.198Z</time>
      </trkpt>
      <trkpt lat="42.25328" lon="22.53843">
        <ele>971.957493</ele>
        <time>2022-04-09T09:43:30.183Z</time>
      </trkpt>
      <trkpt lat="42.25324" lon="22.53829">
        <ele>972.275745</ele>
        <time>2022-04-09T09:43:33.171Z</time>
      </trkpt>
      <trkpt lat="42.25321" lon="22.53815">
        <ele>972.575614</ele>
        <time>2022-04-09T09:43:36.194Z</time>
      </trkpt>
      <trkpt lat="42.25318" lon="22.53803">
        <ele>972.846182</ele>
        <time>2022-04-09T09:43:39.186Z</time>
      </trkpt>
      <trkpt lat="42.25314" lon="22.53791">
        <ele>973.104083</ele>
        <time>2022-04-09T09:43:42.187Z</time>
      </trkpt>
      <trkpt lat="42.25312" lon="22.5378">
        <ele>973.357293</ele>
        <time>2022-04-09T09:43:45.193Z</time>
      </trkpt>
      <trkpt lat="42.25308" lon="22.53765">
        <ele>973.686221</ele>
        <time>2022-04-09T09:43:49.184Z</time>
      </trkpt>
      <trkpt lat="42.25303" lon="22.53751">
        <ele>974.002699</ele>
        <time>2022-04-09T09:43:53.190Z</time>
      </trkpt>
      <trkpt lat="42.25299" lon="22.53738">
        <ele>974.298706</ele>
        <time>2022-04-09T09:43:57.205Z</time>
      </trkpt>
      <trkpt lat="42.25295" lon="22.53725">
        <ele>974.608022</ele>
        <time>2022-04-09T09:44:01.201Z</time>
      </trkpt>
      <trkpt lat="42.25291" lon="22.53713">
        <ele>974.922384</ele>
        <time>2022-04-09T09:44:05.202Z</time>
      </trkpt>
      <trkpt lat="42.25287" lon="22.53701">
        <ele>975.22253</ele>
        <time>2022-04-09T09:44:09.198Z</time>
      </trkpt>
      <trkpt lat="42.25282" lon="22.5369">
        <ele>975.522141</ele>
        <time>2022-04-09T09:44:13.186Z</time>
      </trkpt>
      <trkpt lat="42.25278" lon="22.53679">
        <ele>975.822302</ele>
        <time>2022-04-09T09:44:17.178Z</time>
      </trkpt>
      <trkpt lat="42.25274" lon="22.53668">
        <ele>976.111202</ele>
        <time>2022-04-09T09:44:21.188Z</time>
      </trkpt>
      <trkpt lat="42.25269" lon="22.53656">
        <ele>976.43082</ele>
        <time>2022-04-09T09:44:26.183Z</time>
      </trkpt>
      <trkpt lat="42.25265" lon="22.53645">
        <ele>976.733939</ele>
        <time>2022-04-09T09:44:31.175Z</time>
      </trkpt>
      <trkpt lat="42.25261" lon="22.53633">
        <ele>977.048172</ele>
        <time>2022-04-09T09:44:36.194Z</time>
      </trkpt>
      <trkpt lat="42.25256" lon="22.5362">
        <ele>977.386694</ele>
        <time>2022-04-09T09:44:41.197Z</time>
      </trkpt>
      <trkpt lat="42.25251" lon="22.53606">
        <ele>977.746129</ele>
        <time>2022-04-09T09:44:46.196Z</time>
      </trkpt>
      <trkpt lat="42.25247" lon="22.53593">
        <ele>978.086813</ele>
        <time>2022-04-09T09:44:51.193Z</time>
      </trkpt>
      <trkpt lat="42.25243" lon="22.53579">
        <ele>978.438722</ele>
        <time>2022-04-09T09:44:56.204Z</time>
      </trkpt>
      <trkpt lat="42.25238" lon="22.53567">
        <ele>978.766483</ele>
        <time>2022-04-09T09:45:01.181Z</time>
      </trkpt>
      <trkpt lat="42.25233" lon="22.53555">
        <ele>979.071789</ele>
        <time>2022-04-09T09:45:06.179Z</time>
      </trkpt>
      <trkpt lat="42.25228" lon="22.53544">
        <ele>979.384817</ele>
        <time>2022-04-09T09:45:11.184Z</time>
      </trkpt>
      <trkpt lat="42.25224" lon="22.53532">
        <ele>979.702185</ele>
        <time>2022-04-09T09:45:16.223Z</time>
      </trkpt>
      <trkpt lat="42.2522" lon="22.5352">
        <ele>980.015144</ele>
        <time>2022-04-09T09:45:21.185Z</time>
      </trkpt>
      <trkpt lat="42.25216" lon="22.53508">
        <ele>980.329415</ele>
        <time>2022-04-09T09:45:26.197Z</time>
      </trkpt>
      <trkpt lat="42.25211" lon="22.53497">
        <ele>980.668412</ele>
        <time>2022-04-09T09:45:31.168Z</time>
      </trkpt>
      <trkpt lat="42.25207" lon="22.53486">
        <ele>980.987729</ele>
        <time>2022-04-09T09:45:36.218Z</time>
      </trkpt>
      <trkpt lat="42.25202" lon="22.53474">
        <ele>981.32516</ele>
        <time>2022-04-09T09:45:41.176Z</time>
      </trkpt>
      <trkpt lat="42.25198" lon="22.53463">
        <ele>981.644689</ele>
        <time>2022-04-09T09:45:46.195Z</time>
      </trkpt>
      <trkpt lat="42.25193" lon="22.53451">
        <ele>981.994689</ele>
        <time>2022-04-09T09:45:51.175Z</time>
      </trkpt>
      <trkpt lat="42.25189" lon="22.53439">
        <ele>982.341119</ele>
        <time>2022-04-09T09:45:56.191Z</time>
      </trkpt>
      <trkpt lat="42.25185" lon="22.53427">
        <ele>982.663312</ele>
        <time>2022-04-09T09:46:01.184Z</time>
      </trkpt>
      <trkpt lat="42.25181" lon="22.53416">
        <ele>982.990127</ele>
        <time>2022-04-09T09:46:06.191Z</time>
      </trkpt>
      <trkpt lat="42.25176" lon="22.53404">
        <ele>983.313337</ele>
        <time>2022-04-09T09:46:11.192Z</time>
      </trkpt>
      <trkpt lat="42.25172" lon="22.53392">
        <ele>983.656957</ele>
        <time>2022-04-09T09:46:16.222Z</time>
      </trkpt>
      <trkpt lat="42.25168" lon="22.5338">
        <ele>984.000061</ele>
        <time>2022-04-09T09:46:21.219Z</time>
      </trkpt>
      <trkpt lat="42.25163" lon="22.53368">
        <ele>984.346823</ele>
        <time>2022-04-09T09:46:27.177Z</time>
      </trkpt>
      <trkpt lat="42.25159" lon="22.53356">
        <ele>984.697968</ele>
        <time>2022-04-09T09:46:32.193Z</time>
      </trkpt>
      <trkpt lat="42.25154" lon="22.53343">
        <ele>985.051479</ele>
        <time>2022-04-09T09:46:37.183Z</time>
      </trkpt>
      <trkpt lat="42.2515" lon="22.53331">
        <ele>985.401187</ele>
        <time>2022-04-09T09:46:42.204Z</time>
      </trkpt>
      <trkpt lat="42.25145" lon="22.53319">
        <ele>985.757917</ele>
        <time>2022-04-09T09:46:47.172Z</time>
      </trkpt>
      <trkpt lat="42.25142" lon="22.53307">
        <ele>986.078156</ele>
        <time>2022-04-09T09:46:52.196Z</time>
      </trkpt>
      <trkpt lat="42.25138" lon="22.53296">
        <ele>986.398044</ele>
        <time>2022-04-09T09:46:57.172Z</time>
      </trkpt>
      <trkpt lat="42.25133" lon="22.53285">
        <ele>986.912941</ele>
        <time>2022-04-09T09:47:02.189Z</time>
      </trkpt>
      <trkpt lat="42.25129" lon="22.53273">
        <ele>987.467097</ele>
        <time>2022-04-09T09:47:07.183Z</time>
      </trkpt>
      <trkpt lat="42.25124" lon="22.53262">
        <ele>988.02942</ele>
        <time>2022-04-09T09:47:12.178Z</time>
      </trkpt>
      <trkpt lat="42.2512" lon="22.53251">
        <ele>988.560676</ele>
        <time>2022-04-09T09:47:17.191Z</time>
      </trkpt>
      <trkpt lat="42.25116" lon="22.53238">
        <ele>989.146063</ele>
        <time>2022-04-09T09:47:22.243Z</time>
      </trkpt>
      <trkpt lat="42.25112" lon="22.53226">
        <ele>989.687545</ele>
        <time>2022-04-09T09:47:27.176Z</time>
      </trkpt>
      <trkpt lat="42.25107" lon="22.53216">
        <ele>990.20614</ele>
        <time>2022-04-09T09:47:32.177Z</time>
      </trkpt>
      <trkpt lat="42.25102" lon="22.53203">
        <ele>990.806381</ele>
        <time>2022-04-09T09:47:38.212Z</time>
      </trkpt>
      <trkpt lat="42.25098" lon="22.53192">
        <ele>991.355771</ele>
        <time>2022-04-09T09:47:43.188Z</time>
      </trkpt>
      <trkpt lat="42.25094" lon="22.5318">
        <ele>991.909732</ele>
        <time>2022-04-09T09:47:48.190Z</time>
      </trkpt>
      <trkpt lat="42.25089" lon="22.53168">
        <ele>992.465029</ele>
        <time>2022-04-09T09:47:53.185Z</time>
      </trkpt>
      <trkpt lat="42.25085" lon="22.53157">
        <ele>993.00385</ele>
        <time>2022-04-09T09:47:59.185Z</time>
      </trkpt>
      <trkpt lat="42.2508" lon="22.53145">
        <ele>993.587456</ele>
        <time>2022-04-09T09:48:05.191Z</time>
      </trkpt>
      <trkpt lat="42.25076" lon="22.53134">
        <ele>994.097188</ele>
        <time>2022-04-09T09:48:10.189Z</time>
      </trkpt>
      <trkpt lat="42.25072" lon="22.53121">
        <ele>994.71072</ele>
        <time>2022-04-09T09:48:16.197Z</time>
      </trkpt>
      <trkpt lat="42.25067" lon="22.53109">
        <ele>995.300791</ele>
        <time>2022-04-09T09:48:21.190Z</time>
      </trkpt>
      <trkpt lat="42.25062" lon="22.53097">
        <ele>995.849738</ele>
        <time>2022-04-09T09:48:26.191Z</time>
      </trkpt>
      <trkpt lat="42.25058" lon="22.53084">
        <ele>996.437896</ele>
        <time>2022-04-09T09:48:31.201Z</time>
      </trkpt>
      <trkpt lat="42.25054" lon="22.53072">
        <ele>996.976064</ele>
        <time>2022-04-09T09:48:36.198Z</time>
      </trkpt>
      <trkpt lat="42.25049" lon="22.5306">
        <ele>997.477508</ele>
        <time>2022-04-09T09:48:41.189Z</time>
      </trkpt>
      <trkpt lat="42.25045" lon="22.53048">
        <ele>997.97523</ele>
        <time>2022-04-09T09:48:46.264Z</time>
      </trkpt>
      <trkpt lat="42.25041" lon="22.53036">
        <ele>998.509133</ele>
        <time>2022-04-09T09:48:52.182Z</time>
      </trkpt>
      <trkpt lat="42.25037" lon="22.53024">
        <ele>999.00562</ele>
        <time>2022-04-09T09:48:57.220Z</time>
      </trkpt>
      <trkpt lat="42.25032" lon="22.53012">
        <ele>999.538623</ele>
        <time>2022-04-09T09:49:03.174Z</time>
      </trkpt>
      <trkpt lat="42.25028" lon="22.52999">
        <ele>1000.044587</ele>
        <time>2022-04-09T09:49:09.176Z</time>
      </trkpt>
      <trkpt lat="42.25023" lon="22.52987">
        <ele>1000.586388</ele>
        <time>2022-04-09T09:49:15.204Z</time>
      </trkpt>
      <trkpt lat="42.25018" lon="22.52974">
        <ele>1001.128496</ele>
        <time>2022-04-09T09:49:21.190Z</time>
      </trkpt>
      <trkpt lat="42.25012" lon="22.52961">
        <ele>1001.692301</ele>
        <time>2022-04-09T09:49:27.233Z</time>
      </trkpt>
      <trkpt lat="42.25007" lon="22.5295">
        <ele>1002.214273</ele>
        <time>2022-04-09T09:49:32.179Z</time>
      </trkpt>
      <trkpt lat="42.25002" lon="22.52937">
        <ele>1002.745563</ele>
        <time>2022-04-09T09:49:37.172Z</time>
      </trkpt>
      <trkpt lat="42.24998" lon="22.52925">
        <ele>1003.266935</ele>
        <time>2022-04-09T09:49:42.183Z</time>
      </trkpt>
      <trkpt lat="42.24993" lon="22.52913">
        <ele>1003.787075</ele>
        <time>2022-04-09T09:49:48.188Z</time>
      </trkpt>
      <trkpt lat="42.24987" lon="22.529">
        <ele>1004.334101</ele>
        <time>2022-04-09T09:49:54.181Z</time>
      </trkpt>
      <trkpt lat="42.24983" lon="22.52888">
        <ele>1004.874821</ele>
        <time>2022-04-09T09:50:00.213Z</time>
      </trkpt>
      <trkpt lat="42.24978" lon="22.52876">
        <ele>1005.372548</ele>
        <time>2022-04-09T09:50:05.185Z</time>
      </trkpt>
      <trkpt lat="42.24975" lon="22.52864">
        <ele>1005.850917</ele>
        <time>2022-04-09T09:50:10.190Z</time>
      </trkpt>
      <trkpt lat="42.24971" lon="22.52852">
        <ele>1005.930986</ele>
        <time>2022-04-09T09:50:16.184Z</time>
      </trkpt>
      <trkpt lat="42.24969" lon="22.52837">
        <ele>1005.96857</ele>
        <time>2022-04-09T09:50:22.179Z</time>
      </trkpt>
      <trkpt lat="42.24964" lon="22.52825">
        <ele>1006.00313</ele>
        <time>2022-04-09T09:50:27.192Z</time>
      </trkpt>
      <trkpt lat="42.2496" lon="22.52812">
        <ele>1006.038387</ele>
        <time>2022-04-09T09:50:32.185Z</time>
      </trkpt>
      <trkpt lat="42.24954" lon="22.52801">
        <ele>1006.074087</ele>
        <time>2022-04-09T09:50:37.201Z</time>
      </trkpt>
      <trkpt lat="42.2495" lon="22.52789">
        <ele>1006.107888</ele>
        <time>2022-04-09T09:50:42.192Z</time>
      </trkpt>
      <trkpt lat="42.24945" lon="22.52776">
        <ele>1006.146331</ele>
        <time>2022-04-09T09:50:46.200Z</time>
      </trkpt>
      <trkpt lat="42.2494" lon="22.52763">
        <ele>1006.18172</ele>
        <time>2022-04-09T09:50:50.199Z</time>
      </trkpt>
      <trkpt lat="42.24935" lon="22.52752">
        <ele>1006.215013</ele>
        <time>2022-04-09T09:50:54.182Z</time>
      </trkpt>
      <trkpt lat="42.2493" lon="22.5274">
        <ele>1006.251639</ele>
        <time>2022-04-09T09:50:58.196Z</time>
      </trkpt>
      <trkpt lat="42.24924" lon="22.52728">
        <ele>1006.287567</ele>
        <time>2022-04-09T09:51:02.198Z</time>
      </trkpt>
      <trkpt lat="42.24919" lon="22.52716">
        <ele>1006.323045</ele>
        <time>2022-04-09T09:51:06.203Z</time>
      </trkpt>
      <trkpt lat="42.24913" lon="22.52704">
        <ele>1006.360254</ele>
        <time>2022-04-09T09:51:10.178Z</time>
      </trkpt>
      <trkpt lat="42.24906" lon="22.52692">
        <ele>1006.397784</ele>
        <time>2022-04-09T09:51:14.192Z</time>
      </trkpt>
      <trkpt lat="42.24901" lon="22.52679">
        <ele>1006.4342</ele>
        <time>2022-04-09T09:51:18.218Z</time>
      </trkpt>
      <trkpt lat="42.24896" lon="22.52668">
        <ele>1006.468685</ele>
        <time>2022-04-09T09:51:22.173Z</time>
      </trkpt>
      <trkpt lat="42.24891" lon="22.52657">
        <ele>1006.502486</ele>
        <time>2022-04-09T09:51:26.199Z</time>
      </trkpt>
      <trkpt lat="42.24887" lon="22.52643">
        <ele>1006.544221</ele>
        <time>2022-04-09T09:51:30.224Z</time>
      </trkpt>
      <trkpt lat="42.24882" lon="22.5263">
        <ele>1006.586077</ele>
        <time>2022-04-09T09:51:34.206Z</time>
      </trkpt>
      <trkpt lat="42.24876" lon="22.52619">
        <ele>1006.627515</ele>
        <time>2022-04-09T09:51:38.173Z</time>
      </trkpt>
      <trkpt lat="42.2487" lon="22.52606">
        <ele>1006.672333</ele>
        <time>2022-04-09T09:51:42.166Z</time>
      </trkpt>
      <trkpt lat="42.24865" lon="22.52593">
        <ele>1006.71393</ele>
        <time>2022-04-09T09:51:46.229Z</time>
      </trkpt>
      <trkpt lat="42.24861" lon="22.52582">
        <ele>1006.751255</ele>
        <time>2022-04-09T09:51:50.191Z</time>
      </trkpt>
      <trkpt lat="42.24857" lon="22.52571">
        <ele>1006.78764</ele>
        <time>2022-04-09T09:51:54.164Z</time>
      </trkpt>
      <trkpt lat="42.24851" lon="22.52558">
        <ele>1006.830817</ele>
        <time>2022-04-09T09:51:58.207Z</time>
      </trkpt>
      <trkpt lat="42.24845" lon="22.52545">
        <ele>1006.876621</ele>
        <time>2022-04-09T09:52:02.173Z</time>
      </trkpt>
      <trkpt lat="42.24839" lon="22.52532">
        <ele>1006.920878</ele>
        <time>2022-04-09T09:52:06.212Z</time>
      </trkpt>
      <trkpt lat="42.24834" lon="22.52519">
        <ele>1006.964742</ele>
        <time>2022-04-09T09:52:10.165Z</time>
      </trkpt>
      <trkpt lat="42.24829" lon="22.52507">
        <ele>1007.00653</ele>
        <time>2022-04-09T09:52:14.178Z</time>
      </trkpt>
      <trkpt lat="42.24822" lon="22.52495">
        <ele>1007.05039</ele>
        <time>2022-04-09T09:52:18.184Z</time>
      </trkpt>
      <trkpt lat="42.24816" lon="22.52482">
        <ele>1007.094031</ele>
        <time>2022-04-09T09:52:22.169Z</time>
      </trkpt>
      <trkpt lat="42.2481" lon="22.5247">
        <ele>1007.137625</ele>
        <time>2022-04-09T09:52:26.229Z</time>
      </trkpt>
      <trkpt lat="42.24804" lon="22.52458">
        <ele>1007.181667</ele>
        <time>2022-04-09T09:52:30.209Z</time>
      </trkpt>
      <trkpt lat="42.24797" lon="22.52445">
        <ele>1007.227138</ele>
        <time>2022-04-09T09:52:34.177Z</time>
      </trkpt>
      <trkpt lat="42.24791" lon="22.52432">
        <ele>1007.005198</ele>
        <time>2022-04-09T09:52:38.230Z</time>
      </trkpt>
      <trkpt lat="42.24786" lon="22.52422">
        <ele>1006.78295</ele>
        <time>2022-04-09T09:52:41.184Z</time>
      </trkpt>
      <trkpt lat="42.2478" lon="22.52412">
        <ele>1006.560635</ele>
        <time>2022-04-09T09:52:44.190Z</time>
      </trkpt>
      <trkpt lat="42.24775" lon="22.52403">
        <ele>1006.339806</ele>
        <time>2022-04-09T09:52:47.185Z</time>
      </trkpt>
      <trkpt lat="42.24768" lon="22.5239">
        <ele>1006.050286</ele>
        <time>2022-04-09T09:52:51.187Z</time>
      </trkpt>
      <trkpt lat="42.24762" lon="22.52376">
        <ele>1005.757488</ele>
        <time>2022-04-09T09:52:55.168Z</time>
      </trkpt>
      <trkpt lat="42.24756" lon="22.52367">
        <ele>1005.524728</ele>
        <time>2022-04-09T09:52:58.179Z</time>
      </trkpt>
      <trkpt lat="42.24749" lon="22.52356">
        <ele>1005.284632</ele>
        <time>2022-04-09T09:53:01.171Z</time>
      </trkpt>
      <trkpt lat="42.24744" lon="22.52346">
        <ele>1005.044756</ele>
        <time>2022-04-09T09:53:04.173Z</time>
      </trkpt>
      <trkpt lat="42.24737" lon="22.52335">
        <ele>1004.788708</ele>
        <time>2022-04-09T09:53:07.189Z</time>
      </trkpt>
      <trkpt lat="42.24731" lon="22.52323">
        <ele>1004.526858</ele>
        <time>2022-04-09T09:53:10.165Z</time>
      </trkpt>
      <trkpt lat="42.24725" lon="22.52312">
        <ele>1004.281212</ele>
        <time>2022-04-09T09:53:13.171Z</time>
      </trkpt>
      <trkpt lat="42.24719" lon="22.52301">
        <ele>1004.02823</ele>
        <time>2022-04-09T09:53:16.220Z</time>
      </trkpt>
      <trkpt lat="42.24712" lon="22.5229">
        <ele>1003.768455</ele>
        <time>2022-04-09T09:53:19.164Z</time>
      </trkpt>
      <trkpt lat="42.24705" lon="22.52279">
        <ele>1003.493233</ele>
        <time>2022-04-09T09:53:22.171Z</time>
      </trkpt>
      <trkpt lat="42.24698" lon="22.52268">
        <ele>1003.241718</ele>
        <time>2022-04-09T09:53:25.170Z</time>
      </trkpt>
      <trkpt lat="42.24693" lon="22.52257">
        <ele>1002.995958</ele>
        <time>2022-04-09T09:53:28.191Z</time>
      </trkpt>
      <trkpt lat="42.24687" lon="22.52245">
        <ele>1002.690594</ele>
        <time>2022-04-09T09:53:31.190Z</time>
      </trkpt>
      <trkpt lat="42.2468" lon="22.52234">
        <ele>1002.247052</ele>
        <time>2022-04-09T09:53:34.198Z</time>
      </trkpt>
      <trkpt lat="42.24673" lon="22.5222">
        <ele>1001.733336</ele>
        <time>2022-04-09T09:53:37.186Z</time>
      </trkpt>
      <trkpt lat="42.24665" lon="22.52206">
        <ele>1001.212213</ele>
        <time>2022-04-09T09:53:40.188Z</time>
      </trkpt>
      <trkpt lat="42.24656" lon="22.52192">
        <ele>1000.654135</ele>
        <time>2022-04-09T09:53:43.194Z</time>
      </trkpt>
      <trkpt lat="42.2465" lon="22.52182">
        <ele>1000.251908</ele>
        <time>2022-04-09T09:53:45.191Z</time>
      </trkpt>
      <trkpt lat="42.24643" lon="22.52171">
        <ele>999.832652</ele>
        <time>2022-04-09T09:53:47.191Z</time>
      </trkpt>
      <trkpt lat="42.24637" lon="22.5216">
        <ele>999.41103</ele>
        <time>2022-04-09T09:53:49.180Z</time>
      </trkpt>
      <trkpt lat="42.2463" lon="22.52148">
        <ele>998.969836</ele>
        <time>2022-04-09T09:53:51.188Z</time>
      </trkpt>
      <trkpt lat="42.24623" lon="22.52136">
        <ele>998.509552</ele>
        <time>2022-04-09T09:53:53.180Z</time>
      </trkpt>
      <trkpt lat="42.24616" lon="22.52124">
        <ele>998.049143</ele>
        <time>2022-04-09T09:53:55.193Z</time>
      </trkpt>
      <trkpt lat="42.24609" lon="22.52111">
        <ele>997.550078</ele>
        <time>2022-04-09T09:53:57.191Z</time>
      </trkpt>
      <trkpt lat="42.24601" lon="22.52097">
        <ele>997.034105</ele>
        <time>2022-04-09T09:53:59.189Z</time>
      </trkpt>
      <trkpt lat="42.24593" lon="22.52084">
        <ele>996.505891</ele>
        <time>2022-04-09T09:54:01.200Z</time>
      </trkpt>
      <trkpt lat="42.24584" lon="22.5207">
        <ele>995.955329</ele>
        <time>2022-04-09T09:54:03.190Z</time>
      </trkpt>
      <trkpt lat="42.24575" lon="22.52055">
        <ele>995.413689</ele>
        <time>2022-04-09T09:54:05.193Z</time>
      </trkpt>
      <trkpt lat="42.24566" lon="22.5204">
        <ele>994.962752</ele>
        <time>2022-04-09T09:54:07.217Z</time>
      </trkpt>
      <trkpt lat="42.24557" lon="22.52024">
        <ele>994.489885</ele>
        <time>2022-04-09T09:54:09.191Z</time>
      </trkpt>
      <trkpt lat="42.24548" lon="22.52008">
        <ele>994.013334</ele>
        <time>2022-04-09T09:54:11.187Z</time>
      </trkpt>
      <trkpt lat="42.24539" lon="22.51991">
        <ele>993.551468</ele>
        <time>2022-04-09T09:54:13.224Z</time>
      </trkpt>
      <trkpt lat="42.24531" lon="22.51975">
        <ele>993.091212</ele>
        <time>2022-04-09T09:54:15.168Z</time>
      </trkpt>
      <trkpt lat="42.24523" lon="22.51959">
        <ele>992.66288</ele>
        <time>2022-04-09T09:54:17.181Z</time>
      </trkpt>
      <trkpt lat="42.24516" lon="22.51945">
        <ele>992.249523</ele>
        <time>2022-04-09T09:54:19.183Z</time>
      </trkpt>
      <trkpt lat="42.24508" lon="22.5193">
        <ele>991.832536</ele>
        <time>2022-04-09T09:54:21.178Z</time>
      </trkpt>
      <trkpt lat="42.245" lon="22.51916">
        <ele>991.411784</ele>
        <time>2022-04-09T09:54:23.182Z</time>
      </trkpt>
      <trkpt lat="42.24492" lon="22.51902">
        <ele>991.013439</ele>
        <time>2022-04-09T09:54:25.197Z</time>
      </trkpt>
      <trkpt lat="42.24484" lon="22.51888">
        <ele>990.599847</ele>
        <time>2022-04-09T09:54:27.179Z</time>
      </trkpt>
      <trkpt lat="42.24475" lon="22.51874">
        <ele>990.184081</ele>
        <time>2022-04-09T09:54:29.194Z</time>
      </trkpt>
      <trkpt lat="42.24467" lon="22.51861">
        <ele>989.824558</ele>
        <time>2022-04-09T09:54:31.185Z</time>
      </trkpt>
      <trkpt lat="42.2446" lon="22.51848">
        <ele>989.616199</ele>
        <time>2022-04-09T09:54:33.185Z</time>
      </trkpt>
      <trkpt lat="42.24452" lon="22.51835">
        <ele>989.408693</ele>
        <time>2022-04-09T09:54:35.173Z</time>
      </trkpt>
      <trkpt lat="42.24444" lon="22.51822">
        <ele>989.208315</ele>
        <time>2022-04-09T09:54:37.165Z</time>
      </trkpt>
      <trkpt lat="42.24437" lon="22.51808">
        <ele>989.006985</ele>
        <time>2022-04-09T09:54:39.186Z</time>
      </trkpt>
      <trkpt lat="42.2443" lon="22.51795">
        <ele>988.811528</ele>
        <time>2022-04-09T09:54:41.185Z</time>
      </trkpt>
      <trkpt lat="42.24423" lon="22.51782">
        <ele>988.618913</ele>
        <time>2022-04-09T09:54:43.184Z</time>
      </trkpt>
      <trkpt lat="42.24416" lon="22.51769">
        <ele>988.417565</ele>
        <time>2022-04-09T09:54:45.189Z</time>
      </trkpt>
      <trkpt lat="42.24409" lon="22.51757">
        <ele>988.220008</ele>
        <time>2022-04-09T09:54:47.194Z</time>
      </trkpt>
      <trkpt lat="42.24401" lon="22.51745">
        <ele>988.030222</ele>
        <time>2022-04-09T09:54:49.185Z</time>
      </trkpt>
      <trkpt lat="42.24394" lon="22.51732">
        <ele>987.834784</ele>
        <time>2022-04-09T09:54:51.194Z</time>
      </trkpt>
      <trkpt lat="42.24387" lon="22.51718">
        <ele>987.634423</ele>
        <time>2022-04-09T09:54:53.200Z</time>
      </trkpt>
      <trkpt lat="42.2438" lon="22.51705">
        <ele>987.4311</ele>
        <time>2022-04-09T09:54:55.177Z</time>
      </trkpt>
      <trkpt lat="42.24372" lon="22.51692">
        <ele>987.227731</ele>
        <time>2022-04-09T09:54:57.227Z</time>
      </trkpt>
      <trkpt lat="42.24364" lon="22.51679">
        <ele>987.025247</ele>
        <time>2022-04-09T09:54:59.185Z</time>
      </trkpt>
      <trkpt lat="42.24357" lon="22.51666">
        <ele>986.925399</ele>
        <time>2022-04-09T09:55:01.205Z</time>
      </trkpt>
      <trkpt lat="42.24349" lon="22.51653">
        <ele>987.000992</ele>
        <time>2022-04-09T09:55:03.183Z</time>
      </trkpt>
      <trkpt lat="42.24342" lon="22.51641">
        <ele>987.076204</ele>
        <time>2022-04-09T09:55:05.195Z</time>
      </trkpt>
      <trkpt lat="42.24335" lon="22.51628">
        <ele>987.151432</ele>
        <time>2022-04-09T09:55:07.183Z</time>
      </trkpt>
      <trkpt lat="42.24327" lon="22.51616">
        <ele>987.22342</ele>
        <time>2022-04-09T09:55:09.186Z</time>
      </trkpt>
      <trkpt lat="42.24321" lon="22.51605">
        <ele>987.288336</ele>
        <time>2022-04-09T09:55:11.178Z</time>
      </trkpt>
      <trkpt lat="42.24314" lon="22.51596">
        <ele>987.348446</ele>
        <time>2022-04-09T09:55:13.191Z</time>
      </trkpt>
      <trkpt lat="42.24308" lon="22.51585">
        <ele>987.413602</ele>
        <time>2022-04-09T09:55:15.179Z</time>
      </trkpt>
      <trkpt lat="42.24302" lon="22.51573">
        <ele>987.480036</ele>
        <time>2022-04-09T09:55:17.187Z</time>
      </trkpt>
      <trkpt lat="42.24297" lon="22.51562">
        <ele>987.538903</ele>
        <time>2022-04-09T09:55:19.200Z</time>
      </trkpt>
      <trkpt lat="42.2429" lon="22.51549">
        <ele>987.612635</ele>
        <time>2022-04-09T09:55:22.186Z</time>
      </trkpt>
      <trkpt lat="42.24283" lon="22.51539">
        <ele>987.674277</ele>
        <time>2022-04-09T09:55:25.182Z</time>
      </trkpt>
      <trkpt lat="42.24278" lon="22.51529">
        <ele>987.732358</ele>
        <time>2022-04-09T09:55:28.179Z</time>
      </trkpt>
      <trkpt lat="42.24271" lon="22.51516">
        <ele>987.804331</ele>
        <time>2022-04-09T09:55:32.191Z</time>
      </trkpt>
      <trkpt lat="42.24265" lon="22.51505">
        <ele>987.868752</ele>
        <time>2022-04-09T09:55:36.237Z</time>
      </trkpt>
      <trkpt lat="42.24259" lon="22.51494">
        <ele>987.930561</ele>
        <time>2022-04-09T09:55:40.194Z</time>
      </trkpt>
      <trkpt lat="42.24253" lon="22.51484">
        <ele>987.992002</ele>
        <time>2022-04-09T09:55:44.197Z</time>
      </trkpt>
      <trkpt lat="42.24247" lon="22.51473">
        <ele>988.25608</ele>
        <time>2022-04-09T09:55:48.173Z</time>
      </trkpt>
      <trkpt lat="42.24241" lon="22.51464">
        <ele>988.692327</ele>
        <time>2022-04-09T09:55:52.224Z</time>
      </trkpt>
      <trkpt lat="42.24235" lon="22.51451">
        <ele>989.198106</ele>
        <time>2022-04-09T09:55:57.178Z</time>
      </trkpt>
      <trkpt lat="42.24229" lon="22.5144">
        <ele>989.686063</ele>
        <time>2022-04-09T09:56:02.225Z</time>
      </trkpt>
      <trkpt lat="42.24222" lon="22.5143">
        <ele>990.150146</ele>
        <time>2022-04-09T09:56:07.188Z</time>
      </trkpt>
      <trkpt lat="42.24217" lon="22.51419">
        <ele>990.601955</ele>
        <time>2022-04-09T09:56:12.195Z</time>
      </trkpt>
      <trkpt lat="42.2421" lon="22.51408">
        <ele>991.098134</ele>
        <time>2022-04-09T09:56:18.192Z</time>
      </trkpt>
      <trkpt lat="42.24204" lon="22.51396">
        <ele>991.583169</ele>
        <time>2022-04-09T09:56:24.181Z</time>
      </trkpt>
      <trkpt lat="42.24199" lon="22.51386">
        <ele>992.012775</ele>
        <time>2022-04-09T09:56:29.184Z</time>
      </trkpt>
      <trkpt lat="42.24192" lon="22.51375">
        <ele>992.508929</ele>
        <time>2022-04-09T09:56:35.169Z</time>
      </trkpt>
      <trkpt lat="42.24186" lon="22.51364">
        <ele>992.985776</ele>
        <time>2022-04-09T09:56:41.204Z</time>
      </trkpt>
      <trkpt lat="42.24181" lon="22.51354">
        <ele>993.412671</ele>
        <time>2022-04-09T09:56:47.179Z</time>
      </trkpt>
      <trkpt lat="42.24174" lon="22.51344">
        <ele>993.868492</ele>
        <time>2022-04-09T09:56:53.183Z</time>
      </trkpt>
      <trkpt lat="42.24169" lon="22.51333">
        <ele>994.317537</ele>
        <time>2022-04-09T09:56:59.177Z</time>
      </trkpt>
      <trkpt lat="42.24163" lon="22.51323">
        <ele>994.756061</ele>
        <time>2022-04-09T09:57:05.189Z</time>
      </trkpt>
      <trkpt lat="42.24157" lon="22.51313">
        <ele>995.191258</ele>
        <time>2022-04-09T09:57:11.193Z</time>
      </trkpt>
      <trkpt lat="42.24151" lon="22.51303">
        <ele>995.64301</ele>
        <time>2022-04-09T09:57:17.178Z</time>
      </trkpt>
      <trkpt lat="42.24145" lon="22.51293">
        <ele>996.090157</ele>
        <time>2022-04-09T09:57:23.165Z</time>
      </trkpt>
      <trkpt lat="42.24139" lon="22.51283">
        <ele>996.540154</ele>
        <time>2022-04-09T09:57:29.183Z</time>
      </trkpt>
      <trkpt lat="42.24132" lon="22.51273">
        <ele>997.046688</ele>
        <time>2022-04-09T09:57:36.188Z</time>
      </trkpt>
      <trkpt lat="42.24127" lon="22.51262">
        <ele>997.495204</ele>
        <time>2022-04-09T09:57:42.196Z</time>
      </trkpt>
      <trkpt lat="42.2412" lon="22.51251">
        <ele>997.995649</ele>
        <time>2022-04-09T09:57:48.226Z</time>
      </trkpt>
      <trkpt lat="42.24114" lon="22.51242">
        <ele>998.4633</ele>
        <time>2022-04-09T09:57:54.222Z</time>
      </trkpt>
      <trkpt lat="42.24108" lon="22.51231">
        <ele>998.949289</ele>
        <time>2022-04-09T09:58:00.184Z</time>
      </trkpt>
      <trkpt lat="42.24102" lon="22.51221">
        <ele>999.41694</ele>
        <time>2022-04-09T09:58:06.185Z</time>
      </trkpt>
      <trkpt lat="42.24096" lon="22.51211">
        <ele>999.883299</ele>
        <time>2022-04-09T09:58:12.200Z</time>
      </trkpt>
      <trkpt lat="42.24089" lon="22.51202">
        <ele>1000.349583</ele>
        <time>2022-04-09T09:58:18.194Z</time>
      </trkpt>
      <trkpt lat="42.24083" lon="22.51192">
        <ele>1000.799485</ele>
        <time>2022-04-09T09:58:24.188Z</time>
      </trkpt>
      <trkpt lat="42.24077" lon="22.51182">
        <ele>1001.288734</ele>
        <time>2022-04-09T09:58:30.167Z</time>
      </trkpt>
      <trkpt lat="42.2407" lon="22.51172">
        <ele>1001.755878</ele>
        <time>2022-04-09T09:58:36.229Z</time>
      </trkpt>
      <trkpt lat="42.24064" lon="22.51162">
        <ele>1002.21761</ele>
        <time>2022-04-09T09:58:42.184Z</time>
      </trkpt>
      <trkpt lat="42.24057" lon="22.51153">
        <ele>1002.704429</ele>
        <time>2022-04-09T09:58:48.201Z</time>
      </trkpt>
      <trkpt lat="42.2405" lon="22.51144">
        <ele>1003.16332</ele>
        <time>2022-04-09T09:58:55.189Z</time>
      </trkpt>
      <trkpt lat="42.24044" lon="22.51136">
        <ele>1003.598775</ele>
        <time>2022-04-09T09:59:01.199Z</time>
      </trkpt>
      <trkpt lat="42.24037" lon="22.51125">
        <ele>1004.112711</ele>
        <time>2022-04-09T09:59:07.179Z</time>
      </trkpt>
      <trkpt lat="42.2403" lon="22.51116">
        <ele>1004.573041</ele>
        <time>2022-04-09T09:59:13.215Z</time>
      </trkpt>
      <trkpt lat="42.24023" lon="22.51107">
        <ele>1005.047869</ele>
        <time>2022-04-09T09:59:19.181Z</time>
      </trkpt>
      <trkpt lat="42.24016" lon="22.51098">
        <ele>1005.426445</ele>
        <time>2022-04-09T09:59:25.215Z</time>
      </trkpt>
      <trkpt lat="42.24009" lon="22.51088">
        <ele>1005.809172</ele>
        <time>2022-04-09T09:59:32.194Z</time>
      </trkpt>
      <trkpt lat="42.24002" lon="22.51078">
        <ele>1006.192487</ele>
        <time>2022-04-09T09:59:38.185Z</time>
      </trkpt>
      <trkpt lat="42.23994" lon="22.5107">
        <ele>1006.556699</ele>
        <time>2022-04-09T09:59:44.179Z</time>
      </trkpt>
      <trkpt lat="42.23988" lon="22.51061">
        <ele>1006.907021</ele>
        <time>2022-04-09T09:59:50.169Z</time>
      </trkpt>
      <trkpt lat="42.23981" lon="22.51052">
        <ele>1007.262699</ele>
        <time>2022-04-09T09:59:56.181Z</time>
      </trkpt>
      <trkpt lat="42.23973" lon="22.51042">
        <ele>1007.661873</ele>
        <time>2022-04-09T10:00:02.173Z</time>
      </trkpt>
      <trkpt lat="42.23967" lon="22.51033">
        <ele>1008.001718</ele>
        <time>2022-04-09T10:00:08.179Z</time>
      </trkpt>
      <trkpt lat="42.2396" lon="22.51025">
        <ele>1008.34229</ele>
        <time>2022-04-09T10:00:14.193Z</time>
      </trkpt>
      <trkpt lat="42.23952" lon="22.51017">
        <ele>1008.701273</ele>
        <time>2022-04-09T10:00:20.188Z</time>
      </trkpt>
      <trkpt lat="42.23944" lon="22.5101">
        <ele>1009.071895</ele>
        <time>2022-04-09T10:00:26.182Z</time>
      </trkpt>
      <trkpt lat="42.23937" lon="22.50999">
        <ele>1009.469052</ele>
        <time>2022-04-09T10:00:33.180Z</time>
      </trkpt>
      <trkpt lat="42.2393" lon="22.50991">
        <ele>1009.829149</ele>
        <time>2022-04-09T10:00:39.178Z</time>
      </trkpt>
      <trkpt lat="42.23923" lon="22.50982">
        <ele>1010.176222</ele>
        <time>2022-04-09T10:00:45.180Z</time>
      </trkpt>
      <trkpt lat="42.23916" lon="22.50972">
        <ele>1010.573753</ele>
        <time>2022-04-09T10:00:52.180Z</time>
      </trkpt>
      <trkpt lat="42.2391" lon="22.50962">
        <ele>1010.916813</ele>
        <time>2022-04-09T10:00:58.187Z</time>
      </trkpt>
      <trkpt lat="42.23903" lon="22.50952">
        <ele>1011.299871</ele>
        <time>2022-04-09T10:01:05.180Z</time>
      </trkpt>
      <trkpt lat="42.23896" lon="22.50941">
        <ele>1011.697888</ele>
        <time>2022-04-09T10:01:11.222Z</time>
      </trkpt>
      <trkpt lat="42.23889" lon="22.50932">
        <ele>1012.035478</ele>
        <time>2022-04-09T10:01:17.200Z</time>
      </trkpt>
      <trkpt lat="42.23883" lon="22.50923">
        <ele>1012.32913</ele>
        <time>2022-04-09T10:01:23.186Z</time>
      </trkpt>
      <trkpt lat="42.23877" lon="22.50914">
        <ele>1012.628855</ele>
        <time>2022-04-09T10:01:29.188Z</time>
      </trkpt>
      <trkpt lat="42.23871" lon="22.50903">
        <ele>1012.938439</ele>
        <time>2022-04-09T10:01:35.187Z</time>
      </trkpt>
      <trkpt lat="42.23865" lon="22.50893">
        <ele>1013.255925</ele>
        <time>2022-04-09T10:01:41.198Z</time>
      </trkpt>
      <trkpt lat="42.23859" lon="22.50883">
        <ele>1013.561687</ele>
        <time>2022-04-09T10:01:47.188Z</time>
      </trkpt>
      <trkpt lat="42.23853" lon="22.50873">
        <ele>1013.870005</ele>
        <time>2022-04-09T10:01:53.198Z</time>
      </trkpt>
      <trkpt lat="42.23848" lon="22.50863">
        <ele>1014.16623</ele>
        <time>2022-04-09T10:01:58.211Z</time>
      </trkpt>
      <trkpt lat="42.23841" lon="22.50853">
        <ele>1014.486076</ele>
        <time>2022-04-09T10:02:04.178Z</time>
      </trkpt>
      <trkpt lat="42.23835" lon="22.50844">
        <ele>1014.777285</ele>
        <time>2022-04-09T10:02:09.191Z</time>
      </trkpt>
      <trkpt lat="42.23829" lon="22.50833">
        <ele>1015.088821</ele>
        <time>2022-04-09T10:02:15.197Z</time>
      </trkpt>
      <trkpt lat="42.23822" lon="22.50824">
        <ele>1015.414846</ele>
        <time>2022-04-09T10:02:21.195Z</time>
      </trkpt>
      <trkpt lat="42.23815" lon="22.50813">
        <ele>1015.736949</ele>
        <time>2022-04-09T10:02:27.192Z</time>
      </trkpt>
      <trkpt lat="42.2381" lon="22.50803">
        <ele>1016.041283</ele>
        <time>2022-04-09T10:02:33.194Z</time>
      </trkpt>
      <trkpt lat="42.23804" lon="22.50792">
        <ele>1016.368116</ele>
        <time>2022-04-09T10:02:39.179Z</time>
      </trkpt>
      <trkpt lat="42.23798" lon="22.5078">
        <ele>1016.706878</ele>
        <time>2022-04-09T10:02:45.167Z</time>
      </trkpt>
      <trkpt lat="42.23791" lon="22.50769">
        <ele>1017.049109</ele>
        <time>2022-04-09T10:02:51.180Z</time>
      </trkpt>
      <trkpt lat="42.23785" lon="22.50759">
        <ele>1017.354264</ele>
        <time>2022-04-09T10:02:57.188Z</time>
      </trkpt>
      <trkpt lat="42.23778" lon="22.50749">
        <ele>1017.679525</ele>
        <time>2022-04-09T10:03:03.188Z</time>
      </trkpt>
      <trkpt lat="42.23772" lon="22.5074">
        <ele>1018.032649</ele>
        <time>2022-04-09T10:03:08.177Z</time>
      </trkpt>
      <trkpt lat="42.23765" lon="22.50731">
        <ele>1018.387876</ele>
        <time>2022-04-09T10:03:13.176Z</time>
      </trkpt>
      <trkpt lat="42.23759" lon="22.50719">
        <ele>1018.796121</ele>
        <time>2022-04-09T10:03:19.189Z</time>
      </trkpt>
      <trkpt lat="42.23753" lon="22.50708">
        <ele>1019.191087</ele>
        <time>2022-04-09T10:03:25.167Z</time>
      </trkpt>
      <trkpt lat="42.23746" lon="22.50697">
        <ele>1019.592336</ele>
        <time>2022-04-09T10:03:31.197Z</time>
      </trkpt>
      <trkpt lat="42.2374" lon="22.50686">
        <ele>1019.987005</ele>
        <time>2022-04-09T10:03:37.183Z</time>
      </trkpt>
      <trkpt lat="42.23734" lon="22.50676">
        <ele>1020.337592</ele>
        <time>2022-04-09T10:03:42.179Z</time>
      </trkpt>
      <trkpt lat="42.23728" lon="22.50666">
        <ele>1020.714356</ele>
        <time>2022-04-09T10:03:48.193Z</time>
      </trkpt>
      <trkpt lat="42.23722" lon="22.50656">
        <ele>1021.059216</ele>
        <time>2022-04-09T10:03:53.195Z</time>
      </trkpt>
      <trkpt lat="42.23716" lon="22.50645">
        <ele>1021.469719</ele>
        <time>2022-04-09T10:03:59.188Z</time>
      </trkpt>
      <trkpt lat="42.2371" lon="22.50636">
        <ele>1021.814016</ele>
        <time>2022-04-09T10:04:04.165Z</time>
      </trkpt>
      <trkpt lat="42.23703" lon="22.50625">
        <ele>1022.215726</ele>
        <time>2022-04-09T10:04:10.178Z</time>
      </trkpt>
      <trkpt lat="42.23697" lon="22.50614">
        <ele>1022.599024</ele>
        <time>2022-04-09T10:04:16.188Z</time>
      </trkpt>
      <trkpt lat="42.2369" lon="22.50604">
        <ele>1022.989401</ele>
        <time>2022-04-09T10:04:22.234Z</time>
      </trkpt>
      <trkpt lat="42.23684" lon="22.50592">
        <ele>1023.384009</ele>
        <time>2022-04-09T10:04:28.184Z</time>
      </trkpt>
      <trkpt lat="42.23677" lon="22.50582">
        <ele>1023.780609</ele>
        <time>2022-04-09T10:04:34.192Z</time>
      </trkpt>
      <trkpt lat="42.23672" lon="22.50571">
        <ele>1024.154036</ele>
        <time>2022-04-09T10:04:40.201Z</time>
      </trkpt>
      <trkpt lat="42.23665" lon="22.50561">
        <ele>1024.5253</ele>
        <time>2022-04-09T10:04:46.255Z</time>
      </trkpt>
      <trkpt lat="42.23659" lon="22.5055">
        <ele>1024.952597</ele>
        <time>2022-04-09T10:04:52.215Z</time>
      </trkpt>
      <trkpt lat="42.23652" lon="22.50539">
        <ele>1025.412529</ele>
        <time>2022-04-09T10:04:58.174Z</time>
      </trkpt>
      <trkpt lat="42.23646" lon="22.50529">
        <ele>1025.83886</ele>
        <time>2022-04-09T10:05:04.189Z</time>
      </trkpt>
      <trkpt lat="42.23641" lon="22.50518">
        <ele>1026.257736</ele>
        <time>2022-04-09T10:05:10.185Z</time>
      </trkpt>
      <trkpt lat="42.23635" lon="22.50508">
        <ele>1026.67055</ele>
        <time>2022-04-09T10:05:16.197Z</time>
      </trkpt>
      <trkpt lat="42.23629" lon="22.50496">
        <ele>1027.12199</ele>
        <time>2022-04-09T10:05:23.184Z</time>
      </trkpt>
      <trkpt lat="42.23624" lon="22.50485">
        <ele>1027.541749</ele>
        <time>2022-04-09T10:05:29.189Z</time>
      </trkpt>
      <trkpt lat="42.23619" lon="22.50473">
        <ele>1027.981976</ele>
        <time>2022-04-09T10:05:35.193Z</time>
      </trkpt>
      <trkpt lat="42.23614" lon="22.50463">
        <ele>1028.385366</ele>
        <time>2022-04-09T10:05:41.179Z</time>
      </trkpt>
      <trkpt lat="42.23609" lon="22.50452">
        <ele>1028.792958</ele>
        <time>2022-04-09T10:05:47.192Z</time>
      </trkpt>
      <trkpt lat="42.23603" lon="22.50442">
        <ele>1029.22376</ele>
        <time>2022-04-09T10:05:55.185Z</time>
      </trkpt>
      <trkpt lat="42.23597" lon="22.5043">
        <ele>1029.674006</ele>
        <time>2022-04-09T10:06:02.238Z</time>
      </trkpt>
      <trkpt lat="42.23592" lon="22.5042">
        <ele>1030.063521</ele>
        <time>2022-04-09T10:06:07.179Z</time>
      </trkpt>
      <trkpt lat="42.23587" lon="22.50409">
        <ele>1030.46064</ele>
        <time>2022-04-09T10:06:13.215Z</time>
      </trkpt>
      <trkpt lat="42.23582" lon="22.50398">
        <ele>1030.899175</ele>
        <time>2022-04-09T10:06:20.172Z</time>
      </trkpt>
      <trkpt lat="42.23578" lon="22.50386">
        <ele>1031.315122</ele>
        <time>2022-04-09T10:06:27.188Z</time>
      </trkpt>
      <trkpt lat="42.23573" lon="22.50374">
        <ele>1031.745929</ele>
        <time>2022-04-09T10:06:34.227Z</time>
      </trkpt>
      <trkpt lat="42.23568" lon="22.50363">
        <ele>1032.15475</ele>
        <time>2022-04-09T10:06:40.187Z</time>
      </trkpt>
      <trkpt lat="42.23564" lon="22.50352">
        <ele>1032.611794</ele>
        <time>2022-04-09T10:06:46.202Z</time>
      </trkpt>
      <trkpt lat="42.2356" lon="22.50341">
        <ele>1033.082201</ele>
        <time>2022-04-09T10:06:51.224Z</time>
      </trkpt>
      <trkpt lat="42.23557" lon="22.50329">
        <ele>1033.553489</ele>
        <time>2022-04-09T10:06:57.173Z</time>
      </trkpt>
      <trkpt lat="42.23552" lon="22.50317">
        <ele>1034.082478</ele>
        <time>2022-04-09T10:07:04.207Z</time>
      </trkpt>
      <trkpt lat="42.23548" lon="22.50305">
        <ele>1034.60201</ele>
        <time>2022-04-09T10:07:11.176Z</time>
      </trkpt>
      <trkpt lat="42.23543" lon="22.50293">
        <ele>1035.113532</ele>
        <time>2022-04-09T10:07:18.195Z</time>
      </trkpt>
      <trkpt lat="42.23539" lon="22.50281">
        <ele>1035.623931</ele>
        <time>2022-04-09T10:07:24.189Z</time>
      </trkpt>
      <trkpt lat="42.23535" lon="22.50268">
        <ele>1036.147422</ele>
        <time>2022-04-09T10:07:30.194Z</time>
      </trkpt>
      <trkpt lat="42.23533" lon="22.50257">
        <ele>1036.624808</ele>
        <time>2022-04-09T10:07:36.183Z</time>
      </trkpt>
      <trkpt lat="42.23529" lon="22.50244">
        <ele>1037.146647</ele>
        <time>2022-04-09T10:07:42.187Z</time>
      </trkpt>
      <trkpt lat="42.23525" lon="22.50231">
        <ele>1037.684432</ele>
        <time>2022-04-09T10:07:48.185Z</time>
      </trkpt>
      <trkpt lat="42.23522" lon="22.50219">
        <ele>1038.161314</ele>
        <time>2022-04-09T10:07:54.194Z</time>
      </trkpt>
      <trkpt lat="42.2352" lon="22.50206">
        <ele>1038.670592</ele>
        <time>2022-04-09T10:08:00.184Z</time>
      </trkpt>
      <trkpt lat="42.23519" lon="22.50192">
        <ele>1039.192758</ele>
        <time>2022-04-09T10:08:07.175Z</time>
      </trkpt>
      <trkpt lat="42.23516" lon="22.5018">
        <ele>1039.691535</ele>
        <time>2022-04-09T10:08:13.179Z</time>
      </trkpt>
      <trkpt lat="42.23512" lon="22.50168">
        <ele>1040.192806</ele>
        <time>2022-04-09T10:08:19.187Z</time>
      </trkpt>
      <trkpt lat="42.23508" lon="22.50156">
        <ele>1040.719317</ele>
        <time>2022-04-09T10:08:25.189Z</time>
      </trkpt>
      <trkpt lat="42.23505" lon="22.50144">
        <ele>1041.208532</ele>
        <time>2022-04-09T10:08:31.221Z</time>
      </trkpt>
      <trkpt lat="42.23502" lon="22.5013">
        <ele>1041.712322</ele>
        <time>2022-04-09T10:08:38.184Z</time>
      </trkpt>
      <trkpt lat="42.23498" lon="22.50119">
        <ele>1042.05515</ele>
        <time>2022-04-09T10:08:44.194Z</time>
      </trkpt>
      <trkpt lat="42.23495" lon="22.50108">
        <ele>1042.390809</ele>
        <time>2022-04-09T10:08:50.189Z</time>
      </trkpt>
      <trkpt lat="42.2349" lon="22.50096">
        <ele>1042.754082</ele>
        <time>2022-04-09T10:08:57.193Z</time>
      </trkpt>
      <trkpt lat="42.23488" lon="22.50083">
        <ele>1043.114128</ele>
        <time>2022-04-09T10:09:03.197Z</time>
      </trkpt>
      <trkpt lat="42.23485" lon="22.50071">
        <ele>1043.463702</ele>
        <time>2022-04-09T10:09:09.215Z</time>
      </trkpt>
      <trkpt lat="42.23482" lon="22.50058">
        <ele>1043.820735</ele>
        <time>2022-04-09T10:09:15.184Z</time>
      </trkpt>
      <trkpt lat="42.23478" lon="22.50045">
        <ele>1044.210903</ele>
        <time>2022-04-09T10:09:21.183Z</time>
      </trkpt>
      <trkpt lat="42.23474" lon="22.50032">
        <ele>1044.592082</ele>
        <time>2022-04-09T10:09:27.174Z</time>
      </trkpt>
      <trkpt lat="42.23471" lon="22.50019">
        <ele>1044.969388</ele>
        <time>2022-04-09T10:09:33.185Z</time>
      </trkpt>
      <trkpt lat="42.23467" lon="22.50007">
        <ele>1045.318684</ele>
        <time>2022-04-09T10:09:38.195Z</time>
      </trkpt>
      <trkpt lat="42.23464" lon="22.49994">
        <ele>1045.702587</ele>
        <time>2022-04-09T10:09:43.177Z</time>
      </trkpt>
      <trkpt lat="42.23461" lon="22.49982">
        <ele>1046.044328</ele>
        <time>2022-04-09T10:09:47.174Z</time>
      </trkpt>
      <trkpt lat="42.23457" lon="22.4997">
        <ele>1046.406315</ele>
        <time>2022-04-09T10:09:51.183Z</time>
      </trkpt>
      <trkpt lat="42.23454" lon="22.49956">
        <ele>1046.819983</ele>
        <time>2022-04-09T10:09:56.178Z</time>
      </trkpt>
      <trkpt lat="42.23451" lon="22.49944">
        <ele>1047.153691</ele>
        <time>2022-04-09T10:10:00.184Z</time>
      </trkpt>
      <trkpt lat="42.23448" lon="22.49932">
        <ele>1047.505346</ele>
        <time>2022-04-09T10:10:04.222Z</time>
      </trkpt>
      <trkpt lat="42.23444" lon="22.4992">
        <ele>1047.860887</ele>
        <time>2022-04-09T10:10:08.188Z</time>
      </trkpt>
      <trkpt lat="42.2344" lon="22.49907">
        <ele>1048.237184</ele>
        <time>2022-04-09T10:10:12.179Z</time>
      </trkpt>
      <trkpt lat="42.23437" lon="22.49894">
        <ele>1048.381676</ele>
        <time>2022-04-09T10:10:16.183Z</time>
      </trkpt>
      <trkpt lat="42.23433" lon="22.49881">
        <ele>1048.486821</ele>
        <time>2022-04-09T10:10:20.193Z</time>
      </trkpt>
      <trkpt lat="42.23429" lon="22.49869">
        <ele>1048.589193</ele>
        <time>2022-04-09T10:10:24.193Z</time>
      </trkpt>
      <trkpt lat="42.23425" lon="22.49856">
        <ele>1048.690875</ele>
        <time>2022-04-09T10:10:28.193Z</time>
      </trkpt>
      <trkpt lat="42.23422" lon="22.49844">
        <ele>1048.792483</ele>
        <time>2022-04-09T10:10:32.234Z</time>
      </trkpt>
      <trkpt lat="42.23418" lon="22.49829">
        <ele>1048.911092</ele>
        <time>2022-04-09T10:10:36.181Z</time>
      </trkpt>
      <trkpt lat="42.23414" lon="22.49814">
        <ele>1049.02606</ele>
        <time>2022-04-09T10:10:40.195Z</time>
      </trkpt>
      <trkpt lat="42.2341" lon="22.49799">
        <ele>1049.144173</ele>
        <time>2022-04-09T10:10:44.193Z</time>
      </trkpt>
      <trkpt lat="42.23407" lon="22.49788">
        <ele>1049.236266</ele>
        <time>2022-04-09T10:10:47.201Z</time>
      </trkpt>
      <trkpt lat="42.23403" lon="22.49773">
        <ele>1049.350908</ele>
        <time>2022-04-09T10:10:51.189Z</time>
      </trkpt>
      <trkpt lat="42.234" lon="22.4976">
        <ele>1049.456862</ele>
        <time>2022-04-09T10:10:55.180Z</time>
      </trkpt>
      <trkpt lat="42.23398" lon="22.49745">
        <ele>1049.575004</ele>
        <time>2022-04-09T10:10:59.182Z</time>
      </trkpt>
      <trkpt lat="42.23394" lon="22.4973">
        <ele>1049.694178</ele>
        <time>2022-04-09T10:11:03.177Z</time>
      </trkpt>
      <trkpt lat="42.2339" lon="22.49715">
        <ele>1049.812198</ele>
        <time>2022-04-09T10:11:07.196Z</time>
      </trkpt>
      <trkpt lat="42.23386" lon="22.497">
        <ele>1049.932058</ele>
        <time>2022-04-09T10:11:11.240Z</time>
      </trkpt>
      <trkpt lat="42.23383" lon="22.49688">
        <ele>1050.022806</ele>
        <time>2022-04-09T10:11:14.193Z</time>
      </trkpt>
      <trkpt lat="42.2338" lon="22.49677">
        <ele>1050.114197</ele>
        <time>2022-04-09T10:11:17.217Z</time>
      </trkpt>
      <trkpt lat="42.23376" lon="22.49663">
        <ele>1049.945582</ele>
        <time>2022-04-09T10:11:21.166Z</time>
      </trkpt>
      <trkpt lat="42.23374" lon="22.49651">
        <ele>1049.800021</ele>
        <time>2022-04-09T10:11:24.193Z</time>
      </trkpt>
      <trkpt lat="42.23371" lon="22.4964">
        <ele>1049.653739</ele>
        <time>2022-04-09T10:11:27.196Z</time>
      </trkpt>
      <trkpt lat="42.23367" lon="22.49626">
        <ele>1049.480514</ele>
        <time>2022-04-09T10:11:31.194Z</time>
      </trkpt>
      <trkpt lat="42.23364" lon="22.49612">
        <ele>1049.306643</ele>
        <time>2022-04-09T10:11:35.181Z</time>
      </trkpt>
      <trkpt lat="42.23359" lon="22.49597">
        <ele>1049.112125</ele>
        <time>2022-04-09T10:11:39.202Z</time>
      </trkpt>
      <trkpt lat="42.23356" lon="22.49586">
        <ele>1048.96537</ele>
        <time>2022-04-09T10:11:42.185Z</time>
      </trkpt>
      <trkpt lat="42.23351" lon="22.49571">
        <ele>1048.773179</ele>
        <time>2022-04-09T10:11:46.186Z</time>
      </trkpt>
      <trkpt lat="42.23347" lon="22.4956">
        <ele>1048.62723</ele>
        <time>2022-04-09T10:11:49.193Z</time>
      </trkpt>
      <trkpt lat="42.23344" lon="22.49549">
        <ele>1048.478238</ele>
        <time>2022-04-09T10:11:52.173Z</time>
      </trkpt>
      <trkpt lat="42.23341" lon="22.49537">
        <ele>1048.328541</ele>
        <time>2022-04-09T10:11:55.219Z</time>
      </trkpt>
      <trkpt lat="42.23336" lon="22.49523">
        <ele>1048.150262</ele>
        <time>2022-04-09T10:11:59.172Z</time>
      </trkpt>
      <trkpt lat="42.23332" lon="22.49508">
        <ele>1047.954494</ele>
        <time>2022-04-09T10:12:03.190Z</time>
      </trkpt>
      <trkpt lat="42.23328" lon="22.49494">
        <ele>1047.773463</ele>
        <time>2022-04-09T10:12:07.203Z</time>
      </trkpt>
      <trkpt lat="42.23323" lon="22.4948">
        <ele>1047.58543</ele>
        <time>2022-04-09T10:12:11.185Z</time>
      </trkpt>
      <trkpt lat="42.23319" lon="22.49466">
        <ele>1047.409862</ele>
        <time>2022-04-09T10:12:15.172Z</time>
      </trkpt>
      <trkpt lat="42.23315" lon="22.49452">
        <ele>1047.230468</ele>
        <time>2022-04-09T10:12:19.232Z</time>
      </trkpt>
      <trkpt lat="42.23311" lon="22.49438">
        <ele>1047.126457</ele>
        <time>2022-04-09T10:12:23.200Z</time>
      </trkpt>
      <trkpt lat="42.23308" lon="22.49426">
        <ele>1047.051288</ele>
        <time>2022-04-09T10:12:26.174Z</time>
      </trkpt>
      <trkpt lat="42.23303" lon="22.49411">
        <ele>1046.959869</ele>
        <time>2022-04-09T10:12:30.193Z</time>
      </trkpt>
      <trkpt lat="42.23299" lon="22.494">
        <ele>1046.887689</ele>
        <time>2022-04-09T10:12:33.194Z</time>
      </trkpt>
      <trkpt lat="42.23295" lon="22.49386">
        <ele>1046.793692</ele>
        <time>2022-04-09T10:12:37.192Z</time>
      </trkpt>
      <trkpt lat="42.2329" lon="22.49372">
        <ele>1046.704018</ele>
        <time>2022-04-09T10:12:41.179Z</time>
      </trkpt>
      <trkpt lat="42.23285" lon="22.49359">
        <ele>1046.617401</ele>
        <time>2022-04-09T10:12:45.191Z</time>
      </trkpt>
      <trkpt lat="42.23281" lon="22.49345">
        <ele>1046.532139</ele>
        <time>2022-04-09T10:12:49.189Z</time>
      </trkpt>
      <trkpt lat="42.23276" lon="22.49332">
        <ele>1046.442526</ele>
        <time>2022-04-09T10:12:53.178Z</time>
      </trkpt>
      <trkpt lat="42.23272" lon="22.49319">
        <ele>1046.363614</ele>
        <time>2022-04-09T10:12:57.175Z</time>
      </trkpt>
      <trkpt lat="42.23267" lon="22.49307">
        <ele>1046.27822</ele>
        <time>2022-04-09T10:13:01.185Z</time>
      </trkpt>
      <trkpt lat="42.23262" lon="22.49293">
        <ele>1046.19089</ele>
        <time>2022-04-09T10:13:05.177Z</time>
      </trkpt>
      <trkpt lat="42.23258" lon="22.49281">
        <ele>1046.112934</ele>
        <time>2022-04-09T10:13:09.187Z</time>
      </trkpt>
      <trkpt lat="42.23255" lon="22.4927">
        <ele>1046.041973</ele>
        <time>2022-04-09T10:13:13.181Z</time>
      </trkpt>
      <trkpt lat="42.23251" lon="22.49259">
        <ele>1045.970165</ele>
        <time>2022-04-09T10:13:17.189Z</time>
      </trkpt>
      <trkpt lat="42.23245" lon="22.49246">
        <ele>1045.880858</ele>
        <time>2022-04-09T10:13:21.183Z</time>
      </trkpt>
      <trkpt lat="42.2324" lon="22.49234">
        <ele>1045.797826</ele>
        <time>2022-04-09T10:13:25.181Z</time>
      </trkpt>
      <trkpt lat="42.23236" lon="22.49222">
        <ele>1046.022401</ele>
        <time>2022-04-09T10:13:29.181Z</time>
      </trkpt>
      <trkpt lat="42.23231" lon="22.4921">
        <ele>1046.350143</ele>
        <time>2022-04-09T10:13:33.177Z</time>
      </trkpt>
      <trkpt lat="42.23227" lon="22.49199">
        <ele>1046.683929</ele>
        <time>2022-04-09T10:13:37.193Z</time>
      </trkpt>
      <trkpt lat="42.23222" lon="22.49185">
        <ele>1047.076636</ele>
        <time>2022-04-09T10:13:42.178Z</time>
      </trkpt>
      <trkpt lat="42.23218" lon="22.49173">
        <ele>1047.42864</ele>
        <time>2022-04-09T10:13:46.202Z</time>
      </trkpt>
      <trkpt lat="42.23214" lon="22.4916">
        <ele>1047.783473</ele>
        <time>2022-04-09T10:13:50.226Z</time>
      </trkpt>
      <trkpt lat="42.23209" lon="22.49149">
        <ele>1048.122755</ele>
        <time>2022-04-09T10:13:54.183Z</time>
      </trkpt>
      <trkpt lat="42.23205" lon="22.49137">
        <ele>1048.461194</ele>
        <time>2022-04-09T10:13:58.193Z</time>
      </trkpt>
      <trkpt lat="42.23201" lon="22.49126">
        <ele>1048.779657</ele>
        <time>2022-04-09T10:14:02.177Z</time>
      </trkpt>
      <trkpt lat="42.23197" lon="22.49115">
        <ele>1049.098304</ele>
        <time>2022-04-09T10:14:06.204Z</time>
      </trkpt>
      <trkpt lat="42.23192" lon="22.49104">
        <ele>1049.431085</ele>
        <time>2022-04-09T10:14:10.190Z</time>
      </trkpt>
      <trkpt lat="42.23188" lon="22.49093">
        <ele>1049.750919</ele>
        <time>2022-04-09T10:14:14.176Z</time>
      </trkpt>
      <trkpt lat="42.23184" lon="22.49082">
        <ele>1050.06926</ele>
        <time>2022-04-09T10:14:18.188Z</time>
      </trkpt>
      <trkpt lat="42.2318" lon="22.49071">
        <ele>1050.38837</ele>
        <time>2022-04-09T10:14:22.173Z</time>
      </trkpt>
      <trkpt lat="42.23176" lon="22.4906">
        <ele>1050.706835</ele>
        <time>2022-04-09T10:14:26.196Z</time>
      </trkpt>
      <trkpt lat="42.23171" lon="22.49049">
        <ele>1051.02493</ele>
        <time>2022-04-09T10:14:30.193Z</time>
      </trkpt>
      <trkpt lat="42.23167" lon="22.49037">
        <ele>1051.35571</ele>
        <time>2022-04-09T10:14:34.184Z</time>
      </trkpt>
      <trkpt lat="42.23163" lon="22.49026">
        <ele>1051.679541</ele>
        <time>2022-04-09T10:14:38.207Z</time>
      </trkpt>
      <trkpt lat="42.23159" lon="22.49015">
        <ele>1052.00251</ele>
        <time>2022-04-09T10:14:42.179Z</time>
      </trkpt>
      <trkpt lat="42.23154" lon="22.49004">
        <ele>1052.399813</ele>
        <time>2022-04-09T10:14:46.203Z</time>
      </trkpt>
      <trkpt lat="42.23148" lon="22.48991">
        <ele>1052.868163</ele>
        <time>2022-04-09T10:14:51.178Z</time>
      </trkpt>
      <trkpt lat="42.23144" lon="22.48979">
        <ele>1053.267471</ele>
        <time>2022-04-09T10:14:55.194Z</time>
      </trkpt>
      <trkpt lat="42.2314" lon="22.48967">
        <ele>1053.684721</ele>
        <time>2022-04-09T10:14:59.185Z</time>
      </trkpt>
      <trkpt lat="42.23135" lon="22.48954">
        <ele>1054.142915</ele>
        <time>2022-04-09T10:15:04.192Z</time>
      </trkpt>
      <trkpt lat="42.23131" lon="22.48942">
        <ele>1054.552463</ele>
        <time>2022-04-09T10:15:08.186Z</time>
      </trkpt>
      <trkpt lat="42.23126" lon="22.48931">
        <ele>1054.949276</ele>
        <time>2022-04-09T10:15:12.185Z</time>
      </trkpt>
      <trkpt lat="42.23122" lon="22.4892">
        <ele>1055.337513</ele>
        <time>2022-04-09T10:15:16.208Z</time>
      </trkpt>
      <trkpt lat="42.23118" lon="22.48906">
        <ele>1055.812787</ele>
        <time>2022-04-09T10:15:21.182Z</time>
      </trkpt>
      <trkpt lat="42.23114" lon="22.48895">
        <ele>1056.200964</ele>
        <time>2022-04-09T10:15:25.190Z</time>
      </trkpt>
      <trkpt lat="42.23109" lon="22.48882">
        <ele>1056.63286</ele>
        <time>2022-04-09T10:15:29.218Z</time>
      </trkpt>
      <trkpt lat="42.23105" lon="22.48871">
        <ele>1057.02694</ele>
        <time>2022-04-09T10:15:33.193Z</time>
      </trkpt>
      <trkpt lat="42.231" lon="22.4886">
        <ele>1057.409583</ele>
        <time>2022-04-09T10:15:37.181Z</time>
      </trkpt>
      <trkpt lat="42.23096" lon="22.48849">
        <ele>1057.795001</ele>
        <time>2022-04-09T10:15:41.201Z</time>
      </trkpt>
      <trkpt lat="42.23092" lon="22.48838">
        <ele>1058.192581</ele>
        <time>2022-04-09T10:15:45.219Z</time>
      </trkpt>
      <trkpt lat="42.23087" lon="22.48824">
        <ele>1058.657077</ele>
        <time>2022-04-09T10:15:50.183Z</time>
      </trkpt>
      <trkpt lat="42.23082" lon="22.48811">
        <ele>1059.129056</ele>
        <time>2022-04-09T10:15:55.200Z</time>
      </trkpt>
      <trkpt lat="42.23077" lon="22.48799">
        <ele>1059.537443</ele>
        <time>2022-04-09T10:15:59.200Z</time>
      </trkpt>
      <trkpt lat="42.23073" lon="22.48787">
        <ele>1059.995332</ele>
        <time>2022-04-09T10:16:03.224Z</time>
      </trkpt>
      <trkpt lat="42.23068" lon="22.48774">
        <ele>1060.519554</ele>
        <time>2022-04-09T10:16:08.195Z</time>
      </trkpt>
      <trkpt lat="42.23064" lon="22.48762">
        <ele>1060.972851</ele>
        <time>2022-04-09T10:16:13.189Z</time>
      </trkpt>
      <trkpt lat="42.23059" lon="22.4875">
        <ele>1061.473771</ele>
        <time>2022-04-09T10:16:19.182Z</time>
      </trkpt>
      <trkpt lat="42.23053" lon="22.48738">
        <ele>1061.972174</ele>
        <time>2022-04-09T10:16:25.173Z</time>
      </trkpt>
      <trkpt lat="42.23048" lon="22.48726">
        <ele>1062.437965</ele>
        <time>2022-04-09T10:16:31.188Z</time>
      </trkpt>
      <trkpt lat="42.23043" lon="22.48715">
        <ele>1062.891782</ele>
        <time>2022-04-09T10:16:37.239Z</time>
      </trkpt>
      <trkpt lat="42.23038" lon="22.48704">
        <ele>1063.3612</ele>
        <time>2022-04-09T10:16:43.201Z</time>
      </trkpt>
      <trkpt lat="42.23033" lon="22.48693">
        <ele>1063.800191</ele>
        <time>2022-04-09T10:16:49.189Z</time>
      </trkpt>
      <trkpt lat="42.23027" lon="22.48681">
        <ele>1064.295233</ele>
        <time>2022-04-09T10:16:56.185Z</time>
      </trkpt>
      <trkpt lat="42.23024" lon="22.4867">
        <ele>1064.72277</ele>
        <time>2022-04-09T10:17:02.191Z</time>
      </trkpt>
      <trkpt lat="42.23019" lon="22.48659">
        <ele>1065.158819</ele>
        <time>2022-04-09T10:17:08.196Z</time>
      </trkpt>
      <trkpt lat="42.23012" lon="22.48649">
        <ele>1065.629337</ele>
        <time>2022-04-09T10:17:15.179Z</time>
      </trkpt>
      <trkpt lat="42.23006" lon="22.48639">
        <ele>1066.101006</ele>
        <time>2022-04-09T10:17:22.218Z</time>
      </trkpt>
      <trkpt lat="42.23" lon="22.48628">
        <ele>1066.567276</ele>
        <time>2022-04-09T10:17:28.199Z</time>
      </trkpt>
      <trkpt lat="42.22994" lon="22.48618">
        <ele>1067.016487</ele>
        <time>2022-04-09T10:17:34.191Z</time>
      </trkpt>
      <trkpt lat="42.22989" lon="22.48606">
        <ele>1067.497251</ele>
        <time>2022-04-09T10:17:41.172Z</time>
      </trkpt>
      <trkpt lat="42.22983" lon="22.48596">
        <ele>1067.954926</ele>
        <time>2022-04-09T10:17:47.169Z</time>
      </trkpt>
      <trkpt lat="42.22977" lon="22.48587">
        <ele>1068.411143</ele>
        <time>2022-04-09T10:17:53.196Z</time>
      </trkpt>
      <trkpt lat="42.2297" lon="22.48576">
        <ele>1068.937734</ele>
        <time>2022-04-09T10:17:59.181Z</time>
      </trkpt>
      <trkpt lat="42.22964" lon="22.48567">
        <ele>1069.43264</ele>
        <time>2022-04-09T10:18:05.181Z</time>
      </trkpt>
      <trkpt lat="42.22957" lon="22.48556">
        <ele>1069.95962</ele>
        <time>2022-04-09T10:18:12.192Z</time>
      </trkpt>
      <trkpt lat="42.22951" lon="22.48547">
        <ele>1070.430728</ele>
        <time>2022-04-09T10:18:18.185Z</time>
      </trkpt>
      <trkpt lat="42.22945" lon="22.48537">
        <ele>1070.943896</ele>
        <time>2022-04-09T10:18:25.191Z</time>
      </trkpt>
      <trkpt lat="42.22939" lon="22.48527">
        <ele>1071.414713</ele>
        <time>2022-04-09T10:18:31.212Z</time>
      </trkpt>
      <trkpt lat="42.22932" lon="22.48518">
        <ele>1071.890296</ele>
        <time>2022-04-09T10:18:37.195Z</time>
      </trkpt>
      <trkpt lat="42.22925" lon="22.48509">
        <ele>1072.403637</ele>
        <time>2022-04-09T10:18:43.194Z</time>
      </trkpt>
      <trkpt lat="42.22918" lon="22.48499">
        <ele>1072.941387</ele>
        <time>2022-04-09T10:18:49.199Z</time>
      </trkpt>
      <trkpt lat="42.22911" lon="22.4849">
        <ele>1073.46237</ele>
        <time>2022-04-09T10:18:55.193Z</time>
      </trkpt>
      <trkpt lat="42.22902" lon="22.48482">
        <ele>1073.989122</ele>
        <time>2022-04-09T10:19:02.181Z</time>
      </trkpt>
      <trkpt lat="42.22895" lon="22.48473">
        <ele>1074.503939</ele>
        <time>2022-04-09T10:19:09.201Z</time>
      </trkpt>
      <trkpt lat="42.22888" lon="22.48465">
        <ele>1074.976351</ele>
        <time>2022-04-09T10:19:15.183Z</time>
      </trkpt>
      <trkpt lat="42.22882" lon="22.48456">
        <ele>1075.444695</ele>
        <time>2022-04-09T10:19:21.229Z</time>
      </trkpt>
      <trkpt lat="42.22875" lon="22.48447">
        <ele>1075.911216</ele>
        <time>2022-04-09T10:19:27.194Z</time>
      </trkpt>
      <trkpt lat="42.22868" lon="22.48439">
        <ele>1076.404311</ele>
        <time>2022-04-09T10:19:34.186Z</time>
      </trkpt>
      <trkpt lat="42.2286" lon="22.48431">
        <ele>1076.912255</ele>
        <time>2022-04-09T10:19:41.192Z</time>
      </trkpt>
      <trkpt lat="42.22853" lon="22.48423">
        <ele>1077.401454</ele>
        <time>2022-04-09T10:19:47.207Z</time>
      </trkpt>
      <trkpt lat="42.22846" lon="22.48413">
        <ele>1077.912269</ele>
        <time>2022-04-09T10:19:54.189Z</time>
      </trkpt>
      <trkpt lat="42.22838" lon="22.48405">
        <ele>1078.457478</ele>
        <time>2022-04-09T10:20:01.220Z</time>
      </trkpt>
      <trkpt lat="42.22829" lon="22.48397">
        <ele>1079.007822</ele>
        <time>2022-04-09T10:20:08.195Z</time>
      </trkpt>
      <trkpt lat="42.22821" lon="22.48388">
        <ele>1079.564232</ele>
        <time>2022-04-09T10:20:14.181Z</time>
      </trkpt>
      <trkpt lat="42.22812" lon="22.48381">
        <ele>1080.081611</ele>
        <time>2022-04-09T10:20:20.178Z</time>
      </trkpt>
      <trkpt lat="42.22804" lon="22.48373">
        <ele>1080.616043</ele>
        <time>2022-04-09T10:20:27.192Z</time>
      </trkpt>
      <trkpt lat="42.22795" lon="22.48366">
        <ele>1081.161719</ele>
        <time>2022-04-09T10:20:34.192Z</time>
      </trkpt>
      <trkpt lat="42.22787" lon="22.48359">
        <ele>1081.642061</ele>
        <time>2022-04-09T10:20:39.231Z</time>
      </trkpt>
      <trkpt lat="42.2278" lon="22.48352">
        <ele>1082.116805</ele>
        <time>2022-04-09T10:20:45.194Z</time>
      </trkpt>
      <trkpt lat="42.22772" lon="22.48343">
        <ele>1082.662515</ele>
        <time>2022-04-09T10:20:52.188Z</time>
      </trkpt>
      <trkpt lat="42.22764" lon="22.48335">
        <ele>1083.145286</ele>
        <time>2022-04-09T10:20:58.187Z</time>
      </trkpt>
      <trkpt lat="42.22756" lon="22.48326">
        <ele>1083.695392</ele>
        <time>2022-04-09T10:21:05.190Z</time>
      </trkpt>
      <trkpt lat="42.22749" lon="22.48318">
        <ele>1084.184649</ele>
        <time>2022-04-09T10:21:11.177Z</time>
      </trkpt>
      <trkpt lat="42.22741" lon="22.48309">
        <ele>1084.720919</ele>
        <time>2022-04-09T10:21:18.185Z</time>
      </trkpt>
      <trkpt lat="42.22734" lon="22.48301">
        <ele>1085.231226</ele>
        <time>2022-04-09T10:21:25.179Z</time>
      </trkpt>
      <trkpt lat="42.22726" lon="22.48294">
        <ele>1085.705031</ele>
        <time>2022-04-09T10:21:31.179Z</time>
      </trkpt>
      <trkpt lat="42.22717" lon="22.48286">
        <ele>1086.26322</ele>
        <time>2022-04-09T10:21:37.190Z</time>
      </trkpt>
      <trkpt lat="42.22708" lon="22.48278">
        <ele>1086.791597</ele>
        <time>2022-04-09T10:21:43.185Z</time>
      </trkpt>
      <trkpt lat="42.22699" lon="22.48272">
        <ele>1086.891418</ele>
        <time>2022-04-09T10:21:50.186Z</time>
      </trkpt>
      <trkpt lat="42.22692" lon="22.48263">
        <ele>1086.986851</ele>
        <time>2022-04-09T10:21:55.188Z</time>
      </trkpt>
      <trkpt lat="42.22685" lon="22.48256">
        <ele>1087.077466</ele>
        <time>2022-04-09T10:22:00.193Z</time>
      </trkpt>
      <trkpt lat="42.22678" lon="22.48247">
        <ele>1087.166359</ele>
        <time>2022-04-09T10:22:06.183Z</time>
      </trkpt>
      <trkpt lat="42.22671" lon="22.48239">
        <ele>1087.259098</ele>
        <time>2022-04-09T10:22:12.196Z</time>
      </trkpt>
      <trkpt lat="42.22663" lon="22.48231">
        <ele>1087.353221</ele>
        <time>2022-04-09T10:22:18.191Z</time>
      </trkpt>
      <trkpt lat="42.22656" lon="22.48222">
        <ele>1087.442931</ele>
        <time>2022-04-09T10:22:24.191Z</time>
      </trkpt>
      <trkpt lat="42.22648" lon="22.48214">
        <ele>1087.542743</ele>
        <time>2022-04-09T10:22:31.186Z</time>
      </trkpt>
      <trkpt lat="42.2264" lon="22.48206">
        <ele>1087.640635</ele>
        <time>2022-04-09T10:22:37.228Z</time>
      </trkpt>
      <trkpt lat="42.22633" lon="22.48198">
        <ele>1087.732132</ele>
        <time>2022-04-09T10:22:42.183Z</time>
      </trkpt>
      <trkpt lat="42.22624" lon="22.48191">
        <ele>1087.836042</ele>
        <time>2022-04-09T10:22:48.183Z</time>
      </trkpt>
      <trkpt lat="42.22615" lon="22.48182">
        <ele>1087.939222</ele>
        <time>2022-04-09T10:22:54.181Z</time>
      </trkpt>
      <trkpt lat="42.22607" lon="22.48174">
        <ele>1088.034608</ele>
        <time>2022-04-09T10:22:59.209Z</time>
      </trkpt>
      <trkpt lat="42.22599" lon="22.48166">
        <ele>1088.135582</ele>
        <time>2022-04-09T10:23:04.191Z</time>
      </trkpt>
      <trkpt lat="42.22591" lon="22.48158">
        <ele>1088.237363</ele>
        <time>2022-04-09T10:23:10.183Z</time>
      </trkpt>
      <trkpt lat="42.22583" lon="22.4815">
        <ele>1088.327112</ele>
        <time>2022-04-09T10:23:15.254Z</time>
      </trkpt>
      <trkpt lat="42.22575" lon="22.48143">
        <ele>1088.417214</ele>
        <time>2022-04-09T10:23:20.213Z</time>
      </trkpt>
      <trkpt lat="42.22568" lon="22.48135">
        <ele>1088.509606</ele>
        <time>2022-04-09T10:23:25.183Z</time>
      </trkpt>
      <trkpt lat="42.2256" lon="22.48128">
        <ele>1088.779886</ele>
        <time>2022-04-09T10:23:30.182Z</time>
      </trkpt>
      <trkpt lat="42.22553" lon="22.48119">
        <ele>1089.160956</ele>
        <time>2022-04-09T10:23:35.193Z</time>
      </trkpt>
      <trkpt lat="42.22545" lon="22.48111">
        <ele>1089.546669</ele>
        <time>2022-04-09T10:23:40.177Z</time>
      </trkpt>
      <trkpt lat="42.22536" lon="22.48104">
        <ele>1089.940878</ele>
        <time>2022-04-09T10:23:45.211Z</time>
      </trkpt>
      <trkpt lat="42.22528" lon="22.48095">
        <ele>1090.346069</ele>
        <time>2022-04-09T10:23:50.190Z</time>
      </trkpt>
      <trkpt lat="42.2252" lon="22.48087">
        <ele>1090.722214</ele>
        <time>2022-04-09T10:23:55.227Z</time>
      </trkpt>
      <trkpt lat="42.22512" lon="22.4808">
        <ele>1091.095273</ele>
        <time>2022-04-09T10:24:00.185Z</time>
      </trkpt>
      <trkpt lat="42.22504" lon="22.4807">
        <ele>1091.523127</ele>
        <time>2022-04-09T10:24:06.195Z</time>
      </trkpt>
      <trkpt lat="42.22496" lon="22.48061">
        <ele>1091.921131</ele>
        <time>2022-04-09T10:24:11.193Z</time>
      </trkpt>
      <trkpt lat="42.22487" lon="22.48053">
        <ele>1092.326182</ele>
        <time>2022-04-09T10:24:16.201Z</time>
      </trkpt>
      <trkpt lat="42.22479" lon="22.48045">
        <ele>1092.71414</ele>
        <time>2022-04-09T10:24:21.184Z</time>
      </trkpt>
      <trkpt lat="42.22471" lon="22.48036">
        <ele>1093.10258</ele>
        <time>2022-04-09T10:24:26.214Z</time>
      </trkpt>
      <trkpt lat="42.22462" lon="22.48028">
        <ele>1093.50582</ele>
        <time>2022-04-09T10:24:31.218Z</time>
      </trkpt>
      <trkpt lat="42.22453" lon="22.48021">
        <ele>1093.929</ele>
        <time>2022-04-09T10:24:36.198Z</time>
      </trkpt>
      <trkpt lat="42.22445" lon="22.48013">
        <ele>1094.303516</ele>
        <time>2022-04-09T10:24:41.177Z</time>
      </trkpt>
      <trkpt lat="42.22437" lon="22.48004">
        <ele>1094.688401</ele>
        <time>2022-04-09T10:24:46.195Z</time>
      </trkpt>
      <trkpt lat="42.22428" lon="22.47997">
        <ele>1095.09361</ele>
        <time>2022-04-09T10:24:51.191Z</time>
      </trkpt>
      <trkpt lat="42.2242" lon="22.47988">
        <ele>1095.611029</ele>
        <time>2022-04-09T10:24:56.229Z</time>
      </trkpt>
      <trkpt lat="42.22413" lon="22.4798">
        <ele>1096.695323</ele>
        <time>2022-04-09T10:25:01.189Z</time>
      </trkpt>
      <trkpt lat="42.22405" lon="22.4797">
        <ele>1097.97794</ele>
        <time>2022-04-09T10:25:07.182Z</time>
      </trkpt>
      <trkpt lat="42.22397" lon="22.47962">
        <ele>1099.067624</ele>
        <time>2022-04-09T10:25:12.191Z</time>
      </trkpt>
      <trkpt lat="42.22391" lon="22.47953">
        <ele>1100.144973</ele>
        <time>2022-04-09T10:25:17.173Z</time>
      </trkpt>
      <trkpt lat="42.22384" lon="22.47941">
        <ele>1101.400906</ele>
        <time>2022-04-09T10:25:23.171Z</time>
      </trkpt>
      <trkpt lat="42.22377" lon="22.47929">
        <ele>1102.761863</ele>
        <time>2022-04-09T10:25:28.175Z</time>
      </trkpt>
      <trkpt lat="42.22371" lon="22.47919">
        <ele>1103.858657</ele>
        <time>2022-04-09T10:25:32.216Z</time>
      </trkpt>
      <trkpt lat="42.22366" lon="22.47907">
        <ele>1105.08011</ele>
        <time>2022-04-09T10:25:37.183Z</time>
      </trkpt>
      <trkpt lat="42.2236" lon="22.47894">
        <ele>1106.365896</ele>
        <time>2022-04-09T10:25:42.185Z</time>
      </trkpt>
      <trkpt lat="42.22354" lon="22.47882">
        <ele>1107.588678</ele>
        <time>2022-04-09T10:25:47.168Z</time>
      </trkpt>
      <trkpt lat="42.22349" lon="22.47871">
        <ele>1108.6769</ele>
        <time>2022-04-09T10:25:51.197Z</time>
      </trkpt>
      <trkpt lat="42.22345" lon="22.4786">
        <ele>1109.743345</ele>
        <time>2022-04-09T10:25:55.197Z</time>
      </trkpt>
      <trkpt lat="42.22339" lon="22.47849">
        <ele>1110.905965</ele>
        <time>2022-04-09T10:26:00.182Z</time>
      </trkpt>
      <trkpt lat="42.22336" lon="22.47837">
        <ele>1111.985521</ele>
        <time>2022-04-09T10:26:04.216Z</time>
      </trkpt>
      <trkpt lat="42.22333" lon="22.47825">
        <ele>1113.079964</ele>
        <time>2022-04-09T10:26:08.182Z</time>
      </trkpt>
      <trkpt lat="42.22331" lon="22.4781">
        <ele>1114.366184</ele>
        <time>2022-04-09T10:26:13.192Z</time>
      </trkpt>
      <trkpt lat="42.22329" lon="22.47796">
        <ele>1115.641478</ele>
        <time>2022-04-09T10:26:18.190Z</time>
      </trkpt>
      <trkpt lat="42.22328" lon="22.47783">
        <ele>1116.291986</ele>
        <time>2022-04-09T10:26:22.206Z</time>
      </trkpt>
      <trkpt lat="42.22327" lon="22.47769">
        <ele>1116.252839</ele>
        <time>2022-04-09T10:26:27.181Z</time>
      </trkpt>
      <trkpt lat="42.22327" lon="22.47756">
        <ele>1116.217398</ele>
        <time>2022-04-09T10:26:31.192Z</time>
      </trkpt>
      <trkpt lat="42.22327" lon="22.47742">
        <ele>1116.176717</ele>
        <time>2022-04-09T10:26:35.169Z</time>
      </trkpt>
      <trkpt lat="42.22328" lon="22.47728">
        <ele>1116.139238</ele>
        <time>2022-04-09T10:26:39.189Z</time>
      </trkpt>
      <trkpt lat="42.22329" lon="22.47715">
        <ele>1116.101727</ele>
        <time>2022-04-09T10:26:44.173Z</time>
      </trkpt>
      <trkpt lat="42.2233" lon="22.47701">
        <ele>1116.063675</ele>
        <time>2022-04-09T10:26:50.169Z</time>
      </trkpt>
      <trkpt lat="42.22331" lon="22.47687">
        <ele>1116.025948</ele>
        <time>2022-04-09T10:26:56.177Z</time>
      </trkpt>
      <trkpt lat="42.22333" lon="22.47673">
        <ele>1115.986014</ele>
        <time>2022-04-09T10:27:01.203Z</time>
      </trkpt>
      <trkpt lat="42.22334" lon="22.47661">
        <ele>1115.951576</ele>
        <time>2022-04-09T10:27:05.182Z</time>
      </trkpt>
      <trkpt lat="42.22335" lon="22.47648">
        <ele>1115.91458</ele>
        <time>2022-04-09T10:27:10.195Z</time>
      </trkpt>
      <trkpt lat="42.22336" lon="22.47634">
        <ele>1115.875578</ele>
        <time>2022-04-09T10:27:15.172Z</time>
      </trkpt>
      <trkpt lat="42.22337" lon="22.47621">
        <ele>1115.840029</ele>
        <time>2022-04-09T10:27:20.183Z</time>
      </trkpt>
      <trkpt lat="42.22338" lon="22.47608">
        <ele>1115.803682</ele>
        <time>2022-04-09T10:27:26.196Z</time>
      </trkpt>
      <trkpt lat="42.22338" lon="22.47595">
        <ele>1115.769081</ele>
        <time>2022-04-09T10:27:32.164Z</time>
      </trkpt>
      <trkpt lat="42.22337" lon="22.47583">
        <ele>1115.735218</ele>
        <time>2022-04-09T10:27:38.181Z</time>
      </trkpt>
      <trkpt lat="42.22338" lon="22.47569">
        <ele>1115.696429</ele>
        <time>2022-04-09T10:27:44.174Z</time>
      </trkpt>
      <trkpt lat="42.22337" lon="22.47557">
        <ele>1115.662259</ele>
        <time>2022-04-09T10:27:50.233Z</time>
      </trkpt>
      <trkpt lat="42.22335" lon="22.47543">
        <ele>1115.660383</ele>
        <time>2022-04-09T10:27:57.200Z</time>
      </trkpt>
      <trkpt lat="42.22333" lon="22.47531">
        <ele>1115.779427</ele>
        <time>2022-04-09T10:28:03.175Z</time>
      </trkpt>
      <trkpt lat="42.22328" lon="22.47518">
        <ele>1115.908551</ele>
        <time>2022-04-09T10:28:10.184Z</time>
      </trkpt>
      <trkpt lat="42.22324" lon="22.47507">
        <ele>1116.02075</ele>
        <time>2022-04-09T10:28:16.202Z</time>
      </trkpt>
      <trkpt lat="42.2232" lon="22.47495">
        <ele>1116.142454</ele>
        <time>2022-04-09T10:28:23.198Z</time>
      </trkpt>
      <trkpt lat="42.22313" lon="22.47485">
        <ele>1116.268382</ele>
        <time>2022-04-09T10:28:30.184Z</time>
      </trkpt>
      <trkpt lat="42.22306" lon="22.47474">
        <ele>1116.395469</ele>
        <time>2022-04-09T10:28:37.194Z</time>
      </trkpt>
      <trkpt lat="42.22299" lon="22.47466">
        <ele>1116.512441</ele>
        <time>2022-04-09T10:28:43.188Z</time>
      </trkpt>
      <trkpt lat="42.22291" lon="22.4746">
        <ele>1116.62409</ele>
        <time>2022-04-09T10:28:49.193Z</time>
      </trkpt>
      <trkpt lat="42.22284" lon="22.47453">
        <ele>1116.735711</ele>
        <time>2022-04-09T10:28:55.193Z</time>
      </trkpt>
      <trkpt lat="42.22276" lon="22.47447">
        <ele>1116.850089</ele>
        <time>2022-04-09T10:29:00.192Z</time>
      </trkpt>
      <trkpt lat="42.22268" lon="22.4744">
        <ele>1116.962292</ele>
        <time>2022-04-09T10:29:05.194Z</time>
      </trkpt>
      <trkpt lat="42.22259" lon="22.47434">
        <ele>1117.0908</ele>
        <time>2022-04-09T10:29:11.182Z</time>
      </trkpt>
      <trkpt lat="42.2225" lon="22.47426">
        <ele>1117.218336</ele>
        <time>2022-04-09T10:29:18.189Z</time>
      </trkpt>
      <trkpt lat="42.22243" lon="22.47419">
        <ele>1117.333048</ele>
        <time>2022-04-09T10:29:25.205Z</time>
      </trkpt>
      <trkpt lat="42.22225" lon="22.47415">
        <ele>1117.548399</ele>
        <time>2022-04-09T10:35:01.197Z</time>
      </trkpt>
      <trkpt lat="42.22217" lon="22.4741">
        <ele>1117.667458</ele>
        <time>2022-04-09T10:35:07.191Z</time>
      </trkpt>
      <trkpt lat="42.22207" lon="22.47405">
        <ele>1117.789324</ele>
        <time>2022-04-09T10:35:13.185Z</time>
      </trkpt>
      <trkpt lat="42.22198" lon="22.47401">
        <ele>1118.133261</ele>
        <time>2022-04-09T10:35:19.191Z</time>
      </trkpt>
      <trkpt lat="42.22189" lon="22.47396">
        <ele>1118.766325</ele>
        <time>2022-04-09T10:35:26.194Z</time>
      </trkpt>
      <trkpt lat="42.2218" lon="22.47392">
        <ele>1119.36258</ele>
        <time>2022-04-09T10:35:32.188Z</time>
      </trkpt>
      <trkpt lat="42.22171" lon="22.47387">
        <ele>1119.989629</ele>
        <time>2022-04-09T10:35:40.184Z</time>
      </trkpt>
      <trkpt lat="42.22162" lon="22.47382">
        <ele>1120.669056</ele>
        <time>2022-04-09T10:35:48.179Z</time>
      </trkpt>
      <trkpt lat="42.22152" lon="22.47377">
        <ele>1121.33224</ele>
        <time>2022-04-09T10:35:54.173Z</time>
      </trkpt>
      <trkpt lat="42.22144" lon="22.47371">
        <ele>1121.924377</ele>
        <time>2022-04-09T10:36:01.197Z</time>
      </trkpt>
      <trkpt lat="42.22135" lon="22.47365">
        <ele>1122.576136</ele>
        <time>2022-04-09T10:36:08.177Z</time>
      </trkpt>
      <trkpt lat="42.22127" lon="22.47359">
        <ele>1123.153902</ele>
        <time>2022-04-09T10:36:14.173Z</time>
      </trkpt>
      <trkpt lat="42.22118" lon="22.47355">
        <ele>1123.78656</ele>
        <time>2022-04-09T10:36:22.180Z</time>
      </trkpt>
      <trkpt lat="42.22109" lon="22.4735">
        <ele>1124.367672</ele>
        <time>2022-04-09T10:36:28.181Z</time>
      </trkpt>
      <trkpt lat="42.221" lon="22.47345">
        <ele>1125.014462</ele>
        <time>2022-04-09T10:36:36.193Z</time>
      </trkpt>
      <trkpt lat="42.22091" lon="22.4734">
        <ele>1125.652288</ele>
        <time>2022-04-09T10:36:43.183Z</time>
      </trkpt>
      <trkpt lat="42.22081" lon="22.47335">
        <ele>1126.343681</ele>
        <time>2022-04-09T10:36:49.181Z</time>
      </trkpt>
      <trkpt lat="42.22072" lon="22.47331">
        <ele>1126.939768</ele>
        <time>2022-04-09T10:36:54.242Z</time>
      </trkpt>
      <trkpt lat="42.22064" lon="22.47326">
        <ele>1127.529122</ele>
        <time>2022-04-09T10:37:00.185Z</time>
      </trkpt>
      <trkpt lat="42.22054" lon="22.47321">
        <ele>1128.198436</ele>
        <time>2022-04-09T10:37:07.196Z</time>
      </trkpt>
      <trkpt lat="42.22045" lon="22.47316">
        <ele>1128.8238</ele>
        <time>2022-04-09T10:37:14.181Z</time>
      </trkpt>
      <trkpt lat="42.22036" lon="22.47311">
        <ele>1129.470157</ele>
        <time>2022-04-09T10:37:22.192Z</time>
      </trkpt>
      <trkpt lat="42.22026" lon="22.47306">
        <ele>1130.502651</ele>
        <time>2022-04-09T10:37:29.182Z</time>
      </trkpt>
      <trkpt lat="42.22016" lon="22.47301">
        <ele>1131.488308</ele>
        <time>2022-04-09T10:37:36.215Z</time>
      </trkpt>
      <trkpt lat="42.22008" lon="22.47298">
        <ele>1132.392069</ele>
        <time>2022-04-09T10:37:43.187Z</time>
      </trkpt>
      <trkpt lat="42.21998" lon="22.47293">
        <ele>1133.354101</ele>
        <time>2022-04-09T10:37:51.191Z</time>
      </trkpt>
      <trkpt lat="42.21989" lon="22.47288">
        <ele>1134.327941</ele>
        <time>2022-04-09T10:37:59.187Z</time>
      </trkpt>
      <trkpt lat="42.2198" lon="22.47284">
        <ele>1135.288195</ele>
        <time>2022-04-09T10:38:06.206Z</time>
      </trkpt>
      <trkpt lat="42.21971" lon="22.47278">
        <ele>1136.249653</ele>
        <time>2022-04-09T10:38:14.188Z</time>
      </trkpt>
      <trkpt lat="42.21962" lon="22.47275">
        <ele>1137.142826</ele>
        <time>2022-04-09T10:38:21.181Z</time>
      </trkpt>
      <trkpt lat="42.21953" lon="22.4727">
        <ele>1138.126908</ele>
        <time>2022-04-09T10:38:30.190Z</time>
      </trkpt>
      <trkpt lat="42.21944" lon="22.47265">
        <ele>1139.086231</ele>
        <time>2022-04-09T10:38:38.189Z</time>
      </trkpt>
      <trkpt lat="42.21935" lon="22.4726">
        <ele>1140.011919</ele>
        <time>2022-04-09T10:38:45.195Z</time>
      </trkpt>
      <trkpt lat="42.21927" lon="22.47254">
        <ele>1140.890985</ele>
        <time>2022-04-09T10:38:52.202Z</time>
      </trkpt>
      <trkpt lat="42.21918" lon="22.47251">
        <ele>1141.832574</ele>
        <time>2022-04-09T10:39:00.181Z</time>
      </trkpt>
      <trkpt lat="42.21908" lon="22.47246">
        <ele>1142.854532</ele>
        <time>2022-04-09T10:39:09.184Z</time>
      </trkpt>
      <trkpt lat="42.21899" lon="22.47241">
        <ele>1143.813856</ele>
        <time>2022-04-09T10:39:17.179Z</time>
      </trkpt>
      <trkpt lat="42.2189" lon="22.47236">
        <ele>1144.787699</ele>
        <time>2022-04-09T10:39:25.173Z</time>
      </trkpt>
      <trkpt lat="42.2188" lon="22.47232">
        <ele>1145.780845</ele>
        <time>2022-04-09T10:39:32.213Z</time>
      </trkpt>
      <trkpt lat="42.21872" lon="22.47227">
        <ele>1146.68399</ele>
        <time>2022-04-09T10:39:39.185Z</time>
      </trkpt>
      <trkpt lat="42.21863" lon="22.47222">
        <ele>1147.10516</ele>
        <time>2022-04-09T10:39:46.185Z</time>
      </trkpt>
      <trkpt lat="42.21856" lon="22.47215">
        <ele>1147.203014</ele>
        <time>2022-04-09T10:39:52.184Z</time>
      </trkpt>
      <trkpt lat="42.21847" lon="22.47208">
        <ele>1147.312497</ele>
        <time>2022-04-09T10:39:59.188Z</time>
      </trkpt>
      <trkpt lat="42.21838" lon="22.47203">
        <ele>1147.416253</ele>
        <time>2022-04-09T10:40:07.237Z</time>
      </trkpt>
      <trkpt lat="42.21829" lon="22.47199">
        <ele>1147.51824</ele>
        <time>2022-04-09T10:40:14.194Z</time>
      </trkpt>
      <trkpt lat="42.21821" lon="22.47194">
        <ele>1147.620679</ele>
        <time>2022-04-09T10:40:21.205Z</time>
      </trkpt>
      <trkpt lat="42.21812" lon="22.47189">
        <ele>1147.723965</ele>
        <time>2022-04-09T10:40:28.179Z</time>
      </trkpt>
      <trkpt lat="42.21802" lon="22.47186">
        <ele>1147.831768</ele>
        <time>2022-04-09T10:40:35.175Z</time>
      </trkpt>
      <trkpt lat="42.21793" lon="22.47182">
        <ele>1147.941729</ele>
        <time>2022-04-09T10:40:44.194Z</time>
      </trkpt>
      <trkpt lat="42.21784" lon="22.47176">
        <ele>1148.05242</ele>
        <time>2022-04-09T10:40:52.189Z</time>
      </trkpt>
      <trkpt lat="42.21774" lon="22.47169">
        <ele>1148.164531</ele>
        <time>2022-04-09T10:41:01.205Z</time>
      </trkpt>
      <trkpt lat="42.21766" lon="22.47166">
        <ele>1148.262628</ele>
        <time>2022-04-09T10:41:06.191Z</time>
      </trkpt>
      <trkpt lat="42.21757" lon="22.47161">
        <ele>1148.363074</ele>
        <time>2022-04-09T10:41:13.218Z</time>
      </trkpt>
      <trkpt lat="42.21749" lon="22.47156">
        <ele>1148.463313</ele>
        <time>2022-04-09T10:41:20.195Z</time>
      </trkpt>
      <trkpt lat="42.2174" lon="22.47149">
        <ele>1148.572035</ele>
        <time>2022-04-09T10:41:28.191Z</time>
      </trkpt>
      <trkpt lat="42.21732" lon="22.47141">
        <ele>1148.680639</ele>
        <time>2022-04-09T10:41:36.181Z</time>
      </trkpt>
      <trkpt lat="42.21725" lon="22.47133">
        <ele>1148.780831</ele>
        <time>2022-04-09T10:41:43.180Z</time>
      </trkpt>
      <trkpt lat="42.21718" lon="22.47125">
        <ele>1148.880845</ele>
        <time>2022-04-09T10:41:49.193Z</time>
      </trkpt>
      <trkpt lat="42.21711" lon="22.47116">
        <ele>1148.983941</ele>
        <time>2022-04-09T10:41:56.204Z</time>
      </trkpt>
      <trkpt lat="42.21707" lon="22.47105">
        <ele>1149.963104</ele>
        <time>2022-04-09T10:42:03.193Z</time>
      </trkpt>
      <trkpt lat="42.21703" lon="22.47094">
        <ele>1151.083906</ele>
        <time>2022-04-09T10:42:10.203Z</time>
      </trkpt>
      <trkpt lat="42.21699" lon="22.47082">
        <ele>1152.188476</ele>
        <time>2022-04-09T10:42:17.181Z</time>
      </trkpt>
      <trkpt lat="42.21697" lon="22.4707">
        <ele>1153.359323</ele>
        <time>2022-04-09T10:42:25.185Z</time>
      </trkpt>
      <trkpt lat="42.21695" lon="22.47057">
        <ele>1154.532746</ele>
        <time>2022-04-09T10:42:33.175Z</time>
      </trkpt>
      <trkpt lat="42.21696" lon="22.47043">
        <ele>1155.779036</ele>
        <time>2022-04-09T10:42:41.189Z</time>
      </trkpt>
      <trkpt lat="42.21696" lon="22.4703">
        <ele>1156.865151</ele>
        <time>2022-04-09T10:42:48.229Z</time>
      </trkpt>
      <trkpt lat="42.21697" lon="22.47018">
        <ele>1157.969359</ele>
        <time>2022-04-09T10:42:55.175Z</time>
      </trkpt>
      <trkpt lat="42.21697" lon="22.47005">
        <ele>1159.127411</ele>
        <time>2022-04-09T10:43:02.200Z</time>
      </trkpt>
      <trkpt lat="42.21698" lon="22.46991">
        <ele>1160.395249</ele>
        <time>2022-04-09T10:43:10.260Z</time>
      </trkpt>
      <trkpt lat="42.217" lon="22.46978">
        <ele>1161.531096</ele>
        <time>2022-04-09T10:43:17.187Z</time>
      </trkpt>
      <trkpt lat="42.21703" lon="22.46966">
        <ele>1162.69268</ele>
        <time>2022-04-09T10:43:24.200Z</time>
      </trkpt>
      <trkpt lat="42.21708" lon="22.46955">
        <ele>1163.791871</ele>
        <time>2022-04-09T10:43:31.183Z</time>
      </trkpt>
      <trkpt lat="42.21711" lon="22.46943">
        <ele>1164.93541</ele>
        <time>2022-04-09T10:43:39.185Z</time>
      </trkpt>
      <trkpt lat="42.21716" lon="22.46932">
        <ele>1166.079433</ele>
        <time>2022-04-09T10:43:47.180Z</time>
      </trkpt>
      <trkpt lat="42.21722" lon="22.46922">
        <ele>1167.20238</ele>
        <time>2022-04-09T10:43:55.191Z</time>
      </trkpt>
      <trkpt lat="42.21726" lon="22.46911">
        <ele>1168.305306</ele>
        <time>2022-04-09T10:44:02.185Z</time>
      </trkpt>
      <trkpt lat="42.21731" lon="22.46901">
        <ele>1169.435771</ele>
        <time>2022-04-09T10:44:12.227Z</time>
      </trkpt>
      <trkpt lat="42.21737" lon="22.46891">
        <ele>1170.551707</ele>
        <time>2022-04-09T10:44:19.205Z</time>
      </trkpt>
      <trkpt lat="42.21743" lon="22.4688">
        <ele>1170.901136</ele>
        <time>2022-04-09T10:44:27.178Z</time>
      </trkpt>
      <trkpt lat="42.21748" lon="22.46869">
        <ele>1171.215781</ele>
        <time>2022-04-09T10:44:35.186Z</time>
      </trkpt>
      <trkpt lat="42.21753" lon="22.46858">
        <ele>1171.512464</ele>
        <time>2022-04-09T10:44:43.210Z</time>
      </trkpt>
      <trkpt lat="42.21758" lon="22.46848">
        <ele>1171.802581</ele>
        <time>2022-04-09T10:44:51.196Z</time>
      </trkpt>
      <trkpt lat="42.21763" lon="22.46838">
        <ele>1172.089133</ele>
        <time>2022-04-09T10:44:58.229Z</time>
      </trkpt>
      <trkpt lat="42.2177" lon="22.46827">
        <ele>1172.407565</ele>
        <time>2022-04-09T10:45:06.228Z</time>
      </trkpt>
      <trkpt lat="42.21775" lon="22.46816">
        <ele>1172.714426</ele>
        <time>2022-04-09T10:45:13.195Z</time>
      </trkpt>
      <trkpt lat="42.21782" lon="22.46806">
        <ele>1173.029068</ele>
        <time>2022-04-09T10:45:21.195Z</time>
      </trkpt>
      <trkpt lat="42.21788" lon="22.46796">
        <ele>1173.334056</ele>
        <time>2022-04-09T10:45:28.172Z</time>
      </trkpt>
      <trkpt lat="42.21794" lon="22.46787">
        <ele>1173.622732</ele>
        <time>2022-04-09T10:45:35.188Z</time>
      </trkpt>
      <trkpt lat="42.21802" lon="22.46777">
        <ele>1173.944446</ele>
        <time>2022-04-09T10:45:42.213Z</time>
      </trkpt>
      <trkpt lat="42.21808" lon="22.46768">
        <ele>1174.238335</ele>
        <time>2022-04-09T10:45:49.189Z</time>
      </trkpt>
      <trkpt lat="42.21814" lon="22.46759">
        <ele>1174.53491</ele>
        <time>2022-04-09T10:45:56.207Z</time>
      </trkpt>
      <trkpt lat="42.21819" lon="22.46748">
        <ele>1174.838758</ele>
        <time>2022-04-09T10:46:04.181Z</time>
      </trkpt>
      <trkpt lat="42.21826" lon="22.46738">
        <ele>1175.138857</ele>
        <time>2022-04-09T10:46:12.195Z</time>
      </trkpt>
      <trkpt lat="42.21831" lon="22.46726">
        <ele>1175.455877</ele>
        <time>2022-04-09T10:46:21.218Z</time>
      </trkpt>
      <trkpt lat="42.21836" lon="22.46715">
        <ele>1175.754405</ele>
        <time>2022-04-09T10:46:28.181Z</time>
      </trkpt>
      <trkpt lat="42.21841" lon="22.46705">
        <ele>1176.042726</ele>
        <time>2022-04-09T10:46:36.194Z</time>
      </trkpt>
      <trkpt lat="42.21845" lon="22.46694">
        <ele>1176.453252</ele>
        <time>2022-04-09T10:46:44.183Z</time>
      </trkpt>
      <trkpt lat="42.2185" lon="22.46683">
        <ele>1177.471108</ele>
        <time>2022-04-09T10:46:52.184Z</time>
      </trkpt>
      <trkpt lat="42.21854" lon="22.46672">
        <ele>1178.439028</ele>
        <time>2022-04-09T10:46:59.196Z</time>
      </trkpt>
      <trkpt lat="42.2186" lon="22.46662">
        <ele>1179.429349</ele>
        <time>2022-04-09T10:47:07.204Z</time>
      </trkpt>
      <trkpt lat="42.21866" lon="22.46653">
        <ele>1180.38976</ele>
        <time>2022-04-09T10:47:15.194Z</time>
      </trkpt>
      <trkpt lat="42.2187" lon="22.46642">
        <ele>1181.362335</ele>
        <time>2022-04-09T10:47:23.175Z</time>
      </trkpt>
      <trkpt lat="42.21874" lon="22.46631">
        <ele>1182.340017</ele>
        <time>2022-04-09T10:47:31.175Z</time>
      </trkpt>
      <trkpt lat="42.21881" lon="22.46621">
        <ele>1183.35908</ele>
        <time>2022-04-09T10:47:38.203Z</time>
      </trkpt>
      <trkpt lat="42.21887" lon="22.46611">
        <ele>1184.411165</ele>
        <time>2022-04-09T10:47:46.190Z</time>
      </trkpt>
      <trkpt lat="42.21892" lon="22.46599">
        <ele>1185.446199</ele>
        <time>2022-04-09T10:47:55.237Z</time>
      </trkpt>
      <trkpt lat="42.21894" lon="22.46586">
        <ele>1186.468153</ele>
        <time>2022-04-09T10:48:03.204Z</time>
      </trkpt>
      <trkpt lat="42.21896" lon="22.46572">
        <ele>1187.565947</ele>
        <time>2022-04-09T10:48:11.226Z</time>
      </trkpt>
      <trkpt lat="42.21899" lon="22.4656">
        <ele>1188.638685</ele>
        <time>2022-04-09T10:48:18.249Z</time>
      </trkpt>
      <trkpt lat="42.21901" lon="22.46548">
        <ele>1189.607196</ele>
        <time>2022-04-09T10:48:25.188Z</time>
      </trkpt>
      <trkpt lat="42.21904" lon="22.46534">
        <ele>1190.659564</ele>
        <time>2022-04-09T10:48:33.187Z</time>
      </trkpt>
      <trkpt lat="42.21906" lon="22.46522">
        <ele>1191.69</ele>
        <time>2022-04-09T10:48:41.195Z</time>
      </trkpt>
      <trkpt lat="42.21905" lon="22.46508">
        <ele>1192.72501</ele>
        <time>2022-04-09T10:48:50.182Z</time>
      </trkpt>
      <trkpt lat="42.21906" lon="22.46495">
        <ele>1193.790249</ele>
        <time>2022-04-09T10:48:58.177Z</time>
      </trkpt>
      <trkpt lat="42.21907" lon="22.46482">
        <ele>1194.833088</ele>
        <time>2022-04-09T10:49:06.192Z</time>
      </trkpt>
      <trkpt lat="42.21906" lon="22.46469">
        <ele>1195.5245</ele>
        <time>2022-04-09T10:49:14.194Z</time>
      </trkpt>
      <trkpt lat="42.21908" lon="22.46457">
        <ele>1195.944383</ele>
        <time>2022-04-09T10:49:21.205Z</time>
      </trkpt>
      <trkpt lat="42.21909" lon="22.46444">
        <ele>1196.375186</ele>
        <time>2022-04-09T10:49:28.184Z</time>
      </trkpt>
      <trkpt lat="42.21909" lon="22.46431">
        <ele>1196.82166</ele>
        <time>2022-04-09T10:49:35.191Z</time>
      </trkpt>
      <trkpt lat="42.21908" lon="22.46419">
        <ele>1197.245301</ele>
        <time>2022-04-09T10:49:42.166Z</time>
      </trkpt>
      <trkpt lat="42.21908" lon="22.46406">
        <ele>1197.667741</ele>
        <time>2022-04-09T10:49:50.194Z</time>
      </trkpt>
      <trkpt lat="42.21906" lon="22.46394">
        <ele>1198.084473</ele>
        <time>2022-04-09T10:49:56.212Z</time>
      </trkpt>
      <trkpt lat="42.21901" lon="22.46384">
        <ele>1198.522754</ele>
        <time>2022-04-09T10:50:03.199Z</time>
      </trkpt>
      <trkpt lat="42.21898" lon="22.4637">
        <ele>1198.989085</ele>
        <time>2022-04-09T10:50:10.185Z</time>
      </trkpt>
      <trkpt lat="42.21896" lon="22.46357">
        <ele>1199.446677</ele>
        <time>2022-04-09T10:50:16.209Z</time>
      </trkpt>
      <trkpt lat="42.21894" lon="22.46345">
        <ele>1199.879621</ele>
        <time>2022-04-09T10:50:23.188Z</time>
      </trkpt>
      <trkpt lat="42.21897" lon="22.46333">
        <ele>1200.30075</ele>
        <time>2022-04-09T10:50:32.223Z</time>
      </trkpt>
      <trkpt lat="42.21902" lon="22.46321">
        <ele>1200.770878</ele>
        <time>2022-04-09T10:50:40.179Z</time>
      </trkpt>
      <trkpt lat="42.21904" lon="22.46308">
        <ele>1201.226195</ele>
        <time>2022-04-09T10:50:49.170Z</time>
      </trkpt>
      <trkpt lat="42.21912" lon="22.46294">
        <ele>1201.828581</ele>
        <time>2022-04-09T10:51:22.208Z</time>
      </trkpt>
      <trkpt lat="42.21913" lon="22.4628">
        <ele>1202.309458</ele>
        <time>2022-04-09T10:51:29.183Z</time>
      </trkpt>
      <trkpt lat="42.21912" lon="22.46267">
        <ele>1202.753172</ele>
        <time>2022-04-09T10:51:35.183Z</time>
      </trkpt>
      <trkpt lat="42.2191" lon="22.46255">
        <ele>1203.180917</ele>
        <time>2022-04-09T10:51:41.190Z</time>
      </trkpt>
      <trkpt lat="42.2191" lon="22.46241">
        <ele>1203.586146</ele>
        <time>2022-04-09T10:51:49.189Z</time>
      </trkpt>
      <trkpt lat="42.2191" lon="22.46228">
        <ele>1203.697031</ele>
        <time>2022-04-09T10:51:56.192Z</time>
      </trkpt>
      <trkpt lat="42.21911" lon="22.46216">
        <ele>1203.801719</ele>
        <time>2022-04-09T10:52:02.239Z</time>
      </trkpt>
      <trkpt lat="42.2191" lon="22.46204">
        <ele>1203.90837</ele>
        <time>2022-04-09T10:52:10.189Z</time>
      </trkpt>
      <trkpt lat="42.21909" lon="22.46192">
        <ele>1204.012142</ele>
        <time>2022-04-09T10:52:17.201Z</time>
      </trkpt>
      <trkpt lat="42.21908" lon="22.46179">
        <ele>1204.122657</ele>
        <time>2022-04-09T10:52:25.180Z</time>
      </trkpt>
      <trkpt lat="42.21907" lon="22.46165">
        <ele>1204.237535</ele>
        <time>2022-04-09T10:52:32.183Z</time>
      </trkpt>
      <trkpt lat="42.21906" lon="22.46152">
        <ele>1204.353282</ele>
        <time>2022-04-09T10:52:39.197Z</time>
      </trkpt>
      <trkpt lat="42.21906" lon="22.46139">
        <ele>1204.464849</ele>
        <time>2022-04-09T10:52:46.197Z</time>
      </trkpt>
      <trkpt lat="42.21905" lon="22.46126">
        <ele>1204.570652</ele>
        <time>2022-04-09T10:52:52.200Z</time>
      </trkpt>
      <trkpt lat="42.21904" lon="22.46114">
        <ele>1204.680186</ele>
        <time>2022-04-09T10:52:59.187Z</time>
      </trkpt>
      <trkpt lat="42.21903" lon="22.46101">
        <ele>1204.786942</ele>
        <time>2022-04-09T10:53:07.163Z</time>
      </trkpt>
      <trkpt lat="42.21905" lon="22.46088">
        <ele>1204.896724</ele>
        <time>2022-04-09T10:53:15.229Z</time>
      </trkpt>
      <trkpt lat="42.21909" lon="22.46077">
        <ele>1205.000391</ele>
        <time>2022-04-09T10:53:22.189Z</time>
      </trkpt>
      <trkpt lat="42.21929" lon="22.46035">
        <ele>1205.431441</ele>
        <time>2022-04-09T10:54:46.202Z</time>
      </trkpt>
      <trkpt lat="42.21931" lon="22.46021">
        <ele>1205.549161</ele>
        <time>2022-04-09T10:54:52.180Z</time>
      </trkpt>
      <trkpt lat="42.21942" lon="22.45976">
        <ele>1205.893065</ele>
        <time>2022-04-09T10:58:54.196Z</time>
      </trkpt>
      <trkpt lat="42.21944" lon="22.45963">
        <ele>1205.987269</ele>
        <time>2022-04-09T10:58:57.177Z</time>
      </trkpt>
      <trkpt lat="42.21951" lon="22.45952">
        <ele>1206.088998</ele>
        <time>2022-04-09T10:59:02.164Z</time>
      </trkpt>
      <trkpt lat="42.21961" lon="22.45946">
        <ele>1206.18622</ele>
        <time>2022-04-09T10:59:07.174Z</time>
      </trkpt>
      <trkpt lat="42.21971" lon="22.45941">
        <ele>1206.287758</ele>
        <time>2022-04-09T10:59:11.170Z</time>
      </trkpt>
      <trkpt lat="42.21979" lon="22.45933">
        <ele>1206.380662</ele>
        <time>2022-04-09T10:59:14.177Z</time>
      </trkpt>
      <trkpt lat="42.21987" lon="22.45928">
        <ele>1206.467164</ele>
        <time>2022-04-09T10:59:17.192Z</time>
      </trkpt>
      <trkpt lat="42.21996" lon="22.45922">
        <ele>1206.556682</ele>
        <time>2022-04-09T10:59:20.216Z</time>
      </trkpt>
      <trkpt lat="42.22006" lon="22.4592">
        <ele>1206.650355</ele>
        <time>2022-04-09T10:59:23.189Z</time>
      </trkpt>
      <trkpt lat="42.22016" lon="22.4592">
        <ele>1206.743209</ele>
        <time>2022-04-09T10:59:26.164Z</time>
      </trkpt>
      <trkpt lat="42.22025" lon="22.4592">
        <ele>1206.828571</ele>
        <time>2022-04-09T10:59:29.182Z</time>
      </trkpt>
      <trkpt lat="42.22035" lon="22.45919">
        <ele>1206.922796</ele>
        <time>2022-04-09T10:59:33.210Z</time>
      </trkpt>
      <trkpt lat="42.22044" lon="22.45917">
        <ele>1207.012588</ele>
        <time>2022-04-09T10:59:39.162Z</time>
      </trkpt>
      <trkpt lat="42.22089" lon="22.45873">
        <ele>1206.571405</ele>
        <time>2022-04-09T11:15:35.178Z</time>
      </trkpt>
      <trkpt lat="42.22099" lon="22.45868">
        <ele>1206.242419</ele>
        <time>2022-04-09T11:15:37.181Z</time>
      </trkpt>
      <trkpt lat="42.22109" lon="22.45864">
        <ele>1205.899835</ele>
        <time>2022-04-09T11:15:40.198Z</time>
      </trkpt>
      <trkpt lat="42.22119" lon="22.45856">
        <ele>1205.513018</ele>
        <time>2022-04-09T11:15:44.163Z</time>
      </trkpt>
      <trkpt lat="42.22123" lon="22.45842">
        <ele>1205.151003</ele>
        <time>2022-04-09T11:15:48.175Z</time>
      </trkpt>
      <trkpt lat="42.22127" lon="22.45831">
        <ele>1204.851477</ele>
        <time>2022-04-09T11:15:54.174Z</time>
      </trkpt>
      <trkpt lat="42.22133" lon="22.45811">
        <ele>1204.334786</ele>
        <time>2022-04-09T11:21:36.183Z</time>
      </trkpt>
      <trkpt lat="42.22137" lon="22.45796">
        <ele>1203.947111</ele>
        <time>2022-04-09T11:21:40.186Z</time>
      </trkpt>
      <trkpt lat="42.22139" lon="22.45784">
        <ele>1203.642507</ele>
        <time>2022-04-09T11:21:43.185Z</time>
      </trkpt>
      <trkpt lat="42.2214" lon="22.4577">
        <ele>1203.304517</ele>
        <time>2022-04-09T11:21:46.229Z</time>
      </trkpt>
      <trkpt lat="42.2214" lon="22.45754">
        <ele>1202.918835</ele>
        <time>2022-04-09T11:21:49.199Z</time>
      </trkpt>
      <trkpt lat="42.22139" lon="22.45736">
        <ele>1202.491548</ele>
        <time>2022-04-09T11:21:52.190Z</time>
      </trkpt>
      <trkpt lat="42.22137" lon="22.45718">
        <ele>1202.04873</ele>
        <time>2022-04-09T11:21:55.180Z</time>
      </trkpt>
      <trkpt lat="42.22134" lon="22.45706">
        <ele>1201.73397</ele>
        <time>2022-04-09T11:21:57.241Z</time>
      </trkpt>
      <trkpt lat="42.2213" lon="22.45693">
        <ele>1201.377513</ele>
        <time>2022-04-09T11:21:59.205Z</time>
      </trkpt>
      <trkpt lat="42.22125" lon="22.4568">
        <ele>1200.804961</ele>
        <time>2022-04-09T11:22:01.195Z</time>
      </trkpt>
      <trkpt lat="42.22119" lon="22.45667">
        <ele>1200.210485</ele>
        <time>2022-04-09T11:22:03.186Z</time>
      </trkpt>
      <trkpt lat="42.22113" lon="22.45654">
        <ele>1199.643546</ele>
        <time>2022-04-09T11:22:05.210Z</time>
      </trkpt>
      <trkpt lat="42.22107" lon="22.45644">
        <ele>1199.088803</ele>
        <time>2022-04-09T11:22:07.211Z</time>
      </trkpt>
      <trkpt lat="42.22099" lon="22.45634">
        <ele>1198.525776</ele>
        <time>2022-04-09T11:22:09.185Z</time>
      </trkpt>
      <trkpt lat="42.2209" lon="22.45624">
        <ele>1197.928936</ele>
        <time>2022-04-09T11:22:11.190Z</time>
      </trkpt>
      <trkpt lat="42.22081" lon="22.45614">
        <ele>1197.332757</ele>
        <time>2022-04-09T11:22:13.229Z</time>
      </trkpt>
      <trkpt lat="42.22071" lon="22.45606">
        <ele>1196.723014</ele>
        <time>2022-04-09T11:22:15.271Z</time>
      </trkpt>
      <trkpt lat="42.2206" lon="22.45599">
        <ele>1196.111292</ele>
        <time>2022-04-09T11:22:17.184Z</time>
      </trkpt>
      <trkpt lat="42.2205" lon="22.45593">
        <ele>1195.536464</ele>
        <time>2022-04-09T11:22:19.207Z</time>
      </trkpt>
      <trkpt lat="42.2204" lon="22.45588">
        <ele>1194.983534</ele>
        <time>2022-04-09T11:22:21.213Z</time>
      </trkpt>
      <trkpt lat="42.22031" lon="22.45583">
        <ele>1194.446024</ele>
        <time>2022-04-09T11:22:23.200Z</time>
      </trkpt>
      <trkpt lat="42.22021" lon="22.45578">
        <ele>1193.900338</ele>
        <time>2022-04-09T11:22:25.203Z</time>
      </trkpt>
      <trkpt lat="42.2201" lon="22.45574">
        <ele>1193.321027</ele>
        <time>2022-04-09T11:22:27.200Z</time>
      </trkpt>
      <trkpt lat="42.22" lon="22.45569">
        <ele>1192.759253</ele>
        <time>2022-04-09T11:22:29.181Z</time>
      </trkpt>
      <trkpt lat="42.21989" lon="22.45564">
        <ele>1192.16387</ele>
        <time>2022-04-09T11:22:31.183Z</time>
      </trkpt>
      <trkpt lat="42.21978" lon="22.45559">
        <ele>1191.507783</ele>
        <time>2022-04-09T11:22:33.199Z</time>
      </trkpt>
      <trkpt lat="42.21965" lon="22.45555">
        <ele>1190.821103</ele>
        <time>2022-04-09T11:22:35.303Z</time>
      </trkpt>
      <trkpt lat="42.21954" lon="22.4555">
        <ele>1190.189547</ele>
        <time>2022-04-09T11:22:37.211Z</time>
      </trkpt>
      <trkpt lat="42.21941" lon="22.45545">
        <ele>1189.505408</ele>
        <time>2022-04-09T11:22:39.186Z</time>
      </trkpt>
      <trkpt lat="42.21929" lon="22.45539">
        <ele>1188.812549</ele>
        <time>2022-04-09T11:22:41.189Z</time>
      </trkpt>
      <trkpt lat="42.21917" lon="22.45533">
        <ele>1188.13966</ele>
        <time>2022-04-09T11:22:43.189Z</time>
      </trkpt>
      <trkpt lat="42.21906" lon="22.45526">
        <ele>1187.463466</ele>
        <time>2022-04-09T11:22:45.191Z</time>
      </trkpt>
      <trkpt lat="42.21894" lon="22.45517">
        <ele>1186.734843</ele>
        <time>2022-04-09T11:22:47.198Z</time>
      </trkpt>
      <trkpt lat="42.21883" lon="22.45506">
        <ele>1186.023383</ele>
        <time>2022-04-09T11:22:49.187Z</time>
      </trkpt>
      <trkpt lat="42.21872" lon="22.45493">
        <ele>1185.244851</ele>
        <time>2022-04-09T11:22:51.196Z</time>
      </trkpt>
      <trkpt lat="42.21862" lon="22.45477">
        <ele>1184.445613</ele>
        <time>2022-04-09T11:22:53.201Z</time>
      </trkpt>
      <trkpt lat="42.21854" lon="22.4546">
        <ele>1183.621557</ele>
        <time>2022-04-09T11:22:55.191Z</time>
      </trkpt>
      <trkpt lat="42.21847" lon="22.45439">
        <ele>1182.752875</ele>
        <time>2022-04-09T11:22:57.229Z</time>
      </trkpt>
      <trkpt lat="42.21843" lon="22.45419">
        <ele>1181.697201</ele>
        <time>2022-04-09T11:22:59.187Z</time>
      </trkpt>
      <trkpt lat="42.2184" lon="22.454">
        <ele>1180.631167</ele>
        <time>2022-04-09T11:23:01.187Z</time>
      </trkpt>
      <trkpt lat="42.21839" lon="22.4538">
        <ele>1179.581419</ele>
        <time>2022-04-09T11:23:03.184Z</time>
      </trkpt>
      <trkpt lat="42.21838" lon="22.45361">
        <ele>1178.552261</ele>
        <time>2022-04-09T11:23:05.232Z</time>
      </trkpt>
      <trkpt lat="42.21837" lon="22.45343">
        <ele>1177.586467</ele>
        <time>2022-04-09T11:23:07.179Z</time>
      </trkpt>
      <trkpt lat="42.21836" lon="22.45327">
        <ele>1176.695068</ele>
        <time>2022-04-09T11:23:09.211Z</time>
      </trkpt>
      <trkpt lat="42.21834" lon="22.4531">
        <ele>1175.762109</ele>
        <time>2022-04-09T11:23:11.230Z</time>
      </trkpt>
      <trkpt lat="42.21831" lon="22.45293">
        <ele>1174.786349</ele>
        <time>2022-04-09T11:23:13.185Z</time>
      </trkpt>
      <trkpt lat="42.21827" lon="22.45275">
        <ele>1173.821992</ele>
        <time>2022-04-09T11:23:15.193Z</time>
      </trkpt>
      <trkpt lat="42.21822" lon="22.45259">
        <ele>1172.842509</ele>
        <time>2022-04-09T11:23:17.208Z</time>
      </trkpt>
      <trkpt lat="42.21815" lon="22.45244">
        <ele>1171.899607</ele>
        <time>2022-04-09T11:23:19.192Z</time>
      </trkpt>
      <trkpt lat="42.21808" lon="22.4523">
        <ele>1170.990239</ele>
        <time>2022-04-09T11:23:21.185Z</time>
      </trkpt>
      <trkpt lat="42.218" lon="22.45219">
        <ele>1170.151805</ele>
        <time>2022-04-09T11:23:23.196Z</time>
      </trkpt>
      <trkpt lat="42.21791" lon="22.45208">
        <ele>1169.28819</ele>
        <time>2022-04-09T11:23:26.217Z</time>
      </trkpt>
      <trkpt lat="42.21784" lon="22.452">
        <ele>1168.521813</ele>
        <time>2022-04-09T11:23:29.211Z</time>
      </trkpt>
      <trkpt lat="42.21772" lon="22.4519">
        <ele>1167.371364</ele>
        <time>2022-04-09T11:23:32.207Z</time>
      </trkpt>
      <trkpt lat="42.21762" lon="22.45183">
        <ele>1166.47427</ele>
        <time>2022-04-09T11:23:34.231Z</time>
      </trkpt>
      <trkpt lat="42.21752" lon="22.45179">
        <ele>1165.591476</ele>
        <time>2022-04-09T11:23:36.201Z</time>
      </trkpt>
      <trkpt lat="42.2174" lon="22.45178">
        <ele>1164.642808</ele>
        <time>2022-04-09T11:23:38.208Z</time>
      </trkpt>
      <trkpt lat="42.21726" lon="22.45176">
        <ele>1163.513801</ele>
        <time>2022-04-09T11:23:40.199Z</time>
      </trkpt>
      <trkpt lat="42.21711" lon="22.45172">
        <ele>1162.264186</ele>
        <time>2022-04-09T11:23:42.200Z</time>
      </trkpt>
      <trkpt lat="42.21695" lon="22.45168">
        <ele>1160.946578</ele>
        <time>2022-04-09T11:23:44.197Z</time>
      </trkpt>
      <trkpt lat="42.2168" lon="22.45161">
        <ele>1159.655171</ele>
        <time>2022-04-09T11:23:46.194Z</time>
      </trkpt>
      <trkpt lat="42.21665" lon="22.45151">
        <ele>1158.314803</ele>
        <time>2022-04-09T11:23:48.198Z</time>
      </trkpt>
      <trkpt lat="42.21654" lon="22.45135">
        <ele>1157.012378</ele>
        <time>2022-04-09T11:23:50.195Z</time>
      </trkpt>
      <trkpt lat="42.21646" lon="22.45115">
        <ele>1155.641089</ele>
        <time>2022-04-09T11:23:52.221Z</time>
      </trkpt>
      <trkpt lat="42.21643" lon="22.45092">
        <ele>1154.371261</ele>
        <time>2022-04-09T11:23:54.189Z</time>
      </trkpt>
      <trkpt lat="42.21643" lon="22.4507">
        <ele>1153.320652</ele>
        <time>2022-04-09T11:23:56.208Z</time>
      </trkpt>
      <trkpt lat="42.21651" lon="22.45051">
        <ele>1152.254464</ele>
        <time>2022-04-09T11:23:58.221Z</time>
      </trkpt>
      <trkpt lat="42.21664" lon="22.45034">
        <ele>1151.068899</ele>
        <time>2022-04-09T11:24:00.192Z</time>
      </trkpt>
      <trkpt lat="42.21671" lon="22.45026">
        <ele>1150.463874</ele>
        <time>2022-04-09T11:24:01.223Z</time>
      </trkpt>
      <trkpt lat="42.21687" lon="22.45016">
        <ele>1149.367373</ele>
        <time>2022-04-09T11:24:03.201Z</time>
      </trkpt>
      <trkpt lat="42.21704" lon="22.45013">
        <ele>1148.253722</ele>
        <time>2022-04-09T11:24:05.184Z</time>
      </trkpt>
      <trkpt lat="42.21721" lon="22.45019">
        <ele>1147.107116</ele>
        <time>2022-04-09T11:24:07.174Z</time>
      </trkpt>
      <trkpt lat="42.21737" lon="22.45029">
        <ele>1145.945079</ele>
        <time>2022-04-09T11:24:09.187Z</time>
      </trkpt>
      <trkpt lat="42.21745" lon="22.45035">
        <ele>1145.355826</ele>
        <time>2022-04-09T11:24:10.221Z</time>
      </trkpt>
      <trkpt lat="42.21761" lon="22.45044">
        <ele>1144.23174</ele>
        <time>2022-04-09T11:24:12.193Z</time>
      </trkpt>
      <trkpt lat="42.21777" lon="22.45053">
        <ele>1143.094558</ele>
        <time>2022-04-09T11:24:14.194Z</time>
      </trkpt>
      <trkpt lat="42.21794" lon="22.45058">
        <ele>1142.162766</ele>
        <time>2022-04-09T11:24:16.214Z</time>
      </trkpt>
      <trkpt lat="42.2181" lon="22.45059">
        <ele>1141.302472</ele>
        <time>2022-04-09T11:24:18.200Z</time>
      </trkpt>
      <trkpt lat="42.21825" lon="22.45056">
        <ele>1140.467606</ele>
        <time>2022-04-09T11:24:20.179Z</time>
      </trkpt>
      <trkpt lat="42.2184" lon="22.45049">
        <ele>1139.578274</ele>
        <time>2022-04-09T11:24:22.241Z</time>
      </trkpt>
      <trkpt lat="42.21856" lon="22.45037">
        <ele>1138.626466</ele>
        <time>2022-04-09T11:24:24.203Z</time>
      </trkpt>
      <trkpt lat="42.21863" lon="22.4503">
        <ele>1138.124301</ele>
        <time>2022-04-09T11:24:25.199Z</time>
      </trkpt>
      <trkpt lat="42.2187" lon="22.45021">
        <ele>1137.605198</ele>
        <time>2022-04-09T11:24:26.196Z</time>
      </trkpt>
      <trkpt lat="42.21876" lon="22.45011">
        <ele>1137.091439</ele>
        <time>2022-04-09T11:24:27.197Z</time>
      </trkpt>
      <trkpt lat="42.21882" lon="22.45001">
        <ele>1136.576529</ele>
        <time>2022-04-09T11:24:28.184Z</time>
      </trkpt>
      <trkpt lat="42.2189" lon="22.44981">
        <ele>1135.644792</ele>
        <time>2022-04-09T11:24:30.201Z</time>
      </trkpt>
      <trkpt lat="42.21894" lon="22.44959">
        <ele>1134.738588</ele>
        <time>2022-04-09T11:24:32.202Z</time>
      </trkpt>
      <trkpt lat="42.21893" lon="22.44935">
        <ele>1133.77751</ele>
        <time>2022-04-09T11:24:34.188Z</time>
      </trkpt>
      <trkpt lat="42.21889" lon="22.44911">
        <ele>1132.641465</ele>
        <time>2022-04-09T11:24:36.207Z</time>
      </trkpt>
      <trkpt lat="42.21885" lon="22.449">
        <ele>1132.049768</ele>
        <time>2022-04-09T11:24:37.221Z</time>
      </trkpt>
      <trkpt lat="42.21877" lon="22.4488">
        <ele>1130.933724</ele>
        <time>2022-04-09T11:24:39.227Z</time>
      </trkpt>
      <trkpt lat="42.21864" lon="22.44863">
        <ele>1129.771704</ele>
        <time>2022-04-09T11:24:41.204Z</time>
      </trkpt>
      <trkpt lat="42.21851" lon="22.44848">
        <ele>1128.612215</ele>
        <time>2022-04-09T11:24:43.170Z</time>
      </trkpt>
      <trkpt lat="42.21837" lon="22.44834">
        <ele>1127.459868</ele>
        <time>2022-04-09T11:24:45.181Z</time>
      </trkpt>
      <trkpt lat="42.21829" lon="22.44827">
        <ele>1126.83636</ele>
        <time>2022-04-09T11:24:46.185Z</time>
      </trkpt>
      <trkpt lat="42.21821" lon="22.4482">
        <ele>1126.182089</ele>
        <time>2022-04-09T11:24:47.197Z</time>
      </trkpt>
      <trkpt lat="42.21812" lon="22.44812">
        <ele>1125.506155</ele>
        <time>2022-04-09T11:24:48.189Z</time>
      </trkpt>
      <trkpt lat="42.21804" lon="22.44805">
        <ele>1124.835801</ele>
        <time>2022-04-09T11:24:49.187Z</time>
      </trkpt>
      <trkpt lat="42.21796" lon="22.44798">
        <ele>1124.176549</ele>
        <time>2022-04-09T11:24:50.218Z</time>
      </trkpt>
      <trkpt lat="42.21788" lon="22.4479">
        <ele>1123.539255</ele>
        <time>2022-04-09T11:24:51.198Z</time>
      </trkpt>
      <trkpt lat="42.2178" lon="22.44782">
        <ele>1122.895906</ele>
        <time>2022-04-09T11:24:52.188Z</time>
      </trkpt>
      <trkpt lat="42.21772" lon="22.44774">
        <ele>1122.248013</ele>
        <time>2022-04-09T11:24:53.197Z</time>
      </trkpt>
      <trkpt lat="42.21765" lon="22.44765">
        <ele>1121.585665</ele>
        <time>2022-04-09T11:24:54.196Z</time>
      </trkpt>
      <trkpt lat="42.21758" lon="22.44756">
        <ele>1120.779143</ele>
        <time>2022-04-09T11:24:55.198Z</time>
      </trkpt>
      <trkpt lat="42.21751" lon="22.44747">
        <ele>1119.950352</ele>
        <time>2022-04-09T11:24:56.224Z</time>
      </trkpt>
      <trkpt lat="42.21746" lon="22.44736">
        <ele>1119.104054</ele>
        <time>2022-04-09T11:24:57.184Z</time>
      </trkpt>
      <trkpt lat="42.2174" lon="22.44725">
        <ele>1118.239401</ele>
        <time>2022-04-09T11:24:58.189Z</time>
      </trkpt>
      <trkpt lat="42.21736" lon="22.44713">
        <ele>1117.334069</ele>
        <time>2022-04-09T11:24:59.207Z</time>
      </trkpt>
      <trkpt lat="42.21731" lon="22.44699">
        <ele>1116.399188</ele>
        <time>2022-04-09T11:25:00.201Z</time>
      </trkpt>
      <trkpt lat="42.21727" lon="22.44686">
        <ele>1115.460541</ele>
        <time>2022-04-09T11:25:01.204Z</time>
      </trkpt>
      <trkpt lat="42.21725" lon="22.44673">
        <ele>1114.564242</ele>
        <time>2022-04-09T11:25:02.220Z</time>
      </trkpt>
      <trkpt lat="42.21723" lon="22.44659">
        <ele>1113.674237</ele>
        <time>2022-04-09T11:25:03.180Z</time>
      </trkpt>
      <trkpt lat="42.21722" lon="22.44646">
        <ele>1112.807571</ele>
        <time>2022-04-09T11:25:04.195Z</time>
      </trkpt>
      <trkpt lat="42.21721" lon="22.44633">
        <ele>1111.948939</ele>
        <time>2022-04-09T11:25:05.176Z</time>
      </trkpt>
      <trkpt lat="42.21722" lon="22.44619">
        <ele>1111.045868</ele>
        <time>2022-04-09T11:25:06.193Z</time>
      </trkpt>
      <trkpt lat="42.21725" lon="22.44605">
        <ele>1110.139204</ele>
        <time>2022-04-09T11:25:07.182Z</time>
      </trkpt>
      <trkpt lat="42.21728" lon="22.44592">
        <ele>1109.226791</ele>
        <time>2022-04-09T11:25:08.229Z</time>
      </trkpt>
      <trkpt lat="42.21732" lon="22.4458">
        <ele>1108.363945</ele>
        <time>2022-04-09T11:25:09.202Z</time>
      </trkpt>
      <trkpt lat="42.21736" lon="22.44568">
        <ele>1107.538247</ele>
        <time>2022-04-09T11:25:10.195Z</time>
      </trkpt>
      <trkpt lat="42.21741" lon="22.44557">
        <ele>1106.693859</ele>
        <time>2022-04-09T11:25:11.180Z</time>
      </trkpt>
      <trkpt lat="42.21746" lon="22.44547">
        <ele>1105.852318</ele>
        <time>2022-04-09T11:25:12.182Z</time>
      </trkpt>
      <trkpt lat="42.21753" lon="22.44536">
        <ele>1105.036693</ele>
        <time>2022-04-09T11:25:13.189Z</time>
      </trkpt>
      <trkpt lat="42.21759" lon="22.44527">
        <ele>1104.278242</ele>
        <time>2022-04-09T11:25:14.196Z</time>
      </trkpt>
      <trkpt lat="42.21766" lon="22.44518">
        <ele>1103.543903</ele>
        <time>2022-04-09T11:25:15.202Z</time>
      </trkpt>
      <trkpt lat="42.21773" lon="22.4451">
        <ele>1102.815301</ele>
        <time>2022-04-09T11:25:16.257Z</time>
      </trkpt>
      <trkpt lat="42.21781" lon="22.44502">
        <ele>1102.093179</ele>
        <time>2022-04-09T11:25:17.187Z</time>
      </trkpt>
      <trkpt lat="42.21788" lon="22.44495">
        <ele>1101.353469</ele>
        <time>2022-04-09T11:25:18.196Z</time>
      </trkpt>
      <trkpt lat="42.21796" lon="22.44488">
        <ele>1100.633268</ele>
        <time>2022-04-09T11:25:19.200Z</time>
      </trkpt>
      <trkpt lat="42.21804" lon="22.44482">
        <ele>1099.924584</ele>
        <time>2022-04-09T11:25:20.191Z</time>
      </trkpt>
      <trkpt lat="42.21819" lon="22.44472">
        <ele>1098.547107</ele>
        <time>2022-04-09T11:25:22.197Z</time>
      </trkpt>
      <trkpt lat="42.21836" lon="22.44464">
        <ele>1097.135478</ele>
        <time>2022-04-09T11:25:24.196Z</time>
      </trkpt>
      <trkpt lat="42.21854" lon="22.44458">
        <ele>1095.727772</ele>
        <time>2022-04-09T11:25:26.196Z</time>
      </trkpt>
      <trkpt lat="42.21863" lon="22.44456">
        <ele>1095.017433</ele>
        <time>2022-04-09T11:25:27.236Z</time>
      </trkpt>
      <trkpt lat="42.21872" lon="22.44455">
        <ele>1094.258876</ele>
        <time>2022-04-09T11:25:28.185Z</time>
      </trkpt>
      <trkpt lat="42.21882" lon="22.44454">
        <ele>1093.495688</ele>
        <time>2022-04-09T11:25:29.197Z</time>
      </trkpt>
      <trkpt lat="42.21892" lon="22.44455">
        <ele>1092.724643</ele>
        <time>2022-04-09T11:25:30.174Z</time>
      </trkpt>
      <trkpt lat="42.21902" lon="22.44456">
        <ele>1091.958262</ele>
        <time>2022-04-09T11:25:31.197Z</time>
      </trkpt>
      <trkpt lat="42.21911" lon="22.44459">
        <ele>1091.265775</ele>
        <time>2022-04-09T11:25:32.188Z</time>
      </trkpt>
      <trkpt lat="42.21921" lon="22.44462">
        <ele>1090.6872</ele>
        <time>2022-04-09T11:25:33.198Z</time>
      </trkpt>
      <trkpt lat="42.21929" lon="22.44468">
        <ele>1090.126197</ele>
        <time>2022-04-09T11:25:34.209Z</time>
      </trkpt>
      <trkpt lat="42.21938" lon="22.44474">
        <ele>1089.562615</ele>
        <time>2022-04-09T11:25:35.201Z</time>
      </trkpt>
      <trkpt lat="42.21946" lon="22.44481">
        <ele>1088.97327</ele>
        <time>2022-04-09T11:25:36.191Z</time>
      </trkpt>
      <trkpt lat="42.21954" lon="22.44489">
        <ele>1088.376761</ele>
        <time>2022-04-09T11:25:37.177Z</time>
      </trkpt>
      <trkpt lat="42.21962" lon="22.44497">
        <ele>1087.786546</ele>
        <time>2022-04-09T11:25:38.228Z</time>
      </trkpt>
      <trkpt lat="42.21969" lon="22.44506">
        <ele>1087.210974</ele>
        <time>2022-04-09T11:25:39.195Z</time>
      </trkpt>
      <trkpt lat="42.21976" lon="22.44516">
        <ele>1086.646928</ele>
        <time>2022-04-09T11:25:40.195Z</time>
      </trkpt>
      <trkpt lat="42.21982" lon="22.44526">
        <ele>1086.088307</ele>
        <time>2022-04-09T11:25:41.182Z</time>
      </trkpt>
      <trkpt lat="42.21988" lon="22.44537">
        <ele>1085.505746</ele>
        <time>2022-04-09T11:25:42.192Z</time>
      </trkpt>
      <trkpt lat="42.21992" lon="22.44548">
        <ele>1084.933102</ele>
        <time>2022-04-09T11:25:43.196Z</time>
      </trkpt>
      <trkpt lat="42.21996" lon="22.4456">
        <ele>1084.358458</ele>
        <time>2022-04-09T11:25:44.239Z</time>
      </trkpt>
      <trkpt lat="42.21999" lon="22.44573">
        <ele>1083.784666</ele>
        <time>2022-04-09T11:25:45.217Z</time>
      </trkpt>
      <trkpt lat="42.22002" lon="22.44585">
        <ele>1083.200866</ele>
        <time>2022-04-09T11:25:46.215Z</time>
      </trkpt>
      <trkpt lat="42.22005" lon="22.44598">
        <ele>1082.613859</ele>
        <time>2022-04-09T11:25:47.166Z</time>
      </trkpt>
      <trkpt lat="42.22008" lon="22.44611">
        <ele>1082.035228</ele>
        <time>2022-04-09T11:25:48.180Z</time>
      </trkpt>
      <trkpt lat="42.2201" lon="22.44624">
        <ele>1081.446536</ele>
        <time>2022-04-09T11:25:49.198Z</time>
      </trkpt>
      <trkpt lat="42.22014" lon="22.44637">
        <ele>1080.862585</ele>
        <time>2022-04-09T11:25:50.168Z</time>
      </trkpt>
      <trkpt lat="42.22017" lon="22.4465">
        <ele>1080.436124</ele>
        <time>2022-04-09T11:25:51.193Z</time>
      </trkpt>
      <trkpt lat="42.2202" lon="22.44662">
        <ele>1080.015602</ele>
        <time>2022-04-09T11:25:52.191Z</time>
      </trkpt>
      <trkpt lat="42.22024" lon="22.44674">
        <ele>1079.616951</ele>
        <time>2022-04-09T11:25:53.184Z</time>
      </trkpt>
      <trkpt lat="42.22028" lon="22.44685">
        <ele>1079.225703</ele>
        <time>2022-04-09T11:25:54.186Z</time>
      </trkpt>
      <trkpt lat="42.22032" lon="22.44696">
        <ele>1078.841841</ele>
        <time>2022-04-09T11:25:55.201Z</time>
      </trkpt>
      <trkpt lat="42.22038" lon="22.44706">
        <ele>1078.457468</ele>
        <time>2022-04-09T11:25:56.183Z</time>
      </trkpt>
      <trkpt lat="42.22043" lon="22.44715">
        <ele>1078.073072</ele>
        <time>2022-04-09T11:25:57.195Z</time>
      </trkpt>
      <trkpt lat="42.22049" lon="22.44725">
        <ele>1077.688361</ele>
        <time>2022-04-09T11:25:58.200Z</time>
      </trkpt>
      <trkpt lat="42.22055" lon="22.44734">
        <ele>1077.306312</ele>
        <time>2022-04-09T11:25:59.218Z</time>
      </trkpt>
      <trkpt lat="42.22061" lon="22.44743">
        <ele>1076.922942</ele>
        <time>2022-04-09T11:26:00.194Z</time>
      </trkpt>
      <trkpt lat="42.22068" lon="22.44752">
        <ele>1076.517476</ele>
        <time>2022-04-09T11:26:01.181Z</time>
      </trkpt>
      <trkpt lat="42.22076" lon="22.44759">
        <ele>1076.121322</ele>
        <time>2022-04-09T11:26:02.177Z</time>
      </trkpt>
      <trkpt lat="42.22091" lon="22.4477">
        <ele>1075.36748</ele>
        <time>2022-04-09T11:26:04.193Z</time>
      </trkpt>
      <trkpt lat="42.22107" lon="22.44778">
        <ele>1074.639239</ele>
        <time>2022-04-09T11:26:06.191Z</time>
      </trkpt>
      <trkpt lat="42.22123" lon="22.44784">
        <ele>1073.943352</ele>
        <time>2022-04-09T11:26:08.174Z</time>
      </trkpt>
      <trkpt lat="42.22138" lon="22.44787">
        <ele>1073.290677</ele>
        <time>2022-04-09T11:26:10.218Z</time>
      </trkpt>
      <trkpt lat="42.22152" lon="22.44789">
        <ele>1072.179876</ele>
        <time>2022-04-09T11:26:12.193Z</time>
      </trkpt>
      <trkpt lat="42.22166" lon="22.4479">
        <ele>1071.025108</ele>
        <time>2022-04-09T11:26:14.220Z</time>
      </trkpt>
      <trkpt lat="42.22181" lon="22.44789">
        <ele>1069.853982</ele>
        <time>2022-04-09T11:26:16.214Z</time>
      </trkpt>
      <trkpt lat="42.22194" lon="22.44787">
        <ele>1068.74602</ele>
        <time>2022-04-09T11:26:18.189Z</time>
      </trkpt>
      <trkpt lat="42.22205" lon="22.44783">
        <ele>1067.840519</ele>
        <time>2022-04-09T11:26:20.199Z</time>
      </trkpt>
      <trkpt lat="42.22215" lon="22.44778">
        <ele>1066.917738</ele>
        <time>2022-04-09T11:26:22.191Z</time>
      </trkpt>
      <trkpt lat="42.22225" lon="22.44771">
        <ele>1066.060687</ele>
        <time>2022-04-09T11:26:24.197Z</time>
      </trkpt>
      <trkpt lat="42.22233" lon="22.44764">
        <ele>1065.250008</ele>
        <time>2022-04-09T11:26:26.188Z</time>
      </trkpt>
      <trkpt lat="42.22241" lon="22.44756">
        <ele>1064.393778</ele>
        <time>2022-04-09T11:26:28.177Z</time>
      </trkpt>
      <trkpt lat="42.2225" lon="22.44746">
        <ele>1063.509519</ele>
        <time>2022-04-09T11:26:30.186Z</time>
      </trkpt>
      <trkpt lat="42.22257" lon="22.44736">
        <ele>1062.681403</ele>
        <time>2022-04-09T11:26:32.182Z</time>
      </trkpt>
      <trkpt lat="42.22265" lon="22.44722">
        <ele>1061.59024</ele>
        <time>2022-04-09T11:26:35.179Z</time>
      </trkpt>
      <trkpt lat="42.2227" lon="22.4471">
        <ele>1060.725265</ele>
        <time>2022-04-09T11:26:37.176Z</time>
      </trkpt>
      <trkpt lat="42.22275" lon="22.44695">
        <ele>1059.743264</ele>
        <time>2022-04-09T11:26:39.203Z</time>
      </trkpt>
      <trkpt lat="42.2228" lon="22.4468">
        <ele>1058.734227</ele>
        <time>2022-04-09T11:26:41.183Z</time>
      </trkpt>
      <trkpt lat="42.22283" lon="22.44666">
        <ele>1057.947294</ele>
        <time>2022-04-09T11:26:43.197Z</time>
      </trkpt>
      <trkpt lat="42.22286" lon="22.44652">
        <ele>1057.268322</ele>
        <time>2022-04-09T11:26:45.193Z</time>
      </trkpt>
      <trkpt lat="42.22287" lon="22.44637">
        <ele>1056.498501</ele>
        <time>2022-04-09T11:26:47.198Z</time>
      </trkpt>
      <trkpt lat="42.22286" lon="22.4462">
        <ele>1055.644301</ele>
        <time>2022-04-09T11:26:49.189Z</time>
      </trkpt>
      <trkpt lat="42.22285" lon="22.44601">
        <ele>1054.664593</ele>
        <time>2022-04-09T11:26:51.198Z</time>
      </trkpt>
      <trkpt lat="42.22282" lon="22.44581">
        <ele>1053.675088</ele>
        <time>2022-04-09T11:26:53.204Z</time>
      </trkpt>
      <trkpt lat="42.22279" lon="22.44562">
        <ele>1052.676876</ele>
        <time>2022-04-09T11:26:55.200Z</time>
      </trkpt>
      <trkpt lat="42.22277" lon="22.44541">
        <ele>1051.640493</ele>
        <time>2022-04-09T11:26:57.184Z</time>
      </trkpt>
      <trkpt lat="42.22274" lon="22.44521">
        <ele>1050.593858</ele>
        <time>2022-04-09T11:26:59.179Z</time>
      </trkpt>
      <trkpt lat="42.22272" lon="22.44501">
        <ele>1049.579647</ele>
        <time>2022-04-09T11:27:01.174Z</time>
      </trkpt>
      <trkpt lat="42.22269" lon="22.44481">
        <ele>1048.582561</ele>
        <time>2022-04-09T11:27:03.203Z</time>
      </trkpt>
      <trkpt lat="42.22266" lon="22.44461">
        <ele>1047.518988</ele>
        <time>2022-04-09T11:27:05.179Z</time>
      </trkpt>
      <trkpt lat="42.22263" lon="22.44439">
        <ele>1046.404326</ele>
        <time>2022-04-09T11:27:07.189Z</time>
      </trkpt>
      <trkpt lat="42.22258" lon="22.44418">
        <ele>1045.191596</ele>
        <time>2022-04-09T11:27:09.187Z</time>
      </trkpt>
      <trkpt lat="42.22253" lon="22.44397">
        <ele>1043.98583</ele>
        <time>2022-04-09T11:27:11.190Z</time>
      </trkpt>
      <trkpt lat="42.22247" lon="22.44377">
        <ele>1042.818622</ele>
        <time>2022-04-09T11:27:13.200Z</time>
      </trkpt>
      <trkpt lat="42.2224" lon="22.44359">
        <ele>1041.680857</ele>
        <time>2022-04-09T11:27:15.178Z</time>
      </trkpt>
      <trkpt lat="42.22231" lon="22.44341">
        <ele>1040.49993</ele>
        <time>2022-04-09T11:27:17.185Z</time>
      </trkpt>
      <trkpt lat="42.22221" lon="22.44324">
        <ele>1039.28868</ele>
        <time>2022-04-09T11:27:19.223Z</time>
      </trkpt>
      <trkpt lat="42.22211" lon="22.44307">
        <ele>1038.088534</ele>
        <time>2022-04-09T11:27:21.201Z</time>
      </trkpt>
      <trkpt lat="42.222" lon="22.44289">
        <ele>1036.81899</ele>
        <time>2022-04-09T11:27:23.197Z</time>
      </trkpt>
      <trkpt lat="42.22189" lon="22.4427">
        <ele>1035.499987</ele>
        <time>2022-04-09T11:27:25.187Z</time>
      </trkpt>
      <trkpt lat="42.22178" lon="22.44253">
        <ele>1034.238556</ele>
        <time>2022-04-09T11:27:27.187Z</time>
      </trkpt>
      <trkpt lat="42.22167" lon="22.44236">
        <ele>1032.987049</ele>
        <time>2022-04-09T11:27:29.188Z</time>
      </trkpt>
      <trkpt lat="42.22156" lon="22.44219">
        <ele>1031.707015</ele>
        <time>2022-04-09T11:27:31.203Z</time>
      </trkpt>
      <trkpt lat="42.22145" lon="22.44202">
        <ele>1030.41758</ele>
        <time>2022-04-09T11:27:33.187Z</time>
      </trkpt>
      <trkpt lat="42.22134" lon="22.44186">
        <ele>1029.096917</ele>
        <time>2022-04-09T11:27:35.249Z</time>
      </trkpt>
      <trkpt lat="42.22123" lon="22.44168">
        <ele>1027.754572</ele>
        <time>2022-04-09T11:27:37.204Z</time>
      </trkpt>
      <trkpt lat="42.22111" lon="22.44151">
        <ele>1026.425268</ele>
        <time>2022-04-09T11:27:39.201Z</time>
      </trkpt>
      <trkpt lat="42.221" lon="22.44133">
        <ele>1025.052107</ele>
        <time>2022-04-09T11:27:41.221Z</time>
      </trkpt>
      <trkpt lat="42.22089" lon="22.44117">
        <ele>1023.741028</ele>
        <time>2022-04-09T11:27:43.196Z</time>
      </trkpt>
      <trkpt lat="42.22078" lon="22.441">
        <ele>1022.416956</ele>
        <time>2022-04-09T11:27:45.188Z</time>
      </trkpt>
      <trkpt lat="42.22066" lon="22.44082">
        <ele>1021.05706</ele>
        <time>2022-04-09T11:27:47.181Z</time>
      </trkpt>
      <trkpt lat="42.22055" lon="22.44064">
        <ele>1019.705144</ele>
        <time>2022-04-09T11:27:49.204Z</time>
      </trkpt>
      <trkpt lat="42.22043" lon="22.44047">
        <ele>1018.322736</ele>
        <time>2022-04-09T11:27:51.185Z</time>
      </trkpt>
      <trkpt lat="42.2203" lon="22.4403">
        <ele>1016.962693</ele>
        <time>2022-04-09T11:27:53.177Z</time>
      </trkpt>
      <trkpt lat="42.22017" lon="22.44014">
        <ele>1015.637545</ele>
        <time>2022-04-09T11:27:55.189Z</time>
      </trkpt>
      <trkpt lat="42.22003" lon="22.43999">
        <ele>1014.335298</ele>
        <time>2022-04-09T11:27:57.200Z</time>
      </trkpt>
      <trkpt lat="42.2199" lon="22.43984">
        <ele>1013.052908</ele>
        <time>2022-04-09T11:27:59.203Z</time>
      </trkpt>
      <trkpt lat="42.21976" lon="22.43969">
        <ele>1011.693499</ele>
        <time>2022-04-09T11:28:01.187Z</time>
      </trkpt>
      <trkpt lat="42.21969" lon="22.43961">
        <ele>1011.011307</ele>
        <time>2022-04-09T11:28:02.178Z</time>
      </trkpt>
      <trkpt lat="42.21961" lon="22.43954">
        <ele>1010.323787</ele>
        <time>2022-04-09T11:28:03.220Z</time>
      </trkpt>
      <trkpt lat="42.21953" lon="22.43947">
        <ele>1009.608636</ele>
        <time>2022-04-09T11:28:04.181Z</time>
      </trkpt>
      <trkpt lat="42.21945" lon="22.43939">
        <ele>1008.880944</ele>
        <time>2022-04-09T11:28:05.226Z</time>
      </trkpt>
      <trkpt lat="42.21938" lon="22.43932">
        <ele>1008.180795</ele>
        <time>2022-04-09T11:28:06.203Z</time>
      </trkpt>
      <trkpt lat="42.2193" lon="22.43924">
        <ele>1007.477868</ele>
        <time>2022-04-09T11:28:07.201Z</time>
      </trkpt>
      <trkpt lat="42.21923" lon="22.43916">
        <ele>1006.761715</ele>
        <time>2022-04-09T11:28:08.190Z</time>
      </trkpt>
      <trkpt lat="42.21915" lon="22.43909">
        <ele>1006.05152</ele>
        <time>2022-04-09T11:28:09.193Z</time>
      </trkpt>
      <trkpt lat="42.21908" lon="22.43901">
        <ele>1005.359992</ele>
        <time>2022-04-09T11:28:10.181Z</time>
      </trkpt>
      <trkpt lat="42.21901" lon="22.43894">
        <ele>1004.435017</ele>
        <time>2022-04-09T11:28:11.224Z</time>
      </trkpt>
      <trkpt lat="42.21893" lon="22.43887">
        <ele>1003.49374</ele>
        <time>2022-04-09T11:28:12.196Z</time>
      </trkpt>
      <trkpt lat="42.21885" lon="22.43879">
        <ele>1002.544185</ele>
        <time>2022-04-09T11:28:13.177Z</time>
      </trkpt>
      <trkpt lat="42.21878" lon="22.43872">
        <ele>1001.590628</ele>
        <time>2022-04-09T11:28:14.232Z</time>
      </trkpt>
      <trkpt lat="42.21864" lon="22.43858">
        <ele>999.818181</ele>
        <time>2022-04-09T11:28:16.216Z</time>
      </trkpt>
      <trkpt lat="42.21851" lon="22.43845">
        <ele>998.153083</ele>
        <time>2022-04-09T11:28:18.191Z</time>
      </trkpt>
      <trkpt lat="42.21839" lon="22.4383">
        <ele>996.52725</ele>
        <time>2022-04-09T11:28:20.202Z</time>
      </trkpt>
      <trkpt lat="42.21829" lon="22.43814">
        <ele>994.95923</ele>
        <time>2022-04-09T11:28:22.198Z</time>
      </trkpt>
      <trkpt lat="42.21821" lon="22.43798">
        <ele>993.510334</ele>
        <time>2022-04-09T11:28:24.206Z</time>
      </trkpt>
      <trkpt lat="42.21815" lon="22.43781">
        <ele>992.079221</ele>
        <time>2022-04-09T11:28:26.192Z</time>
      </trkpt>
      <trkpt lat="42.21811" lon="22.43764">
        <ele>990.73013</ele>
        <time>2022-04-09T11:28:28.201Z</time>
      </trkpt>
      <trkpt lat="42.21809" lon="22.43748">
        <ele>989.463632</ele>
        <time>2022-04-09T11:28:30.186Z</time>
      </trkpt>
      <trkpt lat="42.21809" lon="22.43729">
        <ele>988.0684</ele>
        <time>2022-04-09T11:28:32.188Z</time>
      </trkpt>
      <trkpt lat="42.2181" lon="22.43709">
        <ele>986.657222</ele>
        <time>2022-04-09T11:28:34.200Z</time>
      </trkpt>
      <trkpt lat="42.21812" lon="22.43686">
        <ele>985.410991</ele>
        <time>2022-04-09T11:28:36.252Z</time>
      </trkpt>
      <trkpt lat="42.21815" lon="22.43674">
        <ele>984.735339</ele>
        <time>2022-04-09T11:28:37.198Z</time>
      </trkpt>
      <trkpt lat="42.21818" lon="22.43663">
        <ele>984.053902</ele>
        <time>2022-04-09T11:28:38.197Z</time>
      </trkpt>
      <trkpt lat="42.21822" lon="22.43651">
        <ele>983.361667</ele>
        <time>2022-04-09T11:28:39.189Z</time>
      </trkpt>
      <trkpt lat="42.21827" lon="22.4364">
        <ele>982.648988</ele>
        <time>2022-04-09T11:28:40.192Z</time>
      </trkpt>
      <trkpt lat="42.21832" lon="22.43628">
        <ele>981.929983</ele>
        <time>2022-04-09T11:28:41.187Z</time>
      </trkpt>
      <trkpt lat="42.21837" lon="22.43617">
        <ele>981.217169</ele>
        <time>2022-04-09T11:28:42.187Z</time>
      </trkpt>
      <trkpt lat="42.21842" lon="22.43607">
        <ele>980.531292</ele>
        <time>2022-04-09T11:28:43.184Z</time>
      </trkpt>
      <trkpt lat="42.21848" lon="22.43597">
        <ele>979.845877</ele>
        <time>2022-04-09T11:28:44.206Z</time>
      </trkpt>
      <trkpt lat="42.21853" lon="22.43586">
        <ele>979.169109</ele>
        <time>2022-04-09T11:28:45.205Z</time>
      </trkpt>
      <trkpt lat="42.21863" lon="22.43567">
        <ele>977.877367</ele>
        <time>2022-04-09T11:28:47.227Z</time>
      </trkpt>
      <trkpt lat="42.21871" lon="22.43547">
        <ele>976.621563</ele>
        <time>2022-04-09T11:28:49.194Z</time>
      </trkpt>
      <trkpt lat="42.21881" lon="22.43527">
        <ele>975.313838</ele>
        <time>2022-04-09T11:28:51.196Z</time>
      </trkpt>
      <trkpt lat="42.2189" lon="22.43506">
        <ele>974.013034</ele>
        <time>2022-04-09T11:28:53.229Z</time>
      </trkpt>
      <trkpt lat="42.21899" lon="22.43486">
        <ele>972.799922</ele>
        <time>2022-04-09T11:28:55.193Z</time>
      </trkpt>
      <trkpt lat="42.21904" lon="22.43475">
        <ele>972.197541</ele>
        <time>2022-04-09T11:28:56.200Z</time>
      </trkpt>
      <trkpt lat="42.21909" lon="22.43465">
        <ele>971.600606</ele>
        <time>2022-04-09T11:28:57.180Z</time>
      </trkpt>
      <trkpt lat="42.21919" lon="22.43445">
        <ele>970.427256</ele>
        <time>2022-04-09T11:28:59.181Z</time>
      </trkpt>
      <trkpt lat="42.2193" lon="22.43426">
        <ele>969.223737</ele>
        <time>2022-04-09T11:29:01.197Z</time>
      </trkpt>
      <trkpt lat="42.21936" lon="22.43416">
        <ele>968.598948</ele>
        <time>2022-04-09T11:29:02.203Z</time>
      </trkpt>
      <trkpt lat="42.21948" lon="22.43399">
        <ele>967.44835</ele>
        <time>2022-04-09T11:29:04.229Z</time>
      </trkpt>
      <trkpt lat="42.21955" lon="22.43391">
        <ele>966.833976</ele>
        <time>2022-04-09T11:29:05.183Z</time>
      </trkpt>
      <trkpt lat="42.21962" lon="22.43383">
        <ele>966.209904</ele>
        <time>2022-04-09T11:29:06.179Z</time>
      </trkpt>
      <trkpt lat="42.2197" lon="22.43377">
        <ele>965.588373</ele>
        <time>2022-04-09T11:29:07.195Z</time>
      </trkpt>
      <trkpt lat="42.21979" lon="22.43371">
        <ele>964.977569</ele>
        <time>2022-04-09T11:29:08.196Z</time>
      </trkpt>
      <trkpt lat="42.21987" lon="22.43367">
        <ele>964.363364</ele>
        <time>2022-04-09T11:29:09.207Z</time>
      </trkpt>
      <trkpt lat="42.21996" lon="22.43363">
        <ele>963.764971</ele>
        <time>2022-04-09T11:29:10.235Z</time>
      </trkpt>
      <trkpt lat="42.22005" lon="22.4336">
        <ele>963.160775</ele>
        <time>2022-04-09T11:29:11.200Z</time>
      </trkpt>
      <trkpt lat="42.22014" lon="22.43358">
        <ele>962.545116</ele>
        <time>2022-04-09T11:29:12.205Z</time>
      </trkpt>
      <trkpt lat="42.22031" lon="22.43354">
        <ele>961.308788</ele>
        <time>2022-04-09T11:29:14.187Z</time>
      </trkpt>
      <trkpt lat="42.22046" lon="22.43351">
        <ele>960.074242</ele>
        <time>2022-04-09T11:29:16.190Z</time>
      </trkpt>
      <trkpt lat="42.22059" lon="22.43348">
        <ele>959.016476</ele>
        <time>2022-04-09T11:29:18.184Z</time>
      </trkpt>
      <trkpt lat="42.2207" lon="22.43346">
        <ele>958.154518</ele>
        <time>2022-04-09T11:29:20.192Z</time>
      </trkpt>
      <trkpt lat="42.22081" lon="22.43342">
        <ele>957.216104</ele>
        <time>2022-04-09T11:29:22.198Z</time>
      </trkpt>
      <trkpt lat="42.22093" lon="22.43335">
        <ele>956.208796</ele>
        <time>2022-04-09T11:29:24.201Z</time>
      </trkpt>
      <trkpt lat="42.22103" lon="22.43326">
        <ele>955.26601</ele>
        <time>2022-04-09T11:29:26.181Z</time>
      </trkpt>
      <trkpt lat="42.22111" lon="22.43316">
        <ele>954.378183</ele>
        <time>2022-04-09T11:29:28.188Z</time>
      </trkpt>
      <trkpt lat="42.22116" lon="22.43306">
        <ele>953.641539</ele>
        <time>2022-04-09T11:29:30.198Z</time>
      </trkpt>
      <trkpt lat="42.2212" lon="22.43294">
        <ele>952.88872</ele>
        <time>2022-04-09T11:29:32.199Z</time>
      </trkpt>
      <trkpt lat="42.22122" lon="22.43279">
        <ele>951.966139</ele>
        <time>2022-04-09T11:29:34.188Z</time>
      </trkpt>
      <trkpt lat="42.2212" lon="22.4326">
        <ele>950.878127</ele>
        <time>2022-04-09T11:29:36.208Z</time>
      </trkpt>
      <trkpt lat="42.22118" lon="22.43242">
        <ele>949.779664</ele>
        <time>2022-04-09T11:29:38.193Z</time>
      </trkpt>
      <trkpt lat="42.22113" lon="22.43225">
        <ele>948.718094</ele>
        <time>2022-04-09T11:29:40.207Z</time>
      </trkpt>
      <trkpt lat="42.22108" lon="22.43207">
        <ele>947.590249</ele>
        <time>2022-04-09T11:29:42.205Z</time>
      </trkpt>
      <trkpt lat="42.22103" lon="22.4319">
        <ele>946.595458</ele>
        <time>2022-04-09T11:29:44.178Z</time>
      </trkpt>
      <trkpt lat="42.22096" lon="22.43172">
        <ele>945.533182</ele>
        <time>2022-04-09T11:29:46.174Z</time>
      </trkpt>
      <trkpt lat="42.2209" lon="22.43152">
        <ele>944.36528</ele>
        <time>2022-04-09T11:29:48.191Z</time>
      </trkpt>
      <trkpt lat="42.22082" lon="22.43132">
        <ele>943.205567</ele>
        <time>2022-04-09T11:29:50.204Z</time>
      </trkpt>
      <trkpt lat="42.22076" lon="22.43113">
        <ele>942.075491</ele>
        <time>2022-04-09T11:29:52.189Z</time>
      </trkpt>
      <trkpt lat="42.2207" lon="22.43094">
        <ele>940.999552</ele>
        <time>2022-04-09T11:29:54.206Z</time>
      </trkpt>
      <trkpt lat="42.22065" lon="22.43075">
        <ele>939.895063</ele>
        <time>2022-04-09T11:29:56.219Z</time>
      </trkpt>
      <trkpt lat="42.22062" lon="22.43054">
        <ele>938.766837</ele>
        <time>2022-04-09T11:29:58.196Z</time>
      </trkpt>
      <trkpt lat="42.22061" lon="22.4303">
        <ele>937.501229</ele>
        <time>2022-04-09T11:30:00.196Z</time>
      </trkpt>
      <trkpt lat="42.22062" lon="22.43017">
        <ele>936.853509</ele>
        <time>2022-04-09T11:30:01.198Z</time>
      </trkpt>
      <trkpt lat="42.22063" lon="22.43005">
        <ele>936.206312</ele>
        <time>2022-04-09T11:30:02.195Z</time>
      </trkpt>
      <trkpt lat="42.22069" lon="22.42983">
        <ele>934.955384</ele>
        <time>2022-04-09T11:30:04.181Z</time>
      </trkpt>
      <trkpt lat="42.22076" lon="22.42962">
        <ele>933.566684</ele>
        <time>2022-04-09T11:30:06.229Z</time>
      </trkpt>
      <trkpt lat="42.22083" lon="22.42943">
        <ele>932.238968</ele>
        <time>2022-04-09T11:30:08.193Z</time>
      </trkpt>
      <trkpt lat="42.22092" lon="22.42923">
        <ele>930.86591</ele>
        <time>2022-04-09T11:30:10.217Z</time>
      </trkpt>
      <trkpt lat="42.221" lon="22.42903">
        <ele>929.433199</ele>
        <time>2022-04-09T11:30:12.225Z</time>
      </trkpt>
      <trkpt lat="42.22109" lon="22.42883">
        <ele>927.969478</ele>
        <time>2022-04-09T11:30:14.210Z</time>
      </trkpt>
      <trkpt lat="42.22118" lon="22.42863">
        <ele>926.503764</ele>
        <time>2022-04-09T11:30:16.195Z</time>
      </trkpt>
      <trkpt lat="42.22126" lon="22.42844">
        <ele>925.144497</ele>
        <time>2022-04-09T11:30:18.204Z</time>
      </trkpt>
      <trkpt lat="42.22135" lon="22.42826">
        <ele>923.817479</ele>
        <time>2022-04-09T11:30:20.215Z</time>
      </trkpt>
      <trkpt lat="42.22144" lon="22.42806">
        <ele>922.407176</ele>
        <time>2022-04-09T11:30:22.190Z</time>
      </trkpt>
      <trkpt lat="42.22153" lon="22.42786">
        <ele>920.951075</ele>
        <time>2022-04-09T11:30:24.188Z</time>
      </trkpt>
      <trkpt lat="42.22157" lon="22.42776">
        <ele>920.189973</ele>
        <time>2022-04-09T11:30:25.198Z</time>
      </trkpt>
      <trkpt lat="42.22162" lon="22.42765">
        <ele>919.420714</ele>
        <time>2022-04-09T11:30:26.188Z</time>
      </trkpt>
      <trkpt lat="42.22167" lon="22.42754">
        <ele>918.708247</ele>
        <time>2022-04-09T11:30:27.201Z</time>
      </trkpt>
      <trkpt lat="42.22173" lon="22.42744">
        <ele>918.010277</ele>
        <time>2022-04-09T11:30:28.199Z</time>
      </trkpt>
      <trkpt lat="42.22178" lon="22.42734">
        <ele>917.325787</ele>
        <time>2022-04-09T11:30:29.236Z</time>
      </trkpt>
      <trkpt lat="42.22185" lon="22.42724">
        <ele>916.608191</ele>
        <time>2022-04-09T11:30:30.199Z</time>
      </trkpt>
      <trkpt lat="42.22192" lon="22.42716">
        <ele>915.883988</ele>
        <time>2022-04-09T11:30:31.176Z</time>
      </trkpt>
      <trkpt lat="42.22201" lon="22.42709">
        <ele>915.162774</ele>
        <time>2022-04-09T11:30:32.200Z</time>
      </trkpt>
      <trkpt lat="42.22209" lon="22.42703">
        <ele>914.453994</ele>
        <time>2022-04-09T11:30:33.184Z</time>
      </trkpt>
      <trkpt lat="42.22218" lon="22.42699">
        <ele>913.732116</ele>
        <time>2022-04-09T11:30:34.172Z</time>
      </trkpt>
      <trkpt lat="42.22228" lon="22.42696">
        <ele>912.983674</ele>
        <time>2022-04-09T11:30:35.192Z</time>
      </trkpt>
      <trkpt lat="42.22238" lon="22.42693">
        <ele>912.236694</ele>
        <time>2022-04-09T11:30:36.220Z</time>
      </trkpt>
      <trkpt lat="42.22247" lon="22.42691">
        <ele>911.535035</ele>
        <time>2022-04-09T11:30:37.193Z</time>
      </trkpt>
      <trkpt lat="42.22256" lon="22.4269">
        <ele>910.853165</ele>
        <time>2022-04-09T11:30:38.208Z</time>
      </trkpt>
      <trkpt lat="42.22273" lon="22.4269">
        <ele>909.62057</ele>
        <time>2022-04-09T11:30:40.200Z</time>
      </trkpt>
      <trkpt lat="42.22289" lon="22.4269">
        <ele>908.418044</ele>
        <time>2022-04-09T11:30:42.172Z</time>
      </trkpt>
      <trkpt lat="42.22305" lon="22.42691">
        <ele>907.16934</ele>
        <time>2022-04-09T11:30:44.180Z</time>
      </trkpt>
      <trkpt lat="42.22322" lon="22.42691">
        <ele>905.94674</ele>
        <time>2022-04-09T11:30:46.224Z</time>
      </trkpt>
      <trkpt lat="42.22338" lon="22.42687">
        <ele>904.752886</ele>
        <time>2022-04-09T11:30:48.197Z</time>
      </trkpt>
      <trkpt lat="42.22351" lon="22.42679">
        <ele>903.639059</ele>
        <time>2022-04-09T11:30:50.190Z</time>
      </trkpt>
      <trkpt lat="42.22363" lon="22.42666">
        <ele>902.550344</ele>
        <time>2022-04-09T11:30:52.223Z</time>
      </trkpt>
      <trkpt lat="42.22372" lon="22.42651">
        <ele>901.468775</ele>
        <time>2022-04-09T11:30:54.194Z</time>
      </trkpt>
      <trkpt lat="42.22377" lon="22.42632">
        <ele>900.40166</ele>
        <time>2022-04-09T11:30:56.185Z</time>
      </trkpt>
      <trkpt lat="42.22377" lon="22.4261">
        <ele>899.170545</ele>
        <time>2022-04-09T11:30:58.224Z</time>
      </trkpt>
      <trkpt lat="42.22373" lon="22.42587">
        <ele>897.876263</ele>
        <time>2022-04-09T11:31:00.201Z</time>
      </trkpt>
      <trkpt lat="42.22369" lon="22.42576">
        <ele>897.205439</ele>
        <time>2022-04-09T11:31:01.176Z</time>
      </trkpt>
      <trkpt lat="42.22363" lon="22.42566">
        <ele>896.532772</ele>
        <time>2022-04-09T11:31:02.254Z</time>
      </trkpt>
      <trkpt lat="42.22357" lon="22.42558">
        <ele>895.861891</ele>
        <time>2022-04-09T11:31:03.197Z</time>
      </trkpt>
      <trkpt lat="42.2235" lon="22.4255">
        <ele>895.197112</ele>
        <time>2022-04-09T11:31:04.176Z</time>
      </trkpt>
      <trkpt lat="42.22336" lon="22.42536">
        <ele>893.956597</ele>
        <time>2022-04-09T11:31:06.231Z</time>
      </trkpt>
      <trkpt lat="42.22323" lon="22.42525">
        <ele>892.755012</ele>
        <time>2022-04-09T11:31:08.196Z</time>
      </trkpt>
      <trkpt lat="42.2231" lon="22.42514">
        <ele>891.428991</ele>
        <time>2022-04-09T11:31:10.204Z</time>
      </trkpt>
      <trkpt lat="42.22299" lon="22.42503">
        <ele>890.172523</ele>
        <time>2022-04-09T11:31:12.188Z</time>
      </trkpt>
      <trkpt lat="42.22289" lon="22.4249">
        <ele>888.983295</ele>
        <time>2022-04-09T11:31:14.197Z</time>
      </trkpt>
      <trkpt lat="42.22282" lon="22.42476">
        <ele>887.828226</ele>
        <time>2022-04-09T11:31:16.199Z</time>
      </trkpt>
      <trkpt lat="42.22275" lon="22.42462">
        <ele>886.768997</ele>
        <time>2022-04-09T11:31:18.195Z</time>
      </trkpt>
      <trkpt lat="42.22269" lon="22.42446">
        <ele>885.586221</ele>
        <time>2022-04-09T11:31:20.228Z</time>
      </trkpt>
      <trkpt lat="42.22265" lon="22.42427">
        <ele>884.293821</ele>
        <time>2022-04-09T11:31:22.196Z</time>
      </trkpt>
      <trkpt lat="42.22264" lon="22.42407">
        <ele>882.979258</ele>
        <time>2022-04-09T11:31:24.200Z</time>
      </trkpt>
      <trkpt lat="42.22264" lon="22.42386">
        <ele>881.620857</ele>
        <time>2022-04-09T11:31:26.202Z</time>
      </trkpt>
      <trkpt lat="42.22265" lon="22.42366">
        <ele>880.299775</ele>
        <time>2022-04-09T11:31:28.196Z</time>
      </trkpt>
      <trkpt lat="42.22268" lon="22.42349">
        <ele>879.154209</ele>
        <time>2022-04-09T11:31:30.189Z</time>
      </trkpt>
      <trkpt lat="42.22273" lon="22.42335">
        <ele>878.09095</ele>
        <time>2022-04-09T11:31:32.190Z</time>
      </trkpt>
      <trkpt lat="42.22284" lon="22.42323">
        <ele>876.901401</ele>
        <time>2022-04-09T11:31:34.194Z</time>
      </trkpt>
      <trkpt lat="42.22296" lon="22.42314">
        <ele>876.052013</ele>
        <time>2022-04-09T11:31:36.238Z</time>
      </trkpt>
      <trkpt lat="42.22306" lon="22.42302">
        <ele>875.246101</ele>
        <time>2022-04-09T11:31:38.187Z</time>
      </trkpt>
      <trkpt lat="42.22313" lon="22.42286">
        <ele>874.437067</ele>
        <time>2022-04-09T11:31:40.189Z</time>
      </trkpt>
      <trkpt lat="42.22315" lon="22.42268">
        <ele>873.668786</ele>
        <time>2022-04-09T11:31:42.193Z</time>
      </trkpt>
      <trkpt lat="42.22316" lon="22.42251">
        <ele>872.907072</ele>
        <time>2022-04-09T11:31:44.194Z</time>
      </trkpt>
      <trkpt lat="42.22319" lon="22.42234">
        <ele>872.126056</ele>
        <time>2022-04-09T11:31:46.200Z</time>
      </trkpt>
      <trkpt lat="42.22322" lon="22.42221">
        <ele>871.505026</ele>
        <time>2022-04-09T11:31:48.204Z</time>
      </trkpt>
      <trkpt lat="42.22328" lon="22.42209">
        <ele>870.867879</ele>
        <time>2022-04-09T11:31:51.179Z</time>
      </trkpt>
      <trkpt lat="42.22337" lon="22.42199">
        <ele>870.165786</ele>
        <time>2022-04-09T11:31:54.197Z</time>
      </trkpt>
      <trkpt lat="42.22343" lon="22.42189">
        <ele>869.610572</ele>
        <time>2022-04-09T11:31:56.215Z</time>
      </trkpt>
      <trkpt lat="42.22349" lon="22.42177">
        <ele>868.96291</ele>
        <time>2022-04-09T11:31:58.194Z</time>
      </trkpt>
      <trkpt lat="42.22356" lon="22.42164">
        <ele>868.240589</ele>
        <time>2022-04-09T11:32:00.183Z</time>
      </trkpt>
      <trkpt lat="42.22363" lon="22.4215">
        <ele>867.538335</ele>
        <time>2022-04-09T11:32:02.183Z</time>
      </trkpt>
      <trkpt lat="42.22369" lon="22.42137">
        <ele>866.846763</ele>
        <time>2022-04-09T11:32:04.195Z</time>
      </trkpt>
      <trkpt lat="42.22376" lon="22.42123">
        <ele>866.134467</ele>
        <time>2022-04-09T11:32:06.200Z</time>
      </trkpt>
      <trkpt lat="42.22382" lon="22.42109">
        <ele>865.63158</ele>
        <time>2022-04-09T11:32:08.188Z</time>
      </trkpt>
      <trkpt lat="42.22388" lon="22.42094">
        <ele>865.11193</ele>
        <time>2022-04-09T11:32:10.207Z</time>
      </trkpt>
      <trkpt lat="42.22394" lon="22.42079">
        <ele>864.592865</ele>
        <time>2022-04-09T11:32:12.179Z</time>
      </trkpt>
      <trkpt lat="42.224" lon="22.42063">
        <ele>864.07555</ele>
        <time>2022-04-09T11:32:14.202Z</time>
      </trkpt>
      <trkpt lat="42.22406" lon="22.42047">
        <ele>863.539269</ele>
        <time>2022-04-09T11:32:16.203Z</time>
      </trkpt>
      <trkpt lat="42.22412" lon="22.42031">
        <ele>862.995922</ele>
        <time>2022-04-09T11:32:18.189Z</time>
      </trkpt>
      <trkpt lat="42.22417" lon="22.42016">
        <ele>862.478289</ele>
        <time>2022-04-09T11:32:20.189Z</time>
      </trkpt>
      <trkpt lat="42.22422" lon="22.42">
        <ele>861.973606</ele>
        <time>2022-04-09T11:32:22.203Z</time>
      </trkpt>
      <trkpt lat="42.22427" lon="22.41986">
        <ele>861.502733</ele>
        <time>2022-04-09T11:32:24.184Z</time>
      </trkpt>
      <trkpt lat="42.22432" lon="22.41972">
        <ele>861.032327</ele>
        <time>2022-04-09T11:32:26.177Z</time>
      </trkpt>
      <trkpt lat="42.22436" lon="22.41958">
        <ele>860.584007</ele>
        <time>2022-04-09T11:32:28.191Z</time>
      </trkpt>
      <trkpt lat="42.2244" lon="22.41946">
        <ele>860.184438</ele>
        <time>2022-04-09T11:32:30.191Z</time>
      </trkpt>
      <trkpt lat="42.22443" lon="22.41934">
        <ele>859.808669</ele>
        <time>2022-04-09T11:32:32.241Z</time>
      </trkpt>
      <trkpt lat="42.22447" lon="22.41923">
        <ele>859.428536</ele>
        <time>2022-04-09T11:32:34.210Z</time>
      </trkpt>
      <trkpt lat="42.22451" lon="22.41911">
        <ele>859.044023</ele>
        <time>2022-04-09T11:32:36.196Z</time>
      </trkpt>
      <trkpt lat="42.22455" lon="22.41899">
        <ele>858.769076</ele>
        <time>2022-04-09T11:32:38.187Z</time>
      </trkpt>
      <trkpt lat="42.22458" lon="22.41887">
        <ele>858.601253</ele>
        <time>2022-04-09T11:32:40.198Z</time>
      </trkpt>
      <trkpt lat="42.2246" lon="22.41875">
        <ele>858.43974</ele>
        <time>2022-04-09T11:32:42.193Z</time>
      </trkpt>
      <trkpt lat="42.22464" lon="22.41859">
        <ele>858.213453</ele>
        <time>2022-04-09T11:32:45.190Z</time>
      </trkpt>
      <trkpt lat="42.22468" lon="22.41843">
        <ele>857.989715</ele>
        <time>2022-04-09T11:32:48.194Z</time>
      </trkpt>
      <trkpt lat="42.2247" lon="22.41827">
        <ele>857.775496</ele>
        <time>2022-04-09T11:32:51.204Z</time>
      </trkpt>
      <trkpt lat="42.2247" lon="22.4181">
        <ele>857.547828</ele>
        <time>2022-04-09T11:32:54.222Z</time>
      </trkpt>
      <trkpt lat="42.22472" lon="22.41793">
        <ele>857.316495</ele>
        <time>2022-04-09T11:32:57.188Z</time>
      </trkpt>
      <trkpt lat="42.22471" lon="22.41775">
        <ele>857.082243</ele>
        <time>2022-04-09T11:33:00.206Z</time>
      </trkpt>
      <trkpt lat="42.22472" lon="22.41758">
        <ele>856.857298</ele>
        <time>2022-04-09T11:33:03.182Z</time>
      </trkpt>
      <trkpt lat="42.22472" lon="22.41741">
        <ele>856.624479</ele>
        <time>2022-04-09T11:33:06.185Z</time>
      </trkpt>
      <trkpt lat="42.22472" lon="22.41729">
        <ele>856.463256</ele>
        <time>2022-04-09T11:33:08.201Z</time>
      </trkpt>
      <trkpt lat="42.22472" lon="22.41716">
        <ele>856.298292</ele>
        <time>2022-04-09T11:33:10.208Z</time>
      </trkpt>
      <trkpt lat="42.22472" lon="22.41703">
        <ele>856.122686</ele>
        <time>2022-04-09T11:33:12.191Z</time>
      </trkpt>
      <trkpt lat="42.22472" lon="22.41689">
        <ele>855.941722</ele>
        <time>2022-04-09T11:33:14.189Z</time>
      </trkpt>
      <trkpt lat="42.22473" lon="22.41676">
        <ele>855.767362</ele>
        <time>2022-04-09T11:33:16.181Z</time>
      </trkpt>
      <trkpt lat="42.22472" lon="22.41663">
        <ele>855.652985</ele>
        <time>2022-04-09T11:33:18.222Z</time>
      </trkpt>
      <trkpt lat="42.22473" lon="22.41649">
        <ele>855.711206</ele>
        <time>2022-04-09T11:33:20.204Z</time>
      </trkpt>
      <trkpt lat="42.22473" lon="22.41636">
        <ele>855.768179</ele>
        <time>2022-04-09T11:33:22.187Z</time>
      </trkpt>
      <trkpt lat="42.22473" lon="22.41623">
        <ele>855.823896</ele>
        <time>2022-04-09T11:33:24.188Z</time>
      </trkpt>
      <trkpt lat="42.22475" lon="22.41609">
        <ele>855.883368</ele>
        <time>2022-04-09T11:33:26.184Z</time>
      </trkpt>
      <trkpt lat="42.22476" lon="22.41596">
        <ele>855.942716</ele>
        <time>2022-04-09T11:33:28.205Z</time>
      </trkpt>
      <trkpt lat="42.22477" lon="22.41582">
        <ele>856.001272</ele>
        <time>2022-04-09T11:33:30.196Z</time>
      </trkpt>
      <trkpt lat="42.22478" lon="22.41569">
        <ele>856.058126</ele>
        <time>2022-04-09T11:33:32.207Z</time>
      </trkpt>
      <trkpt lat="42.22478" lon="22.41556">
        <ele>856.114636</ele>
        <time>2022-04-09T11:33:34.184Z</time>
      </trkpt>
      <trkpt lat="42.22478" lon="22.41542">
        <ele>856.171992</ele>
        <time>2022-04-09T11:33:36.190Z</time>
      </trkpt>
      <trkpt lat="42.22478" lon="22.4153">
        <ele>856.225925</ele>
        <time>2022-04-09T11:33:38.221Z</time>
      </trkpt>
      <trkpt lat="42.2248" lon="22.41517">
        <ele>856.278435</ele>
        <time>2022-04-09T11:33:40.171Z</time>
      </trkpt>
      <trkpt lat="42.22482" lon="22.415">
        <ele>856.355583</ele>
        <time>2022-04-09T11:33:43.185Z</time>
      </trkpt>
      <trkpt lat="42.22484" lon="22.41484">
        <ele>856.424702</ele>
        <time>2022-04-09T11:33:46.197Z</time>
      </trkpt>
      <trkpt lat="42.22487" lon="22.4147">
        <ele>856.486671</ele>
        <time>2022-04-09T11:33:49.203Z</time>
      </trkpt>
      <trkpt lat="42.22492" lon="22.41458">
        <ele>856.545776</ele>
        <time>2022-04-09T11:33:52.191Z</time>
      </trkpt>
      <trkpt lat="42.22498" lon="22.41446">
        <ele>856.608104</ele>
        <time>2022-04-09T11:33:55.198Z</time>
      </trkpt>
      <trkpt lat="42.22502" lon="22.41433">
        <ele>856.666119</ele>
        <time>2022-04-09T11:33:58.201Z</time>
      </trkpt>
      <trkpt lat="42.22506" lon="22.41422">
        <ele>856.324419</ele>
        <time>2022-04-09T11:34:01.187Z</time>
      </trkpt>
      <trkpt lat="42.22511" lon="22.4141">
        <ele>855.850396</ele>
        <time>2022-04-09T11:34:04.203Z</time>
      </trkpt>
      <trkpt lat="42.22516" lon="22.41398">
        <ele>855.381607</ele>
        <time>2022-04-09T11:34:07.181Z</time>
      </trkpt>
      <trkpt lat="42.22521" lon="22.41386">
        <ele>854.935249</ele>
        <time>2022-04-09T11:34:10.178Z</time>
      </trkpt>
      <trkpt lat="42.22527" lon="22.41374">
        <ele>854.449553</ele>
        <time>2022-04-09T11:34:13.192Z</time>
      </trkpt>
      <trkpt lat="42.22534" lon="22.41362">
        <ele>853.924275</ele>
        <time>2022-04-09T11:34:16.196Z</time>
      </trkpt>
      <trkpt lat="42.22539" lon="22.4135">
        <ele>853.441492</ele>
        <time>2022-04-09T11:34:19.194Z</time>
      </trkpt>
      <trkpt lat="42.22545" lon="22.41338">
        <ele>852.954863</ele>
        <time>2022-04-09T11:34:22.187Z</time>
      </trkpt>
      <trkpt lat="42.22552" lon="22.41326">
        <ele>852.429541</ele>
        <time>2022-04-09T11:34:25.201Z</time>
      </trkpt>
      <trkpt lat="42.22558" lon="22.41313">
        <ele>851.904022</ele>
        <time>2022-04-09T11:34:28.202Z</time>
      </trkpt>
      <trkpt lat="42.22565" lon="22.41301">
        <ele>851.378746</ele>
        <time>2022-04-09T11:34:31.203Z</time>
      </trkpt>
      <trkpt lat="42.2257" lon="22.41289">
        <ele>850.903697</ele>
        <time>2022-04-09T11:34:34.188Z</time>
      </trkpt>
      <trkpt lat="42.22576" lon="22.41278">
        <ele>850.441819</ele>
        <time>2022-04-09T11:34:37.188Z</time>
      </trkpt>
      <trkpt lat="42.22582" lon="22.41266">
        <ele>849.957948</ele>
        <time>2022-04-09T11:34:40.219Z</time>
      </trkpt>
      <trkpt lat="42.22588" lon="22.41254">
        <ele>849.456936</ele>
        <time>2022-04-09T11:34:43.197Z</time>
      </trkpt>
      <trkpt lat="42.22593" lon="22.41241">
        <ele>848.975246</ele>
        <time>2022-04-09T11:34:46.224Z</time>
      </trkpt>
      <trkpt lat="42.22596" lon="22.41229">
        <ele>848.510046</ele>
        <time>2022-04-09T11:34:49.177Z</time>
      </trkpt>
      <trkpt lat="42.226" lon="22.41214">
        <ele>848.314203</ele>
        <time>2022-04-09T11:34:52.174Z</time>
      </trkpt>
      <trkpt lat="42.22603" lon="22.41199">
        <ele>848.238038</ele>
        <time>2022-04-09T11:34:55.200Z</time>
      </trkpt>
      <trkpt lat="42.22606" lon="22.41183">
        <ele>848.158181</ele>
        <time>2022-04-09T11:34:58.182Z</time>
      </trkpt>
      <trkpt lat="42.22611" lon="22.41169">
        <ele>848.080179</ele>
        <time>2022-04-09T11:35:01.177Z</time>
      </trkpt>
      <trkpt lat="42.22614" lon="22.41152">
        <ele>847.997563</ele>
        <time>2022-04-09T11:35:04.184Z</time>
      </trkpt>
      <trkpt lat="42.22618" lon="22.41139">
        <ele>847.927254</ele>
        <time>2022-04-09T11:35:07.175Z</time>
      </trkpt>
      <trkpt lat="42.22623" lon="22.41125">
        <ele>847.852675</ele>
        <time>2022-04-09T11:35:10.183Z</time>
      </trkpt>
      <trkpt lat="42.22625" lon="22.41109">
        <ele>847.773018</ele>
        <time>2022-04-09T11:35:13.182Z</time>
      </trkpt>
      <trkpt lat="42.22621" lon="22.41092">
        <ele>847.689441</ele>
        <time>2022-04-09T11:35:16.176Z</time>
      </trkpt>
      <trkpt lat="42.22616" lon="22.41077">
        <ele>847.608119</ele>
        <time>2022-04-09T11:35:19.186Z</time>
      </trkpt>
      <trkpt lat="42.22609" lon="22.41061">
        <ele>847.519968</ele>
        <time>2022-04-09T11:35:22.186Z</time>
      </trkpt>
      <trkpt lat="42.22604" lon="22.4105">
        <ele>847.454786</ele>
        <time>2022-04-09T11:35:24.192Z</time>
      </trkpt>
      <trkpt lat="42.22599" lon="22.41036">
        <ele>847.381527</ele>
        <time>2022-04-09T11:35:26.202Z</time>
      </trkpt>
      <trkpt lat="42.22594" lon="22.41021">
        <ele>847.300205</ele>
        <time>2022-04-09T11:35:28.180Z</time>
      </trkpt>
      <trkpt lat="42.2259" lon="22.41005">
        <ele>847.21698</ele>
        <time>2022-04-09T11:35:30.202Z</time>
      </trkpt>
      <trkpt lat="42.22585" lon="22.40988">
        <ele>846.806148</ele>
        <time>2022-04-09T11:35:32.187Z</time>
      </trkpt>
      <trkpt lat="42.22581" lon="22.40972">
        <ele>846.268477</ele>
        <time>2022-04-09T11:35:34.225Z</time>
      </trkpt>
      <trkpt lat="42.22576" lon="22.40957">
        <ele>845.7419</ele>
        <time>2022-04-09T11:35:36.209Z</time>
      </trkpt>
      <trkpt lat="42.22572" lon="22.40943">
        <ele>845.26926</ele>
        <time>2022-04-09T11:35:38.171Z</time>
      </trkpt>
      <trkpt lat="42.22568" lon="22.4093">
        <ele>844.816228</ele>
        <time>2022-04-09T11:35:40.230Z</time>
      </trkpt>
      <trkpt lat="42.22564" lon="22.40916">
        <ele>844.354511</ele>
        <time>2022-04-09T11:35:42.204Z</time>
      </trkpt>
      <trkpt lat="42.2256" lon="22.40902">
        <ele>843.864494</ele>
        <time>2022-04-09T11:35:44.196Z</time>
      </trkpt>
      <trkpt lat="42.22556" lon="22.40886">
        <ele>843.345872</ele>
        <time>2022-04-09T11:35:46.183Z</time>
      </trkpt>
      <trkpt lat="42.22553" lon="22.40871">
        <ele>842.832385</ele>
        <time>2022-04-09T11:35:48.211Z</time>
      </trkpt>
      <trkpt lat="42.22551" lon="22.40857">
        <ele>842.389948</ele>
        <time>2022-04-09T11:35:50.204Z</time>
      </trkpt>
      <trkpt lat="42.2255" lon="22.40844">
        <ele>841.956237</ele>
        <time>2022-04-09T11:35:52.189Z</time>
      </trkpt>
      <trkpt lat="42.22549" lon="22.4083">
        <ele>841.533805</ele>
        <time>2022-04-09T11:35:54.193Z</time>
      </trkpt>
      <trkpt lat="42.22548" lon="22.40817">
        <ele>841.10822</ele>
        <time>2022-04-09T11:35:56.173Z</time>
      </trkpt>
      <trkpt lat="42.22546" lon="22.40803">
        <ele>840.64818</ele>
        <time>2022-04-09T11:35:58.181Z</time>
      </trkpt>
      <trkpt lat="42.22544" lon="22.40788">
        <ele>840.165505</ele>
        <time>2022-04-09T11:36:00.199Z</time>
      </trkpt>
      <trkpt lat="42.22543" lon="22.40773">
        <ele>839.705677</ele>
        <time>2022-04-09T11:36:02.199Z</time>
      </trkpt>
      <trkpt lat="42.22542" lon="22.40759">
        <ele>839.289577</ele>
        <time>2022-04-09T11:36:04.175Z</time>
      </trkpt>
      <trkpt lat="42.22541" lon="22.40744">
        <ele>838.948176</ele>
        <time>2022-04-09T11:36:06.206Z</time>
      </trkpt>
      <trkpt lat="42.22541" lon="22.40731">
        <ele>838.619408</ele>
        <time>2022-04-09T11:36:08.188Z</time>
      </trkpt>
      <trkpt lat="42.22541" lon="22.40717">
        <ele>838.29059</ele>
        <time>2022-04-09T11:36:10.177Z</time>
      </trkpt>
      <trkpt lat="42.22541" lon="22.40703">
        <ele>837.952027</ele>
        <time>2022-04-09T11:36:12.209Z</time>
      </trkpt>
      <trkpt lat="42.22541" lon="22.4069">
        <ele>837.642613</ele>
        <time>2022-04-09T11:36:14.228Z</time>
      </trkpt>
      <trkpt lat="42.22541" lon="22.40673">
        <ele>837.221801</ele>
        <time>2022-04-09T11:36:17.194Z</time>
      </trkpt>
      <trkpt lat="42.22542" lon="22.40656">
        <ele>836.81988</ele>
        <time>2022-04-09T11:36:20.180Z</time>
      </trkpt>
      <trkpt lat="42.22543" lon="22.40638">
        <ele>836.376925</ele>
        <time>2022-04-09T11:36:23.196Z</time>
      </trkpt>
      <trkpt lat="42.22543" lon="22.40625">
        <ele>836.069859</ele>
        <time>2022-04-09T11:36:25.217Z</time>
      </trkpt>
      <trkpt lat="42.22543" lon="22.40613">
        <ele>835.767539</ele>
        <time>2022-04-09T11:36:27.178Z</time>
      </trkpt>
      <trkpt lat="42.22542" lon="22.406">
        <ele>835.442291</ele>
        <time>2022-04-09T11:36:29.189Z</time>
      </trkpt>
      <trkpt lat="42.2254" lon="22.40584">
        <ele>835.072048</ele>
        <time>2022-04-09T11:36:31.175Z</time>
      </trkpt>
      <trkpt lat="42.22539" lon="22.40569">
        <ele>834.68499</ele>
        <time>2022-04-09T11:36:33.190Z</time>
      </trkpt>
      <trkpt lat="42.22538" lon="22.40553">
        <ele>834.312717</ele>
        <time>2022-04-09T11:36:35.193Z</time>
      </trkpt>
      <trkpt lat="42.22537" lon="22.40538">
        <ele>833.941432</ele>
        <time>2022-04-09T11:36:37.190Z</time>
      </trkpt>
      <trkpt lat="42.22536" lon="22.40523">
        <ele>833.591433</ele>
        <time>2022-04-09T11:36:39.193Z</time>
      </trkpt>
      <trkpt lat="42.22534" lon="22.40508">
        <ele>833.474841</ele>
        <time>2022-04-09T11:36:41.205Z</time>
      </trkpt>
      <trkpt lat="42.22532" lon="22.40495">
        <ele>833.371516</ele>
        <time>2022-04-09T11:36:43.200Z</time>
      </trkpt>
      <trkpt lat="42.22531" lon="22.40482">
        <ele>833.267367</ele>
        <time>2022-04-09T11:36:45.172Z</time>
      </trkpt>
      <trkpt lat="42.22531" lon="22.4047">
        <ele>833.168339</ele>
        <time>2022-04-09T11:36:47.228Z</time>
      </trkpt>
      <trkpt lat="42.2253" lon="22.40457">
        <ele>833.068751</ele>
        <time>2022-04-09T11:36:49.177Z</time>
      </trkpt>
      <trkpt lat="42.2253" lon="22.40444">
        <ele>832.96763</ele>
        <time>2022-04-09T11:36:51.195Z</time>
      </trkpt>
      <trkpt lat="42.22531" lon="22.40432">
        <ele>832.867888</ele>
        <time>2022-04-09T11:36:53.198Z</time>
      </trkpt>
      <trkpt lat="42.22532" lon="22.40418">
        <ele>832.759237</ele>
        <time>2022-04-09T11:36:55.181Z</time>
      </trkpt>
      <trkpt lat="42.22532" lon="22.40405">
        <ele>832.657981</ele>
        <time>2022-04-09T11:36:57.190Z</time>
      </trkpt>
      <trkpt lat="42.22533" lon="22.40393">
        <ele>832.559143</ele>
        <time>2022-04-09T11:36:59.191Z</time>
      </trkpt>
      <trkpt lat="42.22533" lon="22.40379">
        <ele>832.454071</ele>
        <time>2022-04-09T11:37:01.193Z</time>
      </trkpt>
      <trkpt lat="42.22532" lon="22.40364">
        <ele>832.330541</ele>
        <time>2022-04-09T11:37:03.216Z</time>
      </trkpt>
      <trkpt lat="42.22532" lon="22.40349">
        <ele>832.214372</ele>
        <time>2022-04-09T11:37:05.207Z</time>
      </trkpt>
      <trkpt lat="42.22531" lon="22.40334">
        <ele>832.096647</ele>
        <time>2022-04-09T11:37:07.291Z</time>
      </trkpt>
      <trkpt lat="42.22531" lon="22.4032">
        <ele>831.98518</ele>
        <time>2022-04-09T11:37:09.185Z</time>
      </trkpt>
      <trkpt lat="42.22531" lon="22.40307">
        <ele>831.883974</ele>
        <time>2022-04-09T11:37:11.200Z</time>
      </trkpt>
      <trkpt lat="42.22531" lon="22.40294">
        <ele>831.781273</ele>
        <time>2022-04-09T11:37:13.180Z</time>
      </trkpt>
      <trkpt lat="42.2253" lon="22.40281">
        <ele>831.682137</ele>
        <time>2022-04-09T11:37:15.191Z</time>
      </trkpt>
      <trkpt lat="42.2253" lon="22.40269">
        <ele>831.700046</ele>
        <time>2022-04-09T11:37:17.201Z</time>
      </trkpt>
      <trkpt lat="42.2253" lon="22.40254">
        <ele>831.723422</ele>
        <time>2022-04-09T11:37:20.192Z</time>
      </trkpt>
      <trkpt lat="42.22529" lon="22.40238">
        <ele>831.746849</ele>
        <time>2022-04-09T11:37:23.185Z</time>
      </trkpt>
      <trkpt lat="42.22527" lon="22.40222">
        <ele>831.770292</ele>
        <time>2022-04-09T11:37:26.208Z</time>
      </trkpt>
      <trkpt lat="42.22526" lon="22.40207">
        <ele>831.792829</ele>
        <time>2022-04-09T11:37:29.258Z</time>
      </trkpt>
      <trkpt lat="42.22523" lon="22.40193">
        <ele>831.814087</ele>
        <time>2022-04-09T11:37:32.178Z</time>
      </trkpt>
      <trkpt lat="42.2252" lon="22.4018">
        <ele>831.834276</ele>
        <time>2022-04-09T11:37:35.188Z</time>
      </trkpt>
      <trkpt lat="42.22518" lon="22.40168">
        <ele>831.853056</ele>
        <time>2022-04-09T11:37:38.204Z</time>
      </trkpt>
      <trkpt lat="42.22514" lon="22.40153">
        <ele>831.876507</ele>
        <time>2022-04-09T11:37:42.185Z</time>
      </trkpt>
      <trkpt lat="42.22511" lon="22.40138">
        <ele>831.899199</ele>
        <time>2022-04-09T11:37:46.179Z</time>
      </trkpt>
      <trkpt lat="42.22507" lon="22.40127">
        <ele>831.917396</ele>
        <time>2022-04-09T11:37:49.175Z</time>
      </trkpt>
      <trkpt lat="42.22503" lon="22.40115">
        <ele>831.936763</ele>
        <time>2022-04-09T11:37:53.227Z</time>
      </trkpt>
      <trkpt lat="42.22499" lon="22.40102">
        <ele>831.957724</ele>
        <time>2022-04-09T11:37:58.181Z</time>
      </trkpt>
      <trkpt lat="42.22489" lon="22.40073">
        <ele>832.005257</ele>
        <time>2022-04-09T11:38:27.186Z</time>
      </trkpt>
      <trkpt lat="42.22484" lon="22.40062">
        <ele>832.023881</ele>
        <time>2022-04-09T11:38:29.207Z</time>
      </trkpt>
      <trkpt lat="42.2248" lon="22.4005">
        <ele>832.002631</ele>
        <time>2022-04-09T11:38:31.224Z</time>
      </trkpt>
      <trkpt lat="42.22475" lon="22.40038">
        <ele>831.667855</ele>
        <time>2022-04-09T11:38:33.184Z</time>
      </trkpt>
      <trkpt lat="42.2247" lon="22.40025">
        <ele>831.334493</ele>
        <time>2022-04-09T11:38:35.181Z</time>
      </trkpt>
      <trkpt lat="42.22466" lon="22.40012">
        <ele>831.00945</ele>
        <time>2022-04-09T11:38:37.192Z</time>
      </trkpt>
      <trkpt lat="42.22462" lon="22.40001">
        <ele>830.697459</ele>
        <time>2022-04-09T11:38:39.177Z</time>
      </trkpt>
      <trkpt lat="42.22457" lon="22.39989">
        <ele>830.384068</ele>
        <time>2022-04-09T11:38:41.179Z</time>
      </trkpt>
      <trkpt lat="42.22453" lon="22.39978">
        <ele>830.076841</ele>
        <time>2022-04-09T11:38:43.219Z</time>
      </trkpt>
      <trkpt lat="42.22449" lon="22.39964">
        <ele>829.733501</ele>
        <time>2022-04-09T11:38:45.203Z</time>
      </trkpt>
      <trkpt lat="42.22443" lon="22.39949">
        <ele>829.334107</ele>
        <time>2022-04-09T11:38:47.209Z</time>
      </trkpt>
      <trkpt lat="42.22438" lon="22.39934">
        <ele>828.937562</ele>
        <time>2022-04-09T11:38:49.219Z</time>
      </trkpt>
      <trkpt lat="42.22432" lon="22.3992">
        <ele>828.563728</ele>
        <time>2022-04-09T11:38:51.203Z</time>
      </trkpt>
      <trkpt lat="42.22426" lon="22.39906">
        <ele>828.169297</ele>
        <time>2022-04-09T11:38:53.193Z</time>
      </trkpt>
      <trkpt lat="42.2242" lon="22.39892">
        <ele>827.781828</ele>
        <time>2022-04-09T11:38:55.245Z</time>
      </trkpt>
      <trkpt lat="42.22414" lon="22.39878">
        <ele>827.406626</ele>
        <time>2022-04-09T11:38:57.183Z</time>
      </trkpt>
      <trkpt lat="42.22407" lon="22.39865">
        <ele>827.020235</ele>
        <time>2022-04-09T11:38:59.179Z</time>
      </trkpt>
      <trkpt lat="42.224" lon="22.39853">
        <ele>826.639572</ele>
        <time>2022-04-09T11:39:01.181Z</time>
      </trkpt>
      <trkpt lat="42.22391" lon="22.3984">
        <ele>826.212162</ele>
        <time>2022-04-09T11:39:03.194Z</time>
      </trkpt>
      <trkpt lat="42.22383" lon="22.39827">
        <ele>825.45839</ele>
        <time>2022-04-09T11:39:05.191Z</time>
      </trkpt>
      <trkpt lat="42.22376" lon="22.3981">
        <ele>824.634935</ele>
        <time>2022-04-09T11:39:07.203Z</time>
      </trkpt>
      <trkpt lat="42.2237" lon="22.39793">
        <ele>823.823748</ele>
        <time>2022-04-09T11:39:09.198Z</time>
      </trkpt>
      <trkpt lat="42.22367" lon="22.39775">
        <ele>823.032965</ele>
        <time>2022-04-09T11:39:11.198Z</time>
      </trkpt>
      <trkpt lat="42.22366" lon="22.39758">
        <ele>822.285864</ele>
        <time>2022-04-09T11:39:13.191Z</time>
      </trkpt>
      <trkpt lat="42.22365" lon="22.3974">
        <ele>821.531987</ele>
        <time>2022-04-09T11:39:15.204Z</time>
      </trkpt>
      <trkpt lat="42.22365" lon="22.39723">
        <ele>820.78328</ele>
        <time>2022-04-09T11:39:17.238Z</time>
      </trkpt>
      <trkpt lat="42.22366" lon="22.39706">
        <ele>820.038869</ele>
        <time>2022-04-09T11:39:19.181Z</time>
      </trkpt>
      <trkpt lat="42.22366" lon="22.39689">
        <ele>819.329208</ele>
        <time>2022-04-09T11:39:21.267Z</time>
      </trkpt>
      <trkpt lat="42.22366" lon="22.39673">
        <ele>818.624037</ele>
        <time>2022-04-09T11:39:23.221Z</time>
      </trkpt>
      <trkpt lat="42.22366" lon="22.39656">
        <ele>817.90148</ele>
        <time>2022-04-09T11:39:25.189Z</time>
      </trkpt>
      <trkpt lat="42.22365" lon="22.39639">
        <ele>817.189164</ele>
        <time>2022-04-09T11:39:27.220Z</time>
      </trkpt>
      <trkpt lat="42.22362" lon="22.39623">
        <ele>816.465077</ele>
        <time>2022-04-09T11:39:29.236Z</time>
      </trkpt>
      <trkpt lat="42.22359" lon="22.39606">
        <ele>815.839627</ele>
        <time>2022-04-09T11:39:31.212Z</time>
      </trkpt>
      <trkpt lat="42.22355" lon="22.39592">
        <ele>815.968655</ele>
        <time>2022-04-09T11:39:33.206Z</time>
      </trkpt>
      <trkpt lat="42.22351" lon="22.3958">
        <ele>816.078153</ele>
        <time>2022-04-09T11:39:35.227Z</time>
      </trkpt>
      <trkpt lat="42.22345" lon="22.39563">
        <ele>816.230855</ele>
        <time>2022-04-09T11:39:38.191Z</time>
      </trkpt>
      <trkpt lat="42.22342" lon="22.39551">
        <ele>816.333178</ele>
        <time>2022-04-09T11:39:40.199Z</time>
      </trkpt>
      <trkpt lat="42.2234" lon="22.39539">
        <ele>816.436135</ele>
        <time>2022-04-09T11:39:42.200Z</time>
      </trkpt>
      <trkpt lat="42.22337" lon="22.39527">
        <ele>816.540445</ele>
        <time>2022-04-09T11:39:44.204Z</time>
      </trkpt>
      <trkpt lat="42.22335" lon="22.39515">
        <ele>816.645313</ele>
        <time>2022-04-09T11:39:46.195Z</time>
      </trkpt>
      <trkpt lat="42.22334" lon="22.39498">
        <ele>816.786234</ele>
        <time>2022-04-09T11:39:49.210Z</time>
      </trkpt>
      <trkpt lat="42.22335" lon="22.39482">
        <ele>816.920398</ele>
        <time>2022-04-09T11:39:52.187Z</time>
      </trkpt>
      <trkpt lat="42.22338" lon="22.39466">
        <ele>817.05206</ele>
        <time>2022-04-09T11:39:55.187Z</time>
      </trkpt>
      <trkpt lat="42.22342" lon="22.39451">
        <ele>817.184974</ele>
        <time>2022-04-09T11:39:58.198Z</time>
      </trkpt>
      <trkpt lat="42.22347" lon="22.39437">
        <ele>817.315928</ele>
        <time>2022-04-09T11:40:01.192Z</time>
      </trkpt>
      <trkpt lat="42.22353" lon="22.39424">
        <ele>817.444137</ele>
        <time>2022-04-09T11:40:04.210Z</time>
      </trkpt>
      <trkpt lat="42.22359" lon="22.39413">
        <ele>817.555268</ele>
        <time>2022-04-09T11:40:07.197Z</time>
      </trkpt>
      <trkpt lat="42.22365" lon="22.39399">
        <ele>817.683141</ele>
        <time>2022-04-09T11:40:10.187Z</time>
      </trkpt>
      <trkpt lat="42.22371" lon="22.39385">
        <ele>817.821919</ele>
        <time>2022-04-09T11:40:13.208Z</time>
      </trkpt>
      <trkpt lat="42.22379" lon="22.39371">
        <ele>817.872292</ele>
        <time>2022-04-09T11:40:16.191Z</time>
      </trkpt>
      <trkpt lat="42.22386" lon="22.39359">
        <ele>817.915072</ele>
        <time>2022-04-09T11:40:19.199Z</time>
      </trkpt>
      <trkpt lat="42.22395" lon="22.39346">
        <ele>817.959987</ele>
        <time>2022-04-09T11:40:22.211Z</time>
      </trkpt>
      <trkpt lat="42.22404" lon="22.39335">
        <ele>818.004462</ele>
        <time>2022-04-09T11:40:25.184Z</time>
      </trkpt>
      <trkpt lat="42.22413" lon="22.39324">
        <ele>818.047345</ele>
        <time>2022-04-09T11:40:28.193Z</time>
      </trkpt>
      <trkpt lat="42.22421" lon="22.39313">
        <ele>818.089495</ele>
        <time>2022-04-09T11:40:31.217Z</time>
      </trkpt>
      <trkpt lat="42.22428" lon="22.393">
        <ele>818.131697</ele>
        <time>2022-04-09T11:40:34.191Z</time>
      </trkpt>
      <trkpt lat="42.22433" lon="22.39286">
        <ele>818.171671</ele>
        <time>2022-04-09T11:40:37.223Z</time>
      </trkpt>
      <trkpt lat="42.22437" lon="22.3927">
        <ele>818.216378</ele>
        <time>2022-04-09T11:40:40.200Z</time>
      </trkpt>
      <trkpt lat="42.2244" lon="22.39259">
        <ele>818.248788</ele>
        <time>2022-04-09T11:40:42.195Z</time>
      </trkpt>
      <trkpt lat="42.22444" lon="22.39242">
        <ele>818.295885</ele>
        <time>2022-04-09T11:40:45.199Z</time>
      </trkpt>
      <trkpt lat="42.22447" lon="22.39225">
        <ele>818.342006</ele>
        <time>2022-04-09T11:40:48.202Z</time>
      </trkpt>
      <trkpt lat="42.22451" lon="22.39209">
        <ele>818.38833</ele>
        <time>2022-04-09T11:40:51.203Z</time>
      </trkpt>
      <trkpt lat="42.22455" lon="22.39191">
        <ele>818.435665</ele>
        <time>2022-04-09T11:40:54.186Z</time>
      </trkpt>
      <trkpt lat="42.22457" lon="22.39179">
        <ele>818.469351</ele>
        <time>2022-04-09T11:40:56.205Z</time>
      </trkpt>
      <trkpt lat="42.2246" lon="22.39167">
        <ele>818.255479</ele>
        <time>2022-04-09T11:40:58.189Z</time>
      </trkpt>
      <trkpt lat="42.22463" lon="22.39154">
        <ele>818.002388</ele>
        <time>2022-04-09T11:41:00.183Z</time>
      </trkpt>
      <trkpt lat="42.22467" lon="22.39141">
        <ele>817.730994</ele>
        <time>2022-04-09T11:41:02.267Z</time>
      </trkpt>
      <trkpt lat="42.2247" lon="22.39126">
        <ele>817.438671</ele>
        <time>2022-04-09T11:41:04.194Z</time>
      </trkpt>
      <trkpt lat="42.22474" lon="22.39112">
        <ele>817.146691</ele>
        <time>2022-04-09T11:41:06.183Z</time>
      </trkpt>
      <trkpt lat="42.22477" lon="22.39097">
        <ele>816.854591</ele>
        <time>2022-04-09T11:41:08.191Z</time>
      </trkpt>
      <trkpt lat="42.22481" lon="22.39083">
        <ele>816.566331</ele>
        <time>2022-04-09T11:41:10.189Z</time>
      </trkpt>
      <trkpt lat="42.22484" lon="22.39068">
        <ele>816.267768</ele>
        <time>2022-04-09T11:41:12.210Z</time>
      </trkpt>
      <trkpt lat="42.22487" lon="22.39052">
        <ele>815.953731</ele>
        <time>2022-04-09T11:41:14.191Z</time>
      </trkpt>
      <trkpt lat="42.22491" lon="22.39035">
        <ele>815.622125</ele>
        <time>2022-04-09T11:41:16.204Z</time>
      </trkpt>
      <trkpt lat="42.22496" lon="22.39019">
        <ele>815.288075</ele>
        <time>2022-04-09T11:41:18.178Z</time>
      </trkpt>
      <trkpt lat="42.22501" lon="22.39003">
        <ele>814.952963</ele>
        <time>2022-04-09T11:41:20.208Z</time>
      </trkpt>
      <trkpt lat="42.22509" lon="22.38988">
        <ele>814.601079</ele>
        <time>2022-04-09T11:41:22.219Z</time>
      </trkpt>
      <trkpt lat="42.22516" lon="22.38973">
        <ele>814.263158</ele>
        <time>2022-04-09T11:41:24.181Z</time>
      </trkpt>
      <trkpt lat="42.22524" lon="22.38959">
        <ele>813.923889</ele>
        <time>2022-04-09T11:41:26.190Z</time>
      </trkpt>
      <trkpt lat="42.22533" lon="22.38946">
        <ele>813.543827</ele>
        <time>2022-04-09T11:41:28.195Z</time>
      </trkpt>
      <trkpt lat="42.22541" lon="22.38932">
        <ele>813.142945</ele>
        <time>2022-04-09T11:41:30.205Z</time>
      </trkpt>
      <trkpt lat="42.2255" lon="22.38918">
        <ele>812.721455</ele>
        <time>2022-04-09T11:41:32.197Z</time>
      </trkpt>
      <trkpt lat="42.22559" lon="22.38903">
        <ele>812.269842</ele>
        <time>2022-04-09T11:41:34.189Z</time>
      </trkpt>
      <trkpt lat="42.22569" lon="22.38887">
        <ele>811.800228</ele>
        <time>2022-04-09T11:41:36.203Z</time>
      </trkpt>
      <trkpt lat="42.22578" lon="22.38869">
        <ele>811.319453</ele>
        <time>2022-04-09T11:41:38.229Z</time>
      </trkpt>
      <trkpt lat="42.22586" lon="22.38851">
        <ele>810.826963</ele>
        <time>2022-04-09T11:41:40.205Z</time>
      </trkpt>
      <trkpt lat="42.22594" lon="22.38832">
        <ele>810.332474</ele>
        <time>2022-04-09T11:41:42.190Z</time>
      </trkpt>
      <trkpt lat="42.22602" lon="22.38813">
        <ele>809.836592</ele>
        <time>2022-04-09T11:41:44.180Z</time>
      </trkpt>
      <trkpt lat="42.2261" lon="22.38795">
        <ele>809.356102</ele>
        <time>2022-04-09T11:41:46.197Z</time>
      </trkpt>
      <trkpt lat="42.22617" lon="22.38777">
        <ele>808.90135</ele>
        <time>2022-04-09T11:41:48.200Z</time>
      </trkpt>
      <trkpt lat="42.22624" lon="22.38759">
        <ele>808.450037</ele>
        <time>2022-04-09T11:41:50.187Z</time>
      </trkpt>
      <trkpt lat="42.22631" lon="22.38742">
        <ele>808.075374</ele>
        <time>2022-04-09T11:41:52.186Z</time>
      </trkpt>
      <trkpt lat="42.22638" lon="22.38724">
        <ele>807.742022</ele>
        <time>2022-04-09T11:41:54.192Z</time>
      </trkpt>
      <trkpt lat="42.22646" lon="22.38707">
        <ele>807.407384</ele>
        <time>2022-04-09T11:41:56.199Z</time>
      </trkpt>
      <trkpt lat="42.22652" lon="22.3869">
        <ele>807.087389</ele>
        <time>2022-04-09T11:41:58.209Z</time>
      </trkpt>
      <trkpt lat="42.22657" lon="22.38674">
        <ele>806.788247</ele>
        <time>2022-04-09T11:42:00.216Z</time>
      </trkpt>
      <trkpt lat="42.22661" lon="22.38657">
        <ele>806.501511</ele>
        <time>2022-04-09T11:42:02.176Z</time>
      </trkpt>
      <trkpt lat="42.22663" lon="22.38641">
        <ele>806.212776</ele>
        <time>2022-04-09T11:42:04.171Z</time>
      </trkpt>
      <trkpt lat="42.22664" lon="22.38623">
        <ele>805.916594</ele>
        <time>2022-04-09T11:42:06.196Z</time>
      </trkpt>
      <trkpt lat="42.22665" lon="22.38606">
        <ele>805.628384</ele>
        <time>2022-04-09T11:42:08.197Z</time>
      </trkpt>
      <trkpt lat="42.22666" lon="22.3859">
        <ele>805.367115</ele>
        <time>2022-04-09T11:42:10.203Z</time>
      </trkpt>
      <trkpt lat="42.22668" lon="22.38576">
        <ele>805.124101</ele>
        <time>2022-04-09T11:42:12.182Z</time>
      </trkpt>
      <trkpt lat="42.22669" lon="22.38562">
        <ele>804.881198</ele>
        <time>2022-04-09T11:42:14.184Z</time>
      </trkpt>
      <trkpt lat="42.22671" lon="22.38548">
        <ele>804.648119</ele>
        <time>2022-04-09T11:42:16.224Z</time>
      </trkpt>
      <trkpt lat="42.22675" lon="22.38535">
        <ele>804.409484</ele>
        <time>2022-04-09T11:42:18.199Z</time>
      </trkpt>
      <trkpt lat="42.22681" lon="22.38522">
        <ele>804.224332</ele>
        <time>2022-04-09T11:42:20.169Z</time>
      </trkpt>
      <trkpt lat="42.22687" lon="22.38511">
        <ele>804.192701</ele>
        <time>2022-04-09T11:42:22.168Z</time>
      </trkpt>
      <trkpt lat="42.22692" lon="22.38499">
        <ele>804.161921</ele>
        <time>2022-04-09T11:42:24.214Z</time>
      </trkpt>
      <trkpt lat="42.22696" lon="22.38488">
        <ele>804.131416</ele>
        <time>2022-04-09T11:42:26.177Z</time>
      </trkpt>
      <trkpt lat="42.227" lon="22.38476">
        <ele>804.100872</ele>
        <time>2022-04-09T11:42:28.217Z</time>
      </trkpt>
      <trkpt lat="42.22704" lon="22.38465">
        <ele>804.071792</ele>
        <time>2022-04-09T11:42:30.184Z</time>
      </trkpt>
      <trkpt lat="42.22711" lon="22.3845">
        <ele>804.029629</ele>
        <time>2022-04-09T11:42:33.200Z</time>
      </trkpt>
      <trkpt lat="42.22717" lon="22.38435">
        <ele>803.98945</ele>
        <time>2022-04-09T11:42:36.227Z</time>
      </trkpt>
      <trkpt lat="42.22723" lon="22.3842">
        <ele>803.950542</ele>
        <time>2022-04-09T11:42:39.201Z</time>
      </trkpt>
      <trkpt lat="42.22726" lon="22.38403">
        <ele>803.909013</ele>
        <time>2022-04-09T11:42:42.194Z</time>
      </trkpt>
      <trkpt lat="42.22731" lon="22.38387">
        <ele>803.867849</ele>
        <time>2022-04-09T11:42:45.197Z</time>
      </trkpt>
      <trkpt lat="42.22735" lon="22.38375">
        <ele>803.837865</ele>
        <time>2022-04-09T11:42:47.190Z</time>
      </trkpt>
      <trkpt lat="42.22739" lon="22.38363">
        <ele>803.806974</ele>
        <time>2022-04-09T11:42:49.184Z</time>
      </trkpt>
      <trkpt lat="42.22743" lon="22.38351">
        <ele>803.776688</ele>
        <time>2022-04-09T11:42:51.204Z</time>
      </trkpt>
      <trkpt lat="42.22746" lon="22.3834">
        <ele>803.746529</ele>
        <time>2022-04-09T11:42:53.195Z</time>
      </trkpt>
      <trkpt lat="42.22751" lon="22.38327">
        <ele>803.71459</ele>
        <time>2022-04-09T11:42:55.200Z</time>
      </trkpt>
      <trkpt lat="42.22755" lon="22.38315">
        <ele>803.683002</ele>
        <time>2022-04-09T11:42:57.197Z</time>
      </trkpt>
      <trkpt lat="42.22761" lon="22.38304">
        <ele>803.479182</ele>
        <time>2022-04-09T11:42:59.194Z</time>
      </trkpt>
      <trkpt lat="42.22766" lon="22.38294">
        <ele>803.062342</ele>
        <time>2022-04-09T11:43:01.202Z</time>
      </trkpt>
      <trkpt lat="42.22772" lon="22.38284">
        <ele>802.658782</ele>
        <time>2022-04-09T11:43:03.212Z</time>
      </trkpt>
      <trkpt lat="42.22779" lon="22.38269">
        <ele>802.063579</ele>
        <time>2022-04-09T11:43:06.217Z</time>
      </trkpt>
      <trkpt lat="42.22786" lon="22.38254">
        <ele>801.464687</ele>
        <time>2022-04-09T11:43:09.181Z</time>
      </trkpt>
      <trkpt lat="42.22791" lon="22.38243">
        <ele>801.033547</ele>
        <time>2022-04-09T11:43:11.195Z</time>
      </trkpt>
      <trkpt lat="42.22797" lon="22.38232">
        <ele>800.613159</ele>
        <time>2022-04-09T11:43:13.225Z</time>
      </trkpt>
      <trkpt lat="42.22802" lon="22.38222">
        <ele>800.198794</ele>
        <time>2022-04-09T11:43:15.198Z</time>
      </trkpt>
      <trkpt lat="42.22807" lon="22.38212">
        <ele>799.784614</ele>
        <time>2022-04-09T11:43:17.204Z</time>
      </trkpt>
      <trkpt lat="42.22812" lon="22.38201">
        <ele>799.366175</ele>
        <time>2022-04-09T11:43:19.232Z</time>
      </trkpt>
      <trkpt lat="42.22817" lon="22.38191">
        <ele>798.948865</ele>
        <time>2022-04-09T11:43:21.209Z</time>
      </trkpt>
      <trkpt lat="42.22825" lon="22.38175">
        <ele>798.335201</ele>
        <time>2022-04-09T11:43:24.201Z</time>
      </trkpt>
      <trkpt lat="42.22833" lon="22.38161">
        <ele>797.745497</ele>
        <time>2022-04-09T11:43:27.184Z</time>
      </trkpt>
      <trkpt lat="42.22842" lon="22.38147">
        <ele>797.155945</ele>
        <time>2022-04-09T11:43:30.240Z</time>
      </trkpt>
      <trkpt lat="42.22848" lon="22.38132">
        <ele>796.555068</ele>
        <time>2022-04-09T11:43:33.189Z</time>
      </trkpt>
      <trkpt lat="42.22854" lon="22.38121">
        <ele>796.140501</ele>
        <time>2022-04-09T11:43:35.204Z</time>
      </trkpt>
      <trkpt lat="42.22859" lon="22.38111">
        <ele>795.715606</ele>
        <time>2022-04-09T11:43:37.190Z</time>
      </trkpt>
      <trkpt lat="42.22865" lon="22.381">
        <ele>795.358274</ele>
        <time>2022-04-09T11:43:39.206Z</time>
      </trkpt>
      <trkpt lat="42.2287" lon="22.38089">
        <ele>795.020662</ele>
        <time>2022-04-09T11:43:41.192Z</time>
      </trkpt>
      <trkpt lat="42.22877" lon="22.38076">
        <ele>794.593348</ele>
        <time>2022-04-09T11:43:44.187Z</time>
      </trkpt>
      <trkpt lat="42.22884" lon="22.38062">
        <ele>794.157614</ele>
        <time>2022-04-09T11:43:47.201Z</time>
      </trkpt>
      <trkpt lat="42.22893" lon="22.3805">
        <ele>793.713468</ele>
        <time>2022-04-09T11:43:50.204Z</time>
      </trkpt>
      <trkpt lat="42.22902" lon="22.38038">
        <ele>793.253935</ele>
        <time>2022-04-09T11:43:53.199Z</time>
      </trkpt>
      <trkpt lat="42.2291" lon="22.38024">
        <ele>792.805414</ele>
        <time>2022-04-09T11:43:56.176Z</time>
      </trkpt>
      <trkpt lat="42.22918" lon="22.3801">
        <ele>792.348883</ele>
        <time>2022-04-09T11:43:59.247Z</time>
      </trkpt>
      <trkpt lat="42.22925" lon="22.37996">
        <ele>791.892264</ele>
        <time>2022-04-09T11:44:02.185Z</time>
      </trkpt>
      <trkpt lat="42.22932" lon="22.3798">
        <ele>791.428619</ele>
        <time>2022-04-09T11:44:05.220Z</time>
      </trkpt>
      <trkpt lat="42.22937" lon="22.37964">
        <ele>790.967528</ele>
        <time>2022-04-09T11:44:08.188Z</time>
      </trkpt>
      <trkpt lat="42.22941" lon="22.37947">
        <ele>790.51431</ele>
        <time>2022-04-09T11:44:11.211Z</time>
      </trkpt>
      <trkpt lat="42.22942" lon="22.37931">
        <ele>790.084533</ele>
        <time>2022-04-09T11:44:14.203Z</time>
      </trkpt>
      <trkpt lat="42.22943" lon="22.37914">
        <ele>789.633075</ele>
        <time>2022-04-09T11:44:17.248Z</time>
      </trkpt>
      <trkpt lat="42.22941" lon="22.37901">
        <ele>789.302622</ele>
        <time>2022-04-09T11:44:19.193Z</time>
      </trkpt>
      <trkpt lat="42.22939" lon="22.37889">
        <ele>789.037698</ele>
        <time>2022-04-09T11:44:21.202Z</time>
      </trkpt>
      <trkpt lat="42.22937" lon="22.37876">
        <ele>788.77685</ele>
        <time>2022-04-09T11:44:23.184Z</time>
      </trkpt>
      <trkpt lat="42.22934" lon="22.37863">
        <ele>788.498521</ele>
        <time>2022-04-09T11:44:25.178Z</time>
      </trkpt>
      <trkpt lat="42.2293" lon="22.3785">
        <ele>788.198708</ele>
        <time>2022-04-09T11:44:27.189Z</time>
      </trkpt>
      <trkpt lat="42.22927" lon="22.37836">
        <ele>787.904835</ele>
        <time>2022-04-09T11:44:29.199Z</time>
      </trkpt>
      <trkpt lat="42.22923" lon="22.37823">
        <ele>787.613864</ele>
        <time>2022-04-09T11:44:31.193Z</time>
      </trkpt>
      <trkpt lat="42.22921" lon="22.37809">
        <ele>787.324998</ele>
        <time>2022-04-09T11:44:33.229Z</time>
      </trkpt>
      <trkpt lat="42.22919" lon="22.37796">
        <ele>787.035643</ele>
        <time>2022-04-09T11:44:35.192Z</time>
      </trkpt>
      <trkpt lat="42.22918" lon="22.37782">
        <ele>786.754611</ele>
        <time>2022-04-09T11:44:37.184Z</time>
      </trkpt>
      <trkpt lat="42.22919" lon="22.37768">
        <ele>786.473579</ele>
        <time>2022-04-09T11:44:39.239Z</time>
      </trkpt>
      <trkpt lat="42.2292" lon="22.37754">
        <ele>786.180671</ele>
        <time>2022-04-09T11:44:41.203Z</time>
      </trkpt>
      <trkpt lat="42.22923" lon="22.37741">
        <ele>785.899801</ele>
        <time>2022-04-09T11:44:43.185Z</time>
      </trkpt>
      <trkpt lat="42.22926" lon="22.37729">
        <ele>785.628053</ele>
        <time>2022-04-09T11:44:45.235Z</time>
      </trkpt>
      <trkpt lat="42.2293" lon="22.37717">
        <ele>785.36304</ele>
        <time>2022-04-09T11:44:47.204Z</time>
      </trkpt>
      <trkpt lat="42.22935" lon="22.37707">
        <ele>785.106056</ele>
        <time>2022-04-09T11:44:49.184Z</time>
      </trkpt>
      <trkpt lat="42.22941" lon="22.37697">
        <ele>784.850917</ele>
        <time>2022-04-09T11:44:51.241Z</time>
      </trkpt>
      <trkpt lat="42.22945" lon="22.37686">
        <ele>784.584606</ele>
        <time>2022-04-09T11:44:53.178Z</time>
      </trkpt>
      <trkpt lat="42.22949" lon="22.37674">
        <ele>784.328898</ele>
        <time>2022-04-09T11:44:55.187Z</time>
      </trkpt>
      <trkpt lat="42.22954" lon="22.37663">
        <ele>783.687344</ele>
        <time>2022-04-09T11:44:57.172Z</time>
      </trkpt>
      <trkpt lat="42.22959" lon="22.37648">
        <ele>782.809225</ele>
        <time>2022-04-09T11:45:00.176Z</time>
      </trkpt>
      <trkpt lat="42.22962" lon="22.3763">
        <ele>781.858765</ele>
        <time>2022-04-09T11:45:03.199Z</time>
      </trkpt>
      <trkpt lat="42.22961" lon="22.37617">
        <ele>781.159965</ele>
        <time>2022-04-09T11:45:05.198Z</time>
      </trkpt>
      <trkpt lat="42.22959" lon="22.37602">
        <ele>780.383726</ele>
        <time>2022-04-09T11:45:07.189Z</time>
      </trkpt>
      <trkpt lat="42.22955" lon="22.37588">
        <ele>779.60604</ele>
        <time>2022-04-09T11:45:09.187Z</time>
      </trkpt>
      <trkpt lat="42.22951" lon="22.37575">
        <ele>778.866999</ele>
        <time>2022-04-09T11:45:11.188Z</time>
      </trkpt>
      <trkpt lat="42.22946" lon="22.37562">
        <ele>778.053057</ele>
        <time>2022-04-09T11:45:13.181Z</time>
      </trkpt>
      <trkpt lat="42.22941" lon="22.37549">
        <ele>777.301559</ele>
        <time>2022-04-09T11:45:15.203Z</time>
      </trkpt>
      <trkpt lat="42.22937" lon="22.37535">
        <ele>776.523207</ele>
        <time>2022-04-09T11:45:17.186Z</time>
      </trkpt>
      <trkpt lat="42.22932" lon="22.37522">
        <ele>775.756672</ele>
        <time>2022-04-09T11:45:19.191Z</time>
      </trkpt>
      <trkpt lat="42.22927" lon="22.37508">
        <ele>774.950943</ele>
        <time>2022-04-09T11:45:21.184Z</time>
      </trkpt>
      <trkpt lat="42.22923" lon="22.37495">
        <ele>774.171577</ele>
        <time>2022-04-09T11:45:23.183Z</time>
      </trkpt>
      <trkpt lat="42.22918" lon="22.37481">
        <ele>773.386374</ele>
        <time>2022-04-09T11:45:25.230Z</time>
      </trkpt>
      <trkpt lat="42.22917" lon="22.37466">
        <ele>772.583919</ele>
        <time>2022-04-09T11:45:27.189Z</time>
      </trkpt>
      <trkpt lat="42.22918" lon="22.3745">
        <ele>771.785631</ele>
        <time>2022-04-09T11:45:29.178Z</time>
      </trkpt>
      <trkpt lat="42.22921" lon="22.37436">
        <ele>771.357638</ele>
        <time>2022-04-09T11:45:31.193Z</time>
      </trkpt>
      <trkpt lat="42.22927" lon="22.37423">
        <ele>771.045037</ele>
        <time>2022-04-09T11:45:33.188Z</time>
      </trkpt>
      <trkpt lat="42.22935" lon="22.3741">
        <ele>770.718035</ele>
        <time>2022-04-09T11:45:35.174Z</time>
      </trkpt>
      <trkpt lat="42.22943" lon="22.37398">
        <ele>770.410803</ele>
        <time>2022-04-09T11:45:37.182Z</time>
      </trkpt>
      <trkpt lat="42.2295" lon="22.37386">
        <ele>770.102351</ele>
        <time>2022-04-09T11:45:39.186Z</time>
      </trkpt>
      <trkpt lat="42.22958" lon="22.37374">
        <ele>769.795798</ele>
        <time>2022-04-09T11:45:41.167Z</time>
      </trkpt>
      <trkpt lat="42.22966" lon="22.37361">
        <ele>769.457837</ele>
        <time>2022-04-09T11:45:43.224Z</time>
      </trkpt>
      <trkpt lat="42.22975" lon="22.37348">
        <ele>769.113423</ele>
        <time>2022-04-09T11:45:45.208Z</time>
      </trkpt>
      <trkpt lat="42.22983" lon="22.37334">
        <ele>768.769315</ele>
        <time>2022-04-09T11:45:47.190Z</time>
      </trkpt>
      <trkpt lat="42.22991" lon="22.37319">
        <ele>768.420132</ele>
        <time>2022-04-09T11:45:49.172Z</time>
      </trkpt>
      <trkpt lat="42.22997" lon="22.37304">
        <ele>768.073237</ele>
        <time>2022-04-09T11:45:51.222Z</time>
      </trkpt>
      <trkpt lat="42.23003" lon="22.37289">
        <ele>767.735047</ele>
        <time>2022-04-09T11:45:53.186Z</time>
      </trkpt>
      <trkpt lat="42.23009" lon="22.37273">
        <ele>767.387645</ele>
        <time>2022-04-09T11:45:55.193Z</time>
      </trkpt>
      <trkpt lat="42.23016" lon="22.37257">
        <ele>767.019925</ele>
        <time>2022-04-09T11:45:57.204Z</time>
      </trkpt>
      <trkpt lat="42.23023" lon="22.37241">
        <ele>766.79255</ele>
        <time>2022-04-09T11:45:59.194Z</time>
      </trkpt>
      <trkpt lat="42.23028" lon="22.37224">
        <ele>766.731751</ele>
        <time>2022-04-09T11:46:01.192Z</time>
      </trkpt>
      <trkpt lat="42.23034" lon="22.37208">
        <ele>766.671841</ele>
        <time>2022-04-09T11:46:03.189Z</time>
      </trkpt>
      <trkpt lat="42.23039" lon="22.37191">
        <ele>766.612312</ele>
        <time>2022-04-09T11:46:05.211Z</time>
      </trkpt>
      <trkpt lat="42.23045" lon="22.37176">
        <ele>766.554375</ele>
        <time>2022-04-09T11:46:07.190Z</time>
      </trkpt>
      <trkpt lat="42.2305" lon="22.3716">
        <ele>766.496379</ele>
        <time>2022-04-09T11:46:09.181Z</time>
      </trkpt>
      <trkpt lat="42.23053" lon="22.37144">
        <ele>766.44265</ele>
        <time>2022-04-09T11:46:11.194Z</time>
      </trkpt>
      <trkpt lat="42.23056" lon="22.37129">
        <ele>766.390069</ele>
        <time>2022-04-09T11:46:13.182Z</time>
      </trkpt>
      <trkpt lat="42.23058" lon="22.37115">
        <ele>766.342511</ele>
        <time>2022-04-09T11:46:15.190Z</time>
      </trkpt>
      <trkpt lat="42.2306" lon="22.37101">
        <ele>766.29602</ele>
        <time>2022-04-09T11:46:17.185Z</time>
      </trkpt>
      <trkpt lat="42.23061" lon="22.37086">
        <ele>766.245287</ele>
        <time>2022-04-09T11:46:19.224Z</time>
      </trkpt>
      <trkpt lat="42.23062" lon="22.3707">
        <ele>766.192302</ele>
        <time>2022-04-09T11:46:21.195Z</time>
      </trkpt>
      <trkpt lat="42.23063" lon="22.37056">
        <ele>766.144224</ele>
        <time>2022-04-09T11:46:23.195Z</time>
      </trkpt>
      <trkpt lat="42.23064" lon="22.37041">
        <ele>766.095365</ele>
        <time>2022-04-09T11:46:25.222Z</time>
      </trkpt>
      <trkpt lat="42.23064" lon="22.37027">
        <ele>766.048947</ele>
        <time>2022-04-09T11:46:27.204Z</time>
      </trkpt>
      <trkpt lat="42.23065" lon="22.37014">
        <ele>765.980356</ele>
        <time>2022-04-09T11:46:29.203Z</time>
      </trkpt>
      <trkpt lat="42.23066" lon="22.37">
        <ele>765.780888</ele>
        <time>2022-04-09T11:46:31.196Z</time>
      </trkpt>
      <trkpt lat="42.23067" lon="22.36986">
        <ele>765.584047</ele>
        <time>2022-04-09T11:46:33.196Z</time>
      </trkpt>
      <trkpt lat="42.23068" lon="22.36973">
        <ele>765.397781</ele>
        <time>2022-04-09T11:46:35.200Z</time>
      </trkpt>
      <trkpt lat="42.23068" lon="22.3696">
        <ele>765.218925</ele>
        <time>2022-04-09T11:46:37.213Z</time>
      </trkpt>
      <trkpt lat="42.23066" lon="22.36947">
        <ele>765.034152</ele>
        <time>2022-04-09T11:46:39.196Z</time>
      </trkpt>
      <trkpt lat="42.23064" lon="22.36934">
        <ele>764.842743</ele>
        <time>2022-04-09T11:46:41.202Z</time>
      </trkpt>
      <trkpt lat="42.23063" lon="22.36922">
        <ele>764.669345</ele>
        <time>2022-04-09T11:46:43.219Z</time>
      </trkpt>
      <trkpt lat="42.23061" lon="22.36906">
        <ele>764.446249</ele>
        <time>2022-04-09T11:46:46.203Z</time>
      </trkpt>
      <trkpt lat="42.23059" lon="22.36893">
        <ele>764.249608</ele>
        <time>2022-04-09T11:46:49.195Z</time>
      </trkpt>
      <trkpt lat="42.23059" lon="22.36879">
        <ele>764.057808</ele>
        <time>2022-04-09T11:46:54.191Z</time>
      </trkpt>
      <trkpt lat="42.23058" lon="22.36865">
        <ele>763.860085</ele>
        <time>2022-04-09T11:46:58.177Z</time>
      </trkpt>
      <trkpt lat="42.23056" lon="22.36851">
        <ele>763.652554</ele>
        <time>2022-04-09T11:47:01.213Z</time>
      </trkpt>
      <trkpt lat="42.23054" lon="22.36836">
        <ele>763.43455</ele>
        <time>2022-04-09T11:47:04.218Z</time>
      </trkpt>
      <trkpt lat="42.23053" lon="22.36824">
        <ele>763.259465</ele>
        <time>2022-04-09T11:47:06.201Z</time>
      </trkpt>
      <trkpt lat="42.2305" lon="22.36806">
        <ele>763.001018</ele>
        <time>2022-04-09T11:47:09.205Z</time>
      </trkpt>
      <trkpt lat="42.23047" lon="22.36794">
        <ele>762.818522</ele>
        <time>2022-04-09T11:47:11.192Z</time>
      </trkpt>
      <trkpt lat="42.23044" lon="22.36781">
        <ele>762.636027</ele>
        <time>2022-04-09T11:47:13.187Z</time>
      </trkpt>
      <trkpt lat="42.23041" lon="22.36769">
        <ele>762.664147</ele>
        <time>2022-04-09T11:47:15.231Z</time>
      </trkpt>
      <trkpt lat="42.23039" lon="22.36756">
        <ele>762.841638</ele>
        <time>2022-04-09T11:47:17.189Z</time>
      </trkpt>
      <trkpt lat="42.23036" lon="22.36743">
        <ele>763.023048</ele>
        <time>2022-04-09T11:47:19.183Z</time>
      </trkpt>
      <trkpt lat="42.23032" lon="22.36731">
        <ele>763.187582</ele>
        <time>2022-04-09T11:47:21.230Z</time>
      </trkpt>
      <trkpt lat="42.23029" lon="22.36715">
        <ele>763.409641</ele>
        <time>2022-04-09T11:47:24.178Z</time>
      </trkpt>
      <trkpt lat="42.23027" lon="22.36702">
        <ele>763.57906</ele>
        <time>2022-04-09T11:47:26.221Z</time>
      </trkpt>
      <trkpt lat="42.23026" lon="22.36689">
        <ele>763.748234</ele>
        <time>2022-04-09T11:47:28.184Z</time>
      </trkpt>
      <trkpt lat="42.23026" lon="22.36676">
        <ele>763.9133</ele>
        <time>2022-04-09T11:47:30.210Z</time>
      </trkpt>
      <trkpt lat="42.23026" lon="22.36662">
        <ele>764.090164</ele>
        <time>2022-04-09T11:47:32.209Z</time>
      </trkpt>
      <trkpt lat="42.23028" lon="22.36649">
        <ele>764.272889</ele>
        <time>2022-04-09T11:47:34.192Z</time>
      </trkpt>
      <trkpt lat="42.23032" lon="22.36635">
        <ele>764.461777</ele>
        <time>2022-04-09T11:47:36.205Z</time>
      </trkpt>
      <trkpt lat="42.23037" lon="22.36622">
        <ele>764.657144</ele>
        <time>2022-04-09T11:47:38.235Z</time>
      </trkpt>
      <trkpt lat="42.23041" lon="22.36608">
        <ele>764.84525</ele>
        <time>2022-04-09T11:47:40.196Z</time>
      </trkpt>
      <trkpt lat="42.23047" lon="22.36596">
        <ele>765.031772</ele>
        <time>2022-04-09T11:47:42.193Z</time>
      </trkpt>
      <trkpt lat="42.23053" lon="22.36584">
        <ele>765.220914</ele>
        <time>2022-04-09T11:47:44.194Z</time>
      </trkpt>
      <trkpt lat="42.2306" lon="22.36573">
        <ele>765.418735</ele>
        <time>2022-04-09T11:47:46.212Z</time>
      </trkpt>
      <trkpt lat="42.23066" lon="22.36561">
        <ele>765.601696</ele>
        <time>2022-04-09T11:47:48.189Z</time>
      </trkpt>
      <trkpt lat="42.23072" lon="22.36549">
        <ele>765.652154</ele>
        <time>2022-04-09T11:47:50.210Z</time>
      </trkpt>
      <trkpt lat="42.23078" lon="22.36537">
        <ele>765.452477</ele>
        <time>2022-04-09T11:47:52.179Z</time>
      </trkpt>
      <trkpt lat="42.23083" lon="22.36524">
        <ele>765.259755</ele>
        <time>2022-04-09T11:47:54.188Z</time>
      </trkpt>
      <trkpt lat="42.23086" lon="22.36511">
        <ele>765.070714</ele>
        <time>2022-04-09T11:47:56.219Z</time>
      </trkpt>
      <trkpt lat="42.23089" lon="22.36497">
        <ele>764.883519</ele>
        <time>2022-04-09T11:47:58.192Z</time>
      </trkpt>
      <trkpt lat="42.2309" lon="22.36484">
        <ele>764.706108</ele>
        <time>2022-04-09T11:48:00.248Z</time>
      </trkpt>
      <trkpt lat="42.23089" lon="22.36471">
        <ele>764.529561</ele>
        <time>2022-04-09T11:48:02.174Z</time>
      </trkpt>
      <trkpt lat="42.23086" lon="22.36457">
        <ele>764.32138</ele>
        <time>2022-04-09T11:48:04.168Z</time>
      </trkpt>
      <trkpt lat="42.23083" lon="22.36443">
        <ele>764.125458</ele>
        <time>2022-04-09T11:48:06.223Z</time>
      </trkpt>
      <trkpt lat="42.2308" lon="22.36429">
        <ele>763.930396</ele>
        <time>2022-04-09T11:48:08.189Z</time>
      </trkpt>
      <trkpt lat="42.23077" lon="22.36414">
        <ele>763.719504</ele>
        <time>2022-04-09T11:48:10.212Z</time>
      </trkpt>
      <trkpt lat="42.23073" lon="22.36399">
        <ele>763.503093</ele>
        <time>2022-04-09T11:48:12.181Z</time>
      </trkpt>
      <trkpt lat="42.23069" lon="22.36385">
        <ele>763.292893</ele>
        <time>2022-04-09T11:48:14.182Z</time>
      </trkpt>
      <trkpt lat="42.23064" lon="22.3637">
        <ele>763.075212</ele>
        <time>2022-04-09T11:48:16.181Z</time>
      </trkpt>
      <trkpt lat="42.23061" lon="22.36355">
        <ele>762.856158</ele>
        <time>2022-04-09T11:48:18.193Z</time>
      </trkpt>
      <trkpt lat="42.23057" lon="22.36338">
        <ele>762.618241</ele>
        <time>2022-04-09T11:48:20.185Z</time>
      </trkpt>
      <trkpt lat="42.23053" lon="22.36322">
        <ele>762.227415</ele>
        <time>2022-04-09T11:48:22.188Z</time>
      </trkpt>
      <trkpt lat="42.23049" lon="22.36305">
        <ele>761.037889</ele>
        <time>2022-04-09T11:48:24.194Z</time>
      </trkpt>
      <trkpt lat="42.23045" lon="22.36291">
        <ele>759.973693</ele>
        <time>2022-04-09T11:48:26.175Z</time>
      </trkpt>
      <trkpt lat="42.23042" lon="22.36278">
        <ele>759.024313</ele>
        <time>2022-04-09T11:48:28.210Z</time>
      </trkpt>
      <trkpt lat="42.23038" lon="22.36265">
        <ele>758.048805</ele>
        <time>2022-04-09T11:48:30.190Z</time>
      </trkpt>
      <trkpt lat="42.23034" lon="22.36253">
        <ele>757.100349</ele>
        <time>2022-04-09T11:48:32.212Z</time>
      </trkpt>
      <trkpt lat="42.23028" lon="22.36241">
        <ele>756.062011</ele>
        <time>2022-04-09T11:48:34.191Z</time>
      </trkpt>
      <trkpt lat="42.23023" lon="22.36228">
        <ele>755.040866</ele>
        <time>2022-04-09T11:48:36.190Z</time>
      </trkpt>
      <trkpt lat="42.23017" lon="22.36214">
        <ele>753.935453</ele>
        <time>2022-04-09T11:48:38.239Z</time>
      </trkpt>
      <trkpt lat="42.23011" lon="22.36202">
        <ele>752.893196</ele>
        <time>2022-04-09T11:48:40.186Z</time>
      </trkpt>
      <trkpt lat="42.23003" lon="22.3619">
        <ele>751.822717</ele>
        <time>2022-04-09T11:48:42.180Z</time>
      </trkpt>
      <trkpt lat="42.22996" lon="22.36178">
        <ele>750.76908</ele>
        <time>2022-04-09T11:48:44.212Z</time>
      </trkpt>
      <trkpt lat="42.22988" lon="22.36169">
        <ele>749.74732</ele>
        <time>2022-04-09T11:48:46.194Z</time>
      </trkpt>
      <trkpt lat="42.2298" lon="22.3616">
        <ele>748.732988</ele>
        <time>2022-04-09T11:48:48.187Z</time>
      </trkpt>
      <trkpt lat="42.22971" lon="22.36153">
        <ele>747.776426</ele>
        <time>2022-04-09T11:48:50.191Z</time>
      </trkpt>
      <trkpt lat="42.22963" lon="22.36145">
        <ele>746.863077</ele>
        <time>2022-04-09T11:48:52.185Z</time>
      </trkpt>
      <trkpt lat="42.22951" lon="22.36137">
        <ele>745.585523</ele>
        <time>2022-04-09T11:48:55.223Z</time>
      </trkpt>
      <trkpt lat="42.22939" lon="22.36131">
        <ele>744.861355</ele>
        <time>2022-04-09T11:48:58.188Z</time>
      </trkpt>
      <trkpt lat="42.22927" lon="22.36126">
        <ele>744.267672</ele>
        <time>2022-04-09T11:49:01.230Z</time>
      </trkpt>
      <trkpt lat="42.22916" lon="22.3612">
        <ele>743.658602</ele>
        <time>2022-04-09T11:49:04.189Z</time>
      </trkpt>
      <trkpt lat="42.22903" lon="22.36113">
        <ele>743.018462</ele>
        <time>2022-04-09T11:49:07.237Z</time>
      </trkpt>
      <trkpt lat="42.2289" lon="22.36106">
        <ele>742.347811</ele>
        <time>2022-04-09T11:49:10.180Z</time>
      </trkpt>
      <trkpt lat="42.22878" lon="22.36101">
        <ele>741.72543</ele>
        <time>2022-04-09T11:49:13.186Z</time>
      </trkpt>
      <trkpt lat="42.22866" lon="22.36096">
        <ele>741.090611</ele>
        <time>2022-04-09T11:49:16.199Z</time>
      </trkpt>
      <trkpt lat="42.22853" lon="22.3609">
        <ele>740.440574</ele>
        <time>2022-04-09T11:49:19.203Z</time>
      </trkpt>
      <trkpt lat="42.22844" lon="22.36086">
        <ele>740.002242</ele>
        <time>2022-04-09T11:49:21.197Z</time>
      </trkpt>
      <trkpt lat="42.22832" lon="22.3608">
        <ele>739.337438</ele>
        <time>2022-04-09T11:49:24.189Z</time>
      </trkpt>
      <trkpt lat="42.22823" lon="22.36075">
        <ele>738.872604</ele>
        <time>2022-04-09T11:49:26.208Z</time>
      </trkpt>
      <trkpt lat="42.22813" lon="22.3607">
        <ele>738.381969</ele>
        <time>2022-04-09T11:49:28.210Z</time>
      </trkpt>
      <trkpt lat="42.22803" lon="22.36064">
        <ele>737.844554</ele>
        <time>2022-04-09T11:49:30.200Z</time>
      </trkpt>
      <trkpt lat="42.22793" lon="22.36056">
        <ele>737.258318</ele>
        <time>2022-04-09T11:49:32.201Z</time>
      </trkpt>
      <trkpt lat="42.22783" lon="22.36047">
        <ele>736.684737</ele>
        <time>2022-04-09T11:49:34.192Z</time>
      </trkpt>
      <trkpt lat="42.22774" lon="22.36036">
        <ele>736.660715</ele>
        <time>2022-04-09T11:49:36.183Z</time>
      </trkpt>
      <trkpt lat="42.22767" lon="22.36023">
        <ele>736.647568</ele>
        <time>2022-04-09T11:49:38.200Z</time>
      </trkpt>
      <trkpt lat="42.2276" lon="22.36009">
        <ele>736.633747</ele>
        <time>2022-04-09T11:49:40.206Z</time>
      </trkpt>
      <trkpt lat="42.22753" lon="22.35996">
        <ele>736.619915</ele>
        <time>2022-04-09T11:49:42.192Z</time>
      </trkpt>
      <trkpt lat="42.22746" lon="22.35983">
        <ele>736.606564</ele>
        <time>2022-04-09T11:49:44.201Z</time>
      </trkpt>
      <trkpt lat="42.22738" lon="22.35969">
        <ele>736.592542</ele>
        <time>2022-04-09T11:49:46.220Z</time>
      </trkpt>
      <trkpt lat="42.22731" lon="22.35958">
        <ele>736.579417</ele>
        <time>2022-04-09T11:49:48.203Z</time>
      </trkpt>
      <trkpt lat="42.22722" lon="22.35947">
        <ele>736.566231</ele>
        <time>2022-04-09T11:49:50.195Z</time>
      </trkpt>
      <trkpt lat="42.22712" lon="22.35938">
        <ele>736.552198</ele>
        <time>2022-04-09T11:49:52.226Z</time>
      </trkpt>
      <trkpt lat="42.22702" lon="22.35928">
        <ele>736.538596</ele>
        <time>2022-04-09T11:49:54.204Z</time>
      </trkpt>
      <trkpt lat="42.22692" lon="22.35918">
        <ele>736.524482</ele>
        <time>2022-04-09T11:49:56.209Z</time>
      </trkpt>
      <trkpt lat="42.22683" lon="22.35906">
        <ele>736.510403</ele>
        <time>2022-04-09T11:49:58.187Z</time>
      </trkpt>
      <trkpt lat="42.22673" lon="22.35896">
        <ele>736.496471</ele>
        <time>2022-04-09T11:50:00.212Z</time>
      </trkpt>
      <trkpt lat="42.22663" lon="22.35887">
        <ele>736.482411</ele>
        <time>2022-04-09T11:50:02.197Z</time>
      </trkpt>
      <trkpt lat="42.22652" lon="22.35878">
        <ele>736.269646</ele>
        <time>2022-04-09T11:50:04.206Z</time>
      </trkpt>
      <trkpt lat="42.22642" lon="22.3587">
        <ele>735.587562</ele>
        <time>2022-04-09T11:50:06.186Z</time>
      </trkpt>
      <trkpt lat="42.22632" lon="22.35865">
        <ele>734.944618</ele>
        <time>2022-04-09T11:50:08.203Z</time>
      </trkpt>
      <trkpt lat="42.22622" lon="22.35862">
        <ele>734.336949</ele>
        <time>2022-04-09T11:50:10.223Z</time>
      </trkpt>
      <trkpt lat="42.22612" lon="22.35862">
        <ele>733.702639</ele>
        <time>2022-04-09T11:50:12.181Z</time>
      </trkpt>
      <trkpt lat="42.22601" lon="22.35864">
        <ele>733.058155</ele>
        <time>2022-04-09T11:50:14.183Z</time>
      </trkpt>
      <trkpt lat="42.22593" lon="22.35868">
        <ele>732.500374</ele>
        <time>2022-04-09T11:50:16.177Z</time>
      </trkpt>
      <trkpt lat="42.22584" lon="22.35872">
        <ele>731.92818</ele>
        <time>2022-04-09T11:50:18.182Z</time>
      </trkpt>
      <trkpt lat="42.22575" lon="22.35877">
        <ele>731.353508</ele>
        <time>2022-04-09T11:50:20.205Z</time>
      </trkpt>
      <trkpt lat="42.22563" lon="22.35881">
        <ele>730.622615</ele>
        <time>2022-04-09T11:50:23.194Z</time>
      </trkpt>
      <trkpt lat="42.22552" lon="22.35886">
        <ele>729.900998</ele>
        <time>2022-04-09T11:50:27.187Z</time>
      </trkpt>
      <trkpt lat="42.22541" lon="22.35892">
        <ele>729.1925</ele>
        <time>2022-04-09T11:50:30.189Z</time>
      </trkpt>
      <trkpt lat="42.22532" lon="22.35896">
        <ele>728.625972</ele>
        <time>2022-04-09T11:50:32.186Z</time>
      </trkpt>
      <trkpt lat="42.22522" lon="22.359">
        <ele>728.013659</ele>
        <time>2022-04-09T11:50:34.191Z</time>
      </trkpt>
      <trkpt lat="42.22513" lon="22.35904">
        <ele>727.435894</ele>
        <time>2022-04-09T11:50:36.190Z</time>
      </trkpt>
      <trkpt lat="42.22502" lon="22.3591">
        <ele>726.702287</ele>
        <time>2022-04-09T11:50:39.167Z</time>
      </trkpt>
      <trkpt lat="42.22492" lon="22.35917">
        <ele>726.015993</ele>
        <time>2022-04-09T11:50:42.199Z</time>
      </trkpt>
      <trkpt lat="42.22483" lon="22.35923">
        <ele>725.772568</ele>
        <time>2022-04-09T11:50:44.179Z</time>
      </trkpt>
      <trkpt lat="42.22475" lon="22.35929">
        <ele>726.229504</ele>
        <time>2022-04-09T11:50:46.196Z</time>
      </trkpt>
      <trkpt lat="42.22466" lon="22.35934">
        <ele>726.677438</ele>
        <time>2022-04-09T11:50:48.232Z</time>
      </trkpt>
      <trkpt lat="42.22457" lon="22.35938">
        <ele>727.145963</ele>
        <time>2022-04-09T11:50:50.197Z</time>
      </trkpt>
      <trkpt lat="42.22448" lon="22.35942">
        <ele>727.646105</ele>
        <time>2022-04-09T11:50:52.202Z</time>
      </trkpt>
      <trkpt lat="42.22438" lon="22.35946">
        <ele>728.138058</ele>
        <time>2022-04-09T11:50:54.179Z</time>
      </trkpt>
      <trkpt lat="42.2243" lon="22.35951">
        <ele>728.604673</ele>
        <time>2022-04-09T11:50:56.190Z</time>
      </trkpt>
      <trkpt lat="42.22421" lon="22.35954">
        <ele>729.064089</ele>
        <time>2022-04-09T11:50:58.186Z</time>
      </trkpt>
      <trkpt lat="42.2241" lon="22.35958">
        <ele>729.606013</ele>
        <time>2022-04-09T11:51:00.216Z</time>
      </trkpt>
      <trkpt lat="42.22399" lon="22.3596">
        <ele>730.129869</ele>
        <time>2022-04-09T11:51:02.201Z</time>
      </trkpt>
      <trkpt lat="42.22389" lon="22.35959">
        <ele>730.644608</ele>
        <time>2022-04-09T11:51:04.181Z</time>
      </trkpt>
      <trkpt lat="42.2238" lon="22.35956">
        <ele>731.129667</ele>
        <time>2022-04-09T11:51:06.208Z</time>
      </trkpt>
      <trkpt lat="42.22371" lon="22.3595">
        <ele>731.60129</ele>
        <time>2022-04-09T11:51:08.194Z</time>
      </trkpt>
      <trkpt lat="42.22363" lon="22.35943">
        <ele>732.064549</ele>
        <time>2022-04-09T11:51:10.222Z</time>
      </trkpt>
      <trkpt lat="42.22355" lon="22.35935">
        <ele>732.550199</ele>
        <time>2022-04-09T11:51:12.190Z</time>
      </trkpt>
      <trkpt lat="42.22348" lon="22.35925">
        <ele>733.041979</ele>
        <time>2022-04-09T11:51:14.199Z</time>
      </trkpt>
      <trkpt lat="42.22342" lon="22.35915">
        <ele>733.537144</ele>
        <time>2022-04-09T11:51:16.199Z</time>
      </trkpt>
      <trkpt lat="42.22336" lon="22.35905">
        <ele>734.019908</ele>
        <time>2022-04-09T11:51:18.181Z</time>
      </trkpt>
      <trkpt lat="42.2233" lon="22.35893">
        <ele>734.517997</ele>
        <time>2022-04-09T11:51:20.199Z</time>
      </trkpt>
      <trkpt lat="42.22325" lon="22.35883">
        <ele>735.155425</ele>
        <time>2022-04-09T11:51:22.235Z</time>
      </trkpt>
      <trkpt lat="42.2232" lon="22.35872">
        <ele>735.80457</ele>
        <time>2022-04-09T11:51:24.194Z</time>
      </trkpt>
      <trkpt lat="42.22314" lon="22.3586">
        <ele>736.525803</ele>
        <time>2022-04-09T11:51:26.196Z</time>
      </trkpt>
      <trkpt lat="42.2231" lon="22.35846">
        <ele>737.287354</ele>
        <time>2022-04-09T11:51:28.195Z</time>
      </trkpt>
      <trkpt lat="42.22306" lon="22.35831">
        <ele>738.046838</ele>
        <time>2022-04-09T11:51:30.189Z</time>
      </trkpt>
      <trkpt lat="42.22302" lon="22.35816">
        <ele>738.874773</ele>
        <time>2022-04-09T11:51:32.191Z</time>
      </trkpt>
      <trkpt lat="42.22299" lon="22.35799">
        <ele>739.744139</ele>
        <time>2022-04-09T11:51:34.196Z</time>
      </trkpt>
      <trkpt lat="42.22295" lon="22.3578">
        <ele>740.692521</ele>
        <time>2022-04-09T11:51:36.189Z</time>
      </trkpt>
      <trkpt lat="42.22293" lon="22.35761">
        <ele>741.657925</ele>
        <time>2022-04-09T11:51:38.178Z</time>
      </trkpt>
      <trkpt lat="42.22291" lon="22.35741">
        <ele>742.646947</ele>
        <time>2022-04-09T11:51:40.192Z</time>
      </trkpt>
      <trkpt lat="42.22289" lon="22.35722">
        <ele>743.608331</ele>
        <time>2022-04-09T11:51:42.199Z</time>
      </trkpt>
      <trkpt lat="42.22288" lon="22.35703">
        <ele>744.579778</ele>
        <time>2022-04-09T11:51:44.223Z</time>
      </trkpt>
      <trkpt lat="42.22287" lon="22.35684">
        <ele>745.529098</ele>
        <time>2022-04-09T11:51:46.195Z</time>
      </trkpt>
      <trkpt lat="42.22286" lon="22.35665">
        <ele>746.474501</ele>
        <time>2022-04-09T11:51:48.170Z</time>
      </trkpt>
      <trkpt lat="42.22285" lon="22.35647">
        <ele>745.466883</ele>
        <time>2022-04-09T11:51:50.197Z</time>
      </trkpt>
      <trkpt lat="42.22282" lon="22.3563">
        <ele>744.108616</ele>
        <time>2022-04-09T11:51:52.179Z</time>
      </trkpt>
      <trkpt lat="42.22276" lon="22.35612">
        <ele>742.630411</ele>
        <time>2022-04-09T11:51:54.191Z</time>
      </trkpt>
      <trkpt lat="42.22268" lon="22.35594">
        <ele>741.054774</ele>
        <time>2022-04-09T11:51:56.184Z</time>
      </trkpt>
      <trkpt lat="42.22259" lon="22.35578">
        <ele>739.499721</ele>
        <time>2022-04-09T11:51:58.184Z</time>
      </trkpt>
      <trkpt lat="42.22247" lon="22.35564">
        <ele>737.874193</ele>
        <time>2022-04-09T11:52:00.196Z</time>
      </trkpt>
      <trkpt lat="42.22233" lon="22.35553">
        <ele>736.243022</ele>
        <time>2022-04-09T11:52:02.186Z</time>
      </trkpt>
      <trkpt lat="42.22219" lon="22.35545">
        <ele>734.649588</ele>
        <time>2022-04-09T11:52:04.194Z</time>
      </trkpt>
      <trkpt lat="42.22205" lon="22.35541">
        <ele>733.216898</ele>
        <time>2022-04-09T11:52:06.207Z</time>
      </trkpt>
      <trkpt lat="42.22191" lon="22.3554">
        <ele>731.77144</ele>
        <time>2022-04-09T11:52:08.189Z</time>
      </trkpt>
      <trkpt lat="42.22178" lon="22.35542">
        <ele>730.382425</ele>
        <time>2022-04-09T11:52:10.245Z</time>
      </trkpt>
      <trkpt lat="42.22166" lon="22.35545">
        <ele>729.162395</ele>
        <time>2022-04-09T11:52:12.185Z</time>
      </trkpt>
      <trkpt lat="42.22154" lon="22.35548">
        <ele>728.053769</ele>
        <time>2022-04-09T11:52:14.189Z</time>
      </trkpt>
      <trkpt lat="42.22141" lon="22.35551">
        <ele>727.49544</ele>
        <time>2022-04-09T11:52:16.206Z</time>
      </trkpt>
      <trkpt lat="42.22129" lon="22.35553">
        <ele>726.950422</ele>
        <time>2022-04-09T11:52:18.187Z</time>
      </trkpt>
      <trkpt lat="42.22116" lon="22.35555">
        <ele>726.341501</ele>
        <time>2022-04-09T11:52:20.186Z</time>
      </trkpt>
      <trkpt lat="42.22104" lon="22.35558">
        <ele>725.819516</ele>
        <time>2022-04-09T11:52:22.198Z</time>
      </trkpt>
      <trkpt lat="42.22094" lon="22.35561">
        <ele>725.33151</ele>
        <time>2022-04-09T11:52:24.190Z</time>
      </trkpt>
      <trkpt lat="42.22083" lon="22.35563">
        <ele>724.859975</ele>
        <time>2022-04-09T11:52:26.224Z</time>
      </trkpt>
      <trkpt lat="42.22073" lon="22.35564">
        <ele>724.394957</ele>
        <time>2022-04-09T11:52:28.188Z</time>
      </trkpt>
      <trkpt lat="42.22063" lon="22.35564">
        <ele>723.937001</ele>
        <time>2022-04-09T11:52:30.206Z</time>
      </trkpt>
      <trkpt lat="42.22052" lon="22.35563">
        <ele>723.446368</ele>
        <time>2022-04-09T11:52:32.188Z</time>
      </trkpt>
      <trkpt lat="42.22042" lon="22.3556">
        <ele>723.007667</ele>
        <time>2022-04-09T11:52:34.210Z</time>
      </trkpt>
      <trkpt lat="42.22033" lon="22.35555">
        <ele>722.547144</ele>
        <time>2022-04-09T11:52:36.221Z</time>
      </trkpt>
      <trkpt lat="42.22024" lon="22.35551">
        <ele>722.115719</ele>
        <time>2022-04-09T11:52:38.175Z</time>
      </trkpt>
      <trkpt lat="42.22015" lon="22.35545">
        <ele>721.692636</ele>
        <time>2022-04-09T11:52:40.171Z</time>
      </trkpt>
      <trkpt lat="42.22007" lon="22.35537">
        <ele>721.241801</ele>
        <time>2022-04-09T11:52:42.205Z</time>
      </trkpt>
      <trkpt lat="42.21999" lon="22.35525">
        <ele>720.720374</ele>
        <time>2022-04-09T11:52:44.178Z</time>
      </trkpt>
      <trkpt lat="42.21992" lon="22.35514">
        <ele>720.238257</ele>
        <time>2022-04-09T11:52:46.205Z</time>
      </trkpt>
      <trkpt lat="42.21986" lon="22.35504">
        <ele>720.243648</ele>
        <time>2022-04-09T11:52:48.216Z</time>
      </trkpt>
      <trkpt lat="42.2198" lon="22.35494">
        <ele>720.422166</ele>
        <time>2022-04-09T11:52:50.165Z</time>
      </trkpt>
      <trkpt lat="42.21974" lon="22.35485">
        <ele>720.592939</ele>
        <time>2022-04-09T11:52:52.180Z</time>
      </trkpt>
      <trkpt lat="42.21965" lon="22.35473">
        <ele>720.828585</ele>
        <time>2022-04-09T11:52:55.186Z</time>
      </trkpt>
      <trkpt lat="42.21955" lon="22.35462">
        <ele>721.079826</ele>
        <time>2022-04-09T11:52:58.262Z</time>
      </trkpt>
      <trkpt lat="42.21945" lon="22.35451">
        <ele>721.312306</ele>
        <time>2022-04-09T11:53:01.180Z</time>
      </trkpt>
      <trkpt lat="42.21936" lon="22.35441">
        <ele>721.520756</ele>
        <time>2022-04-09T11:53:04.173Z</time>
      </trkpt>
      <trkpt lat="42.21927" lon="22.35431">
        <ele>721.752507</ele>
        <time>2022-04-09T11:53:07.170Z</time>
      </trkpt>
      <trkpt lat="42.21916" lon="22.35423">
        <ele>721.9786</ele>
        <time>2022-04-09T11:53:10.207Z</time>
      </trkpt>
      <trkpt lat="42.21908" lon="22.35413">
        <ele>722.184383</ele>
        <time>2022-04-09T11:53:13.167Z</time>
      </trkpt>
      <trkpt lat="42.21899" lon="22.35401">
        <ele>722.420935</ele>
        <time>2022-04-09T11:53:16.163Z</time>
      </trkpt>
      <trkpt lat="42.2189" lon="22.35393">
        <ele>722.621238</ele>
        <time>2022-04-09T11:53:18.164Z</time>
      </trkpt>
      <trkpt lat="42.21881" lon="22.35386">
        <ele>722.827885</ele>
        <time>2022-04-09T11:53:20.179Z</time>
      </trkpt>
      <trkpt lat="42.21873" lon="22.35379">
        <ele>723.000439</ele>
        <time>2022-04-09T11:53:22.193Z</time>
      </trkpt>
      <trkpt lat="42.21863" lon="22.35374">
        <ele>723.189163</ele>
        <time>2022-04-09T11:53:24.187Z</time>
      </trkpt>
      <trkpt lat="42.21853" lon="22.35369">
        <ele>723.389376</ele>
        <time>2022-04-09T11:53:26.227Z</time>
      </trkpt>
      <trkpt lat="42.21844" lon="22.35362">
        <ele>723.59082</ele>
        <time>2022-04-09T11:53:28.184Z</time>
      </trkpt>
      <trkpt lat="42.21835" lon="22.35355">
        <ele>723.793205</ele>
        <time>2022-04-09T11:53:30.176Z</time>
      </trkpt>
      <trkpt lat="42.21826" lon="22.35346">
        <ele>724.004363</ele>
        <time>2022-04-09T11:53:32.179Z</time>
      </trkpt>
      <trkpt lat="42.21818" lon="22.35337">
        <ele>724.218458</ele>
        <time>2022-04-09T11:53:34.187Z</time>
      </trkpt>
      <trkpt lat="42.21809" lon="22.35327">
        <ele>724.440692</ele>
        <time>2022-04-09T11:53:36.174Z</time>
      </trkpt>
      <trkpt lat="42.21801" lon="22.35316">
        <ele>724.659206</ele>
        <time>2022-04-09T11:53:38.237Z</time>
      </trkpt>
      <trkpt lat="42.21796" lon="22.35304">
        <ele>724.859091</ele>
        <time>2022-04-09T11:53:40.228Z</time>
      </trkpt>
      <trkpt lat="42.21793" lon="22.3529">
        <ele>725.064398</ele>
        <time>2022-04-09T11:53:42.209Z</time>
      </trkpt>
      <trkpt lat="42.21792" lon="22.35275">
        <ele>725.27732</ele>
        <time>2022-04-09T11:53:44.182Z</time>
      </trkpt>
      <trkpt lat="42.21792" lon="22.35261">
        <ele>725.485455</ele>
        <time>2022-04-09T11:53:46.203Z</time>
      </trkpt>
      <trkpt lat="42.21793" lon="22.35247">
        <ele>725.694682</ele>
        <time>2022-04-09T11:53:48.172Z</time>
      </trkpt>
      <trkpt lat="42.21795" lon="22.35232">
        <ele>725.900318</ele>
        <time>2022-04-09T11:53:50.179Z</time>
      </trkpt>
      <trkpt lat="42.21795" lon="22.35219">
        <ele>726.095803</ele>
        <time>2022-04-09T11:53:52.201Z</time>
      </trkpt>
      <trkpt lat="42.21791" lon="22.35205">
        <ele>726.298425</ele>
        <time>2022-04-09T11:53:54.171Z</time>
      </trkpt>
      <trkpt lat="42.21788" lon="22.35193">
        <ele>726.486259</ele>
        <time>2022-04-09T11:53:56.190Z</time>
      </trkpt>
      <trkpt lat="42.21783" lon="22.35182">
        <ele>726.670443</ele>
        <time>2022-04-09T11:53:58.188Z</time>
      </trkpt>
      <trkpt lat="42.21776" lon="22.35172">
        <ele>726.87275</ele>
        <time>2022-04-09T11:54:00.188Z</time>
      </trkpt>
      <trkpt lat="42.21767" lon="22.35161">
        <ele>726.738042</ele>
        <time>2022-04-09T11:54:02.198Z</time>
      </trkpt>
      <trkpt lat="42.21756" lon="22.35154">
        <ele>726.343361</ele>
        <time>2022-04-09T11:54:04.201Z</time>
      </trkpt>
      <trkpt lat="42.21743" lon="22.35149">
        <ele>725.890386</ele>
        <time>2022-04-09T11:54:06.251Z</time>
      </trkpt>
      <trkpt lat="42.21729" lon="22.35146">
        <ele>725.407635</ele>
        <time>2022-04-09T11:54:08.174Z</time>
      </trkpt>
      <trkpt lat="42.21714" lon="22.35144">
        <ele>724.917855</ele>
        <time>2022-04-09T11:54:10.183Z</time>
      </trkpt>
      <trkpt lat="42.21698" lon="22.35141">
        <ele>724.40109</ele>
        <time>2022-04-09T11:54:12.217Z</time>
      </trkpt>
      <trkpt lat="42.21682" lon="22.35137">
        <ele>723.864583</ele>
        <time>2022-04-09T11:54:14.181Z</time>
      </trkpt>
      <trkpt lat="42.21668" lon="22.3513">
        <ele>723.377349</ele>
        <time>2022-04-09T11:54:16.222Z</time>
      </trkpt>
      <trkpt lat="42.21656" lon="22.35122">
        <ele>722.927498</ele>
        <time>2022-04-09T11:54:18.251Z</time>
      </trkpt>
      <trkpt lat="42.21645" lon="22.35109">
        <ele>722.460749</ele>
        <time>2022-04-09T11:54:20.197Z</time>
      </trkpt>
      <trkpt lat="42.21636" lon="22.35095">
        <ele>722.013618</ele>
        <time>2022-04-09T11:54:22.188Z</time>
      </trkpt>
      <trkpt lat="42.2163" lon="22.35081">
        <ele>721.616251</ele>
        <time>2022-04-09T11:54:24.177Z</time>
      </trkpt>
      <trkpt lat="42.21624" lon="22.35067">
        <ele>721.231741</ele>
        <time>2022-04-09T11:54:26.202Z</time>
      </trkpt>
      <trkpt lat="42.21619" lon="22.35054">
        <ele>720.733957</ele>
        <time>2022-04-09T11:54:28.168Z</time>
      </trkpt>
      <trkpt lat="42.21614" lon="22.35043">
        <ele>720.176519</ele>
        <time>2022-04-09T11:54:30.183Z</time>
      </trkpt>
      <trkpt lat="42.21609" lon="22.35032">
        <ele>719.657996</ele>
        <time>2022-04-09T11:54:32.177Z</time>
      </trkpt>
      <trkpt lat="42.21602" lon="22.35016">
        <ele>718.905247</ele>
        <time>2022-04-09T11:54:35.178Z</time>
      </trkpt>
      <trkpt lat="42.21593" lon="22.35002">
        <ele>718.143116</ele>
        <time>2022-04-09T11:54:38.189Z</time>
      </trkpt>
      <trkpt lat="42.21586" lon="22.34994">
        <ele>717.613657</ele>
        <time>2022-04-09T11:54:40.190Z</time>
      </trkpt>
      <trkpt lat="42.21579" lon="22.34985">
        <ele>717.06215</ele>
        <time>2022-04-09T11:54:42.184Z</time>
      </trkpt>
      <trkpt lat="42.21571" lon="22.34975">
        <ele>716.477589</ele>
        <time>2022-04-09T11:54:44.192Z</time>
      </trkpt>
      <trkpt lat="42.21562" lon="22.34968">
        <ele>715.898171</ele>
        <time>2022-04-09T11:54:46.180Z</time>
      </trkpt>
      <trkpt lat="42.21552" lon="22.34962">
        <ele>715.307462</ele>
        <time>2022-04-09T11:54:48.184Z</time>
      </trkpt>
      <trkpt lat="42.21543" lon="22.34956">
        <ele>714.769222</ele>
        <time>2022-04-09T11:54:50.184Z</time>
      </trkpt>
      <trkpt lat="42.21534" lon="22.34949">
        <ele>714.179196</ele>
        <time>2022-04-09T11:54:52.217Z</time>
      </trkpt>
      <trkpt lat="42.21525" lon="22.34943">
        <ele>713.605801</ele>
        <time>2022-04-09T11:54:54.200Z</time>
      </trkpt>
      <trkpt lat="42.21516" lon="22.34936">
        <ele>713.057802</ele>
        <time>2022-04-09T11:54:56.179Z</time>
      </trkpt>
      <trkpt lat="42.21508" lon="22.3493">
        <ele>712.50587</ele>
        <time>2022-04-09T11:54:58.222Z</time>
      </trkpt>
      <trkpt lat="42.21498" lon="22.34924">
        <ele>711.943727</ele>
        <time>2022-04-09T11:55:00.179Z</time>
      </trkpt>
      <trkpt lat="42.2149" lon="22.34917">
        <ele>711.402675</ele>
        <time>2022-04-09T11:55:02.183Z</time>
      </trkpt>
      <trkpt lat="42.21482" lon="22.34909">
        <ele>711.480906</ele>
        <time>2022-04-09T11:55:04.180Z</time>
      </trkpt>
      <trkpt lat="42.21475" lon="22.349">
        <ele>712.575753</ele>
        <time>2022-04-09T11:55:06.204Z</time>
      </trkpt>
      <trkpt lat="42.21467" lon="22.3489">
        <ele>713.758785</ele>
        <time>2022-04-09T11:55:08.208Z</time>
      </trkpt>
      <trkpt lat="42.2146" lon="22.3488">
        <ele>714.829206</ele>
        <time>2022-04-09T11:55:10.189Z</time>
      </trkpt>
      <trkpt lat="42.21453" lon="22.34868">
        <ele>716.069987</ele>
        <time>2022-04-09T11:55:13.182Z</time>
      </trkpt>
      <trkpt lat="42.21447" lon="22.34859">
        <ele>717.044215</ele>
        <time>2022-04-09T11:55:17.195Z</time>
      </trkpt>
      <trkpt lat="42.21442" lon="22.34849">
        <ele>718.032564</ele>
        <time>2022-04-09T11:55:22.176Z</time>
      </trkpt>
      <trkpt lat="42.21439" lon="22.34836">
        <ele>719.129518</ele>
        <time>2022-04-09T11:55:27.185Z</time>
      </trkpt>
      <trkpt lat="42.21436" lon="22.34823">
        <ele>720.204004</ele>
        <time>2022-04-09T11:55:32.191Z</time>
      </trkpt>
      <trkpt lat="42.21435" lon="22.3481">
        <ele>721.210946</ele>
        <time>2022-04-09T11:55:36.207Z</time>
      </trkpt>
      <trkpt lat="42.21432" lon="22.34798">
        <ele>722.238807</ele>
        <time>2022-04-09T11:55:40.184Z</time>
      </trkpt>
      <trkpt lat="42.21428" lon="22.34785">
        <ele>723.402026</ele>
        <time>2022-04-09T11:55:44.186Z</time>
      </trkpt>
      <trkpt lat="42.21425" lon="22.34772">
        <ele>724.442829</ele>
        <time>2022-04-09T11:55:48.177Z</time>
      </trkpt>
      <trkpt lat="42.21422" lon="22.3476">
        <ele>725.471218</ele>
        <time>2022-04-09T11:55:52.185Z</time>
      </trkpt>
      <trkpt lat="42.21419" lon="22.34747">
        <ele>726.565033</ele>
        <time>2022-04-09T11:55:56.238Z</time>
      </trkpt>
      <trkpt lat="42.21417" lon="22.34731">
        <ele>727.829679</ele>
        <time>2022-04-09T11:56:00.196Z</time>
      </trkpt>
      <trkpt lat="42.21414" lon="22.34719">
        <ele>728.824296</ele>
        <time>2022-04-09T11:56:03.193Z</time>
      </trkpt>
      <trkpt lat="42.21409" lon="22.34707">
        <ele>729.952006</ele>
        <time>2022-04-09T11:56:06.241Z</time>
      </trkpt>
      <trkpt lat="42.214" lon="22.34694">
        <ele>729.676306</ele>
        <time>2022-04-09T11:56:09.314Z</time>
      </trkpt>
      <trkpt lat="42.21393" lon="22.34685">
        <ele>728.614329</ele>
        <time>2022-04-09T11:56:11.192Z</time>
      </trkpt>
      <trkpt lat="42.21385" lon="22.34676">
        <ele>727.482243</ele>
        <time>2022-04-09T11:56:13.204Z</time>
      </trkpt>
      <trkpt lat="42.21374" lon="22.3467">
        <ele>726.199224</ele>
        <time>2022-04-09T11:56:15.174Z</time>
      </trkpt>
      <trkpt lat="42.21361" lon="22.34665">
        <ele>724.744547</ele>
        <time>2022-04-09T11:56:17.185Z</time>
      </trkpt>
      <trkpt lat="42.21345" lon="22.34663">
        <ele>723.050968</ele>
        <time>2022-04-09T11:56:19.196Z</time>
      </trkpt>
      <trkpt lat="42.21334" lon="22.34658">
        <ele>721.753525</ele>
        <time>2022-04-09T11:56:21.180Z</time>
      </trkpt>
      <trkpt lat="42.21324" lon="22.34654">
        <ele>720.644608</ele>
        <time>2022-04-09T11:56:23.240Z</time>
      </trkpt>
      <trkpt lat="42.21315" lon="22.34648">
        <ele>719.576517</ele>
        <time>2022-04-09T11:56:25.188Z</time>
      </trkpt>
      <trkpt lat="42.21306" lon="22.34642">
        <ele>718.518908</ele>
        <time>2022-04-09T11:56:27.199Z</time>
      </trkpt>
      <trkpt lat="42.21297" lon="22.34636">
        <ele>717.45554</ele>
        <time>2022-04-09T11:56:29.200Z</time>
      </trkpt>
      <trkpt lat="42.21288" lon="22.34628">
        <ele>716.295049</ele>
        <time>2022-04-09T11:56:31.193Z</time>
      </trkpt>
      <trkpt lat="42.21278" lon="22.34619">
        <ele>715.078619</ele>
        <time>2022-04-09T11:56:33.183Z</time>
      </trkpt>
      <trkpt lat="42.2127" lon="22.34612">
        <ele>714.004124</ele>
        <time>2022-04-09T11:56:35.189Z</time>
      </trkpt>
      <trkpt lat="42.21257" lon="22.34607">
        <ele>712.591286</ele>
        <time>2022-04-09T11:56:38.175Z</time>
      </trkpt>
      <trkpt lat="42.21245" lon="22.34604">
        <ele>711.23255</ele>
        <time>2022-04-09T11:56:41.182Z</time>
      </trkpt>
      <trkpt lat="42.21236" lon="22.34601">
        <ele>710.919635</ele>
        <time>2022-04-09T11:56:44.187Z</time>
      </trkpt>
      <trkpt lat="42.21228" lon="22.34595">
        <ele>710.616326</ele>
        <time>2022-04-09T11:56:47.206Z</time>
      </trkpt>
      <trkpt lat="42.21219" lon="22.34587">
        <ele>710.262066</ele>
        <time>2022-04-09T11:56:50.185Z</time>
      </trkpt>
      <trkpt lat="42.21209" lon="22.3458">
        <ele>709.904041</ele>
        <time>2022-04-09T11:56:53.188Z</time>
      </trkpt>
      <trkpt lat="42.21199" lon="22.34571">
        <ele>709.495491</ele>
        <time>2022-04-09T11:56:56.217Z</time>
      </trkpt>
      <trkpt lat="42.21192" lon="22.34563">
        <ele>709.188573</ele>
        <time>2022-04-09T11:56:58.177Z</time>
      </trkpt>
      <trkpt lat="42.21185" lon="22.34554">
        <ele>708.884635</ele>
        <time>2022-04-09T11:57:00.184Z</time>
      </trkpt>
      <trkpt lat="42.2118" lon="22.34544">
        <ele>708.573516</ele>
        <time>2022-04-09T11:57:02.184Z</time>
      </trkpt>
      <trkpt lat="42.21175" lon="22.34533">
        <ele>708.272499</ele>
        <time>2022-04-09T11:57:04.188Z</time>
      </trkpt>
      <trkpt lat="42.21171" lon="22.34522">
        <ele>707.970654</ele>
        <time>2022-04-09T11:57:06.234Z</time>
      </trkpt>
      <trkpt lat="42.21167" lon="22.34505">
        <ele>707.528342</ele>
        <time>2022-04-09T11:57:09.187Z</time>
      </trkpt>
      <trkpt lat="42.21163" lon="22.3449">
        <ele>707.123641</ele>
        <time>2022-04-09T11:57:12.189Z</time>
      </trkpt>
      <trkpt lat="42.2116" lon="22.34475">
        <ele>706.743522</ele>
        <time>2022-04-09T11:57:15.186Z</time>
      </trkpt>
      <trkpt lat="42.21157" lon="22.34462">
        <ele>706.42919</ele>
        <time>2022-04-09T11:57:18.183Z</time>
      </trkpt>
      <trkpt lat="42.2115" lon="22.34454">
        <ele>706.118539</ele>
        <time>2022-04-09T11:57:26.199Z</time>
      </trkpt>
      <trkpt lat="42.21145" lon="22.34443">
        <ele>705.808829</ele>
        <time>2022-04-09T11:57:31.187Z</time>
      </trkpt>
      <trkpt lat="42.21138" lon="22.34431">
        <ele>705.424695</ele>
        <time>2022-04-09T11:57:35.192Z</time>
      </trkpt>
      <trkpt lat="42.2113" lon="22.34422">
        <ele>705.192692</ele>
        <time>2022-04-09T11:57:38.182Z</time>
      </trkpt>
      <trkpt lat="42.21121" lon="22.34412">
        <ele>705.024319</ele>
        <time>2022-04-09T11:57:41.217Z</time>
      </trkpt>
      <trkpt lat="42.21112" lon="22.34405">
        <ele>704.857087</ele>
        <time>2022-04-09T11:57:44.200Z</time>
      </trkpt>
      <trkpt lat="42.21101" lon="22.34397">
        <ele>704.675786</ele>
        <time>2022-04-09T11:57:47.175Z</time>
      </trkpt>
      <trkpt lat="42.2109" lon="22.3439">
        <ele>704.483085</ele>
        <time>2022-04-09T11:57:50.197Z</time>
      </trkpt>
      <trkpt lat="42.21081" lon="22.34386">
        <ele>704.343684</ele>
        <time>2022-04-09T11:57:52.194Z</time>
      </trkpt>
      <trkpt lat="42.21072" lon="22.34383">
        <ele>704.20136</ele>
        <time>2022-04-09T11:57:54.184Z</time>
      </trkpt>
      <trkpt lat="42.21063" lon="22.34378">
        <ele>704.055507</ele>
        <time>2022-04-09T11:57:56.184Z</time>
      </trkpt>
      <trkpt lat="42.21054" lon="22.34374">
        <ele>703.916973</ele>
        <time>2022-04-09T11:57:58.196Z</time>
      </trkpt>
      <trkpt lat="42.21043" lon="22.34366">
        <ele>703.725558</ele>
        <time>2022-04-09T11:58:01.246Z</time>
      </trkpt>
      <trkpt lat="42.21033" lon="22.34359">
        <ele>703.551233</ele>
        <time>2022-04-09T11:58:04.180Z</time>
      </trkpt>
      <trkpt lat="42.21026" lon="22.3435">
        <ele>703.406537</ele>
        <time>2022-04-09T11:58:07.203Z</time>
      </trkpt>
      <trkpt lat="42.21036" lon="22.3435">
        <ele>703.253744</ele>
        <time>2022-04-09T11:58:11.222Z</time>
      </trkpt>
      <trkpt lat="42.21046" lon="22.34357">
        <ele>703.077083</ele>
        <time>2022-04-09T11:58:13.177Z</time>
      </trkpt>
      <trkpt lat="42.21059" lon="22.34364">
        <ele>702.875586</ele>
        <time>2022-04-09T11:58:15.190Z</time>
      </trkpt>
      <trkpt lat="42.21072" lon="22.34369">
        <ele>702.664663</ele>
        <time>2022-04-09T11:58:17.196Z</time>
      </trkpt>
      <trkpt lat="42.21086" lon="22.34369">
        <ele>702.483326</ele>
        <time>2022-04-09T11:58:19.204Z</time>
      </trkpt>
      <trkpt lat="42.21097" lon="22.34359">
        <ele>702.321358</ele>
        <time>2022-04-09T11:58:21.188Z</time>
      </trkpt>
      <trkpt lat="42.21107" lon="22.34346">
        <ele>702.160978</ele>
        <time>2022-04-09T11:58:23.187Z</time>
      </trkpt>
      <trkpt lat="42.21115" lon="22.34331">
        <ele>702.00211</ele>
        <time>2022-04-09T11:58:25.185Z</time>
      </trkpt>
      <trkpt lat="42.2112" lon="22.34316">
        <ele>701.86084</ele>
        <time>2022-04-09T11:58:27.195Z</time>
      </trkpt>
      <trkpt lat="42.2112" lon="22.343">
        <ele>701.725341</ele>
        <time>2022-04-09T11:58:29.201Z</time>
      </trkpt>
      <trkpt lat="42.21115" lon="22.34288">
        <ele>701.607268</ele>
        <time>2022-04-09T11:58:31.176Z</time>
      </trkpt>
      <trkpt lat="42.21108" lon="22.34279">
        <ele>701.495302</ele>
        <time>2022-04-09T11:58:33.217Z</time>
      </trkpt>
      <trkpt lat="42.21101" lon="22.3427">
        <ele>701.382716</ele>
        <time>2022-04-09T11:58:35.190Z</time>
      </trkpt>
      <trkpt lat="42.21092" lon="22.34256">
        <ele>701.228026</ele>
        <time>2022-04-09T11:58:38.212Z</time>
      </trkpt>
      <trkpt lat="42.21085" lon="22.34243">
        <ele>701.080996</ele>
        <time>2022-04-09T11:58:41.184Z</time>
      </trkpt>
      <trkpt lat="42.21078" lon="22.34231">
        <ele>700.951699</ele>
        <time>2022-04-09T11:58:44.198Z</time>
      </trkpt>
      <trkpt lat="42.21071" lon="22.34219">
        <ele>700.815752</ele>
        <time>2022-04-09T11:58:47.204Z</time>
      </trkpt>
      <trkpt lat="42.21063" lon="22.34205">
        <ele>700.670096</ele>
        <time>2022-04-09T11:58:50.204Z</time>
      </trkpt>
      <trkpt lat="42.21056" lon="22.34192">
        <ele>700.527923</ele>
        <time>2022-04-09T11:58:53.184Z</time>
      </trkpt>
      <trkpt lat="42.21052" lon="22.3418">
        <ele>700.332098</ele>
        <time>2022-04-09T11:58:56.237Z</time>
      </trkpt>
      <trkpt lat="42.21059" lon="22.34169">
        <ele>699.99361</ele>
        <time>2022-04-09T11:59:01.254Z</time>
      </trkpt>
      <trkpt lat="42.21068" lon="22.34164">
        <ele>699.681441</ele>
        <time>2022-04-09T11:59:05.219Z</time>
      </trkpt>
      <trkpt lat="42.21073" lon="22.34152">
        <ele>699.389541</ele>
        <time>2022-04-09T11:59:10.211Z</time>
      </trkpt>
      <trkpt lat="42.21076" lon="22.3414">
        <ele>699.088957</ele>
        <time>2022-04-09T11:59:14.188Z</time>
      </trkpt>
      <trkpt lat="42.21071" lon="22.34125">
        <ele>698.712579</ele>
        <time>2022-04-09T11:59:18.187Z</time>
      </trkpt>
      <trkpt lat="42.21062" lon="22.34116">
        <ele>698.381836</ele>
        <time>2022-04-09T11:59:21.194Z</time>
      </trkpt>
      <trkpt lat="42.21054" lon="22.34108">
        <ele>698.063014</ele>
        <time>2022-04-09T11:59:24.224Z</time>
      </trkpt>
      <trkpt lat="42.21045" lon="22.34101">
        <ele>697.736335</ele>
        <time>2022-04-09T11:59:27.202Z</time>
      </trkpt>
      <trkpt lat="42.21036" lon="22.34094">
        <ele>697.406032</ele>
        <time>2022-04-09T11:59:30.190Z</time>
      </trkpt>
      <trkpt lat="42.21026" lon="22.34086">
        <ele>697.065362</ele>
        <time>2022-04-09T11:59:33.188Z</time>
      </trkpt>
      <trkpt lat="42.21014" lon="22.3408">
        <ele>696.673754</ele>
        <time>2022-04-09T11:59:36.222Z</time>
      </trkpt>
      <trkpt lat="42.21006" lon="22.34075">
        <ele>696.379329</ele>
        <time>2022-04-09T11:59:38.194Z</time>
      </trkpt>
      <trkpt lat="42.20997" lon="22.3407">
        <ele>696.087914</ele>
        <time>2022-04-09T11:59:40.186Z</time>
      </trkpt>
      <trkpt lat="42.20989" lon="22.34064">
        <ele>695.796929</ele>
        <time>2022-04-09T11:59:42.177Z</time>
      </trkpt>
      <trkpt lat="42.20977" lon="22.34054">
        <ele>695.376284</ele>
        <time>2022-04-09T11:59:45.235Z</time>
      </trkpt>
      <trkpt lat="42.20969" lon="22.34049">
        <ele>695.091217</ele>
        <time>2022-04-09T11:59:47.220Z</time>
      </trkpt>
      <trkpt lat="42.20961" lon="22.34043">
        <ele>694.852361</ele>
        <time>2022-04-09T11:59:49.188Z</time>
      </trkpt>
      <trkpt lat="42.20953" lon="22.34037">
        <ele>694.730475</ele>
        <time>2022-04-09T11:59:51.187Z</time>
      </trkpt>
      <trkpt lat="42.20942" lon="22.34027">
        <ele>694.554773</ele>
        <time>2022-04-09T11:59:54.190Z</time>
      </trkpt>
      <trkpt lat="42.20935" lon="22.3402">
        <ele>694.431909</ele>
        <time>2022-04-09T11:59:56.184Z</time>
      </trkpt>
      <trkpt lat="42.20928" lon="22.34012">
        <ele>694.302943</ele>
        <time>2022-04-09T11:59:58.192Z</time>
      </trkpt>
      <trkpt lat="42.2092" lon="22.34004">
        <ele>694.177343</ele>
        <time>2022-04-09T12:00:00.192Z</time>
      </trkpt>
      <trkpt lat="42.20911" lon="22.33993">
        <ele>694.007612</ele>
        <time>2022-04-09T12:00:03.166Z</time>
      </trkpt>
      <trkpt lat="42.20902" lon="22.33982">
        <ele>693.842197</ele>
        <time>2022-04-09T12:00:06.239Z</time>
      </trkpt>
      <trkpt lat="42.20895" lon="22.33974">
        <ele>693.713394</ele>
        <time>2022-04-09T12:00:08.180Z</time>
      </trkpt>
      <trkpt lat="42.20888" lon="22.33965">
        <ele>693.589914</ele>
        <time>2022-04-09T12:00:10.187Z</time>
      </trkpt>
      <trkpt lat="42.20883" lon="22.33955">
        <ele>693.469041</ele>
        <time>2022-04-09T12:00:12.179Z</time>
      </trkpt>
      <trkpt lat="42.20877" lon="22.33945">
        <ele>693.337684</ele>
        <time>2022-04-09T12:00:14.187Z</time>
      </trkpt>
      <trkpt lat="42.20871" lon="22.33935">
        <ele>693.20629</ele>
        <time>2022-04-09T12:00:16.178Z</time>
      </trkpt>
      <trkpt lat="42.20866" lon="22.33923">
        <ele>693.06877</ele>
        <time>2022-04-09T12:00:18.199Z</time>
      </trkpt>
      <trkpt lat="42.2086" lon="22.3391">
        <ele>692.922602</ele>
        <time>2022-04-09T12:00:20.202Z</time>
      </trkpt>
      <trkpt lat="42.20855" lon="22.33897">
        <ele>692.774454</ele>
        <time>2022-04-09T12:00:22.180Z</time>
      </trkpt>
      <trkpt lat="42.2085" lon="22.33884">
        <ele>692.626683</ele>
        <time>2022-04-09T12:00:24.183Z</time>
      </trkpt>
      <trkpt lat="42.20845" lon="22.33872">
        <ele>692.48701</ele>
        <time>2022-04-09T12:00:26.193Z</time>
      </trkpt>
      <trkpt lat="42.2084" lon="22.33859">
        <ele>692.388078</ele>
        <time>2022-04-09T12:00:28.185Z</time>
      </trkpt>
      <trkpt lat="42.20836" lon="22.33846">
        <ele>692.307987</ele>
        <time>2022-04-09T12:00:30.201Z</time>
      </trkpt>
      <trkpt lat="42.20831" lon="22.33834">
        <ele>692.227333</ele>
        <time>2022-04-09T12:00:32.177Z</time>
      </trkpt>
      <trkpt lat="42.20827" lon="22.33822">
        <ele>692.156267</ele>
        <time>2022-04-09T12:00:34.186Z</time>
      </trkpt>
      <trkpt lat="42.20822" lon="22.33811">
        <ele>692.07864</ele>
        <time>2022-04-09T12:00:36.190Z</time>
      </trkpt>
      <trkpt lat="42.20817" lon="22.33796">
        <ele>691.986931</ele>
        <time>2022-04-09T12:00:38.186Z</time>
      </trkpt>
      <trkpt lat="42.20813" lon="22.33782">
        <ele>691.901651</ele>
        <time>2022-04-09T12:00:40.219Z</time>
      </trkpt>
      <trkpt lat="42.2081" lon="22.33769">
        <ele>691.822787</ele>
        <time>2022-04-09T12:00:42.189Z</time>
      </trkpt>
      <trkpt lat="42.20806" lon="22.33756">
        <ele>691.745256</ele>
        <time>2022-04-09T12:00:44.177Z</time>
      </trkpt>
      <trkpt lat="42.20803" lon="22.33744">
        <ele>691.670668</ele>
        <time>2022-04-09T12:00:46.192Z</time>
      </trkpt>
      <trkpt lat="42.208" lon="22.33731">
        <ele>691.594746</ele>
        <time>2022-04-09T12:00:48.205Z</time>
      </trkpt>
      <trkpt lat="42.20796" lon="22.33719">
        <ele>691.518548</ele>
        <time>2022-04-09T12:00:50.204Z</time>
      </trkpt>
      <trkpt lat="42.20793" lon="22.33707">
        <ele>691.443694</ele>
        <time>2022-04-09T12:00:52.183Z</time>
      </trkpt>
      <trkpt lat="42.2079" lon="22.33694">
        <ele>691.370178</ele>
        <time>2022-04-09T12:00:54.188Z</time>
      </trkpt>
      <trkpt lat="42.20786" lon="22.33683">
        <ele>691.297988</ele>
        <time>2022-04-09T12:00:56.196Z</time>
      </trkpt>
      <trkpt lat="42.20783" lon="22.33671">
        <ele>691.22714</ele>
        <time>2022-04-09T12:00:58.196Z</time>
      </trkpt>
      <trkpt lat="42.2078" lon="22.33659">
        <ele>691.155172</ele>
        <time>2022-04-09T12:01:00.187Z</time>
      </trkpt>
      <trkpt lat="42.20775" lon="22.33643">
        <ele>691.033896</ele>
        <time>2022-04-09T12:01:03.196Z</time>
      </trkpt>
      <trkpt lat="42.20772" lon="22.33631">
        <ele>690.829095</ele>
        <time>2022-04-09T12:01:05.190Z</time>
      </trkpt>
      <trkpt lat="42.20767" lon="22.33615">
        <ele>690.536216</ele>
        <time>2022-04-09T12:01:08.188Z</time>
      </trkpt>
      <trkpt lat="42.20761" lon="22.336">
        <ele>690.24252</ele>
        <time>2022-04-09T12:01:11.189Z</time>
      </trkpt>
      <trkpt lat="42.20754" lon="22.33584">
        <ele>689.939917</ele>
        <time>2022-04-09T12:01:14.187Z</time>
      </trkpt>
      <trkpt lat="42.20747" lon="22.33569">
        <ele>689.642316</ele>
        <time>2022-04-09T12:01:17.192Z</time>
      </trkpt>
      <trkpt lat="42.20739" lon="22.33555">
        <ele>689.348018</ele>
        <time>2022-04-09T12:01:20.203Z</time>
      </trkpt>
      <trkpt lat="42.2073" lon="22.33542">
        <ele>689.047566</ele>
        <time>2022-04-09T12:01:23.192Z</time>
      </trkpt>
      <trkpt lat="42.20723" lon="22.33534">
        <ele>688.837989</ele>
        <time>2022-04-09T12:01:25.199Z</time>
      </trkpt>
      <trkpt lat="42.20717" lon="22.33526">
        <ele>688.634978</ele>
        <time>2022-04-09T12:01:27.189Z</time>
      </trkpt>
      <trkpt lat="42.20709" lon="22.33518">
        <ele>688.423089</ele>
        <time>2022-04-09T12:01:29.212Z</time>
      </trkpt>
      <trkpt lat="42.20702" lon="22.3351">
        <ele>688.209867</ele>
        <time>2022-04-09T12:01:31.184Z</time>
      </trkpt>
      <trkpt lat="42.20695" lon="22.33502">
        <ele>687.995386</ele>
        <time>2022-04-09T12:01:33.176Z</time>
      </trkpt>
      <trkpt lat="42.20687" lon="22.33495">
        <ele>687.781045</ele>
        <time>2022-04-09T12:01:35.184Z</time>
      </trkpt>
      <trkpt lat="42.20679" lon="22.33488">
        <ele>687.563007</ele>
        <time>2022-04-09T12:01:37.185Z</time>
      </trkpt>
      <trkpt lat="42.20671" lon="22.33481">
        <ele>687.350606</ele>
        <time>2022-04-09T12:01:39.180Z</time>
      </trkpt>
      <trkpt lat="42.20661" lon="22.33471">
        <ele>687.074274</ele>
        <time>2022-04-09T12:01:42.190Z</time>
      </trkpt>
      <trkpt lat="42.20652" lon="22.33461">
        <ele>686.723491</ele>
        <time>2022-04-09T12:01:45.192Z</time>
      </trkpt>
      <trkpt lat="42.20645" lon="22.33453">
        <ele>686.427247</ele>
        <time>2022-04-09T12:01:47.192Z</time>
      </trkpt>
      <trkpt lat="42.20637" lon="22.33445">
        <ele>686.111755</ele>
        <time>2022-04-09T12:01:49.181Z</time>
      </trkpt>
      <trkpt lat="42.20629" lon="22.33437">
        <ele>685.786224</ele>
        <time>2022-04-09T12:01:51.179Z</time>
      </trkpt>
      <trkpt lat="42.20622" lon="22.33429">
        <ele>685.471942</ele>
        <time>2022-04-09T12:01:53.202Z</time>
      </trkpt>
      <trkpt lat="42.20613" lon="22.33421">
        <ele>685.114456</ele>
        <time>2022-04-09T12:01:55.180Z</time>
      </trkpt>
      <trkpt lat="42.20604" lon="22.33413">
        <ele>684.779894</ele>
        <time>2022-04-09T12:01:57.184Z</time>
      </trkpt>
      <trkpt lat="42.20596" lon="22.33405">
        <ele>684.450605</ele>
        <time>2022-04-09T12:01:59.187Z</time>
      </trkpt>
      <trkpt lat="42.20588" lon="22.33397">
        <ele>684.12162</ele>
        <time>2022-04-09T12:02:01.195Z</time>
      </trkpt>
      <trkpt lat="42.2058" lon="22.33389">
        <ele>683.801623</ele>
        <time>2022-04-09T12:02:03.171Z</time>
      </trkpt>
      <trkpt lat="42.20573" lon="22.33381">
        <ele>683.491399</ele>
        <time>2022-04-09T12:02:05.185Z</time>
      </trkpt>
      <trkpt lat="42.20565" lon="22.33373">
        <ele>683.165866</ele>
        <time>2022-04-09T12:02:07.202Z</time>
      </trkpt>
      <trkpt lat="42.20557" lon="22.33364">
        <ele>682.825815</ele>
        <time>2022-04-09T12:02:09.188Z</time>
      </trkpt>
      <trkpt lat="42.20548" lon="22.33356">
        <ele>682.487188</ele>
        <time>2022-04-09T12:02:11.199Z</time>
      </trkpt>
      <trkpt lat="42.2054" lon="22.33348">
        <ele>682.163566</ele>
        <time>2022-04-09T12:02:13.172Z</time>
      </trkpt>
      <trkpt lat="42.20532" lon="22.33341">
        <ele>681.834259</ele>
        <time>2022-04-09T12:02:15.204Z</time>
      </trkpt>
      <trkpt lat="42.20523" lon="22.33334">
        <ele>681.492997</ele>
        <time>2022-04-09T12:02:17.183Z</time>
      </trkpt>
      <trkpt lat="42.20513" lon="22.33327">
        <ele>681.146335</ele>
        <time>2022-04-09T12:02:19.184Z</time>
      </trkpt>
      <trkpt lat="42.20503" lon="22.33321">
        <ele>681.136618</ele>
        <time>2022-04-09T12:02:21.184Z</time>
      </trkpt>
      <trkpt lat="42.20492" lon="22.33316">
        <ele>681.165776</ele>
        <time>2022-04-09T12:02:23.175Z</time>
      </trkpt>
      <trkpt lat="42.20481" lon="22.33312">
        <ele>681.196172</ele>
        <time>2022-04-09T12:02:25.187Z</time>
      </trkpt>
      <trkpt lat="42.20471" lon="22.3331">
        <ele>681.22372</ele>
        <time>2022-04-09T12:02:27.184Z</time>
      </trkpt>
      <trkpt lat="42.2046" lon="22.33309">
        <ele>681.250913</ele>
        <time>2022-04-09T12:02:29.207Z</time>
      </trkpt>
      <trkpt lat="42.2045" lon="22.33308">
        <ele>681.278012</ele>
        <time>2022-04-09T12:02:31.181Z</time>
      </trkpt>
      <trkpt lat="42.20439" lon="22.33309">
        <ele>681.304368</ele>
        <time>2022-04-09T12:02:33.185Z</time>
      </trkpt>
      <trkpt lat="42.20429" lon="22.3331">
        <ele>681.330037</ele>
        <time>2022-04-09T12:02:35.186Z</time>
      </trkpt>
      <trkpt lat="42.2042" lon="22.33313">
        <ele>681.354166</ele>
        <time>2022-04-09T12:02:37.176Z</time>
      </trkpt>
      <trkpt lat="42.20412" lon="22.33317">
        <ele>681.377763</ele>
        <time>2022-04-09T12:02:39.202Z</time>
      </trkpt>
      <trkpt lat="42.20403" lon="22.33321">
        <ele>681.401543</ele>
        <time>2022-04-09T12:02:41.182Z</time>
      </trkpt>
      <trkpt lat="42.20394" lon="22.33326">
        <ele>681.42673</ele>
        <time>2022-04-09T12:02:43.182Z</time>
      </trkpt>
      <trkpt lat="42.20385" lon="22.33331">
        <ele>681.452231</ele>
        <time>2022-04-09T12:02:45.204Z</time>
      </trkpt>
      <trkpt lat="42.20376" lon="22.33336">
        <ele>681.47749</ele>
        <time>2022-04-09T12:02:47.222Z</time>
      </trkpt>
      <trkpt lat="42.20367" lon="22.33342">
        <ele>681.501667</ele>
        <time>2022-04-09T12:02:49.181Z</time>
      </trkpt>
      <trkpt lat="42.20359" lon="22.33347">
        <ele>681.526063</ele>
        <time>2022-04-09T12:02:51.185Z</time>
      </trkpt>
      <trkpt lat="42.2035" lon="22.33353">
        <ele>681.550411</ele>
        <time>2022-04-09T12:02:53.202Z</time>
      </trkpt>
      <trkpt lat="42.20342" lon="22.33359">
        <ele>681.574072</ele>
        <time>2022-04-09T12:02:55.183Z</time>
      </trkpt>
      <trkpt lat="42.20331" lon="22.33366">
        <ele>681.781838</ele>
        <time>2022-04-09T12:02:58.230Z</time>
      </trkpt>
      <trkpt lat="42.2032" lon="22.33373">
        <ele>681.981208</ele>
        <time>2022-04-09T12:03:01.179Z</time>
      </trkpt>
      <trkpt lat="42.20308" lon="22.33381">
        <ele>682.191803</ele>
        <time>2022-04-09T12:03:04.185Z</time>
      </trkpt>
      <trkpt lat="42.20296" lon="22.33389">
        <ele>682.409672</ele>
        <time>2022-04-09T12:03:07.204Z</time>
      </trkpt>
      <trkpt lat="42.20284" lon="22.33397">
        <ele>682.630597</ele>
        <time>2022-04-09T12:03:10.189Z</time>
      </trkpt>
      <trkpt lat="42.20275" lon="22.33402">
        <ele>682.789211</ele>
        <time>2022-04-09T12:03:12.186Z</time>
      </trkpt>
      <trkpt lat="42.20267" lon="22.33406">
        <ele>682.939889</ele>
        <time>2022-04-09T12:03:14.181Z</time>
      </trkpt>
      <trkpt lat="42.20257" lon="22.334">
        <ele>683.107803</ele>
        <time>2022-04-09T12:03:18.191Z</time>
      </trkpt>
      <trkpt lat="42.20246" lon="22.33397">
        <ele>683.297096</ele>
        <time>2022-04-09T12:03:23.199Z</time>
      </trkpt>
      <trkpt lat="42.20235" lon="22.33395">
        <ele>683.469596</ele>
        <time>2022-04-09T12:03:26.199Z</time>
      </trkpt>
      <trkpt lat="42.20224" lon="22.33391">
        <ele>683.668666</ele>
        <time>2022-04-09T12:03:29.195Z</time>
      </trkpt>
      <trkpt lat="42.20211" lon="22.33385">
        <ele>683.883304</ele>
        <time>2022-04-09T12:03:32.203Z</time>
      </trkpt>
      <trkpt lat="42.20201" lon="22.33379">
        <ele>684.075253</ele>
        <time>2022-04-09T12:03:36.215Z</time>
      </trkpt>
      <trkpt lat="42.20194" lon="22.33366">
        <ele>684.265216</ele>
        <time>2022-04-09T12:03:39.192Z</time>
      </trkpt>
      <trkpt lat="42.20185" lon="22.33353">
        <ele>684.479216</ele>
        <time>2022-04-09T12:03:42.182Z</time>
      </trkpt>
      <trkpt lat="42.20178" lon="22.33345">
        <ele>684.714008</ele>
        <time>2022-04-09T12:03:44.185Z</time>
      </trkpt>
      <trkpt lat="42.20168" lon="22.33334">
        <ele>685.098914</ele>
        <time>2022-04-09T12:03:47.266Z</time>
      </trkpt>
      <trkpt lat="42.20159" lon="22.33324">
        <ele>685.457896</ele>
        <time>2022-04-09T12:03:50.183Z</time>
      </trkpt>
      <trkpt lat="42.20151" lon="22.33315">
        <ele>685.787328</ele>
        <time>2022-04-09T12:03:53.185Z</time>
      </trkpt>
      <trkpt lat="42.20143" lon="22.33304">
        <ele>686.101504</ele>
        <time>2022-04-09T12:03:57.180Z</time>
      </trkpt>
      <trkpt lat="42.20137" lon="22.33292">
        <ele>686.440638</ele>
        <time>2022-04-09T12:04:03.186Z</time>
      </trkpt>
      <trkpt lat="42.20137" lon="22.33279">
        <ele>686.715087</ele>
        <time>2022-04-09T12:04:06.182Z</time>
      </trkpt>
      <trkpt lat="42.20141" lon="22.33268">
        <ele>686.993977</ele>
        <time>2022-04-09T12:04:09.201Z</time>
      </trkpt>
      <trkpt lat="42.2015" lon="22.33263">
        <ele>687.284573</ele>
        <time>2022-04-09T12:04:14.184Z</time>
      </trkpt>
      <trkpt lat="42.20159" lon="22.3327">
        <ele>687.590125</ele>
        <time>2022-04-09T12:04:20.201Z</time>
      </trkpt>
      <trkpt lat="42.20163" lon="22.33282">
        <ele>687.8969</ele>
        <time>2022-04-09T12:04:25.197Z</time>
      </trkpt>
      <trkpt lat="42.20166" lon="22.33294">
        <ele>688.180859</ele>
        <time>2022-04-09T12:04:30.198Z</time>
      </trkpt>
      <trkpt lat="42.20169" lon="22.33308">
        <ele>688.491675</ele>
        <time>2022-04-09T12:04:35.223Z</time>
      </trkpt>
      <trkpt lat="42.20174" lon="22.33318">
        <ele>688.764818</ele>
        <time>2022-04-09T12:04:41.172Z</time>
      </trkpt>
      <trkpt lat="42.20179" lon="22.3333">
        <ele>689.055802</ele>
        <time>2022-04-09T12:04:47.198Z</time>
      </trkpt>
      <trkpt lat="42.20185" lon="22.3334">
        <ele>689.362174</ele>
        <time>2022-04-09T12:04:53.196Z</time>
      </trkpt>
      <trkpt lat="42.20192" lon="22.33349">
        <ele>689.634802</ele>
        <time>2022-04-09T12:04:58.219Z</time>
      </trkpt>
      <trkpt lat="42.20198" lon="22.33358">
        <ele>689.915025</ele>
        <time>2022-04-09T12:05:03.206Z</time>
      </trkpt>
      <trkpt lat="42.20195" lon="22.33372">
        <ele>689.937212</ele>
        <time>2022-04-09T12:05:08.206Z</time>
      </trkpt>
      <trkpt lat="42.20193" lon="22.33387">
        <ele>689.937212</ele>
        <time>2022-04-09T12:05:12.205Z</time>
      </trkpt>
      <trkpt lat="42.20191" lon="22.33402">
        <ele>689.937212</ele>
        <time>2022-04-09T12:05:16.199Z</time>
      </trkpt>
      <trkpt lat="42.20187" lon="22.33417">
        <ele>689.937212</ele>
        <time>2022-04-09T12:05:20.193Z</time>
      </trkpt>
      <trkpt lat="42.20185" lon="22.33429">
        <ele>689.937212</ele>
        <time>2022-04-09T12:05:23.189Z</time>
      </trkpt>
      <trkpt lat="42.20182" lon="22.33442">
        <ele>689.937212</ele>
        <time>2022-04-09T12:05:27.203Z</time>
      </trkpt>
      <trkpt lat="42.20176" lon="22.33451">
        <ele>689.937212</ele>
        <time>2022-04-09T12:05:32.204Z</time>
      </trkpt>
      <trkpt lat="42.20167" lon="22.3345">
        <ele>689.937212</ele>
        <time>2022-04-09T12:05:35.189Z</time>
      </trkpt>
      <trkpt lat="42.20156" lon="22.33448">
        <ele>689.937212</ele>
        <time>2022-04-09T12:05:38.202Z</time>
      </trkpt>
      <trkpt lat="42.20147" lon="22.33445">
        <ele>689.937212</ele>
        <time>2022-04-09T12:05:44.177Z</time>
      </trkpt>
      <trkpt lat="42.20136" lon="22.33443">
        <ele>689.937212</ele>
        <time>2022-04-09T12:05:51.192Z</time>
      </trkpt>
      <trkpt lat="42.20138" lon="22.33442">
        <ele>689.937212</ele>
        <time>2022-04-09T12:08:03.013Z</time>
      </trkpt>
    </trkseg>
  </trk>
</gpx>